<?xml version="1.0" encoding="UTF-8" standalone="no" ?>
<gpx xmlns="http://www.topografix.com/GPX/1/1" xmlns:xsi="http://www.w3.org/2001/XMLSchema-instance" xsi:schemaLocation="http://www.topografix.com/GPX/1/1 http://www.topografix.com/GPX/1/1/gpx.xsd" version="1.1" creator="VisuGPX - https://www.visugpx.com">
  <metadata>
    <name>Pornichet 19/08/2021</name>
    <desc><![CDATA[Sortie VTT jeudi 19 août 2021]]></desc>
  </metadata>
  <trk>
    <name><![CDATA[Pornichet Cyclisme]]></name>
    <trkseg>
      <trkpt lat="47.26431" lon="-2.31645">
        <ele>9.3</ele>
        <time>2021-08-19T06:47:22.000Z</time>
      </trkpt>
      <trkpt lat="47.26429" lon="-2.31658">
        <ele>8.7</ele>
        <time>2021-08-19T06:47:26.000Z</time>
      </trkpt>
      <trkpt lat="47.26428" lon="-2.31662">
        <ele>-0.20000000298023</ele>
        <time>2021-08-19T06:47:27.000Z</time>
      </trkpt>
      <trkpt lat="47.26428" lon="-2.31668">
        <ele>-0.20000000298023</ele>
        <time>2021-08-19T06:47:29.000Z</time>
      </trkpt>
      <trkpt lat="47.26424" lon="-2.31675">
        <ele>-0.20000000298023</ele>
        <time>2021-08-19T06:47:32.000Z</time>
      </trkpt>
      <trkpt lat="47.26421" lon="-2.31674">
        <ele>-0.20000000298023</ele>
        <time>2021-08-19T06:47:33.000Z</time>
      </trkpt>
      <trkpt lat="47.26405" lon="-2.31672">
        <ele>-0.20000000298023</ele>
        <time>2021-08-19T06:47:38.000Z</time>
      </trkpt>
      <trkpt lat="47.26383" lon="-2.31678">
        <ele>-0.20000000298023</ele>
        <time>2021-08-19T06:47:43.000Z</time>
      </trkpt>
      <trkpt lat="47.26358" lon="-2.31687">
        <ele>-0.20000000298023</ele>
        <time>2021-08-19T06:47:48.000Z</time>
      </trkpt>
      <trkpt lat="47.26352" lon="-2.31689">
        <ele>-0.60000002384186</ele>
        <time>2021-08-19T06:47:49.000Z</time>
      </trkpt>
      <trkpt lat="47.26346" lon="-2.31691">
        <ele>-1</ele>
        <time>2021-08-19T06:47:50.000Z</time>
      </trkpt>
      <trkpt lat="47.26341" lon="-2.31693">
        <ele>-1.3999999761581</ele>
        <time>2021-08-19T06:47:51.000Z</time>
      </trkpt>
      <trkpt lat="47.26335" lon="-2.31695">
        <ele>-1.7999999523163</ele>
        <time>2021-08-19T06:47:52.000Z</time>
      </trkpt>
      <trkpt lat="47.26331" lon="-2.31696">
        <ele>-2.2000000476837</ele>
        <time>2021-08-19T06:47:53.000Z</time>
      </trkpt>
      <trkpt lat="47.26326" lon="-2.31699">
        <ele>-2.2000000476837</ele>
        <time>2021-08-19T06:47:54.000Z</time>
      </trkpt>
      <trkpt lat="47.26321" lon="-2.31705">
        <ele>-2.2000000476837</ele>
        <time>2021-08-19T06:47:56.000Z</time>
      </trkpt>
      <trkpt lat="47.2632" lon="-2.31714">
        <ele>-2.2000000476837</ele>
        <time>2021-08-19T06:47:58.000Z</time>
      </trkpt>
      <trkpt lat="47.2632" lon="-2.31719">
        <ele>-2.5999999046326</ele>
        <time>2021-08-19T06:47:59.000Z</time>
      </trkpt>
      <trkpt lat="47.2632" lon="-2.31725">
        <ele>-3.2000000476837</ele>
        <time>2021-08-19T06:48:00.000Z</time>
      </trkpt>
      <trkpt lat="47.2632" lon="-2.31732">
        <ele>-3.5999999046326</ele>
        <time>2021-08-19T06:48:01.000Z</time>
      </trkpt>
      <trkpt lat="47.2632" lon="-2.31739">
        <ele>-4</ele>
        <time>2021-08-19T06:48:02.000Z</time>
      </trkpt>
      <trkpt lat="47.26319" lon="-2.31745">
        <ele>-4.4000000953674</ele>
        <time>2021-08-19T06:48:03.000Z</time>
      </trkpt>
      <trkpt lat="47.26319" lon="-2.31767">
        <ele>-4.4000000953674</ele>
        <time>2021-08-19T06:48:07.000Z</time>
      </trkpt>
      <trkpt lat="47.26319" lon="-2.31807">
        <ele>-4.4000000953674</ele>
        <time>2021-08-19T06:48:13.000Z</time>
      </trkpt>
      <trkpt lat="47.26318" lon="-2.31813">
        <ele>-4.4000000953674</ele>
        <time>2021-08-19T06:48:15.000Z</time>
      </trkpt>
      <trkpt lat="47.26314" lon="-2.31846">
        <ele>-4.4000000953674</ele>
        <time>2021-08-19T06:48:21.000Z</time>
      </trkpt>
      <trkpt lat="47.26303" lon="-2.31858">
        <ele>-4.4000000953674</ele>
        <time>2021-08-19T06:48:26.000Z</time>
      </trkpt>
      <trkpt lat="47.26288" lon="-2.31876">
        <ele>-4.4000000953674</ele>
        <time>2021-08-19T06:48:31.000Z</time>
      </trkpt>
      <trkpt lat="47.26277" lon="-2.31895">
        <ele>-4.4000000953674</ele>
        <time>2021-08-19T06:48:35.000Z</time>
      </trkpt>
      <trkpt lat="47.26271" lon="-2.31904">
        <ele>-4.4000000953674</ele>
        <time>2021-08-19T06:48:37.000Z</time>
      </trkpt>
      <trkpt lat="47.26265" lon="-2.31913">
        <ele>-4.4000000953674</ele>
        <time>2021-08-19T06:48:39.000Z</time>
      </trkpt>
      <trkpt lat="47.26258" lon="-2.31919">
        <ele>-4.4000000953674</ele>
        <time>2021-08-19T06:48:41.000Z</time>
      </trkpt>
      <trkpt lat="47.26245" lon="-2.31929">
        <ele>-4.4000000953674</ele>
        <time>2021-08-19T06:48:46.000Z</time>
      </trkpt>
      <trkpt lat="47.26226" lon="-2.31945">
        <ele>-4.4000000953674</ele>
        <time>2021-08-19T06:48:52.000Z</time>
      </trkpt>
      <trkpt lat="47.26224" lon="-2.31949">
        <ele>-4.4000000953674</ele>
        <time>2021-08-19T06:48:53.000Z</time>
      </trkpt>
      <trkpt lat="47.2622" lon="-2.31962">
        <ele>-4.4000000953674</ele>
        <time>2021-08-19T06:48:56.000Z</time>
      </trkpt>
      <trkpt lat="47.26213" lon="-2.31964">
        <ele>-4.4000000953674</ele>
        <time>2021-08-19T06:48:59.000Z</time>
      </trkpt>
      <trkpt lat="47.26211" lon="-2.31964">
        <ele>-4.4000000953674</ele>
        <time>2021-08-19T06:49:00.000Z</time>
      </trkpt>
      <trkpt lat="47.26197" lon="-2.31966">
        <ele>-4.4000000953674</ele>
        <time>2021-08-19T06:49:04.000Z</time>
      </trkpt>
      <trkpt lat="47.2618" lon="-2.31979">
        <ele>-4.4000000953674</ele>
        <time>2021-08-19T06:49:09.000Z</time>
      </trkpt>
      <trkpt lat="47.26178" lon="-2.31984">
        <ele>-4.4000000953674</ele>
        <time>2021-08-19T06:49:10.000Z</time>
      </trkpt>
      <trkpt lat="47.2617" lon="-2.32009">
        <ele>-4.4000000953674</ele>
        <time>2021-08-19T06:49:14.000Z</time>
      </trkpt>
      <trkpt lat="47.26168" lon="-2.32015">
        <ele>-4.4000000953674</ele>
        <time>2021-08-19T06:49:15.000Z</time>
      </trkpt>
      <trkpt lat="47.2616" lon="-2.32041">
        <ele>-4.4000000953674</ele>
        <time>2021-08-19T06:49:19.000Z</time>
      </trkpt>
      <trkpt lat="47.26155" lon="-2.32055">
        <ele>-4.4000000953674</ele>
        <time>2021-08-19T06:49:21.000Z</time>
      </trkpt>
      <trkpt lat="47.26144" lon="-2.32093">
        <ele>-4</ele>
        <time>2021-08-19T06:49:27.000Z</time>
      </trkpt>
      <trkpt lat="47.26142" lon="-2.321">
        <ele>-3.5999999046326</ele>
        <time>2021-08-19T06:49:28.000Z</time>
      </trkpt>
      <trkpt lat="47.26139" lon="-2.32106">
        <ele>-2.7999999523163</ele>
        <time>2021-08-19T06:49:29.000Z</time>
      </trkpt>
      <trkpt lat="47.26137" lon="-2.32113">
        <ele>-2.4000000953674</ele>
        <time>2021-08-19T06:49:30.000Z</time>
      </trkpt>
      <trkpt lat="47.26126" lon="-2.32139">
        <ele>-2.4000000953674</ele>
        <time>2021-08-19T06:49:34.000Z</time>
      </trkpt>
      <trkpt lat="47.26121" lon="-2.32152">
        <ele>-2.4000000953674</ele>
        <time>2021-08-19T06:49:36.000Z</time>
      </trkpt>
      <trkpt lat="47.26105" lon="-2.3218">
        <ele>-2.4000000953674</ele>
        <time>2021-08-19T06:49:41.000Z</time>
      </trkpt>
      <trkpt lat="47.26079" lon="-2.32213">
        <ele>-2.4000000953674</ele>
        <time>2021-08-19T06:49:48.000Z</time>
      </trkpt>
      <trkpt lat="47.26047" lon="-2.32249">
        <ele>-2.4000000953674</ele>
        <time>2021-08-19T06:49:56.000Z</time>
      </trkpt>
      <trkpt lat="47.2602" lon="-2.3228">
        <ele>-2.4000000953674</ele>
        <time>2021-08-19T06:50:03.000Z</time>
      </trkpt>
      <trkpt lat="47.25994" lon="-2.32316">
        <ele>-2.4000000953674</ele>
        <time>2021-08-19T06:50:10.000Z</time>
      </trkpt>
      <trkpt lat="47.25969" lon="-2.32351">
        <ele>-2.4000000953674</ele>
        <time>2021-08-19T06:50:17.000Z</time>
      </trkpt>
      <trkpt lat="47.25945" lon="-2.32381">
        <ele>-2</ele>
        <time>2021-08-19T06:50:23.000Z</time>
      </trkpt>
      <trkpt lat="47.25941" lon="-2.32386">
        <ele>-1.6000000238419</ele>
        <time>2021-08-19T06:50:24.000Z</time>
      </trkpt>
      <trkpt lat="47.25937" lon="-2.32391">
        <ele>-1.2000000476837</ele>
        <time>2021-08-19T06:50:25.000Z</time>
      </trkpt>
      <trkpt lat="47.25933" lon="-2.32395">
        <ele>-0.80000001192093</ele>
        <time>2021-08-19T06:50:26.000Z</time>
      </trkpt>
      <trkpt lat="47.25929" lon="-2.32399">
        <ele>-0.40000000596046</ele>
        <time>2021-08-19T06:50:27.000Z</time>
      </trkpt>
      <trkpt lat="47.25922" lon="-2.32409">
        <ele>-0.40000000596046</ele>
        <time>2021-08-19T06:50:29.000Z</time>
      </trkpt>
      <trkpt lat="47.2592" lon="-2.32419">
        <ele>-0.40000000596046</ele>
        <time>2021-08-19T06:50:31.000Z</time>
      </trkpt>
      <trkpt lat="47.25927" lon="-2.32434">
        <ele>-0.40000000596046</ele>
        <time>2021-08-19T06:50:35.000Z</time>
      </trkpt>
      <trkpt lat="47.25934" lon="-2.32441">
        <ele>-0.40000000596046</ele>
        <time>2021-08-19T06:50:37.000Z</time>
      </trkpt>
      <trkpt lat="47.2594" lon="-2.32451">
        <ele>-0.40000000596046</ele>
        <time>2021-08-19T06:50:39.000Z</time>
      </trkpt>
      <trkpt lat="47.25943" lon="-2.32457">
        <ele>-0.40000000596046</ele>
        <time>2021-08-19T06:50:40.000Z</time>
      </trkpt>
      <trkpt lat="47.25948" lon="-2.32478">
        <ele>-0.40000000596046</ele>
        <time>2021-08-19T06:50:43.000Z</time>
      </trkpt>
      <trkpt lat="47.25953" lon="-2.32499">
        <ele>-0.40000000596046</ele>
        <time>2021-08-19T06:50:46.000Z</time>
      </trkpt>
      <trkpt lat="47.25966" lon="-2.32554">
        <ele>-0.40000000596046</ele>
        <time>2021-08-19T06:50:54.000Z</time>
      </trkpt>
      <trkpt lat="47.25972" lon="-2.3258">
        <ele>-0.40000000596046</ele>
        <time>2021-08-19T06:50:58.000Z</time>
      </trkpt>
      <trkpt lat="47.25972" lon="-2.32593">
        <ele>-0.40000000596046</ele>
        <time>2021-08-19T06:51:00.000Z</time>
      </trkpt>
      <trkpt lat="47.25971" lon="-2.32605">
        <ele>-0.40000000596046</ele>
        <time>2021-08-19T06:51:02.000Z</time>
      </trkpt>
      <trkpt lat="47.25973" lon="-2.3262">
        <ele>-0.40000000596046</ele>
        <time>2021-08-19T06:51:05.000Z</time>
      </trkpt>
      <trkpt lat="47.25983" lon="-2.32622">
        <ele>-0.40000000596046</ele>
        <time>2021-08-19T06:51:08.000Z</time>
      </trkpt>
      <trkpt lat="47.26" lon="-2.32623">
        <ele>-0.40000000596046</ele>
        <time>2021-08-19T06:51:12.000Z</time>
      </trkpt>
      <trkpt lat="47.26009" lon="-2.32622">
        <ele>-0.40000000596046</ele>
        <time>2021-08-19T06:51:14.000Z</time>
      </trkpt>
      <trkpt lat="47.26022" lon="-2.32619">
        <ele>5.5</ele>
        <time>2021-08-19T06:51:17.000Z</time>
      </trkpt>
      <trkpt lat="47.26027" lon="-2.32618">
        <ele>0.40000000596046</ele>
        <time>2021-08-19T06:51:18.000Z</time>
      </trkpt>
      <trkpt lat="47.26031" lon="-2.32617">
        <ele>0.80000001192093</ele>
        <time>2021-08-19T06:51:19.000Z</time>
      </trkpt>
      <trkpt lat="47.26036" lon="-2.32617">
        <ele>1.3999999761581</ele>
        <time>2021-08-19T06:51:20.000Z</time>
      </trkpt>
      <trkpt lat="47.2604" lon="-2.32617">
        <ele>1.7999999523163</ele>
        <time>2021-08-19T06:51:21.000Z</time>
      </trkpt>
      <trkpt lat="47.26042" lon="-2.32624">
        <ele>1.7999999523163</ele>
        <time>2021-08-19T06:51:23.000Z</time>
      </trkpt>
      <trkpt lat="47.26044" lon="-2.32625">
        <ele>1.7999999523163</ele>
        <time>2021-08-19T06:51:24.000Z</time>
      </trkpt>
      <trkpt lat="47.26065" lon="-2.32622">
        <ele>1.7999999523163</ele>
        <time>2021-08-19T06:51:30.000Z</time>
      </trkpt>
      <trkpt lat="47.26101" lon="-2.32618">
        <ele>1.7999999523163</ele>
        <time>2021-08-19T06:51:39.000Z</time>
      </trkpt>
      <trkpt lat="47.26113" lon="-2.32619">
        <ele>1.7999999523163</ele>
        <time>2021-08-19T06:51:42.000Z</time>
      </trkpt>
      <trkpt lat="47.26125" lon="-2.32622">
        <ele>1.7999999523163</ele>
        <time>2021-08-19T06:51:45.000Z</time>
      </trkpt>
      <trkpt lat="47.26128" lon="-2.32624">
        <ele>2.2000000476837</ele>
        <time>2021-08-19T06:51:46.000Z</time>
      </trkpt>
      <trkpt lat="47.26132" lon="-2.32626">
        <ele>2.5999999046326</ele>
        <time>2021-08-19T06:51:47.000Z</time>
      </trkpt>
      <trkpt lat="47.26136" lon="-2.32628">
        <ele>3</ele>
        <time>2021-08-19T06:51:48.000Z</time>
      </trkpt>
      <trkpt lat="47.2614" lon="-2.3263">
        <ele>3.4000000953674</ele>
        <time>2021-08-19T06:51:49.000Z</time>
      </trkpt>
      <trkpt lat="47.26144" lon="-2.32632">
        <ele>3.7999999523163</ele>
        <time>2021-08-19T06:51:50.000Z</time>
      </trkpt>
      <trkpt lat="47.26148" lon="-2.32635">
        <ele>3.7999999523163</ele>
        <time>2021-08-19T06:51:51.000Z</time>
      </trkpt>
      <trkpt lat="47.26152" lon="-2.32637">
        <ele>3.7999999523163</ele>
        <time>2021-08-19T06:51:52.000Z</time>
      </trkpt>
      <trkpt lat="47.2618" lon="-2.32662">
        <ele>3.7999999523163</ele>
        <time>2021-08-19T06:51:59.000Z</time>
      </trkpt>
      <trkpt lat="47.26212" lon="-2.32702">
        <ele>3.7999999523163</ele>
        <time>2021-08-19T06:52:07.000Z</time>
      </trkpt>
      <trkpt lat="47.2624" lon="-2.32743">
        <ele>3.7999999523163</ele>
        <time>2021-08-19T06:52:14.000Z</time>
      </trkpt>
      <trkpt lat="47.26262" lon="-2.32786">
        <ele>3.7999999523163</ele>
        <time>2021-08-19T06:52:20.000Z</time>
      </trkpt>
      <trkpt lat="47.26271" lon="-2.32809">
        <ele>3.4000000953674</ele>
        <time>2021-08-19T06:52:23.000Z</time>
      </trkpt>
      <trkpt lat="47.26273" lon="-2.32816">
        <ele>3</ele>
        <time>2021-08-19T06:52:24.000Z</time>
      </trkpt>
      <trkpt lat="47.26274" lon="-2.32824">
        <ele>2.5999999046326</ele>
        <time>2021-08-19T06:52:25.000Z</time>
      </trkpt>
      <trkpt lat="47.26274" lon="-2.32832">
        <ele>2</ele>
        <time>2021-08-19T06:52:26.000Z</time>
      </trkpt>
      <trkpt lat="47.26276" lon="-2.3284">
        <ele>1.6000000238419</ele>
        <time>2021-08-19T06:52:27.000Z</time>
      </trkpt>
      <trkpt lat="47.26282" lon="-2.32853">
        <ele>1.6000000238419</ele>
        <time>2021-08-19T06:52:29.000Z</time>
      </trkpt>
      <trkpt lat="47.26296" lon="-2.32861">
        <ele>1.6000000238419</ele>
        <time>2021-08-19T06:52:32.000Z</time>
      </trkpt>
      <trkpt lat="47.26301" lon="-2.32864">
        <ele>1.6000000238419</ele>
        <time>2021-08-19T06:52:33.000Z</time>
      </trkpt>
      <trkpt lat="47.2631" lon="-2.32881">
        <ele>1.6000000238419</ele>
        <time>2021-08-19T06:52:36.000Z</time>
      </trkpt>
      <trkpt lat="47.26315" lon="-2.32896">
        <ele>1.6000000238419</ele>
        <time>2021-08-19T06:52:38.000Z</time>
      </trkpt>
      <trkpt lat="47.26324" lon="-2.32925">
        <ele>1.6000000238419</ele>
        <time>2021-08-19T06:52:42.000Z</time>
      </trkpt>
      <trkpt lat="47.26341" lon="-2.32972">
        <ele>1.6000000238419</ele>
        <time>2021-08-19T06:52:49.000Z</time>
      </trkpt>
      <trkpt lat="47.26345" lon="-2.32977">
        <ele>1.6000000238419</ele>
        <time>2021-08-19T06:52:50.000Z</time>
      </trkpt>
      <trkpt lat="47.26352" lon="-2.32988">
        <ele>1.6000000238419</ele>
        <time>2021-08-19T06:52:52.000Z</time>
      </trkpt>
      <trkpt lat="47.26356" lon="-2.33">
        <ele>1.6000000238419</ele>
        <time>2021-08-19T06:52:54.000Z</time>
      </trkpt>
      <trkpt lat="47.26357" lon="-2.33021">
        <ele>1.6000000238419</ele>
        <time>2021-08-19T06:52:57.000Z</time>
      </trkpt>
      <trkpt lat="47.26359" lon="-2.33037">
        <ele>1.6000000238419</ele>
        <time>2021-08-19T06:52:59.000Z</time>
      </trkpt>
      <trkpt lat="47.26363" lon="-2.33107">
        <ele>1.6000000238419</ele>
        <time>2021-08-19T06:53:08.000Z</time>
      </trkpt>
      <trkpt lat="47.26364" lon="-2.33115">
        <ele>1.6000000238419</ele>
        <time>2021-08-19T06:53:09.000Z</time>
      </trkpt>
      <trkpt lat="47.26368" lon="-2.33168">
        <ele>1.6000000238419</ele>
        <time>2021-08-19T06:53:16.000Z</time>
      </trkpt>
      <trkpt lat="47.26376" lon="-2.33241">
        <ele>1.6000000238419</ele>
        <time>2021-08-19T06:53:26.000Z</time>
      </trkpt>
      <trkpt lat="47.26379" lon="-2.33254">
        <ele>1.6000000238419</ele>
        <time>2021-08-19T06:53:28.000Z</time>
      </trkpt>
      <trkpt lat="47.26385" lon="-2.33265">
        <ele>1.6000000238419</ele>
        <time>2021-08-19T06:53:30.000Z</time>
      </trkpt>
      <trkpt lat="47.26401" lon="-2.33269">
        <ele>1.6000000238419</ele>
        <time>2021-08-19T06:53:33.000Z</time>
      </trkpt>
      <trkpt lat="47.26407" lon="-2.33269">
        <ele>1.6000000238419</ele>
        <time>2021-08-19T06:53:34.000Z</time>
      </trkpt>
      <trkpt lat="47.26448" lon="-2.3327">
        <ele>1.6000000238419</ele>
        <time>2021-08-19T06:53:42.000Z</time>
      </trkpt>
      <trkpt lat="47.26491" lon="-2.33277">
        <ele>1.6000000238419</ele>
        <time>2021-08-19T06:53:51.000Z</time>
      </trkpt>
      <trkpt lat="47.26496" lon="-2.33278">
        <ele>1.6000000238419</ele>
        <time>2021-08-19T06:53:52.000Z</time>
      </trkpt>
      <trkpt lat="47.26512" lon="-2.33289">
        <ele>1.6000000238419</ele>
        <time>2021-08-19T06:53:56.000Z</time>
      </trkpt>
      <trkpt lat="47.26517" lon="-2.3329">
        <ele>1.6000000238419</ele>
        <time>2021-08-19T06:53:57.000Z</time>
      </trkpt>
      <trkpt lat="47.2653" lon="-2.33289">
        <ele>1.6000000238419</ele>
        <time>2021-08-19T06:54:00.000Z</time>
      </trkpt>
      <trkpt lat="47.26539" lon="-2.33296">
        <ele>1.6000000238419</ele>
        <time>2021-08-19T06:54:03.000Z</time>
      </trkpt>
      <trkpt lat="47.26549" lon="-2.3329">
        <ele>1.6000000238419</ele>
        <time>2021-08-19T06:54:06.000Z</time>
      </trkpt>
      <trkpt lat="47.26553" lon="-2.33286">
        <ele>1.6000000238419</ele>
        <time>2021-08-19T06:54:07.000Z</time>
      </trkpt>
      <trkpt lat="47.26564" lon="-2.33273">
        <ele>1.6000000238419</ele>
        <time>2021-08-19T06:54:10.000Z</time>
      </trkpt>
      <trkpt lat="47.26575" lon="-2.3326">
        <ele>1.6000000238419</ele>
        <time>2021-08-19T06:54:13.000Z</time>
      </trkpt>
      <trkpt lat="47.266" lon="-2.33236">
        <ele>1.6000000238419</ele>
        <time>2021-08-19T06:54:19.000Z</time>
      </trkpt>
      <trkpt lat="47.26629" lon="-2.33207">
        <ele>1.6000000238419</ele>
        <time>2021-08-19T06:54:26.000Z</time>
      </trkpt>
      <trkpt lat="47.26633" lon="-2.33202">
        <ele>1.6000000238419</ele>
        <time>2021-08-19T06:54:27.000Z</time>
      </trkpt>
      <trkpt lat="47.26657" lon="-2.33177">
        <ele>1.6000000238419</ele>
        <time>2021-08-19T06:54:33.000Z</time>
      </trkpt>
      <trkpt lat="47.2669" lon="-2.33144">
        <ele>1.6000000238419</ele>
        <time>2021-08-19T06:54:41.000Z</time>
      </trkpt>
      <trkpt lat="47.2672" lon="-2.33115">
        <ele>1.6000000238419</ele>
        <time>2021-08-19T06:54:48.000Z</time>
      </trkpt>
      <trkpt lat="47.26746" lon="-2.33088">
        <ele>1.6000000238419</ele>
        <time>2021-08-19T06:54:55.000Z</time>
      </trkpt>
      <trkpt lat="47.26749" lon="-2.33087">
        <ele>1.6000000238419</ele>
        <time>2021-08-19T06:54:56.000Z</time>
      </trkpt>
      <trkpt lat="47.26756" lon="-2.33088">
        <ele>1.6000000238419</ele>
        <time>2021-08-19T06:54:58.000Z</time>
      </trkpt>
      <trkpt lat="47.26769" lon="-2.33108">
        <ele>1.6000000238419</ele>
        <time>2021-08-19T06:55:02.000Z</time>
      </trkpt>
      <trkpt lat="47.26769" lon="-2.33135">
        <ele>1.6000000238419</ele>
        <time>2021-08-19T06:55:06.000Z</time>
      </trkpt>
      <trkpt lat="47.26768" lon="-2.33143">
        <ele>1.6000000238419</ele>
        <time>2021-08-19T06:55:07.000Z</time>
      </trkpt>
      <trkpt lat="47.26753" lon="-2.33185">
        <ele>1.6000000238419</ele>
        <time>2021-08-19T06:55:13.000Z</time>
      </trkpt>
      <trkpt lat="47.26742" lon="-2.33224">
        <ele>1.6000000238419</ele>
        <time>2021-08-19T06:55:19.000Z</time>
      </trkpt>
      <trkpt lat="47.26735" lon="-2.33252">
        <ele>1.6000000238419</ele>
        <time>2021-08-19T06:55:23.000Z</time>
      </trkpt>
      <trkpt lat="47.26735" lon="-2.33269">
        <ele>1.6000000238419</ele>
        <time>2021-08-19T06:55:25.000Z</time>
      </trkpt>
      <trkpt lat="47.26737" lon="-2.33285">
        <ele>1.6000000238419</ele>
        <time>2021-08-19T06:55:27.000Z</time>
      </trkpt>
      <trkpt lat="47.26743" lon="-2.33308">
        <ele>1.6000000238419</ele>
        <time>2021-08-19T06:55:30.000Z</time>
      </trkpt>
      <trkpt lat="47.26752" lon="-2.33354">
        <ele>1.6000000238419</ele>
        <time>2021-08-19T06:55:36.000Z</time>
      </trkpt>
      <trkpt lat="47.2676" lon="-2.3341">
        <ele>1.6000000238419</ele>
        <time>2021-08-19T06:55:43.000Z</time>
      </trkpt>
      <trkpt lat="47.26767" lon="-2.33474">
        <ele>1.6000000238419</ele>
        <time>2021-08-19T06:55:51.000Z</time>
      </trkpt>
      <trkpt lat="47.26769" lon="-2.33489">
        <ele>1.6000000238419</ele>
        <time>2021-08-19T06:55:53.000Z</time>
      </trkpt>
      <trkpt lat="47.26774" lon="-2.33511">
        <ele>1.2000000476837</ele>
        <time>2021-08-19T06:55:56.000Z</time>
      </trkpt>
      <trkpt lat="47.26775" lon="-2.33518">
        <ele>0.80000001192093</ele>
        <time>2021-08-19T06:55:57.000Z</time>
      </trkpt>
      <trkpt lat="47.26776" lon="-2.33525">
        <ele>0.40000000596046</ele>
        <time>2021-08-19T06:55:58.000Z</time>
      </trkpt>
      <trkpt lat="47.26777" lon="-2.33532">
        <ele>3.8</ele>
        <time>2021-08-19T06:55:59.000Z</time>
      </trkpt>
      <trkpt lat="47.26778" lon="-2.3354">
        <ele>-0.40000000596046</ele>
        <time>2021-08-19T06:56:00.000Z</time>
      </trkpt>
      <trkpt lat="47.2678" lon="-2.33562">
        <ele>-0.40000000596046</ele>
        <time>2021-08-19T06:56:03.000Z</time>
      </trkpt>
      <trkpt lat="47.26789" lon="-2.33569">
        <ele>-0.40000000596046</ele>
        <time>2021-08-19T06:56:06.000Z</time>
      </trkpt>
      <trkpt lat="47.26804" lon="-2.33563">
        <ele>-0.40000000596046</ele>
        <time>2021-08-19T06:56:10.000Z</time>
      </trkpt>
      <trkpt lat="47.26826" lon="-2.33548">
        <ele>-0.40000000596046</ele>
        <time>2021-08-19T06:56:16.000Z</time>
      </trkpt>
      <trkpt lat="47.2683" lon="-2.33545">
        <ele>-0.40000000596046</ele>
        <time>2021-08-19T06:56:17.000Z</time>
      </trkpt>
      <trkpt lat="47.26845" lon="-2.33534">
        <ele>-0.40000000596046</ele>
        <time>2021-08-19T06:56:20.000Z</time>
      </trkpt>
      <trkpt lat="47.26849" lon="-2.33532">
        <ele>-0.40000000596046</ele>
        <time>2021-08-19T06:56:21.000Z</time>
      </trkpt>
      <trkpt lat="47.26872" lon="-2.33529">
        <ele>-0.40000000596046</ele>
        <time>2021-08-19T06:56:25.000Z</time>
      </trkpt>
      <trkpt lat="47.26891" lon="-2.33541">
        <ele>6.8</ele>
        <time>2021-08-19T06:56:29.000Z</time>
      </trkpt>
      <trkpt lat="47.26894" lon="-2.33546">
        <ele>0.60000002384186</ele>
        <time>2021-08-19T06:56:30.000Z</time>
      </trkpt>
      <trkpt lat="47.26897" lon="-2.33551">
        <ele>1</ele>
        <time>2021-08-19T06:56:31.000Z</time>
      </trkpt>
      <trkpt lat="47.26899" lon="-2.33557">
        <ele>1.3999999761581</ele>
        <time>2021-08-19T06:56:32.000Z</time>
      </trkpt>
      <trkpt lat="47.26901" lon="-2.33563">
        <ele>1.7999999523163</ele>
        <time>2021-08-19T06:56:33.000Z</time>
      </trkpt>
      <trkpt lat="47.26915" lon="-2.33602">
        <ele>1.7999999523163</ele>
        <time>2021-08-19T06:56:40.000Z</time>
      </trkpt>
      <trkpt lat="47.26924" lon="-2.33636">
        <ele>2.2000000476837</ele>
        <time>2021-08-19T06:56:46.000Z</time>
      </trkpt>
      <trkpt lat="47.26925" lon="-2.33642">
        <ele>2.5999999046326</ele>
        <time>2021-08-19T06:56:47.000Z</time>
      </trkpt>
      <trkpt lat="47.26927" lon="-2.33648">
        <ele>3</ele>
        <time>2021-08-19T06:56:48.000Z</time>
      </trkpt>
      <trkpt lat="47.26928" lon="-2.33654">
        <ele>3.4000000953674</ele>
        <time>2021-08-19T06:56:49.000Z</time>
      </trkpt>
      <trkpt lat="47.26929" lon="-2.3366">
        <ele>3.7999999523163</ele>
        <time>2021-08-19T06:56:50.000Z</time>
      </trkpt>
      <trkpt lat="47.26937" lon="-2.33695">
        <ele>3.7999999523163</ele>
        <time>2021-08-19T06:56:56.000Z</time>
      </trkpt>
      <trkpt lat="47.2694" lon="-2.33731">
        <ele>3.7999999523163</ele>
        <time>2021-08-19T06:57:02.000Z</time>
      </trkpt>
      <trkpt lat="47.26928" lon="-2.33773">
        <ele>3.7999999523163</ele>
        <time>2021-08-19T06:57:08.000Z</time>
      </trkpt>
      <trkpt lat="47.26928" lon="-2.3378">
        <ele>3.7999999523163</ele>
        <time>2021-08-19T06:57:09.000Z</time>
      </trkpt>
      <trkpt lat="47.26929" lon="-2.33803">
        <ele>3.7999999523163</ele>
        <time>2021-08-19T06:57:12.000Z</time>
      </trkpt>
      <trkpt lat="47.26938" lon="-2.33818">
        <ele>3.7999999523163</ele>
        <time>2021-08-19T06:57:15.000Z</time>
      </trkpt>
      <trkpt lat="47.26946" lon="-2.33824">
        <ele>3.7999999523163</ele>
        <time>2021-08-19T06:57:17.000Z</time>
      </trkpt>
      <trkpt lat="47.26955" lon="-2.3383">
        <ele>3.7999999523163</ele>
        <time>2021-08-19T06:57:19.000Z</time>
      </trkpt>
      <trkpt lat="47.2696" lon="-2.33831">
        <ele>3.7999999523163</ele>
        <time>2021-08-19T06:57:20.000Z</time>
      </trkpt>
      <trkpt lat="47.2698" lon="-2.3384">
        <ele>4.4000000953674</ele>
        <time>2021-08-19T06:57:25.000Z</time>
      </trkpt>
      <trkpt lat="47.26984" lon="-2.33843">
        <ele>4.8000001907349</ele>
        <time>2021-08-19T06:57:26.000Z</time>
      </trkpt>
      <trkpt lat="47.26988" lon="-2.33845">
        <ele>5.1999998092651</ele>
        <time>2021-08-19T06:57:27.000Z</time>
      </trkpt>
      <trkpt lat="47.26991" lon="-2.33847">
        <ele>5.5999999046326</ele>
        <time>2021-08-19T06:57:28.000Z</time>
      </trkpt>
      <trkpt lat="47.26995" lon="-2.33849">
        <ele>6</ele>
        <time>2021-08-19T06:57:29.000Z</time>
      </trkpt>
      <trkpt lat="47.27011" lon="-2.3386">
        <ele>6.4000000953674</ele>
        <time>2021-08-19T06:57:34.000Z</time>
      </trkpt>
      <trkpt lat="47.27014" lon="-2.33863">
        <ele>6.8000001907349</ele>
        <time>2021-08-19T06:57:35.000Z</time>
      </trkpt>
      <trkpt lat="47.27017" lon="-2.33865">
        <ele>7.4000000953674</ele>
        <time>2021-08-19T06:57:36.000Z</time>
      </trkpt>
      <trkpt lat="47.2702" lon="-2.33867">
        <ele>7.8000001907349</ele>
        <time>2021-08-19T06:57:37.000Z</time>
      </trkpt>
      <trkpt lat="47.27023" lon="-2.3387">
        <ele>8.1999998092651</ele>
        <time>2021-08-19T06:57:38.000Z</time>
      </trkpt>
      <trkpt lat="47.2704" lon="-2.33883">
        <ele>8.1999998092651</ele>
        <time>2021-08-19T06:57:43.000Z</time>
      </trkpt>
      <trkpt lat="47.27062" lon="-2.33903">
        <ele>8.6000003814697</ele>
        <time>2021-08-19T06:57:49.000Z</time>
      </trkpt>
      <trkpt lat="47.27066" lon="-2.33906">
        <ele>9</ele>
        <time>2021-08-19T06:57:50.000Z</time>
      </trkpt>
      <trkpt lat="47.27069" lon="-2.33909">
        <ele>9.3999996185303</ele>
        <time>2021-08-19T06:57:51.000Z</time>
      </trkpt>
      <trkpt lat="47.27072" lon="-2.33911">
        <ele>9.8000001907349</ele>
        <time>2021-08-19T06:57:52.000Z</time>
      </trkpt>
      <trkpt lat="47.27075" lon="-2.33914">
        <ele>10.199999809265</ele>
        <time>2021-08-19T06:57:53.000Z</time>
      </trkpt>
      <trkpt lat="47.27088" lon="-2.33926">
        <ele>10.60000038147</ele>
        <time>2021-08-19T06:57:58.000Z</time>
      </trkpt>
      <trkpt lat="47.27091" lon="-2.33928">
        <ele>11</ele>
        <time>2021-08-19T06:57:59.000Z</time>
      </trkpt>
      <trkpt lat="47.27093" lon="-2.33931">
        <ele>11.39999961853</ele>
        <time>2021-08-19T06:58:00.000Z</time>
      </trkpt>
      <trkpt lat="47.27096" lon="-2.33933">
        <ele>11.800000190735</ele>
        <time>2021-08-19T06:58:01.000Z</time>
      </trkpt>
      <trkpt lat="47.27099" lon="-2.33935">
        <ele>12.39999961853</ele>
        <time>2021-08-19T06:58:02.000Z</time>
      </trkpt>
      <trkpt lat="47.27108" lon="-2.33941">
        <ele>12.39999961853</ele>
        <time>2021-08-19T06:58:05.000Z</time>
      </trkpt>
      <trkpt lat="47.27114" lon="-2.33947">
        <ele>12.800000190735</ele>
        <time>2021-08-19T06:58:07.000Z</time>
      </trkpt>
      <trkpt lat="47.27117" lon="-2.33949">
        <ele>13.199999809265</ele>
        <time>2021-08-19T06:58:08.000Z</time>
      </trkpt>
      <trkpt lat="47.2712" lon="-2.33952">
        <ele>13.60000038147</ele>
        <time>2021-08-19T06:58:09.000Z</time>
      </trkpt>
      <trkpt lat="47.27123" lon="-2.33955">
        <ele>14</ele>
        <time>2021-08-19T06:58:10.000Z</time>
      </trkpt>
      <trkpt lat="47.27126" lon="-2.33958">
        <ele>14.60000038147</ele>
        <time>2021-08-19T06:58:11.000Z</time>
      </trkpt>
      <trkpt lat="47.27136" lon="-2.33967">
        <ele>14.60000038147</ele>
        <time>2021-08-19T06:58:14.000Z</time>
      </trkpt>
      <trkpt lat="47.27161" lon="-2.33994">
        <ele>14.60000038147</ele>
        <time>2021-08-19T06:58:22.000Z</time>
      </trkpt>
      <trkpt lat="47.27179" lon="-2.34011">
        <ele>14.60000038147</ele>
        <time>2021-08-19T06:58:27.000Z</time>
      </trkpt>
      <trkpt lat="47.27185" lon="-2.34019">
        <ele>15</ele>
        <time>2021-08-19T06:58:29.000Z</time>
      </trkpt>
      <trkpt lat="47.27189" lon="-2.34022">
        <ele>15.39999961853</ele>
        <time>2021-08-19T06:58:30.000Z</time>
      </trkpt>
      <trkpt lat="47.27192" lon="-2.34026">
        <ele>16.200000762939</ele>
        <time>2021-08-19T06:58:31.000Z</time>
      </trkpt>
      <trkpt lat="47.27195" lon="-2.3403">
        <ele>16.60000038147</ele>
        <time>2021-08-19T06:58:32.000Z</time>
      </trkpt>
      <trkpt lat="47.27216" lon="-2.34048">
        <ele>16.60000038147</ele>
        <time>2021-08-19T06:58:38.000Z</time>
      </trkpt>
      <trkpt lat="47.2722" lon="-2.3405">
        <ele>16.60000038147</ele>
        <time>2021-08-19T06:58:39.000Z</time>
      </trkpt>
      <trkpt lat="47.27236" lon="-2.34051">
        <ele>16.60000038147</ele>
        <time>2021-08-19T06:58:43.000Z</time>
      </trkpt>
      <trkpt lat="47.2724" lon="-2.3405">
        <ele>16.60000038147</ele>
        <time>2021-08-19T06:58:44.000Z</time>
      </trkpt>
      <trkpt lat="47.27248" lon="-2.34049">
        <ele>16.60000038147</ele>
        <time>2021-08-19T06:58:46.000Z</time>
      </trkpt>
      <trkpt lat="47.27259" lon="-2.3405">
        <ele>16.60000038147</ele>
        <time>2021-08-19T06:58:49.000Z</time>
      </trkpt>
      <trkpt lat="47.27277" lon="-2.34064">
        <ele>16.60000038147</ele>
        <time>2021-08-19T06:58:54.000Z</time>
      </trkpt>
      <trkpt lat="47.2728" lon="-2.34068">
        <ele>16.60000038147</ele>
        <time>2021-08-19T06:58:55.000Z</time>
      </trkpt>
      <trkpt lat="47.27287" lon="-2.34088">
        <ele>16.60000038147</ele>
        <time>2021-08-19T06:58:59.000Z</time>
      </trkpt>
      <trkpt lat="47.27288" lon="-2.34105">
        <ele>16.60000038147</ele>
        <time>2021-08-19T06:59:01.000Z</time>
      </trkpt>
      <trkpt lat="47.2729" lon="-2.34112">
        <ele>16.60000038147</ele>
        <time>2021-08-19T06:59:02.000Z</time>
      </trkpt>
      <trkpt lat="47.27297" lon="-2.34123">
        <ele>16.60000038147</ele>
        <time>2021-08-19T06:59:04.000Z</time>
      </trkpt>
      <trkpt lat="47.2731" lon="-2.34134">
        <ele>16.60000038147</ele>
        <time>2021-08-19T06:59:07.000Z</time>
      </trkpt>
      <trkpt lat="47.27319" lon="-2.3414">
        <ele>16.60000038147</ele>
        <time>2021-08-19T06:59:09.000Z</time>
      </trkpt>
      <trkpt lat="47.2736" lon="-2.34166">
        <ele>16.60000038147</ele>
        <time>2021-08-19T06:59:17.000Z</time>
      </trkpt>
      <trkpt lat="47.27385" lon="-2.34185">
        <ele>16.60000038147</ele>
        <time>2021-08-19T06:59:23.000Z</time>
      </trkpt>
      <trkpt lat="47.27396" lon="-2.34196">
        <ele>16.60000038147</ele>
        <time>2021-08-19T06:59:26.000Z</time>
      </trkpt>
      <trkpt lat="47.27401" lon="-2.34207">
        <ele>16.60000038147</ele>
        <time>2021-08-19T06:59:28.000Z</time>
      </trkpt>
      <trkpt lat="47.27404" lon="-2.34218">
        <ele>16.60000038147</ele>
        <time>2021-08-19T06:59:30.000Z</time>
      </trkpt>
      <trkpt lat="47.27409" lon="-2.34237">
        <ele>16.60000038147</ele>
        <time>2021-08-19T06:59:34.000Z</time>
      </trkpt>
      <trkpt lat="47.27418" lon="-2.34257">
        <ele>16.60000038147</ele>
        <time>2021-08-19T06:59:39.000Z</time>
      </trkpt>
      <trkpt lat="47.27419" lon="-2.34283">
        <ele>16.60000038147</ele>
        <time>2021-08-19T06:59:43.000Z</time>
      </trkpt>
      <trkpt lat="47.27418" lon="-2.34297">
        <ele>16.60000038147</ele>
        <time>2021-08-19T06:59:45.000Z</time>
      </trkpt>
      <trkpt lat="47.27419" lon="-2.34311">
        <ele>16.60000038147</ele>
        <time>2021-08-19T06:59:47.000Z</time>
      </trkpt>
      <trkpt lat="47.27419" lon="-2.34338">
        <ele>16.60000038147</ele>
        <time>2021-08-19T06:59:51.000Z</time>
      </trkpt>
      <trkpt lat="47.27419" lon="-2.34364">
        <ele>16.60000038147</ele>
        <time>2021-08-19T06:59:55.000Z</time>
      </trkpt>
      <trkpt lat="47.2742" lon="-2.34377">
        <ele>16.60000038147</ele>
        <time>2021-08-19T06:59:57.000Z</time>
      </trkpt>
      <trkpt lat="47.2742" lon="-2.34383">
        <ele>16.60000038147</ele>
        <time>2021-08-19T06:59:58.000Z</time>
      </trkpt>
      <trkpt lat="47.27423" lon="-2.34417">
        <ele>16.60000038147</ele>
        <time>2021-08-19T07:00:03.000Z</time>
      </trkpt>
      <trkpt lat="47.27424" lon="-2.34431">
        <ele>17</ele>
        <time>2021-08-19T07:00:05.000Z</time>
      </trkpt>
      <trkpt lat="47.27425" lon="-2.34437">
        <ele>17.39999961853</ele>
        <time>2021-08-19T07:00:06.000Z</time>
      </trkpt>
      <trkpt lat="47.27426" lon="-2.34444">
        <ele>17.799999237061</ele>
        <time>2021-08-19T07:00:07.000Z</time>
      </trkpt>
      <trkpt lat="47.27426" lon="-2.3445">
        <ele>18.200000762939</ele>
        <time>2021-08-19T07:00:08.000Z</time>
      </trkpt>
      <trkpt lat="47.27426" lon="-2.34457">
        <ele>18.60000038147</ele>
        <time>2021-08-19T07:00:09.000Z</time>
      </trkpt>
      <trkpt lat="47.27426" lon="-2.34471">
        <ele>18.60000038147</ele>
        <time>2021-08-19T07:00:11.000Z</time>
      </trkpt>
      <trkpt lat="47.2743" lon="-2.34512">
        <ele>18.60000038147</ele>
        <time>2021-08-19T07:00:17.000Z</time>
      </trkpt>
      <trkpt lat="47.27443" lon="-2.34562">
        <ele>18.60000038147</ele>
        <time>2021-08-19T07:00:25.000Z</time>
      </trkpt>
      <trkpt lat="47.27452" lon="-2.34613">
        <ele>18.60000038147</ele>
        <time>2021-08-19T07:00:32.000Z</time>
      </trkpt>
      <trkpt lat="47.27457" lon="-2.34671">
        <ele>18.60000038147</ele>
        <time>2021-08-19T07:00:40.000Z</time>
      </trkpt>
      <trkpt lat="47.27458" lon="-2.34709">
        <ele>18.60000038147</ele>
        <time>2021-08-19T07:00:45.000Z</time>
      </trkpt>
      <trkpt lat="47.27457" lon="-2.34718">
        <ele>18.60000038147</ele>
        <time>2021-08-19T07:00:46.000Z</time>
      </trkpt>
      <trkpt lat="47.27454" lon="-2.34774">
        <ele>18.60000038147</ele>
        <time>2021-08-19T07:00:52.000Z</time>
      </trkpt>
      <trkpt lat="47.27455" lon="-2.34783">
        <ele>18.60000038147</ele>
        <time>2021-08-19T07:00:53.000Z</time>
      </trkpt>
      <trkpt lat="47.27457" lon="-2.34821">
        <ele>18.60000038147</ele>
        <time>2021-08-19T07:00:57.000Z</time>
      </trkpt>
      <trkpt lat="47.27457" lon="-2.3484">
        <ele>17.799999237061</ele>
        <time>2021-08-19T07:00:59.000Z</time>
      </trkpt>
      <trkpt lat="47.27458" lon="-2.34849">
        <ele>17.39999961853</ele>
        <time>2021-08-19T07:01:00.000Z</time>
      </trkpt>
      <trkpt lat="47.27458" lon="-2.34859">
        <ele>17</ele>
        <time>2021-08-19T07:01:01.000Z</time>
      </trkpt>
      <trkpt lat="47.27459" lon="-2.34868">
        <ele>16.60000038147</ele>
        <time>2021-08-19T07:01:02.000Z</time>
      </trkpt>
      <trkpt lat="47.27457" lon="-2.34906">
        <ele>16.60000038147</ele>
        <time>2021-08-19T07:01:06.000Z</time>
      </trkpt>
      <trkpt lat="47.27463" lon="-2.34924">
        <ele>16.60000038147</ele>
        <time>2021-08-19T07:01:09.000Z</time>
      </trkpt>
      <trkpt lat="47.27477" lon="-2.34931">
        <ele>16.60000038147</ele>
        <time>2021-08-19T07:01:13.000Z</time>
      </trkpt>
      <trkpt lat="47.27487" lon="-2.34928">
        <ele>16.60000038147</ele>
        <time>2021-08-19T07:01:15.000Z</time>
      </trkpt>
      <trkpt lat="47.27501" lon="-2.34916">
        <ele>16.60000038147</ele>
        <time>2021-08-19T07:01:17.000Z</time>
      </trkpt>
      <trkpt lat="47.27512" lon="-2.34911">
        <ele>16.60000038147</ele>
        <time>2021-08-19T07:01:19.000Z</time>
      </trkpt>
      <trkpt lat="47.27531" lon="-2.34907">
        <ele>16.60000038147</ele>
        <time>2021-08-19T07:01:22.000Z</time>
      </trkpt>
      <trkpt lat="47.27538" lon="-2.34908">
        <ele>16.60000038147</ele>
        <time>2021-08-19T07:01:23.000Z</time>
      </trkpt>
      <trkpt lat="47.27577" lon="-2.34909">
        <ele>16.60000038147</ele>
        <time>2021-08-19T07:01:29.000Z</time>
      </trkpt>
      <trkpt lat="47.27583" lon="-2.34911">
        <ele>16.60000038147</ele>
        <time>2021-08-19T07:01:30.000Z</time>
      </trkpt>
      <trkpt lat="47.27607" lon="-2.34915">
        <ele>16.60000038147</ele>
        <time>2021-08-19T07:01:34.000Z</time>
      </trkpt>
      <trkpt lat="47.27643" lon="-2.34913">
        <ele>16.60000038147</ele>
        <time>2021-08-19T07:01:40.000Z</time>
      </trkpt>
      <trkpt lat="47.27649" lon="-2.34912">
        <ele>16.60000038147</ele>
        <time>2021-08-19T07:01:41.000Z</time>
      </trkpt>
      <trkpt lat="47.2767" lon="-2.3491">
        <ele>16.60000038147</ele>
        <time>2021-08-19T07:01:45.000Z</time>
      </trkpt>
      <trkpt lat="47.27675" lon="-2.34914">
        <ele>16.60000038147</ele>
        <time>2021-08-19T07:01:46.000Z</time>
      </trkpt>
      <trkpt lat="47.27684" lon="-2.34934">
        <ele>16.60000038147</ele>
        <time>2021-08-19T07:01:49.000Z</time>
      </trkpt>
      <trkpt lat="47.27687" lon="-2.34968">
        <ele>16.60000038147</ele>
        <time>2021-08-19T07:01:53.000Z</time>
      </trkpt>
      <trkpt lat="47.27692" lon="-2.35035">
        <ele>16.60000038147</ele>
        <time>2021-08-19T07:02:00.000Z</time>
      </trkpt>
      <trkpt lat="47.27695" lon="-2.3504">
        <ele>16.200000762939</ele>
        <time>2021-08-19T07:02:01.000Z</time>
      </trkpt>
      <trkpt lat="47.27698" lon="-2.35043">
        <ele>15.800000190735</ele>
        <time>2021-08-19T07:02:02.000Z</time>
      </trkpt>
      <trkpt lat="47.27701" lon="-2.35046">
        <ele>15.39999961853</ele>
        <time>2021-08-19T07:02:03.000Z</time>
      </trkpt>
      <trkpt lat="47.27704" lon="-2.35048">
        <ele>15</ele>
        <time>2021-08-19T07:02:04.000Z</time>
      </trkpt>
      <trkpt lat="47.27709" lon="-2.35049">
        <ele>14.60000038147</ele>
        <time>2021-08-19T07:02:05.000Z</time>
      </trkpt>
      <trkpt lat="47.2772" lon="-2.35049">
        <ele>14.60000038147</ele>
        <time>2021-08-19T07:02:07.000Z</time>
      </trkpt>
      <trkpt lat="47.27735" lon="-2.35041">
        <ele>14.60000038147</ele>
        <time>2021-08-19T07:02:09.000Z</time>
      </trkpt>
      <trkpt lat="47.27749" lon="-2.35035">
        <ele>14.60000038147</ele>
        <time>2021-08-19T07:02:11.000Z</time>
      </trkpt>
      <trkpt lat="47.27754" lon="-2.35033">
        <ele>14</ele>
        <time>2021-08-19T07:02:12.000Z</time>
      </trkpt>
      <trkpt lat="47.27759" lon="-2.35031">
        <ele>13</ele>
        <time>2021-08-19T07:02:13.000Z</time>
      </trkpt>
      <trkpt lat="47.27763" lon="-2.35032">
        <ele>12.60000038147</ele>
        <time>2021-08-19T07:02:14.000Z</time>
      </trkpt>
      <trkpt lat="47.27766" lon="-2.35035">
        <ele>12</ele>
        <time>2021-08-19T07:02:15.000Z</time>
      </trkpt>
      <trkpt lat="47.27769" lon="-2.35054">
        <ele>12</ele>
        <time>2021-08-19T07:02:18.000Z</time>
      </trkpt>
      <trkpt lat="47.27769" lon="-2.35062">
        <ele>12</ele>
        <time>2021-08-19T07:02:19.000Z</time>
      </trkpt>
      <trkpt lat="47.27769" lon="-2.351">
        <ele>12</ele>
        <time>2021-08-19T07:02:23.000Z</time>
      </trkpt>
      <trkpt lat="47.27771" lon="-2.35138">
        <ele>11.60000038147</ele>
        <time>2021-08-19T07:02:27.000Z</time>
      </trkpt>
      <trkpt lat="47.27771" lon="-2.35148">
        <ele>11.199999809265</ele>
        <time>2021-08-19T07:02:28.000Z</time>
      </trkpt>
      <trkpt lat="47.27772" lon="-2.35158">
        <ele>10.800000190735</ele>
        <time>2021-08-19T07:02:29.000Z</time>
      </trkpt>
      <trkpt lat="47.27772" lon="-2.35168">
        <ele>10.39999961853</ele>
        <time>2021-08-19T07:02:30.000Z</time>
      </trkpt>
      <trkpt lat="47.27772" lon="-2.35177">
        <ele>10</ele>
        <time>2021-08-19T07:02:31.000Z</time>
      </trkpt>
      <trkpt lat="47.27775" lon="-2.35196">
        <ele>10</ele>
        <time>2021-08-19T07:02:33.000Z</time>
      </trkpt>
      <trkpt lat="47.27777" lon="-2.35214">
        <ele>10</ele>
        <time>2021-08-19T07:02:35.000Z</time>
      </trkpt>
      <trkpt lat="47.27788" lon="-2.35277">
        <ele>10</ele>
        <time>2021-08-19T07:02:42.000Z</time>
      </trkpt>
      <trkpt lat="47.278" lon="-2.35339">
        <ele>10</ele>
        <time>2021-08-19T07:02:49.000Z</time>
      </trkpt>
      <trkpt lat="47.27805" lon="-2.35356">
        <ele>10</ele>
        <time>2021-08-19T07:02:51.000Z</time>
      </trkpt>
      <trkpt lat="47.27814" lon="-2.35365">
        <ele>10</ele>
        <time>2021-08-19T07:02:53.000Z</time>
      </trkpt>
      <trkpt lat="47.27833" lon="-2.3537">
        <ele>10</ele>
        <time>2021-08-19T07:02:57.000Z</time>
      </trkpt>
      <trkpt lat="47.27846" lon="-2.35365">
        <ele>10</ele>
        <time>2021-08-19T07:02:59.000Z</time>
      </trkpt>
      <trkpt lat="47.27866" lon="-2.35365">
        <ele>10</ele>
        <time>2021-08-19T07:03:03.000Z</time>
      </trkpt>
      <trkpt lat="47.27884" lon="-2.35377">
        <ele>10</ele>
        <time>2021-08-19T07:03:07.000Z</time>
      </trkpt>
      <trkpt lat="47.27888" lon="-2.35382">
        <ele>10</ele>
        <time>2021-08-19T07:03:08.000Z</time>
      </trkpt>
      <trkpt lat="47.27911" lon="-2.35411">
        <ele>10</ele>
        <time>2021-08-19T07:03:14.000Z</time>
      </trkpt>
      <trkpt lat="47.27938" lon="-2.35447">
        <ele>10</ele>
        <time>2021-08-19T07:03:21.000Z</time>
      </trkpt>
      <trkpt lat="47.27943" lon="-2.35451">
        <ele>10</ele>
        <time>2021-08-19T07:03:22.000Z</time>
      </trkpt>
      <trkpt lat="47.27962" lon="-2.35463">
        <ele>10</ele>
        <time>2021-08-19T07:03:26.000Z</time>
      </trkpt>
      <trkpt lat="47.27976" lon="-2.35474">
        <ele>10</ele>
        <time>2021-08-19T07:03:29.000Z</time>
      </trkpt>
      <trkpt lat="47.27985" lon="-2.35485">
        <ele>10</ele>
        <time>2021-08-19T07:03:31.000Z</time>
      </trkpt>
      <trkpt lat="47.27994" lon="-2.35502">
        <ele>10</ele>
        <time>2021-08-19T07:03:34.000Z</time>
      </trkpt>
      <trkpt lat="47.27996" lon="-2.35508">
        <ele>10</ele>
        <time>2021-08-19T07:03:35.000Z</time>
      </trkpt>
      <trkpt lat="47.28004" lon="-2.35533">
        <ele>10</ele>
        <time>2021-08-19T07:03:40.000Z</time>
      </trkpt>
      <trkpt lat="47.2801" lon="-2.35561">
        <ele>10</ele>
        <time>2021-08-19T07:03:46.000Z</time>
      </trkpt>
      <trkpt lat="47.28016" lon="-2.35565">
        <ele>10</ele>
        <time>2021-08-19T07:03:48.000Z</time>
      </trkpt>
      <trkpt lat="47.28019" lon="-2.35565">
        <ele>10</ele>
        <time>2021-08-19T07:03:49.000Z</time>
      </trkpt>
      <trkpt lat="47.28037" lon="-2.35573">
        <ele>10</ele>
        <time>2021-08-19T07:03:54.000Z</time>
      </trkpt>
      <trkpt lat="47.28049" lon="-2.35575">
        <ele>10.39999961853</ele>
        <time>2021-08-19T07:03:58.000Z</time>
      </trkpt>
      <trkpt lat="47.28052" lon="-2.35575">
        <ele>10.800000190735</ele>
        <time>2021-08-19T07:03:59.000Z</time>
      </trkpt>
      <trkpt lat="47.28055" lon="-2.35576">
        <ele>11.199999809265</ele>
        <time>2021-08-19T07:04:00.000Z</time>
      </trkpt>
      <trkpt lat="47.28058" lon="-2.35578">
        <ele>11.60000038147</ele>
        <time>2021-08-19T07:04:01.000Z</time>
      </trkpt>
      <trkpt lat="47.2806" lon="-2.3558">
        <ele>12</ele>
        <time>2021-08-19T07:04:02.000Z</time>
      </trkpt>
      <trkpt lat="47.28065" lon="-2.35584">
        <ele>12</ele>
        <time>2021-08-19T07:04:04.000Z</time>
      </trkpt>
      <trkpt lat="47.28076" lon="-2.35604">
        <ele>12</ele>
        <time>2021-08-19T07:04:09.000Z</time>
      </trkpt>
      <trkpt lat="47.28084" lon="-2.35616">
        <ele>12</ele>
        <time>2021-08-19T07:04:15.000Z</time>
      </trkpt>
      <trkpt lat="47.28084" lon="-2.35616">
        <ele>12</ele>
        <time>2021-08-19T07:04:18.000Z</time>
      </trkpt>
      <trkpt lat="47.28079" lon="-2.35616">
        <ele>10</ele>
        <time>2021-08-19T07:12:00.000Z</time>
      </trkpt>
      <trkpt lat="47.28077" lon="-2.35614">
        <ele>10</ele>
        <time>2021-08-19T07:12:01.000Z</time>
      </trkpt>
      <trkpt lat="47.28075" lon="-2.35617">
        <ele>10</ele>
        <time>2021-08-19T07:12:04.000Z</time>
      </trkpt>
      <trkpt lat="47.28076" lon="-2.35624">
        <ele>10</ele>
        <time>2021-08-19T07:12:06.000Z</time>
      </trkpt>
      <trkpt lat="47.28078" lon="-2.35633">
        <ele>10</ele>
        <time>2021-08-19T07:12:08.000Z</time>
      </trkpt>
      <trkpt lat="47.2808" lon="-2.35645">
        <ele>10.39999961853</ele>
        <time>2021-08-19T07:12:11.000Z</time>
      </trkpt>
      <trkpt lat="47.28081" lon="-2.35649">
        <ele>10.800000190735</ele>
        <time>2021-08-19T07:12:12.000Z</time>
      </trkpt>
      <trkpt lat="47.28082" lon="-2.35652">
        <ele>11.39999961853</ele>
        <time>2021-08-19T07:12:13.000Z</time>
      </trkpt>
      <trkpt lat="47.28083" lon="-2.35656">
        <ele>11.800000190735</ele>
        <time>2021-08-19T07:12:14.000Z</time>
      </trkpt>
      <trkpt lat="47.28085" lon="-2.3566">
        <ele>12.199999809265</ele>
        <time>2021-08-19T07:12:15.000Z</time>
      </trkpt>
      <trkpt lat="47.28088" lon="-2.35671">
        <ele>12.60000038147</ele>
        <time>2021-08-19T07:12:17.000Z</time>
      </trkpt>
      <trkpt lat="47.28088" lon="-2.35677">
        <ele>13</ele>
        <time>2021-08-19T07:12:18.000Z</time>
      </trkpt>
      <trkpt lat="47.28089" lon="-2.35682">
        <ele>13.39999961853</ele>
        <time>2021-08-19T07:12:19.000Z</time>
      </trkpt>
      <trkpt lat="47.2809" lon="-2.35687">
        <ele>14</ele>
        <time>2021-08-19T07:12:20.000Z</time>
      </trkpt>
      <trkpt lat="47.28091" lon="-2.35691">
        <ele>14.39999961853</ele>
        <time>2021-08-19T07:12:21.000Z</time>
      </trkpt>
      <trkpt lat="47.28093" lon="-2.35699">
        <ele>14.39999961853</ele>
        <time>2021-08-19T07:12:23.000Z</time>
      </trkpt>
      <trkpt lat="47.28093" lon="-2.35712">
        <ele>14.800000190735</ele>
        <time>2021-08-19T07:12:26.000Z</time>
      </trkpt>
      <trkpt lat="47.28093" lon="-2.35715">
        <ele>15.199999809265</ele>
        <time>2021-08-19T07:12:27.000Z</time>
      </trkpt>
      <trkpt lat="47.28092" lon="-2.3572">
        <ele>15.60000038147</ele>
        <time>2021-08-19T07:12:28.000Z</time>
      </trkpt>
      <trkpt lat="47.28091" lon="-2.35724">
        <ele>16.39999961853</ele>
        <time>2021-08-19T07:12:29.000Z</time>
      </trkpt>
      <trkpt lat="47.28085" lon="-2.35756">
        <ele>16.39999961853</ele>
        <time>2021-08-19T07:12:35.000Z</time>
      </trkpt>
      <trkpt lat="47.28085" lon="-2.35763">
        <ele>16.39999961853</ele>
        <time>2021-08-19T07:12:36.000Z</time>
      </trkpt>
      <trkpt lat="47.28081" lon="-2.35777">
        <ele>16</ele>
        <time>2021-08-19T07:12:38.000Z</time>
      </trkpt>
      <trkpt lat="47.2808" lon="-2.35782">
        <ele>15.60000038147</ele>
        <time>2021-08-19T07:12:39.000Z</time>
      </trkpt>
      <trkpt lat="47.28078" lon="-2.35788">
        <ele>15.199999809265</ele>
        <time>2021-08-19T07:12:40.000Z</time>
      </trkpt>
      <trkpt lat="47.28078" lon="-2.35793">
        <ele>14.800000190735</ele>
        <time>2021-08-19T07:12:41.000Z</time>
      </trkpt>
      <trkpt lat="47.28078" lon="-2.35798">
        <ele>14.39999961853</ele>
        <time>2021-08-19T07:12:42.000Z</time>
      </trkpt>
      <trkpt lat="47.28078" lon="-2.35803">
        <ele>13.800000190735</ele>
        <time>2021-08-19T07:12:43.000Z</time>
      </trkpt>
      <trkpt lat="47.28078" lon="-2.35807">
        <ele>13.39999961853</ele>
        <time>2021-08-19T07:12:44.000Z</time>
      </trkpt>
      <trkpt lat="47.28078" lon="-2.3581">
        <ele>13</ele>
        <time>2021-08-19T07:12:45.000Z</time>
      </trkpt>
      <trkpt lat="47.28078" lon="-2.35811">
        <ele>12.60000038147</ele>
        <time>2021-08-19T07:12:46.000Z</time>
      </trkpt>
      <trkpt lat="47.28077" lon="-2.35811">
        <ele>12.199999809265</ele>
        <time>2021-08-19T07:12:47.000Z</time>
      </trkpt>
      <trkpt lat="47.28078" lon="-2.35808">
        <ele>12.199999809265</ele>
        <time>2021-08-19T07:12:48.000Z</time>
      </trkpt>
      <trkpt lat="47.28078" lon="-2.35801">
        <ele>12.199999809265</ele>
        <time>2021-08-19T07:12:52.000Z</time>
      </trkpt>
      <trkpt lat="47.28078" lon="-2.35795">
        <ele>12.199999809265</ele>
        <time>2021-08-19T07:12:55.000Z</time>
      </trkpt>
      <trkpt lat="47.28077" lon="-2.35791">
        <ele>12.199999809265</ele>
        <time>2021-08-19T07:12:58.000Z</time>
      </trkpt>
      <trkpt lat="47.28091" lon="-2.35778">
        <ele>12.199999809265</ele>
        <time>2021-08-19T07:13:01.000Z</time>
      </trkpt>
      <trkpt lat="47.28114" lon="-2.35772">
        <ele>12.199999809265</ele>
        <time>2021-08-19T07:13:06.000Z</time>
      </trkpt>
      <trkpt lat="47.28125" lon="-2.35785">
        <ele>12.199999809265</ele>
        <time>2021-08-19T07:13:10.000Z</time>
      </trkpt>
      <trkpt lat="47.28135" lon="-2.35812">
        <ele>12.199999809265</ele>
        <time>2021-08-19T07:13:15.000Z</time>
      </trkpt>
      <trkpt lat="47.28148" lon="-2.35829">
        <ele>12.199999809265</ele>
        <time>2021-08-19T07:13:20.000Z</time>
      </trkpt>
      <trkpt lat="47.28169" lon="-2.35847">
        <ele>12.199999809265</ele>
        <time>2021-08-19T07:13:27.000Z</time>
      </trkpt>
      <trkpt lat="47.28175" lon="-2.35864">
        <ele>12.199999809265</ele>
        <time>2021-08-19T07:13:33.000Z</time>
      </trkpt>
      <trkpt lat="47.28175" lon="-2.35869">
        <ele>12.199999809265</ele>
        <time>2021-08-19T07:13:35.000Z</time>
      </trkpt>
      <trkpt lat="47.28176" lon="-2.35879">
        <ele>12.199999809265</ele>
        <time>2021-08-19T07:13:38.000Z</time>
      </trkpt>
      <trkpt lat="47.28178" lon="-2.35898">
        <ele>12.199999809265</ele>
        <time>2021-08-19T07:13:44.000Z</time>
      </trkpt>
      <trkpt lat="47.28183" lon="-2.35932">
        <ele>12.199999809265</ele>
        <time>2021-08-19T07:13:50.000Z</time>
      </trkpt>
      <trkpt lat="47.28188" lon="-2.35948">
        <ele>11.60000038147</ele>
        <time>2021-08-19T07:13:53.000Z</time>
      </trkpt>
      <trkpt lat="47.28189" lon="-2.35954">
        <ele>11.199999809265</ele>
        <time>2021-08-19T07:13:54.000Z</time>
      </trkpt>
      <trkpt lat="47.28191" lon="-2.35962">
        <ele>10.800000190735</ele>
        <time>2021-08-19T07:13:55.000Z</time>
      </trkpt>
      <trkpt lat="47.28193" lon="-2.35969">
        <ele>10.39999961853</ele>
        <time>2021-08-19T07:13:56.000Z</time>
      </trkpt>
      <trkpt lat="47.28195" lon="-2.35976">
        <ele>10</ele>
        <time>2021-08-19T07:13:57.000Z</time>
      </trkpt>
      <trkpt lat="47.28206" lon="-2.36001">
        <ele>10</ele>
        <time>2021-08-19T07:14:01.000Z</time>
      </trkpt>
      <trkpt lat="47.28213" lon="-2.36019">
        <ele>10</ele>
        <time>2021-08-19T07:14:05.000Z</time>
      </trkpt>
      <trkpt lat="47.28216" lon="-2.36025">
        <ele>10</ele>
        <time>2021-08-19T07:14:07.000Z</time>
      </trkpt>
      <trkpt lat="47.28215" lon="-2.36041">
        <ele>10</ele>
        <time>2021-08-19T07:14:10.000Z</time>
      </trkpt>
      <trkpt lat="47.28213" lon="-2.36048">
        <ele>10</ele>
        <time>2021-08-19T07:14:12.000Z</time>
      </trkpt>
      <trkpt lat="47.28214" lon="-2.36063">
        <ele>10</ele>
        <time>2021-08-19T07:14:15.000Z</time>
      </trkpt>
      <trkpt lat="47.2822" lon="-2.3609">
        <ele>10</ele>
        <time>2021-08-19T07:14:20.000Z</time>
      </trkpt>
      <trkpt lat="47.28232" lon="-2.36119">
        <ele>10</ele>
        <time>2021-08-19T07:14:26.000Z</time>
      </trkpt>
      <trkpt lat="47.28248" lon="-2.36156">
        <ele>10</ele>
        <time>2021-08-19T07:14:32.000Z</time>
      </trkpt>
      <trkpt lat="47.28259" lon="-2.36184">
        <ele>10</ele>
        <time>2021-08-19T07:14:37.000Z</time>
      </trkpt>
      <trkpt lat="47.28268" lon="-2.36204">
        <ele>10</ele>
        <time>2021-08-19T07:14:42.000Z</time>
      </trkpt>
      <trkpt lat="47.28282" lon="-2.36231">
        <ele>10</ele>
        <time>2021-08-19T07:14:48.000Z</time>
      </trkpt>
      <trkpt lat="47.28292" lon="-2.36238">
        <ele>10</ele>
        <time>2021-08-19T07:14:51.000Z</time>
      </trkpt>
      <trkpt lat="47.283" lon="-2.3624">
        <ele>10</ele>
        <time>2021-08-19T07:14:53.000Z</time>
      </trkpt>
      <trkpt lat="47.28317" lon="-2.36245">
        <ele>10</ele>
        <time>2021-08-19T07:14:58.000Z</time>
      </trkpt>
      <trkpt lat="47.28339" lon="-2.36255">
        <ele>10</ele>
        <time>2021-08-19T07:15:05.000Z</time>
      </trkpt>
      <trkpt lat="47.28358" lon="-2.36265">
        <ele>10</ele>
        <time>2021-08-19T07:15:11.000Z</time>
      </trkpt>
      <trkpt lat="47.28364" lon="-2.36267">
        <ele>10.39999961853</ele>
        <time>2021-08-19T07:15:13.000Z</time>
      </trkpt>
      <trkpt lat="47.28367" lon="-2.36268">
        <ele>10.800000190735</ele>
        <time>2021-08-19T07:15:14.000Z</time>
      </trkpt>
      <trkpt lat="47.2837" lon="-2.36269">
        <ele>11.199999809265</ele>
        <time>2021-08-19T07:15:15.000Z</time>
      </trkpt>
      <trkpt lat="47.28373" lon="-2.3627">
        <ele>11.800000190735</ele>
        <time>2021-08-19T07:15:16.000Z</time>
      </trkpt>
      <trkpt lat="47.28376" lon="-2.3627">
        <ele>12.199999809265</ele>
        <time>2021-08-19T07:15:17.000Z</time>
      </trkpt>
      <trkpt lat="47.28394" lon="-2.36277">
        <ele>12.199999809265</ele>
        <time>2021-08-19T07:15:23.000Z</time>
      </trkpt>
      <trkpt lat="47.28403" lon="-2.3628">
        <ele>12.60000038147</ele>
        <time>2021-08-19T07:15:26.000Z</time>
      </trkpt>
      <trkpt lat="47.28405" lon="-2.3628">
        <ele>13</ele>
        <time>2021-08-19T07:15:27.000Z</time>
      </trkpt>
      <trkpt lat="47.28407" lon="-2.36281">
        <ele>13.39999961853</ele>
        <time>2021-08-19T07:15:28.000Z</time>
      </trkpt>
      <trkpt lat="47.2841" lon="-2.36282">
        <ele>13.800000190735</ele>
        <time>2021-08-19T07:15:29.000Z</time>
      </trkpt>
      <trkpt lat="47.28412" lon="-2.36282">
        <ele>14.39999961853</ele>
        <time>2021-08-19T07:15:30.000Z</time>
      </trkpt>
      <trkpt lat="47.28435" lon="-2.36294">
        <ele>14.39999961853</ele>
        <time>2021-08-19T07:15:36.000Z</time>
      </trkpt>
      <trkpt lat="47.28445" lon="-2.36301">
        <ele>14.800000190735</ele>
        <time>2021-08-19T07:15:39.000Z</time>
      </trkpt>
      <trkpt lat="47.28448" lon="-2.36302">
        <ele>15.199999809265</ele>
        <time>2021-08-19T07:15:40.000Z</time>
      </trkpt>
      <trkpt lat="47.28451" lon="-2.36302">
        <ele>15.60000038147</ele>
        <time>2021-08-19T07:15:41.000Z</time>
      </trkpt>
      <trkpt lat="47.28454" lon="-2.36304">
        <ele>16</ele>
        <time>2021-08-19T07:15:42.000Z</time>
      </trkpt>
      <trkpt lat="47.28456" lon="-2.36306">
        <ele>16.39999961853</ele>
        <time>2021-08-19T07:15:43.000Z</time>
      </trkpt>
      <trkpt lat="47.28458" lon="-2.3631">
        <ele>16.39999961853</ele>
        <time>2021-08-19T07:15:45.000Z</time>
      </trkpt>
      <trkpt lat="47.2846" lon="-2.36314">
        <ele>16.39999961853</ele>
        <time>2021-08-19T07:15:47.000Z</time>
      </trkpt>
      <trkpt lat="47.28462" lon="-2.36317">
        <ele>16.39999961853</ele>
        <time>2021-08-19T07:15:49.000Z</time>
      </trkpt>
      <trkpt lat="47.2847" lon="-2.36313">
        <ele>16.39999961853</ele>
        <time>2021-08-19T07:15:56.000Z</time>
      </trkpt>
      <trkpt lat="47.28475" lon="-2.36316">
        <ele>16.39999961853</ele>
        <time>2021-08-19T07:15:58.000Z</time>
      </trkpt>
      <trkpt lat="47.28494" lon="-2.36321">
        <ele>16.799999237061</ele>
        <time>2021-08-19T07:16:04.000Z</time>
      </trkpt>
      <trkpt lat="47.28496" lon="-2.36322">
        <ele>17.200000762939</ele>
        <time>2021-08-19T07:16:05.000Z</time>
      </trkpt>
      <trkpt lat="47.28499" lon="-2.36323">
        <ele>17.60000038147</ele>
        <time>2021-08-19T07:16:06.000Z</time>
      </trkpt>
      <trkpt lat="47.28502" lon="-2.36323">
        <ele>18</ele>
        <time>2021-08-19T07:16:07.000Z</time>
      </trkpt>
      <trkpt lat="47.28504" lon="-2.36324">
        <ele>18.60000038147</ele>
        <time>2021-08-19T07:16:08.000Z</time>
      </trkpt>
      <trkpt lat="47.28518" lon="-2.36321">
        <ele>18.60000038147</ele>
        <time>2021-08-19T07:16:13.000Z</time>
      </trkpt>
      <trkpt lat="47.28521" lon="-2.3632">
        <ele>19</ele>
        <time>2021-08-19T07:16:14.000Z</time>
      </trkpt>
      <trkpt lat="47.28523" lon="-2.3632">
        <ele>19.39999961853</ele>
        <time>2021-08-19T07:16:15.000Z</time>
      </trkpt>
      <trkpt lat="47.28525" lon="-2.3632">
        <ele>19.799999237061</ele>
        <time>2021-08-19T07:16:16.000Z</time>
      </trkpt>
      <trkpt lat="47.28527" lon="-2.3632">
        <ele>20.200000762939</ele>
        <time>2021-08-19T07:16:17.000Z</time>
      </trkpt>
      <trkpt lat="47.28529" lon="-2.36321">
        <ele>20.60000038147</ele>
        <time>2021-08-19T07:16:18.000Z</time>
      </trkpt>
      <trkpt lat="47.2853" lon="-2.36325">
        <ele>21.200000762939</ele>
        <time>2021-08-19T07:16:20.000Z</time>
      </trkpt>
      <trkpt lat="47.28531" lon="-2.36327">
        <ele>21.60000038147</ele>
        <time>2021-08-19T07:16:21.000Z</time>
      </trkpt>
      <trkpt lat="47.28531" lon="-2.36328">
        <ele>22</ele>
        <time>2021-08-19T07:16:22.000Z</time>
      </trkpt>
      <trkpt lat="47.28531" lon="-2.3633">
        <ele>22.60000038147</ele>
        <time>2021-08-19T07:16:23.000Z</time>
      </trkpt>
      <trkpt lat="47.28532" lon="-2.36332">
        <ele>23</ele>
        <time>2021-08-19T07:16:24.000Z</time>
      </trkpt>
      <trkpt lat="47.28532" lon="-2.36332">
        <ele>23</ele>
        <time>2021-08-19T07:16:25.000Z</time>
      </trkpt>
      <trkpt lat="47.28542" lon="-2.36352">
        <ele>27.200000762939</ele>
        <time>2021-08-19T07:17:01.000Z</time>
      </trkpt>
      <trkpt lat="47.28546" lon="-2.36363">
        <ele>27.60000038147</ele>
        <time>2021-08-19T07:17:06.000Z</time>
      </trkpt>
      <trkpt lat="47.28546" lon="-2.36364">
        <ele>28</ele>
        <time>2021-08-19T07:17:07.000Z</time>
      </trkpt>
      <trkpt lat="47.28547" lon="-2.36366">
        <ele>28.39999961853</ele>
        <time>2021-08-19T07:17:08.000Z</time>
      </trkpt>
      <trkpt lat="47.28549" lon="-2.36366">
        <ele>28.799999237061</ele>
        <time>2021-08-19T07:17:09.000Z</time>
      </trkpt>
      <trkpt lat="47.28549" lon="-2.36367">
        <ele>29.200000762939</ele>
        <time>2021-08-19T07:17:10.000Z</time>
      </trkpt>
      <trkpt lat="47.28552" lon="-2.3637">
        <ele>29.200000762939</ele>
        <time>2021-08-19T07:17:13.000Z</time>
      </trkpt>
      <trkpt lat="47.28558" lon="-2.36375">
        <ele>29.200000762939</ele>
        <time>2021-08-19T07:17:18.000Z</time>
      </trkpt>
      <trkpt lat="47.2856" lon="-2.36375">
        <ele>29.200000762939</ele>
        <time>2021-08-19T07:17:19.000Z</time>
      </trkpt>
      <trkpt lat="47.28569" lon="-2.36373">
        <ele>29.200000762939</ele>
        <time>2021-08-19T07:17:26.000Z</time>
      </trkpt>
      <trkpt lat="47.28575" lon="-2.36373">
        <ele>29.200000762939</ele>
        <time>2021-08-19T07:17:30.000Z</time>
      </trkpt>
      <trkpt lat="47.28581" lon="-2.36375">
        <ele>29.200000762939</ele>
        <time>2021-08-19T07:17:33.000Z</time>
      </trkpt>
      <trkpt lat="47.28589" lon="-2.36376">
        <ele>29.60000038147</ele>
        <time>2021-08-19T07:17:38.000Z</time>
      </trkpt>
      <trkpt lat="47.2859" lon="-2.36377">
        <ele>30</ele>
        <time>2021-08-19T07:17:39.000Z</time>
      </trkpt>
      <trkpt lat="47.28591" lon="-2.36377">
        <ele>30.39999961853</ele>
        <time>2021-08-19T07:17:40.000Z</time>
      </trkpt>
      <trkpt lat="47.28601" lon="-2.36381">
        <ele>31.200000762939</ele>
        <time>2021-08-19T07:18:27.000Z</time>
      </trkpt>
      <trkpt lat="47.28607" lon="-2.36386">
        <ele>31.200000762939</ele>
        <time>2021-08-19T07:18:29.000Z</time>
      </trkpt>
      <trkpt lat="47.28612" lon="-2.36391">
        <ele>31.60000038147</ele>
        <time>2021-08-19T07:18:31.000Z</time>
      </trkpt>
      <trkpt lat="47.28615" lon="-2.36394">
        <ele>32</ele>
        <time>2021-08-19T07:18:32.000Z</time>
      </trkpt>
      <trkpt lat="47.28617" lon="-2.36396">
        <ele>32.400001525879</ele>
        <time>2021-08-19T07:18:33.000Z</time>
      </trkpt>
      <trkpt lat="47.28619" lon="-2.36398">
        <ele>33</ele>
        <time>2021-08-19T07:18:34.000Z</time>
      </trkpt>
      <trkpt lat="47.28621" lon="-2.364">
        <ele>33.400001525879</ele>
        <time>2021-08-19T07:18:35.000Z</time>
      </trkpt>
      <trkpt lat="47.28623" lon="-2.36401">
        <ele>33.799999237061</ele>
        <time>2021-08-19T07:18:36.000Z</time>
      </trkpt>
      <trkpt lat="47.28625" lon="-2.36403">
        <ele>34.200000762939</ele>
        <time>2021-08-19T07:18:37.000Z</time>
      </trkpt>
      <trkpt lat="47.28627" lon="-2.36405">
        <ele>34.599998474121</ele>
        <time>2021-08-19T07:18:38.000Z</time>
      </trkpt>
      <trkpt lat="47.28629" lon="-2.36407">
        <ele>35</ele>
        <time>2021-08-19T07:18:39.000Z</time>
      </trkpt>
      <trkpt lat="47.2863" lon="-2.36409">
        <ele>35.799999237061</ele>
        <time>2021-08-19T07:18:40.000Z</time>
      </trkpt>
      <trkpt lat="47.28632" lon="-2.36411">
        <ele>36.200000762939</ele>
        <time>2021-08-19T07:18:41.000Z</time>
      </trkpt>
      <trkpt lat="47.28632" lon="-2.36412">
        <ele>36.599998474121</ele>
        <time>2021-08-19T07:18:42.000Z</time>
      </trkpt>
      <trkpt lat="47.28633" lon="-2.36414">
        <ele>37</ele>
        <time>2021-08-19T07:18:43.000Z</time>
      </trkpt>
      <trkpt lat="47.28633" lon="-2.36416">
        <ele>37.400001525879</ele>
        <time>2021-08-19T07:18:44.000Z</time>
      </trkpt>
      <trkpt lat="47.28633" lon="-2.36419">
        <ele>37.400001525879</ele>
        <time>2021-08-19T07:18:45.000Z</time>
      </trkpt>
      <trkpt lat="47.28632" lon="-2.36426">
        <ele>37.400001525879</ele>
        <time>2021-08-19T07:18:47.000Z</time>
      </trkpt>
      <trkpt lat="47.28627" lon="-2.36438">
        <ele>37</ele>
        <time>2021-08-19T07:18:51.000Z</time>
      </trkpt>
      <trkpt lat="47.28625" lon="-2.3644">
        <ele>36.599998474121</ele>
        <time>2021-08-19T07:18:52.000Z</time>
      </trkpt>
      <trkpt lat="47.28623" lon="-2.36443">
        <ele>36.200000762939</ele>
        <time>2021-08-19T07:18:53.000Z</time>
      </trkpt>
      <trkpt lat="47.2862" lon="-2.36446">
        <ele>35.599998474121</ele>
        <time>2021-08-19T07:18:54.000Z</time>
      </trkpt>
      <trkpt lat="47.28617" lon="-2.36448">
        <ele>35.200000762939</ele>
        <time>2021-08-19T07:18:55.000Z</time>
      </trkpt>
      <trkpt lat="47.28613" lon="-2.36451">
        <ele>34.799999237061</ele>
        <time>2021-08-19T07:18:56.000Z</time>
      </trkpt>
      <trkpt lat="47.28608" lon="-2.36454">
        <ele>34.200000762939</ele>
        <time>2021-08-19T07:18:57.000Z</time>
      </trkpt>
      <trkpt lat="47.28603" lon="-2.36456">
        <ele>33.599998474121</ele>
        <time>2021-08-19T07:18:58.000Z</time>
      </trkpt>
      <trkpt lat="47.28598" lon="-2.36459">
        <ele>33.200000762939</ele>
        <time>2021-08-19T07:18:59.000Z</time>
      </trkpt>
      <trkpt lat="47.28595" lon="-2.36463">
        <ele>32.599998474121</ele>
        <time>2021-08-19T07:19:00.000Z</time>
      </trkpt>
      <trkpt lat="47.28593" lon="-2.36467">
        <ele>32</ele>
        <time>2021-08-19T07:19:01.000Z</time>
      </trkpt>
      <trkpt lat="47.28591" lon="-2.36471">
        <ele>31.60000038147</ele>
        <time>2021-08-19T07:19:02.000Z</time>
      </trkpt>
      <trkpt lat="47.2859" lon="-2.36477">
        <ele>31</ele>
        <time>2021-08-19T07:19:03.000Z</time>
      </trkpt>
      <trkpt lat="47.2859" lon="-2.36482">
        <ele>30.39999961853</ele>
        <time>2021-08-19T07:19:04.000Z</time>
      </trkpt>
      <trkpt lat="47.2859" lon="-2.36491">
        <ele>30.39999961853</ele>
        <time>2021-08-19T07:19:05.000Z</time>
      </trkpt>
      <trkpt lat="47.28601" lon="-2.36512">
        <ele>30</ele>
        <time>2021-08-19T07:19:08.000Z</time>
      </trkpt>
      <trkpt lat="47.28607" lon="-2.36521">
        <ele>29.60000038147</ele>
        <time>2021-08-19T07:19:09.000Z</time>
      </trkpt>
      <trkpt lat="47.28612" lon="-2.36531">
        <ele>29</ele>
        <time>2021-08-19T07:19:10.000Z</time>
      </trkpt>
      <trkpt lat="47.28617" lon="-2.36541">
        <ele>28.39999961853</ele>
        <time>2021-08-19T07:19:11.000Z</time>
      </trkpt>
      <trkpt lat="47.28623" lon="-2.36551">
        <ele>27.60000038147</ele>
        <time>2021-08-19T07:19:12.000Z</time>
      </trkpt>
      <trkpt lat="47.28628" lon="-2.36561">
        <ele>27</ele>
        <time>2021-08-19T07:19:13.000Z</time>
      </trkpt>
      <trkpt lat="47.28633" lon="-2.36571">
        <ele>26.39999961853</ele>
        <time>2021-08-19T07:19:14.000Z</time>
      </trkpt>
      <trkpt lat="47.28638" lon="-2.3658">
        <ele>25.60000038147</ele>
        <time>2021-08-19T07:19:15.000Z</time>
      </trkpt>
      <trkpt lat="47.28641" lon="-2.36587">
        <ele>25.200000762939</ele>
        <time>2021-08-19T07:19:16.000Z</time>
      </trkpt>
      <trkpt lat="47.28645" lon="-2.36592">
        <ele>24.799999237061</ele>
        <time>2021-08-19T07:19:17.000Z</time>
      </trkpt>
      <trkpt lat="47.28647" lon="-2.36596">
        <ele>24.200000762939</ele>
        <time>2021-08-19T07:19:18.000Z</time>
      </trkpt>
      <trkpt lat="47.28648" lon="-2.36599">
        <ele>23.799999237061</ele>
        <time>2021-08-19T07:19:19.000Z</time>
      </trkpt>
      <trkpt lat="47.2865" lon="-2.366">
        <ele>23.39999961853</ele>
        <time>2021-08-19T07:19:20.000Z</time>
      </trkpt>
      <trkpt lat="47.2865" lon="-2.36602">
        <ele>23.39999961853</ele>
        <time>2021-08-19T07:19:21.000Z</time>
      </trkpt>
      <trkpt lat="47.28649" lon="-2.36604">
        <ele>23.39999961853</ele>
        <time>2021-08-19T07:19:22.000Z</time>
      </trkpt>
      <trkpt lat="47.28641" lon="-2.36612">
        <ele>23.39999961853</ele>
        <time>2021-08-19T07:19:25.000Z</time>
      </trkpt>
      <trkpt lat="47.28637" lon="-2.36614">
        <ele>23</ele>
        <time>2021-08-19T07:19:27.000Z</time>
      </trkpt>
      <trkpt lat="47.28635" lon="-2.36616">
        <ele>22.60000038147</ele>
        <time>2021-08-19T07:19:28.000Z</time>
      </trkpt>
      <trkpt lat="47.28633" lon="-2.36618">
        <ele>22</ele>
        <time>2021-08-19T07:19:29.000Z</time>
      </trkpt>
      <trkpt lat="47.2863" lon="-2.3662">
        <ele>21.200000762939</ele>
        <time>2021-08-19T07:19:30.000Z</time>
      </trkpt>
      <trkpt lat="47.28625" lon="-2.36624">
        <ele>21.200000762939</ele>
        <time>2021-08-19T07:19:32.000Z</time>
      </trkpt>
      <trkpt lat="47.28616" lon="-2.3663">
        <ele>20.799999237061</ele>
        <time>2021-08-19T07:19:35.000Z</time>
      </trkpt>
      <trkpt lat="47.28613" lon="-2.36632">
        <ele>20.39999961853</ele>
        <time>2021-08-19T07:19:36.000Z</time>
      </trkpt>
      <trkpt lat="47.2861" lon="-2.36634">
        <ele>19.799999237061</ele>
        <time>2021-08-19T07:19:37.000Z</time>
      </trkpt>
      <trkpt lat="47.28607" lon="-2.36637">
        <ele>19.39999961853</ele>
        <time>2021-08-19T07:19:38.000Z</time>
      </trkpt>
      <trkpt lat="47.28604" lon="-2.3664">
        <ele>18.799999237061</ele>
        <time>2021-08-19T07:19:39.000Z</time>
      </trkpt>
      <trkpt lat="47.28603" lon="-2.36641">
        <ele>18.200000762939</ele>
        <time>2021-08-19T07:19:40.000Z</time>
      </trkpt>
      <trkpt lat="47.28602" lon="-2.36642">
        <ele>17.60000038147</ele>
        <time>2021-08-19T07:19:41.000Z</time>
      </trkpt>
      <trkpt lat="47.286" lon="-2.36643">
        <ele>17</ele>
        <time>2021-08-19T07:19:42.000Z</time>
      </trkpt>
      <trkpt lat="47.28598" lon="-2.36643">
        <ele>16.39999961853</ele>
        <time>2021-08-19T07:19:43.000Z</time>
      </trkpt>
      <trkpt lat="47.28595" lon="-2.36644">
        <ele>16.39999961853</ele>
        <time>2021-08-19T07:19:44.000Z</time>
      </trkpt>
      <trkpt lat="47.28592" lon="-2.36646">
        <ele>16.39999961853</ele>
        <time>2021-08-19T07:19:45.000Z</time>
      </trkpt>
      <trkpt lat="47.28587" lon="-2.36654">
        <ele>16</ele>
        <time>2021-08-19T07:19:47.000Z</time>
      </trkpt>
      <trkpt lat="47.28583" lon="-2.36656">
        <ele>15.60000038147</ele>
        <time>2021-08-19T07:19:48.000Z</time>
      </trkpt>
      <trkpt lat="47.28578" lon="-2.36657">
        <ele>15.199999809265</ele>
        <time>2021-08-19T07:19:49.000Z</time>
      </trkpt>
      <trkpt lat="47.28573" lon="-2.36658">
        <ele>14.800000190735</ele>
        <time>2021-08-19T07:19:50.000Z</time>
      </trkpt>
      <trkpt lat="47.28567" lon="-2.36658">
        <ele>14.199999809265</ele>
        <time>2021-08-19T07:19:51.000Z</time>
      </trkpt>
      <trkpt lat="47.28545" lon="-2.36659">
        <ele>14.199999809265</ele>
        <time>2021-08-19T07:19:55.000Z</time>
      </trkpt>
      <trkpt lat="47.28541" lon="-2.3666">
        <ele>13.800000190735</ele>
        <time>2021-08-19T07:19:56.000Z</time>
      </trkpt>
      <trkpt lat="47.28537" lon="-2.36661">
        <ele>13.39999961853</ele>
        <time>2021-08-19T07:19:57.000Z</time>
      </trkpt>
      <trkpt lat="47.28534" lon="-2.36662">
        <ele>13</ele>
        <time>2021-08-19T07:19:58.000Z</time>
      </trkpt>
      <trkpt lat="47.28531" lon="-2.36665">
        <ele>12.60000038147</ele>
        <time>2021-08-19T07:19:59.000Z</time>
      </trkpt>
      <trkpt lat="47.28528" lon="-2.36669">
        <ele>12.199999809265</ele>
        <time>2021-08-19T07:20:00.000Z</time>
      </trkpt>
      <trkpt lat="47.28522" lon="-2.36686">
        <ele>12.199999809265</ele>
        <time>2021-08-19T07:20:03.000Z</time>
      </trkpt>
      <trkpt lat="47.28527" lon="-2.36696">
        <ele>12.199999809265</ele>
        <time>2021-08-19T07:20:05.000Z</time>
      </trkpt>
      <trkpt lat="47.2853" lon="-2.36702">
        <ele>12.199999809265</ele>
        <time>2021-08-19T07:20:06.000Z</time>
      </trkpt>
      <trkpt lat="47.2854" lon="-2.36725">
        <ele>12.199999809265</ele>
        <time>2021-08-19T07:20:09.000Z</time>
      </trkpt>
      <trkpt lat="47.28548" lon="-2.36742">
        <ele>11.800000190735</ele>
        <time>2021-08-19T07:20:11.000Z</time>
      </trkpt>
      <trkpt lat="47.28552" lon="-2.36751">
        <ele>11.39999961853</ele>
        <time>2021-08-19T07:20:12.000Z</time>
      </trkpt>
      <trkpt lat="47.28556" lon="-2.3676">
        <ele>11</ele>
        <time>2021-08-19T07:20:13.000Z</time>
      </trkpt>
      <trkpt lat="47.2856" lon="-2.36769">
        <ele>10.60000038147</ele>
        <time>2021-08-19T07:20:14.000Z</time>
      </trkpt>
      <trkpt lat="47.28564" lon="-2.36778">
        <ele>10.199999809265</ele>
        <time>2021-08-19T07:20:15.000Z</time>
      </trkpt>
      <trkpt lat="47.28582" lon="-2.36813">
        <ele>9.1999998092651</ele>
        <time>2021-08-19T07:20:19.000Z</time>
      </trkpt>
      <trkpt lat="47.28586" lon="-2.3682">
        <ele>8.8000001907349</ele>
        <time>2021-08-19T07:20:20.000Z</time>
      </trkpt>
      <trkpt lat="47.28589" lon="-2.36827">
        <ele>8.3999996185303</ele>
        <time>2021-08-19T07:20:21.000Z</time>
      </trkpt>
      <trkpt lat="47.28593" lon="-2.36834">
        <ele>8</ele>
        <time>2021-08-19T07:20:22.000Z</time>
      </trkpt>
      <trkpt lat="47.28597" lon="-2.36839">
        <ele>7.5999999046326</ele>
        <time>2021-08-19T07:20:23.000Z</time>
      </trkpt>
      <trkpt lat="47.28602" lon="-2.36842">
        <ele>7.1999998092651</ele>
        <time>2021-08-19T07:20:24.000Z</time>
      </trkpt>
      <trkpt lat="47.28607" lon="-2.36843">
        <ele>6.8000001907349</ele>
        <time>2021-08-19T07:20:25.000Z</time>
      </trkpt>
      <trkpt lat="47.28612" lon="-2.36842">
        <ele>6.4000000953674</ele>
        <time>2021-08-19T07:20:26.000Z</time>
      </trkpt>
      <trkpt lat="47.28617" lon="-2.36838">
        <ele>6</ele>
        <time>2021-08-19T07:20:27.000Z</time>
      </trkpt>
      <trkpt lat="47.2862" lon="-2.36834">
        <ele>6</ele>
        <time>2021-08-19T07:20:28.000Z</time>
      </trkpt>
      <trkpt lat="47.28623" lon="-2.3683">
        <ele>6</ele>
        <time>2021-08-19T07:20:29.000Z</time>
      </trkpt>
      <trkpt lat="47.28634" lon="-2.36817">
        <ele>6</ele>
        <time>2021-08-19T07:20:33.000Z</time>
      </trkpt>
      <trkpt lat="47.28648" lon="-2.36802">
        <ele>6</ele>
        <time>2021-08-19T07:20:37.000Z</time>
      </trkpt>
      <trkpt lat="47.28655" lon="-2.36794">
        <ele>6</ele>
        <time>2021-08-19T07:20:39.000Z</time>
      </trkpt>
      <trkpt lat="47.28659" lon="-2.36792">
        <ele>6</ele>
        <time>2021-08-19T07:20:40.000Z</time>
      </trkpt>
      <trkpt lat="47.28668" lon="-2.36792">
        <ele>6</ele>
        <time>2021-08-19T07:20:42.000Z</time>
      </trkpt>
      <trkpt lat="47.28679" lon="-2.36795">
        <ele>6.8000001907349</ele>
        <time>2021-08-19T07:20:45.000Z</time>
      </trkpt>
      <trkpt lat="47.28683" lon="-2.36798">
        <ele>7.1999998092651</ele>
        <time>2021-08-19T07:20:46.000Z</time>
      </trkpt>
      <trkpt lat="47.28687" lon="-2.36802">
        <ele>7.5999999046326</ele>
        <time>2021-08-19T07:20:47.000Z</time>
      </trkpt>
      <trkpt lat="47.28691" lon="-2.36806">
        <ele>8</ele>
        <time>2021-08-19T07:20:48.000Z</time>
      </trkpt>
      <trkpt lat="47.28705" lon="-2.36818">
        <ele>8</ele>
        <time>2021-08-19T07:20:51.000Z</time>
      </trkpt>
      <trkpt lat="47.28728" lon="-2.36846">
        <ele>8</ele>
        <time>2021-08-19T07:20:56.000Z</time>
      </trkpt>
      <trkpt lat="47.2873" lon="-2.36853">
        <ele>8</ele>
        <time>2021-08-19T07:20:57.000Z</time>
      </trkpt>
      <trkpt lat="47.28733" lon="-2.3686">
        <ele>7.5999999046326</ele>
        <time>2021-08-19T07:20:58.000Z</time>
      </trkpt>
      <trkpt lat="47.28736" lon="-2.36865">
        <ele>7.1999998092651</ele>
        <time>2021-08-19T07:20:59.000Z</time>
      </trkpt>
      <trkpt lat="47.28739" lon="-2.36871">
        <ele>6.8000001907349</ele>
        <time>2021-08-19T07:21:00.000Z</time>
      </trkpt>
      <trkpt lat="47.28742" lon="-2.36877">
        <ele>6.4000000953674</ele>
        <time>2021-08-19T07:21:01.000Z</time>
      </trkpt>
      <trkpt lat="47.28746" lon="-2.36882">
        <ele>5.8000001907349</ele>
        <time>2021-08-19T07:21:02.000Z</time>
      </trkpt>
      <trkpt lat="47.28749" lon="-2.36889">
        <ele>5.1999998092651</ele>
        <time>2021-08-19T07:21:03.000Z</time>
      </trkpt>
      <trkpt lat="47.28752" lon="-2.36894">
        <ele>4.5999999046326</ele>
        <time>2021-08-19T07:21:04.000Z</time>
      </trkpt>
      <trkpt lat="47.28756" lon="-2.36899">
        <ele>4</ele>
        <time>2021-08-19T07:21:05.000Z</time>
      </trkpt>
      <trkpt lat="47.2876" lon="-2.36903">
        <ele>3.4000000953674</ele>
        <time>2021-08-19T07:21:06.000Z</time>
      </trkpt>
      <trkpt lat="47.28765" lon="-2.36916">
        <ele>3.4000000953674</ele>
        <time>2021-08-19T07:21:08.000Z</time>
      </trkpt>
      <trkpt lat="47.28765" lon="-2.36938">
        <ele>4</ele>
        <time>2021-08-19T07:21:12.000Z</time>
      </trkpt>
      <trkpt lat="47.28765" lon="-2.36941">
        <ele>4.4000000953674</ele>
        <time>2021-08-19T07:21:13.000Z</time>
      </trkpt>
      <trkpt lat="47.28765" lon="-2.36943">
        <ele>5</ele>
        <time>2021-08-19T07:21:14.000Z</time>
      </trkpt>
      <trkpt lat="47.28764" lon="-2.36946">
        <ele>5.4000000953674</ele>
        <time>2021-08-19T07:21:15.000Z</time>
      </trkpt>
      <trkpt lat="47.28764" lon="-2.36949">
        <ele>5.8000001907349</ele>
        <time>2021-08-19T07:21:16.000Z</time>
      </trkpt>
      <trkpt lat="47.28763" lon="-2.36955">
        <ele>6.4000000953674</ele>
        <time>2021-08-19T07:21:18.000Z</time>
      </trkpt>
      <trkpt lat="47.28764" lon="-2.36959">
        <ele>6.8000001907349</ele>
        <time>2021-08-19T07:21:19.000Z</time>
      </trkpt>
      <trkpt lat="47.28766" lon="-2.36963">
        <ele>7.1999998092651</ele>
        <time>2021-08-19T07:21:20.000Z</time>
      </trkpt>
      <trkpt lat="47.28768" lon="-2.36967">
        <ele>7.5999999046326</ele>
        <time>2021-08-19T07:21:21.000Z</time>
      </trkpt>
      <trkpt lat="47.28769" lon="-2.3697">
        <ele>8</ele>
        <time>2021-08-19T07:21:22.000Z</time>
      </trkpt>
      <trkpt lat="47.2877" lon="-2.36975">
        <ele>8</ele>
        <time>2021-08-19T07:21:24.000Z</time>
      </trkpt>
      <trkpt lat="47.2877" lon="-2.36982">
        <ele>8</ele>
        <time>2021-08-19T07:21:27.000Z</time>
      </trkpt>
      <trkpt lat="47.28776" lon="-2.36998">
        <ele>8</ele>
        <time>2021-08-19T07:21:33.000Z</time>
      </trkpt>
      <trkpt lat="47.28795" lon="-2.37036">
        <ele>8</ele>
        <time>2021-08-19T07:21:41.000Z</time>
      </trkpt>
      <trkpt lat="47.28798" lon="-2.37041">
        <ele>7.4000000953674</ele>
        <time>2021-08-19T07:21:42.000Z</time>
      </trkpt>
      <trkpt lat="47.28801" lon="-2.37047">
        <ele>7</ele>
        <time>2021-08-19T07:21:43.000Z</time>
      </trkpt>
      <trkpt lat="47.28804" lon="-2.37052">
        <ele>6.5999999046326</ele>
        <time>2021-08-19T07:21:44.000Z</time>
      </trkpt>
      <trkpt lat="47.28807" lon="-2.37058">
        <ele>6.1999998092651</ele>
        <time>2021-08-19T07:21:45.000Z</time>
      </trkpt>
      <trkpt lat="47.2881" lon="-2.37064">
        <ele>5.8000001907349</ele>
        <time>2021-08-19T07:21:46.000Z</time>
      </trkpt>
      <trkpt lat="47.28811" lon="-2.37071">
        <ele>5.4000000953674</ele>
        <time>2021-08-19T07:21:47.000Z</time>
      </trkpt>
      <trkpt lat="47.28812" lon="-2.37078">
        <ele>5</ele>
        <time>2021-08-19T07:21:48.000Z</time>
      </trkpt>
      <trkpt lat="47.28813" lon="-2.37083">
        <ele>4.4000000953674</ele>
        <time>2021-08-19T07:21:49.000Z</time>
      </trkpt>
      <trkpt lat="47.28814" lon="-2.37087">
        <ele>4</ele>
        <time>2021-08-19T07:21:50.000Z</time>
      </trkpt>
      <trkpt lat="47.28817" lon="-2.3709">
        <ele>3.5999999046326</ele>
        <time>2021-08-19T07:21:51.000Z</time>
      </trkpt>
      <trkpt lat="47.2882" lon="-2.37092">
        <ele>3.2000000476837</ele>
        <time>2021-08-19T07:21:52.000Z</time>
      </trkpt>
      <trkpt lat="47.28822" lon="-2.37093">
        <ele>2.7999999523163</ele>
        <time>2021-08-19T07:21:53.000Z</time>
      </trkpt>
      <trkpt lat="47.28824" lon="-2.37095">
        <ele>2.2000000476837</ele>
        <time>2021-08-19T07:21:54.000Z</time>
      </trkpt>
      <trkpt lat="47.28826" lon="-2.37094">
        <ele>1.7999999523163</ele>
        <time>2021-08-19T07:21:55.000Z</time>
      </trkpt>
      <trkpt lat="47.28827" lon="-2.37094">
        <ele>1.2000000476837</ele>
        <time>2021-08-19T07:21:56.000Z</time>
      </trkpt>
      <trkpt lat="47.28826" lon="-2.37096">
        <ele>0.60000002384186</ele>
        <time>2021-08-19T07:21:57.000Z</time>
      </trkpt>
      <trkpt lat="47.28827" lon="-2.37098">
        <ele>11.2</ele>
        <time>2021-08-19T07:21:58.000Z</time>
      </trkpt>
      <trkpt lat="47.28828" lon="-2.37099">
        <ele>-1</ele>
        <time>2021-08-19T07:21:59.000Z</time>
      </trkpt>
      <trkpt lat="47.28829" lon="-2.371">
        <ele>-1.6000000238419</ele>
        <time>2021-08-19T07:22:00.000Z</time>
      </trkpt>
      <trkpt lat="47.28829" lon="-2.37105">
        <ele>-2.2000000476837</ele>
        <time>2021-08-19T07:22:01.000Z</time>
      </trkpt>
      <trkpt lat="47.28829" lon="-2.37111">
        <ele>-2.5999999046326</ele>
        <time>2021-08-19T07:22:02.000Z</time>
      </trkpt>
      <trkpt lat="47.28828" lon="-2.37119">
        <ele>-3.2000000476837</ele>
        <time>2021-08-19T07:22:03.000Z</time>
      </trkpt>
      <trkpt lat="47.28829" lon="-2.37152">
        <ele>-3.2000000476837</ele>
        <time>2021-08-19T07:22:07.000Z</time>
      </trkpt>
      <trkpt lat="47.28836" lon="-2.37201">
        <ele>-3.2000000476837</ele>
        <time>2021-08-19T07:22:14.000Z</time>
      </trkpt>
      <trkpt lat="47.28845" lon="-2.3724">
        <ele>-3.2000000476837</ele>
        <time>2021-08-19T07:22:21.000Z</time>
      </trkpt>
      <trkpt lat="47.28852" lon="-2.3725">
        <ele>-3.2000000476837</ele>
        <time>2021-08-19T07:22:25.000Z</time>
      </trkpt>
      <trkpt lat="47.28862" lon="-2.37242">
        <ele>-3.2000000476837</ele>
        <time>2021-08-19T07:22:29.000Z</time>
      </trkpt>
      <trkpt lat="47.28866" lon="-2.37238">
        <ele>-3.2000000476837</ele>
        <time>2021-08-19T07:22:30.000Z</time>
      </trkpt>
      <trkpt lat="47.28894" lon="-2.37224">
        <ele>-3.2000000476837</ele>
        <time>2021-08-19T07:22:37.000Z</time>
      </trkpt>
      <trkpt lat="47.28924" lon="-2.3721">
        <ele>-3.2000000476837</ele>
        <time>2021-08-19T07:22:46.000Z</time>
      </trkpt>
      <trkpt lat="47.28942" lon="-2.37202">
        <ele>-3.2000000476837</ele>
        <time>2021-08-19T07:22:53.000Z</time>
      </trkpt>
      <trkpt lat="47.28953" lon="-2.37201">
        <ele>-3.2000000476837</ele>
        <time>2021-08-19T07:23:01.000Z</time>
      </trkpt>
      <trkpt lat="47.28955" lon="-2.372">
        <ele>-3.2000000476837</ele>
        <time>2021-08-19T07:23:40.000Z</time>
      </trkpt>
      <trkpt lat="47.28962" lon="-2.37196">
        <ele>-3.2000000476837</ele>
        <time>2021-08-19T07:23:44.000Z</time>
      </trkpt>
      <trkpt lat="47.28969" lon="-2.37191">
        <ele>-2.7999999523163</ele>
        <time>2021-08-19T07:23:47.000Z</time>
      </trkpt>
      <trkpt lat="47.28972" lon="-2.37188">
        <ele>-2.4000000953674</ele>
        <time>2021-08-19T07:23:48.000Z</time>
      </trkpt>
      <trkpt lat="47.28974" lon="-2.37186">
        <ele>-2</ele>
        <time>2021-08-19T07:23:49.000Z</time>
      </trkpt>
      <trkpt lat="47.28977" lon="-2.37183">
        <ele>-1.6000000238419</ele>
        <time>2021-08-19T07:23:50.000Z</time>
      </trkpt>
      <trkpt lat="47.28981" lon="-2.37181">
        <ele>-1.2000000476837</ele>
        <time>2021-08-19T07:23:51.000Z</time>
      </trkpt>
      <trkpt lat="47.28993" lon="-2.37171">
        <ele>-1.2000000476837</ele>
        <time>2021-08-19T07:23:55.000Z</time>
      </trkpt>
      <trkpt lat="47.29002" lon="-2.37163">
        <ele>-0.60000002384186</ele>
        <time>2021-08-19T07:23:58.000Z</time>
      </trkpt>
      <trkpt lat="47.29005" lon="-2.37159">
        <ele>-0.20000000298023</ele>
        <time>2021-08-19T07:23:59.000Z</time>
      </trkpt>
      <trkpt lat="47.29008" lon="-2.37156">
        <ele>0.20000000298023</ele>
        <time>2021-08-19T07:24:00.000Z</time>
      </trkpt>
      <trkpt lat="47.2901" lon="-2.37153">
        <ele>0.60000002384186</ele>
        <time>2021-08-19T07:24:01.000Z</time>
      </trkpt>
      <trkpt lat="47.29013" lon="-2.37151">
        <ele>1</ele>
        <time>2021-08-19T07:24:02.000Z</time>
      </trkpt>
      <trkpt lat="47.29015" lon="-2.37148">
        <ele>2</ele>
        <time>2021-08-19T07:24:03.000Z</time>
      </trkpt>
      <trkpt lat="47.29017" lon="-2.37146">
        <ele>2.4000000953674</ele>
        <time>2021-08-19T07:24:04.000Z</time>
      </trkpt>
      <trkpt lat="47.2902" lon="-2.37143">
        <ele>2.7999999523163</ele>
        <time>2021-08-19T07:24:05.000Z</time>
      </trkpt>
      <trkpt lat="47.29022" lon="-2.3714">
        <ele>3.2000000476837</ele>
        <time>2021-08-19T07:24:06.000Z</time>
      </trkpt>
      <trkpt lat="47.29027" lon="-2.37131">
        <ele>3.5999999046326</ele>
        <time>2021-08-19T07:24:09.000Z</time>
      </trkpt>
      <trkpt lat="47.29029" lon="-2.37128">
        <ele>4.1999998092651</ele>
        <time>2021-08-19T07:24:10.000Z</time>
      </trkpt>
      <trkpt lat="47.29032" lon="-2.37124">
        <ele>4.5999999046326</ele>
        <time>2021-08-19T07:24:11.000Z</time>
      </trkpt>
      <trkpt lat="47.29034" lon="-2.37122">
        <ele>5</ele>
        <time>2021-08-19T07:24:12.000Z</time>
      </trkpt>
      <trkpt lat="47.29036" lon="-2.37118">
        <ele>5.4000000953674</ele>
        <time>2021-08-19T07:24:13.000Z</time>
      </trkpt>
      <trkpt lat="47.29043" lon="-2.37109">
        <ele>5.8000001907349</ele>
        <time>2021-08-19T07:24:16.000Z</time>
      </trkpt>
      <trkpt lat="47.29045" lon="-2.37105">
        <ele>6.4000000953674</ele>
        <time>2021-08-19T07:24:17.000Z</time>
      </trkpt>
      <trkpt lat="47.29047" lon="-2.37102">
        <ele>6.8000001907349</ele>
        <time>2021-08-19T07:24:18.000Z</time>
      </trkpt>
      <trkpt lat="47.29049" lon="-2.37099">
        <ele>7.1999998092651</ele>
        <time>2021-08-19T07:24:19.000Z</time>
      </trkpt>
      <trkpt lat="47.29051" lon="-2.37096">
        <ele>7.5999999046326</ele>
        <time>2021-08-19T07:24:20.000Z</time>
      </trkpt>
      <trkpt lat="47.29058" lon="-2.37087">
        <ele>8</ele>
        <time>2021-08-19T07:24:23.000Z</time>
      </trkpt>
      <trkpt lat="47.29061" lon="-2.37083">
        <ele>8.3999996185303</ele>
        <time>2021-08-19T07:24:24.000Z</time>
      </trkpt>
      <trkpt lat="47.29063" lon="-2.3708">
        <ele>8.8000001907349</ele>
        <time>2021-08-19T07:24:25.000Z</time>
      </trkpt>
      <trkpt lat="47.29065" lon="-2.37076">
        <ele>9.1999998092651</ele>
        <time>2021-08-19T07:24:26.000Z</time>
      </trkpt>
      <trkpt lat="47.29067" lon="-2.37073">
        <ele>9.6000003814697</ele>
        <time>2021-08-19T07:24:27.000Z</time>
      </trkpt>
      <trkpt lat="47.29074" lon="-2.37063">
        <ele>10.199999809265</ele>
        <time>2021-08-19T07:24:30.000Z</time>
      </trkpt>
      <trkpt lat="47.29076" lon="-2.37059">
        <ele>10.60000038147</ele>
        <time>2021-08-19T07:24:31.000Z</time>
      </trkpt>
      <trkpt lat="47.29078" lon="-2.37056">
        <ele>11</ele>
        <time>2021-08-19T07:24:32.000Z</time>
      </trkpt>
      <trkpt lat="47.2908" lon="-2.37052">
        <ele>11.60000038147</ele>
        <time>2021-08-19T07:24:33.000Z</time>
      </trkpt>
      <trkpt lat="47.29082" lon="-2.37049">
        <ele>12</ele>
        <time>2021-08-19T07:24:34.000Z</time>
      </trkpt>
      <trkpt lat="47.29087" lon="-2.37039">
        <ele>12</ele>
        <time>2021-08-19T07:24:37.000Z</time>
      </trkpt>
      <trkpt lat="47.29089" lon="-2.37036">
        <ele>12.39999961853</ele>
        <time>2021-08-19T07:24:38.000Z</time>
      </trkpt>
      <trkpt lat="47.29091" lon="-2.37032">
        <ele>12.800000190735</ele>
        <time>2021-08-19T07:24:39.000Z</time>
      </trkpt>
      <trkpt lat="47.29093" lon="-2.37028">
        <ele>13.39999961853</ele>
        <time>2021-08-19T07:24:40.000Z</time>
      </trkpt>
      <trkpt lat="47.29095" lon="-2.37024">
        <ele>13.800000190735</ele>
        <time>2021-08-19T07:24:41.000Z</time>
      </trkpt>
      <trkpt lat="47.29097" lon="-2.3702">
        <ele>14.199999809265</ele>
        <time>2021-08-19T07:24:42.000Z</time>
      </trkpt>
      <trkpt lat="47.29101" lon="-2.37013">
        <ele>14.199999809265</ele>
        <time>2021-08-19T07:24:44.000Z</time>
      </trkpt>
      <trkpt lat="47.29105" lon="-2.37006">
        <ele>14.60000038147</ele>
        <time>2021-08-19T07:24:46.000Z</time>
      </trkpt>
      <trkpt lat="47.29108" lon="-2.37002">
        <ele>15</ele>
        <time>2021-08-19T07:24:47.000Z</time>
      </trkpt>
      <trkpt lat="47.2911" lon="-2.36998">
        <ele>15.39999961853</ele>
        <time>2021-08-19T07:24:48.000Z</time>
      </trkpt>
      <trkpt lat="47.29112" lon="-2.36994">
        <ele>15.800000190735</ele>
        <time>2021-08-19T07:24:49.000Z</time>
      </trkpt>
      <trkpt lat="47.29114" lon="-2.36991">
        <ele>16.200000762939</ele>
        <time>2021-08-19T07:24:50.000Z</time>
      </trkpt>
      <trkpt lat="47.29117" lon="-2.36987">
        <ele>16.200000762939</ele>
        <time>2021-08-19T07:24:51.000Z</time>
      </trkpt>
      <trkpt lat="47.2913" lon="-2.36969">
        <ele>16.799999237061</ele>
        <time>2021-08-19T07:24:57.000Z</time>
      </trkpt>
      <trkpt lat="47.29132" lon="-2.36968">
        <ele>17.200000762939</ele>
        <time>2021-08-19T07:24:58.000Z</time>
      </trkpt>
      <trkpt lat="47.29136" lon="-2.36968">
        <ele>17.60000038147</ele>
        <time>2021-08-19T07:24:59.000Z</time>
      </trkpt>
      <trkpt lat="47.29138" lon="-2.36969">
        <ele>18</ele>
        <time>2021-08-19T07:25:00.000Z</time>
      </trkpt>
      <trkpt lat="47.29141" lon="-2.36971">
        <ele>18.39999961853</ele>
        <time>2021-08-19T07:25:01.000Z</time>
      </trkpt>
      <trkpt lat="47.29144" lon="-2.36974">
        <ele>18.39999961853</ele>
        <time>2021-08-19T07:25:02.000Z</time>
      </trkpt>
      <trkpt lat="47.29148" lon="-2.36977">
        <ele>18.39999961853</ele>
        <time>2021-08-19T07:25:03.000Z</time>
      </trkpt>
      <trkpt lat="47.29163" lon="-2.36996">
        <ele>18.39999961853</ele>
        <time>2021-08-19T07:25:08.000Z</time>
      </trkpt>
      <trkpt lat="47.29183" lon="-2.37023">
        <ele>18.39999961853</ele>
        <time>2021-08-19T07:25:15.000Z</time>
      </trkpt>
      <trkpt lat="47.29215" lon="-2.37065">
        <ele>18.39999961853</ele>
        <time>2021-08-19T07:25:25.000Z</time>
      </trkpt>
      <trkpt lat="47.29222" lon="-2.37069">
        <ele>18.39999961853</ele>
        <time>2021-08-19T07:25:27.000Z</time>
      </trkpt>
      <trkpt lat="47.29227" lon="-2.37068">
        <ele>18.39999961853</ele>
        <time>2021-08-19T07:25:29.000Z</time>
      </trkpt>
      <trkpt lat="47.29234" lon="-2.37055">
        <ele>18.39999961853</ele>
        <time>2021-08-19T07:25:31.000Z</time>
      </trkpt>
      <trkpt lat="47.29238" lon="-2.37048">
        <ele>18.39999961853</ele>
        <time>2021-08-19T07:25:32.000Z</time>
      </trkpt>
      <trkpt lat="47.2925" lon="-2.37024">
        <ele>18.799999237061</ele>
        <time>2021-08-19T07:25:36.000Z</time>
      </trkpt>
      <trkpt lat="47.29253" lon="-2.37019">
        <ele>19.200000762939</ele>
        <time>2021-08-19T07:25:37.000Z</time>
      </trkpt>
      <trkpt lat="47.29255" lon="-2.37014">
        <ele>19.60000038147</ele>
        <time>2021-08-19T07:25:38.000Z</time>
      </trkpt>
      <trkpt lat="47.29258" lon="-2.37009">
        <ele>20</ele>
        <time>2021-08-19T07:25:39.000Z</time>
      </trkpt>
      <trkpt lat="47.2926" lon="-2.37004">
        <ele>20.39999961853</ele>
        <time>2021-08-19T07:25:40.000Z</time>
      </trkpt>
      <trkpt lat="47.2928" lon="-2.3697">
        <ele>20.39999961853</ele>
        <time>2021-08-19T07:25:47.000Z</time>
      </trkpt>
      <trkpt lat="47.29305" lon="-2.36929">
        <ele>20.39999961853</ele>
        <time>2021-08-19T07:25:55.000Z</time>
      </trkpt>
      <trkpt lat="47.29331" lon="-2.36901">
        <ele>20.39999961853</ele>
        <time>2021-08-19T07:26:02.000Z</time>
      </trkpt>
      <trkpt lat="47.29356" lon="-2.3688">
        <ele>20.39999961853</ele>
        <time>2021-08-19T07:26:08.000Z</time>
      </trkpt>
      <trkpt lat="47.2939" lon="-2.36851">
        <ele>20.39999961853</ele>
        <time>2021-08-19T07:26:16.000Z</time>
      </trkpt>
      <trkpt lat="47.29398" lon="-2.36842">
        <ele>20.39999961853</ele>
        <time>2021-08-19T07:26:18.000Z</time>
      </trkpt>
      <trkpt lat="47.29412" lon="-2.3682">
        <ele>20.39999961853</ele>
        <time>2021-08-19T07:26:22.000Z</time>
      </trkpt>
      <trkpt lat="47.29434" lon="-2.36775">
        <ele>20.39999961853</ele>
        <time>2021-08-19T07:26:29.000Z</time>
      </trkpt>
      <trkpt lat="47.29443" lon="-2.36755">
        <ele>20.39999961853</ele>
        <time>2021-08-19T07:26:32.000Z</time>
      </trkpt>
      <trkpt lat="47.29451" lon="-2.36746">
        <ele>20.39999961853</ele>
        <time>2021-08-19T07:26:34.000Z</time>
      </trkpt>
      <trkpt lat="47.29464" lon="-2.36746">
        <ele>20.39999961853</ele>
        <time>2021-08-19T07:26:37.000Z</time>
      </trkpt>
      <trkpt lat="47.29481" lon="-2.36749">
        <ele>20.39999961853</ele>
        <time>2021-08-19T07:26:41.000Z</time>
      </trkpt>
      <trkpt lat="47.29491" lon="-2.36743">
        <ele>20.39999961853</ele>
        <time>2021-08-19T07:26:43.000Z</time>
      </trkpt>
      <trkpt lat="47.295" lon="-2.36737">
        <ele>20.39999961853</ele>
        <time>2021-08-19T07:26:45.000Z</time>
      </trkpt>
      <trkpt lat="47.29512" lon="-2.36724">
        <ele>20.39999961853</ele>
        <time>2021-08-19T07:26:48.000Z</time>
      </trkpt>
      <trkpt lat="47.2953" lon="-2.36705">
        <ele>20.39999961853</ele>
        <time>2021-08-19T07:26:53.000Z</time>
      </trkpt>
      <trkpt lat="47.29538" lon="-2.36699">
        <ele>20.39999961853</ele>
        <time>2021-08-19T07:26:55.000Z</time>
      </trkpt>
      <trkpt lat="47.29568" lon="-2.36684">
        <ele>20.39999961853</ele>
        <time>2021-08-19T07:27:01.000Z</time>
      </trkpt>
      <trkpt lat="47.29608" lon="-2.36671">
        <ele>20.39999961853</ele>
        <time>2021-08-19T07:27:09.000Z</time>
      </trkpt>
      <trkpt lat="47.29617" lon="-2.36668">
        <ele>20.799999237061</ele>
        <time>2021-08-19T07:27:11.000Z</time>
      </trkpt>
      <trkpt lat="47.29622" lon="-2.36667">
        <ele>21.39999961853</ele>
        <time>2021-08-19T07:27:12.000Z</time>
      </trkpt>
      <trkpt lat="47.29626" lon="-2.36665">
        <ele>21.799999237061</ele>
        <time>2021-08-19T07:27:13.000Z</time>
      </trkpt>
      <trkpt lat="47.2963" lon="-2.36664">
        <ele>22.200000762939</ele>
        <time>2021-08-19T07:27:14.000Z</time>
      </trkpt>
      <trkpt lat="47.29634" lon="-2.36663">
        <ele>22.60000038147</ele>
        <time>2021-08-19T07:27:15.000Z</time>
      </trkpt>
      <trkpt lat="47.29648" lon="-2.36658">
        <ele>22.60000038147</ele>
        <time>2021-08-19T07:27:18.000Z</time>
      </trkpt>
      <trkpt lat="47.29686" lon="-2.36644">
        <ele>22.60000038147</ele>
        <time>2021-08-19T07:27:26.000Z</time>
      </trkpt>
      <trkpt lat="47.29718" lon="-2.36625">
        <ele>22.60000038147</ele>
        <time>2021-08-19T07:27:33.000Z</time>
      </trkpt>
      <trkpt lat="47.29726" lon="-2.36621">
        <ele>22.60000038147</ele>
        <time>2021-08-19T07:27:35.000Z</time>
      </trkpt>
      <trkpt lat="47.29736" lon="-2.36627">
        <ele>22.60000038147</ele>
        <time>2021-08-19T07:27:38.000Z</time>
      </trkpt>
      <trkpt lat="47.29739" lon="-2.36631">
        <ele>22.60000038147</ele>
        <time>2021-08-19T07:27:39.000Z</time>
      </trkpt>
      <trkpt lat="47.29746" lon="-2.3664">
        <ele>22.60000038147</ele>
        <time>2021-08-19T07:27:41.000Z</time>
      </trkpt>
      <trkpt lat="47.29752" lon="-2.36652">
        <ele>22.60000038147</ele>
        <time>2021-08-19T07:27:43.000Z</time>
      </trkpt>
      <trkpt lat="47.29759" lon="-2.36678">
        <ele>22.60000038147</ele>
        <time>2021-08-19T07:27:47.000Z</time>
      </trkpt>
      <trkpt lat="47.29764" lon="-2.36698">
        <ele>22.60000038147</ele>
        <time>2021-08-19T07:27:50.000Z</time>
      </trkpt>
      <trkpt lat="47.2978" lon="-2.36744">
        <ele>22.60000038147</ele>
        <time>2021-08-19T07:27:57.000Z</time>
      </trkpt>
      <trkpt lat="47.29785" lon="-2.36755">
        <ele>22.60000038147</ele>
        <time>2021-08-19T07:27:59.000Z</time>
      </trkpt>
      <trkpt lat="47.29797" lon="-2.36777">
        <ele>22.60000038147</ele>
        <time>2021-08-19T07:28:03.000Z</time>
      </trkpt>
      <trkpt lat="47.29802" lon="-2.36788">
        <ele>23</ele>
        <time>2021-08-19T07:28:05.000Z</time>
      </trkpt>
      <trkpt lat="47.29805" lon="-2.36793">
        <ele>23.39999961853</ele>
        <time>2021-08-19T07:28:06.000Z</time>
      </trkpt>
      <trkpt lat="47.29808" lon="-2.36799">
        <ele>23.799999237061</ele>
        <time>2021-08-19T07:28:07.000Z</time>
      </trkpt>
      <trkpt lat="47.2981" lon="-2.36805">
        <ele>24.200000762939</ele>
        <time>2021-08-19T07:28:08.000Z</time>
      </trkpt>
      <trkpt lat="47.29813" lon="-2.3681">
        <ele>24.799999237061</ele>
        <time>2021-08-19T07:28:09.000Z</time>
      </trkpt>
      <trkpt lat="47.29821" lon="-2.36828">
        <ele>24.799999237061</ele>
        <time>2021-08-19T07:28:12.000Z</time>
      </trkpt>
      <trkpt lat="47.29841" lon="-2.36878">
        <ele>24.799999237061</ele>
        <time>2021-08-19T07:28:20.000Z</time>
      </trkpt>
      <trkpt lat="47.29844" lon="-2.36884">
        <ele>25.200000762939</ele>
        <time>2021-08-19T07:28:21.000Z</time>
      </trkpt>
      <trkpt lat="47.29847" lon="-2.36889">
        <ele>25.60000038147</ele>
        <time>2021-08-19T07:28:22.000Z</time>
      </trkpt>
      <trkpt lat="47.2985" lon="-2.36895">
        <ele>26</ele>
        <time>2021-08-19T07:28:23.000Z</time>
      </trkpt>
      <trkpt lat="47.29852" lon="-2.369">
        <ele>26.39999961853</ele>
        <time>2021-08-19T07:28:24.000Z</time>
      </trkpt>
      <trkpt lat="47.29855" lon="-2.36906">
        <ele>26.799999237061</ele>
        <time>2021-08-19T07:28:25.000Z</time>
      </trkpt>
      <trkpt lat="47.29859" lon="-2.36916">
        <ele>26.799999237061</ele>
        <time>2021-08-19T07:28:27.000Z</time>
      </trkpt>
      <trkpt lat="47.29879" lon="-2.36952">
        <ele>26.799999237061</ele>
        <time>2021-08-19T07:28:35.000Z</time>
      </trkpt>
      <trkpt lat="47.29882" lon="-2.36956">
        <ele>26.799999237061</ele>
        <time>2021-08-19T07:28:36.000Z</time>
      </trkpt>
      <trkpt lat="47.29896" lon="-2.36962">
        <ele>26.799999237061</ele>
        <time>2021-08-19T07:28:40.000Z</time>
      </trkpt>
      <trkpt lat="47.29898" lon="-2.36962">
        <ele>26.799999237061</ele>
        <time>2021-08-19T07:28:41.000Z</time>
      </trkpt>
      <trkpt lat="47.29904" lon="-2.36957">
        <ele>26.799999237061</ele>
        <time>2021-08-19T07:28:43.000Z</time>
      </trkpt>
      <trkpt lat="47.29912" lon="-2.36944">
        <ele>26.799999237061</ele>
        <time>2021-08-19T07:28:44.000Z</time>
      </trkpt>
      <trkpt lat="47.29935" lon="-2.36913">
        <ele>26.799999237061</ele>
        <time>2021-08-19T07:28:48.000Z</time>
      </trkpt>
      <trkpt lat="47.2995" lon="-2.36895">
        <ele>26.799999237061</ele>
        <time>2021-08-19T07:28:51.000Z</time>
      </trkpt>
      <trkpt lat="47.29993" lon="-2.36843">
        <ele>26.799999237061</ele>
        <time>2021-08-19T07:29:00.000Z</time>
      </trkpt>
      <trkpt lat="47.30028" lon="-2.36801">
        <ele>26.799999237061</ele>
        <time>2021-08-19T07:29:08.000Z</time>
      </trkpt>
      <trkpt lat="47.30058" lon="-2.36766">
        <ele>26.799999237061</ele>
        <time>2021-08-19T07:29:15.000Z</time>
      </trkpt>
      <trkpt lat="47.30096" lon="-2.36727">
        <ele>26.799999237061</ele>
        <time>2021-08-19T07:29:23.000Z</time>
      </trkpt>
      <trkpt lat="47.30135" lon="-2.36695">
        <ele>26.799999237061</ele>
        <time>2021-08-19T07:29:29.000Z</time>
      </trkpt>
      <trkpt lat="47.30153" lon="-2.36678">
        <ele>26.799999237061</ele>
        <time>2021-08-19T07:29:32.000Z</time>
      </trkpt>
      <trkpt lat="47.30157" lon="-2.36674">
        <ele>26.799999237061</ele>
        <time>2021-08-19T07:29:33.000Z</time>
      </trkpt>
      <trkpt lat="47.3016" lon="-2.36673">
        <ele>26.799999237061</ele>
        <time>2021-08-19T07:29:34.000Z</time>
      </trkpt>
      <trkpt lat="47.30165" lon="-2.36676">
        <ele>26.799999237061</ele>
        <time>2021-08-19T07:29:36.000Z</time>
      </trkpt>
      <trkpt lat="47.30175" lon="-2.36682">
        <ele>26.799999237061</ele>
        <time>2021-08-19T07:29:41.000Z</time>
      </trkpt>
      <trkpt lat="47.30179" lon="-2.36678">
        <ele>26.799999237061</ele>
        <time>2021-08-19T07:29:45.000Z</time>
      </trkpt>
      <trkpt lat="47.30185" lon="-2.36678">
        <ele>26.799999237061</ele>
        <time>2021-08-19T07:30:01.000Z</time>
      </trkpt>
      <trkpt lat="47.30191" lon="-2.36675">
        <ele>26.799999237061</ele>
        <time>2021-08-19T07:30:04.000Z</time>
      </trkpt>
      <trkpt lat="47.30207" lon="-2.3667">
        <ele>26.799999237061</ele>
        <time>2021-08-19T07:30:10.000Z</time>
      </trkpt>
      <trkpt lat="47.30215" lon="-2.36668">
        <ele>26.799999237061</ele>
        <time>2021-08-19T07:30:12.000Z</time>
      </trkpt>
      <trkpt lat="47.30224" lon="-2.36668">
        <ele>26.799999237061</ele>
        <time>2021-08-19T07:30:14.000Z</time>
      </trkpt>
      <trkpt lat="47.30265" lon="-2.36659">
        <ele>26.799999237061</ele>
        <time>2021-08-19T07:30:22.000Z</time>
      </trkpt>
      <trkpt lat="47.30304" lon="-2.36646">
        <ele>26.799999237061</ele>
        <time>2021-08-19T07:30:29.000Z</time>
      </trkpt>
      <trkpt lat="47.3031" lon="-2.36645">
        <ele>26.799999237061</ele>
        <time>2021-08-19T07:30:30.000Z</time>
      </trkpt>
      <trkpt lat="47.30322" lon="-2.36645">
        <ele>26.799999237061</ele>
        <time>2021-08-19T07:30:32.000Z</time>
      </trkpt>
      <trkpt lat="47.30334" lon="-2.3665">
        <ele>27.200000762939</ele>
        <time>2021-08-19T07:30:34.000Z</time>
      </trkpt>
      <trkpt lat="47.30341" lon="-2.36651">
        <ele>27.60000038147</ele>
        <time>2021-08-19T07:30:35.000Z</time>
      </trkpt>
      <trkpt lat="47.30346" lon="-2.36653">
        <ele>28</ele>
        <time>2021-08-19T07:30:36.000Z</time>
      </trkpt>
      <trkpt lat="47.30352" lon="-2.36654">
        <ele>28.39999961853</ele>
        <time>2021-08-19T07:30:37.000Z</time>
      </trkpt>
      <trkpt lat="47.30358" lon="-2.36654">
        <ele>28.799999237061</ele>
        <time>2021-08-19T07:30:38.000Z</time>
      </trkpt>
      <trkpt lat="47.30364" lon="-2.36654">
        <ele>28.799999237061</ele>
        <time>2021-08-19T07:30:39.000Z</time>
      </trkpt>
      <trkpt lat="47.30391" lon="-2.36655">
        <ele>28.799999237061</ele>
        <time>2021-08-19T07:30:44.000Z</time>
      </trkpt>
      <trkpt lat="47.30407" lon="-2.36654">
        <ele>29.200000762939</ele>
        <time>2021-08-19T07:30:47.000Z</time>
      </trkpt>
      <trkpt lat="47.30413" lon="-2.36653">
        <ele>29.60000038147</ele>
        <time>2021-08-19T07:30:48.000Z</time>
      </trkpt>
      <trkpt lat="47.30418" lon="-2.36652">
        <ele>30</ele>
        <time>2021-08-19T07:30:49.000Z</time>
      </trkpt>
      <trkpt lat="47.30423" lon="-2.3665">
        <ele>30.39999961853</ele>
        <time>2021-08-19T07:30:50.000Z</time>
      </trkpt>
      <trkpt lat="47.30428" lon="-2.36647">
        <ele>30.799999237061</ele>
        <time>2021-08-19T07:30:51.000Z</time>
      </trkpt>
      <trkpt lat="47.30437" lon="-2.36637">
        <ele>30.799999237061</ele>
        <time>2021-08-19T07:30:53.000Z</time>
      </trkpt>
      <trkpt lat="47.30447" lon="-2.36628">
        <ele>30.799999237061</ele>
        <time>2021-08-19T07:30:55.000Z</time>
      </trkpt>
      <trkpt lat="47.30472" lon="-2.36611">
        <ele>30.799999237061</ele>
        <time>2021-08-19T07:31:00.000Z</time>
      </trkpt>
      <trkpt lat="47.30492" lon="-2.36602">
        <ele>30.799999237061</ele>
        <time>2021-08-19T07:31:04.000Z</time>
      </trkpt>
      <trkpt lat="47.30502" lon="-2.36599">
        <ele>30.799999237061</ele>
        <time>2021-08-19T07:31:06.000Z</time>
      </trkpt>
      <trkpt lat="47.30511" lon="-2.36598">
        <ele>30.799999237061</ele>
        <time>2021-08-19T07:31:08.000Z</time>
      </trkpt>
      <trkpt lat="47.30526" lon="-2.3659">
        <ele>30.799999237061</ele>
        <time>2021-08-19T07:31:11.000Z</time>
      </trkpt>
      <trkpt lat="47.30536" lon="-2.36583">
        <ele>30.799999237061</ele>
        <time>2021-08-19T07:31:13.000Z</time>
      </trkpt>
      <trkpt lat="47.30547" lon="-2.36574">
        <ele>30.799999237061</ele>
        <time>2021-08-19T07:31:16.000Z</time>
      </trkpt>
      <trkpt lat="47.30555" lon="-2.36568">
        <ele>30.799999237061</ele>
        <time>2021-08-19T07:31:20.000Z</time>
      </trkpt>
      <trkpt lat="47.30557" lon="-2.36567">
        <ele>30.39999961853</ele>
        <time>2021-08-19T07:31:22.000Z</time>
      </trkpt>
      <trkpt lat="47.30559" lon="-2.36565">
        <ele>30</ele>
        <time>2021-08-19T07:31:23.000Z</time>
      </trkpt>
      <trkpt lat="47.3056" lon="-2.36564">
        <ele>29.60000038147</ele>
        <time>2021-08-19T07:31:24.000Z</time>
      </trkpt>
      <trkpt lat="47.30562" lon="-2.36562">
        <ele>29.200000762939</ele>
        <time>2021-08-19T07:31:25.000Z</time>
      </trkpt>
      <trkpt lat="47.30564" lon="-2.36561">
        <ele>28.799999237061</ele>
        <time>2021-08-19T07:31:26.000Z</time>
      </trkpt>
      <trkpt lat="47.30576" lon="-2.36553">
        <ele>28.799999237061</ele>
        <time>2021-08-19T07:31:31.000Z</time>
      </trkpt>
      <trkpt lat="47.30598" lon="-2.36545">
        <ele>28.799999237061</ele>
        <time>2021-08-19T07:31:37.000Z</time>
      </trkpt>
      <trkpt lat="47.30625" lon="-2.36538">
        <ele>28.799999237061</ele>
        <time>2021-08-19T07:31:43.000Z</time>
      </trkpt>
      <trkpt lat="47.30655" lon="-2.36523">
        <ele>28.799999237061</ele>
        <time>2021-08-19T07:31:49.000Z</time>
      </trkpt>
      <trkpt lat="47.30689" lon="-2.36508">
        <ele>28.799999237061</ele>
        <time>2021-08-19T07:31:55.000Z</time>
      </trkpt>
      <trkpt lat="47.30694" lon="-2.36509">
        <ele>28.799999237061</ele>
        <time>2021-08-19T07:31:56.000Z</time>
      </trkpt>
      <trkpt lat="47.307" lon="-2.36514">
        <ele>28.799999237061</ele>
        <time>2021-08-19T07:31:58.000Z</time>
      </trkpt>
      <trkpt lat="47.30709" lon="-2.36514">
        <ele>28.799999237061</ele>
        <time>2021-08-19T07:32:01.000Z</time>
      </trkpt>
      <trkpt lat="47.30716" lon="-2.36507">
        <ele>28.799999237061</ele>
        <time>2021-08-19T07:32:03.000Z</time>
      </trkpt>
      <trkpt lat="47.30724" lon="-2.365">
        <ele>28.799999237061</ele>
        <time>2021-08-19T07:32:05.000Z</time>
      </trkpt>
      <trkpt lat="47.30728" lon="-2.36497">
        <ele>28.799999237061</ele>
        <time>2021-08-19T07:32:06.000Z</time>
      </trkpt>
      <trkpt lat="47.30748" lon="-2.3649">
        <ele>28.799999237061</ele>
        <time>2021-08-19T07:32:10.000Z</time>
      </trkpt>
      <trkpt lat="47.30764" lon="-2.36485">
        <ele>28.39999961853</ele>
        <time>2021-08-19T07:32:13.000Z</time>
      </trkpt>
      <trkpt lat="47.30769" lon="-2.36483">
        <ele>28</ele>
        <time>2021-08-19T07:32:14.000Z</time>
      </trkpt>
      <trkpt lat="47.30774" lon="-2.36481">
        <ele>27.60000038147</ele>
        <time>2021-08-19T07:32:15.000Z</time>
      </trkpt>
      <trkpt lat="47.30779" lon="-2.36479">
        <ele>26.799999237061</ele>
        <time>2021-08-19T07:32:16.000Z</time>
      </trkpt>
      <trkpt lat="47.3079" lon="-2.36475">
        <ele>26.799999237061</ele>
        <time>2021-08-19T07:32:18.000Z</time>
      </trkpt>
      <trkpt lat="47.30808" lon="-2.36469">
        <ele>26.799999237061</ele>
        <time>2021-08-19T07:32:22.000Z</time>
      </trkpt>
      <trkpt lat="47.30813" lon="-2.3647">
        <ele>26.799999237061</ele>
        <time>2021-08-19T07:32:23.000Z</time>
      </trkpt>
      <trkpt lat="47.30826" lon="-2.36479">
        <ele>26.799999237061</ele>
        <time>2021-08-19T07:32:26.000Z</time>
      </trkpt>
      <trkpt lat="47.3083" lon="-2.36481">
        <ele>26.799999237061</ele>
        <time>2021-08-19T07:32:27.000Z</time>
      </trkpt>
      <trkpt lat="47.30838" lon="-2.36485">
        <ele>26.799999237061</ele>
        <time>2021-08-19T07:32:29.000Z</time>
      </trkpt>
      <trkpt lat="47.30851" lon="-2.36484">
        <ele>26.799999237061</ele>
        <time>2021-08-19T07:32:32.000Z</time>
      </trkpt>
      <trkpt lat="47.30886" lon="-2.36475">
        <ele>26.39999961853</ele>
        <time>2021-08-19T07:32:40.000Z</time>
      </trkpt>
      <trkpt lat="47.30891" lon="-2.36474">
        <ele>26</ele>
        <time>2021-08-19T07:32:41.000Z</time>
      </trkpt>
      <trkpt lat="47.30895" lon="-2.36472">
        <ele>25.60000038147</ele>
        <time>2021-08-19T07:32:42.000Z</time>
      </trkpt>
      <trkpt lat="47.30899" lon="-2.36471">
        <ele>25</ele>
        <time>2021-08-19T07:32:43.000Z</time>
      </trkpt>
      <trkpt lat="47.30902" lon="-2.3647">
        <ele>24.60000038147</ele>
        <time>2021-08-19T07:32:44.000Z</time>
      </trkpt>
      <trkpt lat="47.30913" lon="-2.36466">
        <ele>24.60000038147</ele>
        <time>2021-08-19T07:32:47.000Z</time>
      </trkpt>
      <trkpt lat="47.3093" lon="-2.36461">
        <ele>24.60000038147</ele>
        <time>2021-08-19T07:32:51.000Z</time>
      </trkpt>
      <trkpt lat="47.30938" lon="-2.36459">
        <ele>24.60000038147</ele>
        <time>2021-08-19T07:32:53.000Z</time>
      </trkpt>
      <trkpt lat="47.30967" lon="-2.36449">
        <ele>24.60000038147</ele>
        <time>2021-08-19T07:33:00.000Z</time>
      </trkpt>
      <trkpt lat="47.30979" lon="-2.36443">
        <ele>24.60000038147</ele>
        <time>2021-08-19T07:33:03.000Z</time>
      </trkpt>
      <trkpt lat="47.30988" lon="-2.36438">
        <ele>24.60000038147</ele>
        <time>2021-08-19T07:33:05.000Z</time>
      </trkpt>
      <trkpt lat="47.31006" lon="-2.36428">
        <ele>24.60000038147</ele>
        <time>2021-08-19T07:33:09.000Z</time>
      </trkpt>
      <trkpt lat="47.31012" lon="-2.36426">
        <ele>24.60000038147</ele>
        <time>2021-08-19T07:33:10.000Z</time>
      </trkpt>
      <trkpt lat="47.31039" lon="-2.3642">
        <ele>24.60000038147</ele>
        <time>2021-08-19T07:33:15.000Z</time>
      </trkpt>
      <trkpt lat="47.31072" lon="-2.36417">
        <ele>24.60000038147</ele>
        <time>2021-08-19T07:33:21.000Z</time>
      </trkpt>
      <trkpt lat="47.31085" lon="-2.36416">
        <ele>24.200000762939</ele>
        <time>2021-08-19T07:33:24.000Z</time>
      </trkpt>
      <trkpt lat="47.31089" lon="-2.36415">
        <ele>23.799999237061</ele>
        <time>2021-08-19T07:33:25.000Z</time>
      </trkpt>
      <trkpt lat="47.31092" lon="-2.36415">
        <ele>23.39999961853</ele>
        <time>2021-08-19T07:33:26.000Z</time>
      </trkpt>
      <trkpt lat="47.31096" lon="-2.36415">
        <ele>23</ele>
        <time>2021-08-19T07:33:27.000Z</time>
      </trkpt>
      <trkpt lat="47.31099" lon="-2.36414">
        <ele>22.60000038147</ele>
        <time>2021-08-19T07:33:28.000Z</time>
      </trkpt>
      <trkpt lat="47.31104" lon="-2.36412">
        <ele>22.60000038147</ele>
        <time>2021-08-19T07:33:29.000Z</time>
      </trkpt>
      <trkpt lat="47.31112" lon="-2.36408">
        <ele>22.60000038147</ele>
        <time>2021-08-19T07:33:31.000Z</time>
      </trkpt>
      <trkpt lat="47.31142" lon="-2.3639">
        <ele>22.60000038147</ele>
        <time>2021-08-19T07:33:37.000Z</time>
      </trkpt>
      <trkpt lat="47.31167" lon="-2.3637">
        <ele>22.60000038147</ele>
        <time>2021-08-19T07:33:42.000Z</time>
      </trkpt>
      <trkpt lat="47.31187" lon="-2.36357">
        <ele>22.60000038147</ele>
        <time>2021-08-19T07:33:46.000Z</time>
      </trkpt>
      <trkpt lat="47.31198" lon="-2.36352">
        <ele>22.60000038147</ele>
        <time>2021-08-19T07:33:48.000Z</time>
      </trkpt>
      <trkpt lat="47.31234" lon="-2.36332">
        <ele>22.60000038147</ele>
        <time>2021-08-19T07:33:55.000Z</time>
      </trkpt>
      <trkpt lat="47.31266" lon="-2.36311">
        <ele>22.60000038147</ele>
        <time>2021-08-19T07:34:02.000Z</time>
      </trkpt>
      <trkpt lat="47.31271" lon="-2.36308">
        <ele>22.60000038147</ele>
        <time>2021-08-19T07:34:03.000Z</time>
      </trkpt>
      <trkpt lat="47.31291" lon="-2.36301">
        <ele>23</ele>
        <time>2021-08-19T07:34:07.000Z</time>
      </trkpt>
      <trkpt lat="47.31296" lon="-2.36298">
        <ele>23.39999961853</ele>
        <time>2021-08-19T07:34:08.000Z</time>
      </trkpt>
      <trkpt lat="47.313" lon="-2.36296">
        <ele>23.799999237061</ele>
        <time>2021-08-19T07:34:09.000Z</time>
      </trkpt>
      <trkpt lat="47.31305" lon="-2.36293">
        <ele>24.200000762939</ele>
        <time>2021-08-19T07:34:10.000Z</time>
      </trkpt>
      <trkpt lat="47.3131" lon="-2.3629">
        <ele>24.60000038147</ele>
        <time>2021-08-19T07:34:11.000Z</time>
      </trkpt>
      <trkpt lat="47.31314" lon="-2.36287">
        <ele>24.60000038147</ele>
        <time>2021-08-19T07:34:12.000Z</time>
      </trkpt>
      <trkpt lat="47.31338" lon="-2.36262">
        <ele>24.60000038147</ele>
        <time>2021-08-19T07:34:18.000Z</time>
      </trkpt>
      <trkpt lat="47.31369" lon="-2.36236">
        <ele>24.60000038147</ele>
        <time>2021-08-19T07:34:25.000Z</time>
      </trkpt>
      <trkpt lat="47.31398" lon="-2.3622">
        <ele>24.60000038147</ele>
        <time>2021-08-19T07:34:31.000Z</time>
      </trkpt>
      <trkpt lat="47.31434" lon="-2.36201">
        <ele>24.60000038147</ele>
        <time>2021-08-19T07:34:38.000Z</time>
      </trkpt>
      <trkpt lat="47.31459" lon="-2.36181">
        <ele>24.60000038147</ele>
        <time>2021-08-19T07:34:44.000Z</time>
      </trkpt>
      <trkpt lat="47.31461" lon="-2.36176">
        <ele>24.60000038147</ele>
        <time>2021-08-19T07:34:45.000Z</time>
      </trkpt>
      <trkpt lat="47.31458" lon="-2.36158">
        <ele>24.60000038147</ele>
        <time>2021-08-19T07:34:48.000Z</time>
      </trkpt>
      <trkpt lat="47.31455" lon="-2.36148">
        <ele>24.60000038147</ele>
        <time>2021-08-19T07:34:50.000Z</time>
      </trkpt>
      <trkpt lat="47.31448" lon="-2.36124">
        <ele>24.60000038147</ele>
        <time>2021-08-19T07:34:54.000Z</time>
      </trkpt>
      <trkpt lat="47.31434" lon="-2.36086">
        <ele>24.60000038147</ele>
        <time>2021-08-19T07:35:00.000Z</time>
      </trkpt>
      <trkpt lat="47.31419" lon="-2.36043">
        <ele>24.60000038147</ele>
        <time>2021-08-19T07:35:06.000Z</time>
      </trkpt>
      <trkpt lat="47.31414" lon="-2.36027">
        <ele>24.200000762939</ele>
        <time>2021-08-19T07:35:08.000Z</time>
      </trkpt>
      <trkpt lat="47.31412" lon="-2.36019">
        <ele>23.799999237061</ele>
        <time>2021-08-19T07:35:09.000Z</time>
      </trkpt>
      <trkpt lat="47.31409" lon="-2.36012">
        <ele>23.200000762939</ele>
        <time>2021-08-19T07:35:10.000Z</time>
      </trkpt>
      <trkpt lat="47.31406" lon="-2.36004">
        <ele>22.799999237061</ele>
        <time>2021-08-19T07:35:11.000Z</time>
      </trkpt>
      <trkpt lat="47.31403" lon="-2.35996">
        <ele>22.39999961853</ele>
        <time>2021-08-19T07:35:12.000Z</time>
      </trkpt>
      <trkpt lat="47.31389" lon="-2.35956">
        <ele>22</ele>
        <time>2021-08-19T07:35:17.000Z</time>
      </trkpt>
      <trkpt lat="47.31384" lon="-2.35948">
        <ele>21.39999961853</ele>
        <time>2021-08-19T07:35:18.000Z</time>
      </trkpt>
      <trkpt lat="47.31379" lon="-2.3594">
        <ele>21</ele>
        <time>2021-08-19T07:35:19.000Z</time>
      </trkpt>
      <trkpt lat="47.31375" lon="-2.35932">
        <ele>20.60000038147</ele>
        <time>2021-08-19T07:35:20.000Z</time>
      </trkpt>
      <trkpt lat="47.31371" lon="-2.35925">
        <ele>20.200000762939</ele>
        <time>2021-08-19T07:35:21.000Z</time>
      </trkpt>
      <trkpt lat="47.31363" lon="-2.35912">
        <ele>20.200000762939</ele>
        <time>2021-08-19T07:35:23.000Z</time>
      </trkpt>
      <trkpt lat="47.31344" lon="-2.35872">
        <ele>20.200000762939</ele>
        <time>2021-08-19T07:35:29.000Z</time>
      </trkpt>
      <trkpt lat="47.31341" lon="-2.35865">
        <ele>20.200000762939</ele>
        <time>2021-08-19T07:35:30.000Z</time>
      </trkpt>
      <trkpt lat="47.31337" lon="-2.3584">
        <ele>20.200000762939</ele>
        <time>2021-08-19T07:35:33.000Z</time>
      </trkpt>
      <trkpt lat="47.31336" lon="-2.35809">
        <ele>20.200000762939</ele>
        <time>2021-08-19T07:35:37.000Z</time>
      </trkpt>
      <trkpt lat="47.31335" lon="-2.358">
        <ele>20.200000762939</ele>
        <time>2021-08-19T07:35:38.000Z</time>
      </trkpt>
      <trkpt lat="47.31333" lon="-2.35776">
        <ele>20.60000038147</ele>
        <time>2021-08-19T07:35:41.000Z</time>
      </trkpt>
      <trkpt lat="47.31332" lon="-2.35768">
        <ele>21</ele>
        <time>2021-08-19T07:35:42.000Z</time>
      </trkpt>
      <trkpt lat="47.31332" lon="-2.3576">
        <ele>21.39999961853</ele>
        <time>2021-08-19T07:35:43.000Z</time>
      </trkpt>
      <trkpt lat="47.31332" lon="-2.35753">
        <ele>21.799999237061</ele>
        <time>2021-08-19T07:35:44.000Z</time>
      </trkpt>
      <trkpt lat="47.31332" lon="-2.35746">
        <ele>22.200000762939</ele>
        <time>2021-08-19T07:35:45.000Z</time>
      </trkpt>
      <trkpt lat="47.31332" lon="-2.35716">
        <ele>22.200000762939</ele>
        <time>2021-08-19T07:35:49.000Z</time>
      </trkpt>
      <trkpt lat="47.31332" lon="-2.35703">
        <ele>22.200000762939</ele>
        <time>2021-08-19T07:35:51.000Z</time>
      </trkpt>
      <trkpt lat="47.31331" lon="-2.35665">
        <ele>22.200000762939</ele>
        <time>2021-08-19T07:35:56.000Z</time>
      </trkpt>
      <trkpt lat="47.31329" lon="-2.35602">
        <ele>22.200000762939</ele>
        <time>2021-08-19T07:36:04.000Z</time>
      </trkpt>
      <trkpt lat="47.31329" lon="-2.35577">
        <ele>22.200000762939</ele>
        <time>2021-08-19T07:36:07.000Z</time>
      </trkpt>
      <trkpt lat="47.3133" lon="-2.35563">
        <ele>22.200000762939</ele>
        <time>2021-08-19T07:36:09.000Z</time>
      </trkpt>
      <trkpt lat="47.31333" lon="-2.35557">
        <ele>22.200000762939</ele>
        <time>2021-08-19T07:36:10.000Z</time>
      </trkpt>
      <trkpt lat="47.31345" lon="-2.35546">
        <ele>22.200000762939</ele>
        <time>2021-08-19T07:36:13.000Z</time>
      </trkpt>
      <trkpt lat="47.31376" lon="-2.35529">
        <ele>22.200000762939</ele>
        <time>2021-08-19T07:36:19.000Z</time>
      </trkpt>
      <trkpt lat="47.31386" lon="-2.35525">
        <ele>22.200000762939</ele>
        <time>2021-08-19T07:36:21.000Z</time>
      </trkpt>
      <trkpt lat="47.31403" lon="-2.35525">
        <ele>22.200000762939</ele>
        <time>2021-08-19T07:36:24.000Z</time>
      </trkpt>
      <trkpt lat="47.31431" lon="-2.35526">
        <ele>21.799999237061</ele>
        <time>2021-08-19T07:36:29.000Z</time>
      </trkpt>
      <trkpt lat="47.31437" lon="-2.35527">
        <ele>21.39999961853</ele>
        <time>2021-08-19T07:36:30.000Z</time>
      </trkpt>
      <trkpt lat="47.31442" lon="-2.35526">
        <ele>21</ele>
        <time>2021-08-19T07:36:31.000Z</time>
      </trkpt>
      <trkpt lat="47.31447" lon="-2.35526">
        <ele>20.60000038147</ele>
        <time>2021-08-19T07:36:32.000Z</time>
      </trkpt>
      <trkpt lat="47.31452" lon="-2.35524">
        <ele>20</ele>
        <time>2021-08-19T07:36:33.000Z</time>
      </trkpt>
      <trkpt lat="47.31466" lon="-2.35521">
        <ele>20</ele>
        <time>2021-08-19T07:36:36.000Z</time>
      </trkpt>
      <trkpt lat="47.3147" lon="-2.35519">
        <ele>20</ele>
        <time>2021-08-19T07:36:37.000Z</time>
      </trkpt>
      <trkpt lat="47.3148" lon="-2.35502">
        <ele>20</ele>
        <time>2021-08-19T07:36:40.000Z</time>
      </trkpt>
      <trkpt lat="47.31486" lon="-2.3548">
        <ele>20</ele>
        <time>2021-08-19T07:36:43.000Z</time>
      </trkpt>
      <trkpt lat="47.31488" lon="-2.35465">
        <ele>20</ele>
        <time>2021-08-19T07:36:45.000Z</time>
      </trkpt>
      <trkpt lat="47.31494" lon="-2.35438">
        <ele>20</ele>
        <time>2021-08-19T07:36:49.000Z</time>
      </trkpt>
      <trkpt lat="47.31496" lon="-2.35432">
        <ele>20</ele>
        <time>2021-08-19T07:36:50.000Z</time>
      </trkpt>
      <trkpt lat="47.31513" lon="-2.35412">
        <ele>20</ele>
        <time>2021-08-19T07:36:55.000Z</time>
      </trkpt>
      <trkpt lat="47.31517" lon="-2.35409">
        <ele>20</ele>
        <time>2021-08-19T07:36:56.000Z</time>
      </trkpt>
      <trkpt lat="47.31521" lon="-2.35405">
        <ele>19.60000038147</ele>
        <time>2021-08-19T07:36:57.000Z</time>
      </trkpt>
      <trkpt lat="47.31527" lon="-2.35401">
        <ele>19.200000762939</ele>
        <time>2021-08-19T07:36:58.000Z</time>
      </trkpt>
      <trkpt lat="47.31532" lon="-2.35398">
        <ele>18.799999237061</ele>
        <time>2021-08-19T07:36:59.000Z</time>
      </trkpt>
      <trkpt lat="47.31537" lon="-2.35395">
        <ele>18.39999961853</ele>
        <time>2021-08-19T07:37:00.000Z</time>
      </trkpt>
      <trkpt lat="47.31542" lon="-2.35393">
        <ele>18</ele>
        <time>2021-08-19T07:37:01.000Z</time>
      </trkpt>
      <trkpt lat="47.31571" lon="-2.35376">
        <ele>18</ele>
        <time>2021-08-19T07:37:06.000Z</time>
      </trkpt>
      <trkpt lat="47.31602" lon="-2.35363">
        <ele>18</ele>
        <time>2021-08-19T07:37:12.000Z</time>
      </trkpt>
      <trkpt lat="47.31617" lon="-2.35361">
        <ele>18</ele>
        <time>2021-08-19T07:37:15.000Z</time>
      </trkpt>
      <trkpt lat="47.31626" lon="-2.35362">
        <ele>18</ele>
        <time>2021-08-19T07:37:17.000Z</time>
      </trkpt>
      <trkpt lat="47.31631" lon="-2.35364">
        <ele>18</ele>
        <time>2021-08-19T07:37:18.000Z</time>
      </trkpt>
      <trkpt lat="47.31648" lon="-2.3537">
        <ele>18</ele>
        <time>2021-08-19T07:37:21.000Z</time>
      </trkpt>
      <trkpt lat="47.31659" lon="-2.3537">
        <ele>18</ele>
        <time>2021-08-19T07:37:23.000Z</time>
      </trkpt>
      <trkpt lat="47.31689" lon="-2.3537">
        <ele>18</ele>
        <time>2021-08-19T07:37:29.000Z</time>
      </trkpt>
      <trkpt lat="47.31718" lon="-2.35367">
        <ele>18</ele>
        <time>2021-08-19T07:37:35.000Z</time>
      </trkpt>
      <trkpt lat="47.31722" lon="-2.35365">
        <ele>18</ele>
        <time>2021-08-19T07:37:36.000Z</time>
      </trkpt>
      <trkpt lat="47.31738" lon="-2.35365">
        <ele>18</ele>
        <time>2021-08-19T07:37:40.000Z</time>
      </trkpt>
      <trkpt lat="47.31742" lon="-2.35367">
        <ele>17.39999961853</ele>
        <time>2021-08-19T07:37:41.000Z</time>
      </trkpt>
      <trkpt lat="47.31745" lon="-2.3537">
        <ele>17</ele>
        <time>2021-08-19T07:37:42.000Z</time>
      </trkpt>
      <trkpt lat="47.31748" lon="-2.35374">
        <ele>16.60000038147</ele>
        <time>2021-08-19T07:37:43.000Z</time>
      </trkpt>
      <trkpt lat="47.31751" lon="-2.35378">
        <ele>16.200000762939</ele>
        <time>2021-08-19T07:37:44.000Z</time>
      </trkpt>
      <trkpt lat="47.31754" lon="-2.35381">
        <ele>15.800000190735</ele>
        <time>2021-08-19T07:37:45.000Z</time>
      </trkpt>
      <trkpt lat="47.31773" lon="-2.35408">
        <ele>15.800000190735</ele>
        <time>2021-08-19T07:37:51.000Z</time>
      </trkpt>
      <trkpt lat="47.31778" lon="-2.35416">
        <ele>15.39999961853</ele>
        <time>2021-08-19T07:37:53.000Z</time>
      </trkpt>
      <trkpt lat="47.31782" lon="-2.35421">
        <ele>15</ele>
        <time>2021-08-19T07:37:54.000Z</time>
      </trkpt>
      <trkpt lat="47.31785" lon="-2.35425">
        <ele>14.39999961853</ele>
        <time>2021-08-19T07:37:55.000Z</time>
      </trkpt>
      <trkpt lat="47.31789" lon="-2.35429">
        <ele>14</ele>
        <time>2021-08-19T07:37:56.000Z</time>
      </trkpt>
      <trkpt lat="47.31792" lon="-2.35433">
        <ele>13.60000038147</ele>
        <time>2021-08-19T07:37:57.000Z</time>
      </trkpt>
      <trkpt lat="47.31796" lon="-2.35436">
        <ele>13.60000038147</ele>
        <time>2021-08-19T07:37:58.000Z</time>
      </trkpt>
      <trkpt lat="47.31803" lon="-2.35448">
        <ele>13.199999809265</ele>
        <time>2021-08-19T07:38:02.000Z</time>
      </trkpt>
      <trkpt lat="47.31804" lon="-2.3545">
        <ele>12.800000190735</ele>
        <time>2021-08-19T07:38:03.000Z</time>
      </trkpt>
      <trkpt lat="47.31805" lon="-2.35452">
        <ele>12.39999961853</ele>
        <time>2021-08-19T07:38:04.000Z</time>
      </trkpt>
      <trkpt lat="47.31806" lon="-2.35452">
        <ele>12</ele>
        <time>2021-08-19T07:38:05.000Z</time>
      </trkpt>
      <trkpt lat="47.31808" lon="-2.35454">
        <ele>11.60000038147</ele>
        <time>2021-08-19T07:38:06.000Z</time>
      </trkpt>
      <trkpt lat="47.3181" lon="-2.35456">
        <ele>11.60000038147</ele>
        <time>2021-08-19T07:38:07.000Z</time>
      </trkpt>
      <trkpt lat="47.31811" lon="-2.35458">
        <ele>11.60000038147</ele>
        <time>2021-08-19T07:38:08.000Z</time>
      </trkpt>
      <trkpt lat="47.31825" lon="-2.35475">
        <ele>11.60000038147</ele>
        <time>2021-08-19T07:38:14.000Z</time>
      </trkpt>
      <trkpt lat="47.31842" lon="-2.35511">
        <ele>11.60000038147</ele>
        <time>2021-08-19T07:38:20.000Z</time>
      </trkpt>
      <trkpt lat="47.31841" lon="-2.35522">
        <ele>11.60000038147</ele>
        <time>2021-08-19T07:38:22.000Z</time>
      </trkpt>
      <trkpt lat="47.3184" lon="-2.35526">
        <ele>11.60000038147</ele>
        <time>2021-08-19T07:38:23.000Z</time>
      </trkpt>
      <trkpt lat="47.3183" lon="-2.35545">
        <ele>11.60000038147</ele>
        <time>2021-08-19T07:38:27.000Z</time>
      </trkpt>
      <trkpt lat="47.31822" lon="-2.35555">
        <ele>11.60000038147</ele>
        <time>2021-08-19T07:38:29.000Z</time>
      </trkpt>
      <trkpt lat="47.31809" lon="-2.35581">
        <ele>11.60000038147</ele>
        <time>2021-08-19T07:38:35.000Z</time>
      </trkpt>
      <trkpt lat="47.31795" lon="-2.35611">
        <ele>11.60000038147</ele>
        <time>2021-08-19T07:38:42.000Z</time>
      </trkpt>
      <trkpt lat="47.3179" lon="-2.35633">
        <ele>11.60000038147</ele>
        <time>2021-08-19T07:38:46.000Z</time>
      </trkpt>
      <trkpt lat="47.31788" lon="-2.35646">
        <ele>12</ele>
        <time>2021-08-19T07:38:48.000Z</time>
      </trkpt>
      <trkpt lat="47.31786" lon="-2.35652">
        <ele>12.39999961853</ele>
        <time>2021-08-19T07:38:49.000Z</time>
      </trkpt>
      <trkpt lat="47.31785" lon="-2.35657">
        <ele>12.800000190735</ele>
        <time>2021-08-19T07:38:50.000Z</time>
      </trkpt>
      <trkpt lat="47.31784" lon="-2.35664">
        <ele>13.199999809265</ele>
        <time>2021-08-19T07:38:51.000Z</time>
      </trkpt>
      <trkpt lat="47.31784" lon="-2.35671">
        <ele>13.60000038147</ele>
        <time>2021-08-19T07:38:52.000Z</time>
      </trkpt>
      <trkpt lat="47.31783" lon="-2.35697">
        <ele>13.60000038147</ele>
        <time>2021-08-19T07:38:56.000Z</time>
      </trkpt>
      <trkpt lat="47.31784" lon="-2.35735">
        <ele>14</ele>
        <time>2021-08-19T07:39:02.000Z</time>
      </trkpt>
      <trkpt lat="47.31783" lon="-2.3574">
        <ele>14.39999961853</ele>
        <time>2021-08-19T07:39:03.000Z</time>
      </trkpt>
      <trkpt lat="47.31783" lon="-2.35746">
        <ele>14.800000190735</ele>
        <time>2021-08-19T07:39:04.000Z</time>
      </trkpt>
      <trkpt lat="47.31783" lon="-2.35752">
        <ele>15.199999809265</ele>
        <time>2021-08-19T07:39:05.000Z</time>
      </trkpt>
      <trkpt lat="47.31783" lon="-2.35757">
        <ele>15.800000190735</ele>
        <time>2021-08-19T07:39:06.000Z</time>
      </trkpt>
      <trkpt lat="47.31783" lon="-2.35763">
        <ele>15.800000190735</ele>
        <time>2021-08-19T07:39:07.000Z</time>
      </trkpt>
      <trkpt lat="47.31785" lon="-2.3579">
        <ele>15.800000190735</ele>
        <time>2021-08-19T07:39:12.000Z</time>
      </trkpt>
      <trkpt lat="47.31791" lon="-2.35802">
        <ele>15.800000190735</ele>
        <time>2021-08-19T07:39:14.000Z</time>
      </trkpt>
      <trkpt lat="47.31799" lon="-2.3581">
        <ele>15.800000190735</ele>
        <time>2021-08-19T07:39:16.000Z</time>
      </trkpt>
      <trkpt lat="47.3182" lon="-2.35832">
        <ele>15.800000190735</ele>
        <time>2021-08-19T07:39:22.000Z</time>
      </trkpt>
      <trkpt lat="47.31828" lon="-2.35855">
        <ele>15.800000190735</ele>
        <time>2021-08-19T07:39:26.000Z</time>
      </trkpt>
      <trkpt lat="47.31826" lon="-2.35869">
        <ele>15.800000190735</ele>
        <time>2021-08-19T07:39:28.000Z</time>
      </trkpt>
      <trkpt lat="47.31823" lon="-2.35875">
        <ele>15.800000190735</ele>
        <time>2021-08-19T07:39:29.000Z</time>
      </trkpt>
      <trkpt lat="47.31812" lon="-2.35886">
        <ele>15.800000190735</ele>
        <time>2021-08-19T07:39:32.000Z</time>
      </trkpt>
      <trkpt lat="47.31808" lon="-2.35888">
        <ele>16.200000762939</ele>
        <time>2021-08-19T07:39:33.000Z</time>
      </trkpt>
      <trkpt lat="47.31803" lon="-2.3589">
        <ele>16.60000038147</ele>
        <time>2021-08-19T07:39:34.000Z</time>
      </trkpt>
      <trkpt lat="47.31799" lon="-2.35892">
        <ele>17</ele>
        <time>2021-08-19T07:39:35.000Z</time>
      </trkpt>
      <trkpt lat="47.31794" lon="-2.35895">
        <ele>17.39999961853</ele>
        <time>2021-08-19T07:39:36.000Z</time>
      </trkpt>
      <trkpt lat="47.31789" lon="-2.35897">
        <ele>17.799999237061</ele>
        <time>2021-08-19T07:39:37.000Z</time>
      </trkpt>
      <trkpt lat="47.3178" lon="-2.35903">
        <ele>17.799999237061</ele>
        <time>2021-08-19T07:39:39.000Z</time>
      </trkpt>
      <trkpt lat="47.3174" lon="-2.35926">
        <ele>17.799999237061</ele>
        <time>2021-08-19T07:39:47.000Z</time>
      </trkpt>
      <trkpt lat="47.3171" lon="-2.35945">
        <ele>17.799999237061</ele>
        <time>2021-08-19T07:39:53.000Z</time>
      </trkpt>
      <trkpt lat="47.31699" lon="-2.35949">
        <ele>18.200000762939</ele>
        <time>2021-08-19T07:39:55.000Z</time>
      </trkpt>
      <trkpt lat="47.31693" lon="-2.35951">
        <ele>18.60000038147</ele>
        <time>2021-08-19T07:39:56.000Z</time>
      </trkpt>
      <trkpt lat="47.31688" lon="-2.35954">
        <ele>19</ele>
        <time>2021-08-19T07:39:57.000Z</time>
      </trkpt>
      <trkpt lat="47.31682" lon="-2.35957">
        <ele>19.60000038147</ele>
        <time>2021-08-19T07:39:58.000Z</time>
      </trkpt>
      <trkpt lat="47.31677" lon="-2.3596">
        <ele>20</ele>
        <time>2021-08-19T07:39:59.000Z</time>
      </trkpt>
      <trkpt lat="47.31642" lon="-2.35983">
        <ele>20</ele>
        <time>2021-08-19T07:40:06.000Z</time>
      </trkpt>
      <trkpt lat="47.31617" lon="-2.3601">
        <ele>20</ele>
        <time>2021-08-19T07:40:12.000Z</time>
      </trkpt>
      <trkpt lat="47.31609" lon="-2.36021">
        <ele>20.39999961853</ele>
        <time>2021-08-19T07:40:14.000Z</time>
      </trkpt>
      <trkpt lat="47.31605" lon="-2.36025">
        <ele>20.799999237061</ele>
        <time>2021-08-19T07:40:15.000Z</time>
      </trkpt>
      <trkpt lat="47.316" lon="-2.3603">
        <ele>21.200000762939</ele>
        <time>2021-08-19T07:40:16.000Z</time>
      </trkpt>
      <trkpt lat="47.31596" lon="-2.36034">
        <ele>21.60000038147</ele>
        <time>2021-08-19T07:40:17.000Z</time>
      </trkpt>
      <trkpt lat="47.31591" lon="-2.36038">
        <ele>22</ele>
        <time>2021-08-19T07:40:18.000Z</time>
      </trkpt>
      <trkpt lat="47.31587" lon="-2.36043">
        <ele>22</ele>
        <time>2021-08-19T07:40:19.000Z</time>
      </trkpt>
      <trkpt lat="47.31561" lon="-2.36068">
        <ele>22</ele>
        <time>2021-08-19T07:40:25.000Z</time>
      </trkpt>
      <trkpt lat="47.31531" lon="-2.36101">
        <ele>22</ele>
        <time>2021-08-19T07:40:32.000Z</time>
      </trkpt>
      <trkpt lat="47.31526" lon="-2.36105">
        <ele>22.39999961853</ele>
        <time>2021-08-19T07:40:33.000Z</time>
      </trkpt>
      <trkpt lat="47.31522" lon="-2.3611">
        <ele>22.799999237061</ele>
        <time>2021-08-19T07:40:34.000Z</time>
      </trkpt>
      <trkpt lat="47.31517" lon="-2.36115">
        <ele>23.200000762939</ele>
        <time>2021-08-19T07:40:35.000Z</time>
      </trkpt>
      <trkpt lat="47.31513" lon="-2.3612">
        <ele>23.60000038147</ele>
        <time>2021-08-19T07:40:36.000Z</time>
      </trkpt>
      <trkpt lat="47.31508" lon="-2.36126">
        <ele>24</ele>
        <time>2021-08-19T07:40:37.000Z</time>
      </trkpt>
      <trkpt lat="47.31495" lon="-2.36141">
        <ele>24</ele>
        <time>2021-08-19T07:40:40.000Z</time>
      </trkpt>
      <trkpt lat="47.31478" lon="-2.36159">
        <ele>24</ele>
        <time>2021-08-19T07:40:44.000Z</time>
      </trkpt>
      <trkpt lat="47.31471" lon="-2.36166">
        <ele>24</ele>
        <time>2021-08-19T07:40:46.000Z</time>
      </trkpt>
      <trkpt lat="47.31465" lon="-2.36179">
        <ele>24</ele>
        <time>2021-08-19T07:40:49.000Z</time>
      </trkpt>
      <trkpt lat="47.31464" lon="-2.3619">
        <ele>24</ele>
        <time>2021-08-19T07:40:51.000Z</time>
      </trkpt>
      <trkpt lat="47.31468" lon="-2.36201">
        <ele>24</ele>
        <time>2021-08-19T07:40:53.000Z</time>
      </trkpt>
      <trkpt lat="47.31471" lon="-2.36214">
        <ele>24</ele>
        <time>2021-08-19T07:40:55.000Z</time>
      </trkpt>
      <trkpt lat="47.31477" lon="-2.36234">
        <ele>24</ele>
        <time>2021-08-19T07:40:58.000Z</time>
      </trkpt>
      <trkpt lat="47.31482" lon="-2.36259">
        <ele>24</ele>
        <time>2021-08-19T07:41:01.000Z</time>
      </trkpt>
      <trkpt lat="47.31488" lon="-2.36291">
        <ele>23.60000038147</ele>
        <time>2021-08-19T07:41:05.000Z</time>
      </trkpt>
      <trkpt lat="47.3149" lon="-2.36299">
        <ele>23.200000762939</ele>
        <time>2021-08-19T07:41:06.000Z</time>
      </trkpt>
      <trkpt lat="47.31491" lon="-2.36307">
        <ele>22.799999237061</ele>
        <time>2021-08-19T07:41:07.000Z</time>
      </trkpt>
      <trkpt lat="47.31493" lon="-2.36316">
        <ele>22.39999961853</ele>
        <time>2021-08-19T07:41:08.000Z</time>
      </trkpt>
      <trkpt lat="47.31495" lon="-2.36324">
        <ele>22</ele>
        <time>2021-08-19T07:41:09.000Z</time>
      </trkpt>
      <trkpt lat="47.31497" lon="-2.36349">
        <ele>22</ele>
        <time>2021-08-19T07:41:12.000Z</time>
      </trkpt>
      <trkpt lat="47.31496" lon="-2.36362">
        <ele>21.60000038147</ele>
        <time>2021-08-19T07:41:14.000Z</time>
      </trkpt>
      <trkpt lat="47.31496" lon="-2.36368">
        <ele>21.200000762939</ele>
        <time>2021-08-19T07:41:15.000Z</time>
      </trkpt>
      <trkpt lat="47.31496" lon="-2.36374">
        <ele>20.799999237061</ele>
        <time>2021-08-19T07:41:16.000Z</time>
      </trkpt>
      <trkpt lat="47.31497" lon="-2.3638">
        <ele>20</ele>
        <time>2021-08-19T07:41:17.000Z</time>
      </trkpt>
      <trkpt lat="47.31497" lon="-2.36387">
        <ele>20</ele>
        <time>2021-08-19T07:41:18.000Z</time>
      </trkpt>
      <trkpt lat="47.31498" lon="-2.36393">
        <ele>20</ele>
        <time>2021-08-19T07:41:19.000Z</time>
      </trkpt>
      <trkpt lat="47.31499" lon="-2.36409">
        <ele>20</ele>
        <time>2021-08-19T07:41:21.000Z</time>
      </trkpt>
      <trkpt lat="47.315" lon="-2.36426">
        <ele>19.60000038147</ele>
        <time>2021-08-19T07:41:23.000Z</time>
      </trkpt>
      <trkpt lat="47.31501" lon="-2.36434">
        <ele>19.200000762939</ele>
        <time>2021-08-19T07:41:24.000Z</time>
      </trkpt>
      <trkpt lat="47.31501" lon="-2.36442">
        <ele>18.60000038147</ele>
        <time>2021-08-19T07:41:25.000Z</time>
      </trkpt>
      <trkpt lat="47.31501" lon="-2.3645">
        <ele>18.200000762939</ele>
        <time>2021-08-19T07:41:26.000Z</time>
      </trkpt>
      <trkpt lat="47.31503" lon="-2.36455">
        <ele>17.799999237061</ele>
        <time>2021-08-19T07:41:27.000Z</time>
      </trkpt>
      <trkpt lat="47.31504" lon="-2.36471">
        <ele>17.799999237061</ele>
        <time>2021-08-19T07:41:29.000Z</time>
      </trkpt>
      <trkpt lat="47.31503" lon="-2.36494">
        <ele>17.799999237061</ele>
        <time>2021-08-19T07:41:32.000Z</time>
      </trkpt>
      <trkpt lat="47.31503" lon="-2.3651">
        <ele>17.799999237061</ele>
        <time>2021-08-19T07:41:34.000Z</time>
      </trkpt>
      <trkpt lat="47.31503" lon="-2.36525">
        <ele>17.39999961853</ele>
        <time>2021-08-19T07:41:36.000Z</time>
      </trkpt>
      <trkpt lat="47.31503" lon="-2.36534">
        <ele>17</ele>
        <time>2021-08-19T07:41:37.000Z</time>
      </trkpt>
      <trkpt lat="47.31503" lon="-2.36542">
        <ele>16.60000038147</ele>
        <time>2021-08-19T07:41:38.000Z</time>
      </trkpt>
      <trkpt lat="47.31502" lon="-2.3655">
        <ele>16.200000762939</ele>
        <time>2021-08-19T07:41:39.000Z</time>
      </trkpt>
      <trkpt lat="47.31502" lon="-2.36557">
        <ele>15.800000190735</ele>
        <time>2021-08-19T07:41:40.000Z</time>
      </trkpt>
      <trkpt lat="47.31501" lon="-2.36577">
        <ele>15.800000190735</ele>
        <time>2021-08-19T07:41:43.000Z</time>
      </trkpt>
      <trkpt lat="47.31499" lon="-2.36582">
        <ele>15.800000190735</ele>
        <time>2021-08-19T07:41:44.000Z</time>
      </trkpt>
      <trkpt lat="47.31499" lon="-2.36589">
        <ele>15.800000190735</ele>
        <time>2021-08-19T07:41:45.000Z</time>
      </trkpt>
      <trkpt lat="47.315" lon="-2.36604">
        <ele>15.800000190735</ele>
        <time>2021-08-19T07:41:47.000Z</time>
      </trkpt>
      <trkpt lat="47.31504" lon="-2.36617">
        <ele>15.800000190735</ele>
        <time>2021-08-19T07:41:49.000Z</time>
      </trkpt>
      <trkpt lat="47.31506" lon="-2.36624">
        <ele>15.800000190735</ele>
        <time>2021-08-19T07:41:50.000Z</time>
      </trkpt>
      <trkpt lat="47.3151" lon="-2.36635">
        <ele>15.800000190735</ele>
        <time>2021-08-19T07:41:52.000Z</time>
      </trkpt>
      <trkpt lat="47.31518" lon="-2.36653">
        <ele>15.800000190735</ele>
        <time>2021-08-19T07:41:55.000Z</time>
      </trkpt>
      <trkpt lat="47.31519" lon="-2.36661">
        <ele>15.800000190735</ele>
        <time>2021-08-19T07:41:56.000Z</time>
      </trkpt>
      <trkpt lat="47.3152" lon="-2.36669">
        <ele>15.800000190735</ele>
        <time>2021-08-19T07:41:57.000Z</time>
      </trkpt>
      <trkpt lat="47.31533" lon="-2.36735">
        <ele>15.800000190735</ele>
        <time>2021-08-19T07:42:05.000Z</time>
      </trkpt>
      <trkpt lat="47.31542" lon="-2.36775">
        <ele>16.200000762939</ele>
        <time>2021-08-19T07:42:10.000Z</time>
      </trkpt>
      <trkpt lat="47.31545" lon="-2.36783">
        <ele>16.60000038147</ele>
        <time>2021-08-19T07:42:11.000Z</time>
      </trkpt>
      <trkpt lat="47.31546" lon="-2.36791">
        <ele>17</ele>
        <time>2021-08-19T07:42:12.000Z</time>
      </trkpt>
      <trkpt lat="47.31548" lon="-2.36799">
        <ele>17.60000038147</ele>
        <time>2021-08-19T07:42:13.000Z</time>
      </trkpt>
      <trkpt lat="47.3155" lon="-2.36806">
        <ele>18</ele>
        <time>2021-08-19T07:42:14.000Z</time>
      </trkpt>
      <trkpt lat="47.31555" lon="-2.36826">
        <ele>18</ele>
        <time>2021-08-19T07:42:17.000Z</time>
      </trkpt>
      <trkpt lat="47.31558" lon="-2.3684">
        <ele>18.39999961853</ele>
        <time>2021-08-19T07:42:19.000Z</time>
      </trkpt>
      <trkpt lat="47.3156" lon="-2.36848">
        <ele>18.799999237061</ele>
        <time>2021-08-19T07:42:20.000Z</time>
      </trkpt>
      <trkpt lat="47.31562" lon="-2.36855">
        <ele>19.200000762939</ele>
        <time>2021-08-19T07:42:21.000Z</time>
      </trkpt>
      <trkpt lat="47.31564" lon="-2.36862">
        <ele>19.799999237061</ele>
        <time>2021-08-19T07:42:22.000Z</time>
      </trkpt>
      <trkpt lat="47.31565" lon="-2.3687">
        <ele>20.200000762939</ele>
        <time>2021-08-19T07:42:23.000Z</time>
      </trkpt>
      <trkpt lat="47.31571" lon="-2.36892">
        <ele>20.200000762939</ele>
        <time>2021-08-19T07:42:26.000Z</time>
      </trkpt>
      <trkpt lat="47.31576" lon="-2.36905">
        <ele>20.60000038147</ele>
        <time>2021-08-19T07:42:28.000Z</time>
      </trkpt>
      <trkpt lat="47.31578" lon="-2.36911">
        <ele>21</ele>
        <time>2021-08-19T07:42:29.000Z</time>
      </trkpt>
      <trkpt lat="47.3158" lon="-2.36918">
        <ele>21.39999961853</ele>
        <time>2021-08-19T07:42:30.000Z</time>
      </trkpt>
      <trkpt lat="47.31582" lon="-2.36924">
        <ele>22.200000762939</ele>
        <time>2021-08-19T07:42:31.000Z</time>
      </trkpt>
      <trkpt lat="47.31587" lon="-2.36937">
        <ele>22.200000762939</ele>
        <time>2021-08-19T07:42:33.000Z</time>
      </trkpt>
      <trkpt lat="47.31593" lon="-2.36958">
        <ele>22.60000038147</ele>
        <time>2021-08-19T07:42:36.000Z</time>
      </trkpt>
      <trkpt lat="47.31595" lon="-2.36965">
        <ele>23.200000762939</ele>
        <time>2021-08-19T07:42:37.000Z</time>
      </trkpt>
      <trkpt lat="47.31598" lon="-2.36972">
        <ele>23.60000038147</ele>
        <time>2021-08-19T07:42:38.000Z</time>
      </trkpt>
      <trkpt lat="47.31599" lon="-2.36979">
        <ele>24</ele>
        <time>2021-08-19T07:42:39.000Z</time>
      </trkpt>
      <trkpt lat="47.31601" lon="-2.36985">
        <ele>24.39999961853</ele>
        <time>2021-08-19T07:42:40.000Z</time>
      </trkpt>
      <trkpt lat="47.31603" lon="-2.36991">
        <ele>24.39999961853</ele>
        <time>2021-08-19T07:42:41.000Z</time>
      </trkpt>
      <trkpt lat="47.31623" lon="-2.37051">
        <ele>24.799999237061</ele>
        <time>2021-08-19T07:42:50.000Z</time>
      </trkpt>
      <trkpt lat="47.31627" lon="-2.37057">
        <ele>25.200000762939</ele>
        <time>2021-08-19T07:42:51.000Z</time>
      </trkpt>
      <trkpt lat="47.31631" lon="-2.37062">
        <ele>25.60000038147</ele>
        <time>2021-08-19T07:42:52.000Z</time>
      </trkpt>
      <trkpt lat="47.31634" lon="-2.37068">
        <ele>26</ele>
        <time>2021-08-19T07:42:53.000Z</time>
      </trkpt>
      <trkpt lat="47.31638" lon="-2.37074">
        <ele>26.39999961853</ele>
        <time>2021-08-19T07:42:54.000Z</time>
      </trkpt>
      <trkpt lat="47.31641" lon="-2.37081">
        <ele>26.39999961853</ele>
        <time>2021-08-19T07:42:55.000Z</time>
      </trkpt>
      <trkpt lat="47.31662" lon="-2.37124">
        <ele>26.39999961853</ele>
        <time>2021-08-19T07:43:02.000Z</time>
      </trkpt>
      <trkpt lat="47.31685" lon="-2.37171">
        <ele>26.39999961853</ele>
        <time>2021-08-19T07:43:09.000Z</time>
      </trkpt>
      <trkpt lat="47.31687" lon="-2.37179">
        <ele>26.39999961853</ele>
        <time>2021-08-19T07:43:10.000Z</time>
      </trkpt>
      <trkpt lat="47.31692" lon="-2.37204">
        <ele>26.39999961853</ele>
        <time>2021-08-19T07:43:13.000Z</time>
      </trkpt>
      <trkpt lat="47.31683" lon="-2.37229">
        <ele>26.39999961853</ele>
        <time>2021-08-19T07:43:16.000Z</time>
      </trkpt>
      <trkpt lat="47.31662" lon="-2.37251">
        <ele>26.39999961853</ele>
        <time>2021-08-19T07:43:20.000Z</time>
      </trkpt>
      <trkpt lat="47.31627" lon="-2.37282">
        <ele>26.39999961853</ele>
        <time>2021-08-19T07:43:27.000Z</time>
      </trkpt>
      <trkpt lat="47.31624" lon="-2.37289">
        <ele>26.39999961853</ele>
        <time>2021-08-19T07:43:28.000Z</time>
      </trkpt>
      <trkpt lat="47.31619" lon="-2.37317">
        <ele>26.39999961853</ele>
        <time>2021-08-19T07:43:31.000Z</time>
      </trkpt>
      <trkpt lat="47.31623" lon="-2.37346">
        <ele>26.39999961853</ele>
        <time>2021-08-19T07:43:34.000Z</time>
      </trkpt>
      <trkpt lat="47.31628" lon="-2.37365">
        <ele>26.39999961853</ele>
        <time>2021-08-19T07:43:36.000Z</time>
      </trkpt>
      <trkpt lat="47.31635" lon="-2.37402">
        <ele>26.39999961853</ele>
        <time>2021-08-19T07:43:40.000Z</time>
      </trkpt>
      <trkpt lat="47.31637" lon="-2.3745">
        <ele>26.39999961853</ele>
        <time>2021-08-19T07:43:45.000Z</time>
      </trkpt>
      <trkpt lat="47.31638" lon="-2.37498">
        <ele>26.39999961853</ele>
        <time>2021-08-19T07:43:50.000Z</time>
      </trkpt>
      <trkpt lat="47.31636" lon="-2.37507">
        <ele>26.39999961853</ele>
        <time>2021-08-19T07:43:51.000Z</time>
      </trkpt>
      <trkpt lat="47.31625" lon="-2.37539">
        <ele>26.39999961853</ele>
        <time>2021-08-19T07:43:55.000Z</time>
      </trkpt>
      <trkpt lat="47.31622" lon="-2.37547">
        <ele>26.39999961853</ele>
        <time>2021-08-19T07:43:56.000Z</time>
      </trkpt>
      <trkpt lat="47.31617" lon="-2.37564">
        <ele>26.39999961853</ele>
        <time>2021-08-19T07:43:58.000Z</time>
      </trkpt>
      <trkpt lat="47.31615" lon="-2.37592">
        <ele>26.39999961853</ele>
        <time>2021-08-19T07:44:01.000Z</time>
      </trkpt>
      <trkpt lat="47.31615" lon="-2.37601">
        <ele>26.39999961853</ele>
        <time>2021-08-19T07:44:02.000Z</time>
      </trkpt>
      <trkpt lat="47.31618" lon="-2.37634">
        <ele>26.39999961853</ele>
        <time>2021-08-19T07:44:06.000Z</time>
      </trkpt>
      <trkpt lat="47.3162" lon="-2.37642">
        <ele>26.39999961853</ele>
        <time>2021-08-19T07:44:07.000Z</time>
      </trkpt>
      <trkpt lat="47.31633" lon="-2.37658">
        <ele>26.39999961853</ele>
        <time>2021-08-19T07:44:10.000Z</time>
      </trkpt>
      <trkpt lat="47.31645" lon="-2.37661">
        <ele>26</ele>
        <time>2021-08-19T07:44:12.000Z</time>
      </trkpt>
      <trkpt lat="47.3165" lon="-2.37664">
        <ele>25.60000038147</ele>
        <time>2021-08-19T07:44:13.000Z</time>
      </trkpt>
      <trkpt lat="47.31656" lon="-2.37668">
        <ele>25.200000762939</ele>
        <time>2021-08-19T07:44:14.000Z</time>
      </trkpt>
      <trkpt lat="47.31661" lon="-2.37672">
        <ele>24.799999237061</ele>
        <time>2021-08-19T07:44:15.000Z</time>
      </trkpt>
      <trkpt lat="47.31666" lon="-2.37677">
        <ele>24.39999961853</ele>
        <time>2021-08-19T07:44:16.000Z</time>
      </trkpt>
      <trkpt lat="47.31677" lon="-2.37694">
        <ele>24.39999961853</ele>
        <time>2021-08-19T07:44:19.000Z</time>
      </trkpt>
      <trkpt lat="47.31695" lon="-2.37711">
        <ele>24.39999961853</ele>
        <time>2021-08-19T07:44:23.000Z</time>
      </trkpt>
      <trkpt lat="47.317" lon="-2.37714">
        <ele>24.39999961853</ele>
        <time>2021-08-19T07:44:24.000Z</time>
      </trkpt>
      <trkpt lat="47.31723" lon="-2.37714">
        <ele>24.39999961853</ele>
        <time>2021-08-19T07:44:28.000Z</time>
      </trkpt>
      <trkpt lat="47.31729" lon="-2.37713">
        <ele>24.39999961853</ele>
        <time>2021-08-19T07:44:29.000Z</time>
      </trkpt>
      <trkpt lat="47.31751" lon="-2.37702">
        <ele>24.39999961853</ele>
        <time>2021-08-19T07:44:33.000Z</time>
      </trkpt>
      <trkpt lat="47.31756" lon="-2.37698">
        <ele>24.39999961853</ele>
        <time>2021-08-19T07:44:34.000Z</time>
      </trkpt>
      <trkpt lat="47.31789" lon="-2.37664">
        <ele>24.39999961853</ele>
        <time>2021-08-19T07:44:41.000Z</time>
      </trkpt>
      <trkpt lat="47.31801" lon="-2.37654">
        <ele>24.39999961853</ele>
        <time>2021-08-19T07:44:44.000Z</time>
      </trkpt>
      <trkpt lat="47.31811" lon="-2.37648">
        <ele>24.39999961853</ele>
        <time>2021-08-19T07:44:47.000Z</time>
      </trkpt>
      <trkpt lat="47.31821" lon="-2.37651">
        <ele>24.39999961853</ele>
        <time>2021-08-19T07:44:50.000Z</time>
      </trkpt>
      <trkpt lat="47.31824" lon="-2.37655">
        <ele>24.39999961853</ele>
        <time>2021-08-19T07:44:51.000Z</time>
      </trkpt>
      <trkpt lat="47.31825" lon="-2.37673">
        <ele>24.39999961853</ele>
        <time>2021-08-19T07:44:54.000Z</time>
      </trkpt>
      <trkpt lat="47.31822" lon="-2.37696">
        <ele>24.39999961853</ele>
        <time>2021-08-19T07:44:57.000Z</time>
      </trkpt>
      <trkpt lat="47.3182" lon="-2.37713">
        <ele>24.39999961853</ele>
        <time>2021-08-19T07:44:59.000Z</time>
      </trkpt>
      <trkpt lat="47.31814" lon="-2.37778">
        <ele>24.39999961853</ele>
        <time>2021-08-19T07:45:06.000Z</time>
      </trkpt>
      <trkpt lat="47.31807" lon="-2.37846">
        <ele>24</ele>
        <time>2021-08-19T07:45:13.000Z</time>
      </trkpt>
      <trkpt lat="47.31806" lon="-2.37855">
        <ele>23.60000038147</ele>
        <time>2021-08-19T07:45:14.000Z</time>
      </trkpt>
      <trkpt lat="47.31805" lon="-2.37866">
        <ele>23.200000762939</ele>
        <time>2021-08-19T07:45:15.000Z</time>
      </trkpt>
      <trkpt lat="47.31804" lon="-2.37876">
        <ele>22.799999237061</ele>
        <time>2021-08-19T07:45:16.000Z</time>
      </trkpt>
      <trkpt lat="47.31803" lon="-2.37886">
        <ele>22.39999961853</ele>
        <time>2021-08-19T07:45:17.000Z</time>
      </trkpt>
      <trkpt lat="47.31797" lon="-2.37948">
        <ele>21.60000038147</ele>
        <time>2021-08-19T07:45:23.000Z</time>
      </trkpt>
      <trkpt lat="47.31797" lon="-2.3796">
        <ele>21.200000762939</ele>
        <time>2021-08-19T07:45:24.000Z</time>
      </trkpt>
      <trkpt lat="47.31797" lon="-2.37973">
        <ele>20.799999237061</ele>
        <time>2021-08-19T07:45:25.000Z</time>
      </trkpt>
      <trkpt lat="47.31797" lon="-2.37984">
        <ele>20.39999961853</ele>
        <time>2021-08-19T07:45:26.000Z</time>
      </trkpt>
      <trkpt lat="47.31797" lon="-2.3802">
        <ele>20.39999961853</ele>
        <time>2021-08-19T07:45:29.000Z</time>
      </trkpt>
      <trkpt lat="47.31798" lon="-2.38044">
        <ele>20</ele>
        <time>2021-08-19T07:45:31.000Z</time>
      </trkpt>
      <trkpt lat="47.31799" lon="-2.38056">
        <ele>19.39999961853</ele>
        <time>2021-08-19T07:45:32.000Z</time>
      </trkpt>
      <trkpt lat="47.318" lon="-2.38067">
        <ele>19</ele>
        <time>2021-08-19T07:45:33.000Z</time>
      </trkpt>
      <trkpt lat="47.31801" lon="-2.38077">
        <ele>18.60000038147</ele>
        <time>2021-08-19T07:45:34.000Z</time>
      </trkpt>
      <trkpt lat="47.31801" lon="-2.38088">
        <ele>18.200000762939</ele>
        <time>2021-08-19T07:45:35.000Z</time>
      </trkpt>
      <trkpt lat="47.31801" lon="-2.38099">
        <ele>18.200000762939</ele>
        <time>2021-08-19T07:45:36.000Z</time>
      </trkpt>
      <trkpt lat="47.31803" lon="-2.3817">
        <ele>18.200000762939</ele>
        <time>2021-08-19T07:45:43.000Z</time>
      </trkpt>
      <trkpt lat="47.31807" lon="-2.38242">
        <ele>18.200000762939</ele>
        <time>2021-08-19T07:45:50.000Z</time>
      </trkpt>
      <trkpt lat="47.31807" lon="-2.38252">
        <ele>18.60000038147</ele>
        <time>2021-08-19T07:45:51.000Z</time>
      </trkpt>
      <trkpt lat="47.31808" lon="-2.38262">
        <ele>19.200000762939</ele>
        <time>2021-08-19T07:45:52.000Z</time>
      </trkpt>
      <trkpt lat="47.31808" lon="-2.38272">
        <ele>19.60000038147</ele>
        <time>2021-08-19T07:45:53.000Z</time>
      </trkpt>
      <trkpt lat="47.31808" lon="-2.38281">
        <ele>20</ele>
        <time>2021-08-19T07:45:54.000Z</time>
      </trkpt>
      <trkpt lat="47.31808" lon="-2.38291">
        <ele>20.60000038147</ele>
        <time>2021-08-19T07:45:55.000Z</time>
      </trkpt>
      <trkpt lat="47.31808" lon="-2.3831">
        <ele>20.60000038147</ele>
        <time>2021-08-19T07:45:57.000Z</time>
      </trkpt>
      <trkpt lat="47.31809" lon="-2.38349">
        <ele>21</ele>
        <time>2021-08-19T07:46:01.000Z</time>
      </trkpt>
      <trkpt lat="47.3181" lon="-2.38358">
        <ele>21.39999961853</ele>
        <time>2021-08-19T07:46:02.000Z</time>
      </trkpt>
      <trkpt lat="47.3181" lon="-2.38367">
        <ele>21.799999237061</ele>
        <time>2021-08-19T07:46:03.000Z</time>
      </trkpt>
      <trkpt lat="47.3181" lon="-2.38376">
        <ele>22.39999961853</ele>
        <time>2021-08-19T07:46:04.000Z</time>
      </trkpt>
      <trkpt lat="47.3181" lon="-2.38387">
        <ele>22.799999237061</ele>
        <time>2021-08-19T07:46:05.000Z</time>
      </trkpt>
      <trkpt lat="47.3181" lon="-2.38415">
        <ele>22.799999237061</ele>
        <time>2021-08-19T07:46:08.000Z</time>
      </trkpt>
      <trkpt lat="47.3181" lon="-2.38453">
        <ele>23.200000762939</ele>
        <time>2021-08-19T07:46:12.000Z</time>
      </trkpt>
      <trkpt lat="47.3181" lon="-2.38463">
        <ele>23.60000038147</ele>
        <time>2021-08-19T07:46:13.000Z</time>
      </trkpt>
      <trkpt lat="47.31811" lon="-2.38472">
        <ele>24</ele>
        <time>2021-08-19T07:46:14.000Z</time>
      </trkpt>
      <trkpt lat="47.31811" lon="-2.38481">
        <ele>24.39999961853</ele>
        <time>2021-08-19T07:46:15.000Z</time>
      </trkpt>
      <trkpt lat="47.31811" lon="-2.3849">
        <ele>24.799999237061</ele>
        <time>2021-08-19T07:46:16.000Z</time>
      </trkpt>
      <trkpt lat="47.3181" lon="-2.3852">
        <ele>24.799999237061</ele>
        <time>2021-08-19T07:46:20.000Z</time>
      </trkpt>
      <trkpt lat="47.31809" lon="-2.38527">
        <ele>24.799999237061</ele>
        <time>2021-08-19T07:46:21.000Z</time>
      </trkpt>
      <trkpt lat="47.31811" lon="-2.38539">
        <ele>24.799999237061</ele>
        <time>2021-08-19T07:46:23.000Z</time>
      </trkpt>
      <trkpt lat="47.31819" lon="-2.38542">
        <ele>24.799999237061</ele>
        <time>2021-08-19T07:46:25.000Z</time>
      </trkpt>
      <trkpt lat="47.31834" lon="-2.38539">
        <ele>24.799999237061</ele>
        <time>2021-08-19T07:46:28.000Z</time>
      </trkpt>
      <trkpt lat="47.3184" lon="-2.38537">
        <ele>24.799999237061</ele>
        <time>2021-08-19T07:46:29.000Z</time>
      </trkpt>
      <trkpt lat="47.31876" lon="-2.38521">
        <ele>24.799999237061</ele>
        <time>2021-08-19T07:46:35.000Z</time>
      </trkpt>
      <trkpt lat="47.3189" lon="-2.38515">
        <ele>24.39999961853</ele>
        <time>2021-08-19T07:46:37.000Z</time>
      </trkpt>
      <trkpt lat="47.31896" lon="-2.38512">
        <ele>24</ele>
        <time>2021-08-19T07:46:38.000Z</time>
      </trkpt>
      <trkpt lat="47.31904" lon="-2.38507">
        <ele>23.60000038147</ele>
        <time>2021-08-19T07:46:39.000Z</time>
      </trkpt>
      <trkpt lat="47.31911" lon="-2.38502">
        <ele>23.200000762939</ele>
        <time>2021-08-19T07:46:40.000Z</time>
      </trkpt>
      <trkpt lat="47.31918" lon="-2.38498">
        <ele>22.799999237061</ele>
        <time>2021-08-19T07:46:41.000Z</time>
      </trkpt>
      <trkpt lat="47.31924" lon="-2.38495">
        <ele>22.799999237061</ele>
        <time>2021-08-19T07:46:42.000Z</time>
      </trkpt>
      <trkpt lat="47.31946" lon="-2.38489">
        <ele>22.39999961853</ele>
        <time>2021-08-19T07:46:45.000Z</time>
      </trkpt>
      <trkpt lat="47.31953" lon="-2.38488">
        <ele>22</ele>
        <time>2021-08-19T07:46:46.000Z</time>
      </trkpt>
      <trkpt lat="47.31961" lon="-2.38486">
        <ele>21.60000038147</ele>
        <time>2021-08-19T07:46:47.000Z</time>
      </trkpt>
      <trkpt lat="47.31969" lon="-2.38483">
        <ele>21.200000762939</ele>
        <time>2021-08-19T07:46:48.000Z</time>
      </trkpt>
      <trkpt lat="47.31977" lon="-2.38481">
        <ele>20.799999237061</ele>
        <time>2021-08-19T07:46:49.000Z</time>
      </trkpt>
      <trkpt lat="47.32029" lon="-2.38461">
        <ele>20.799999237061</ele>
        <time>2021-08-19T07:46:56.000Z</time>
      </trkpt>
      <trkpt lat="47.32059" lon="-2.38449">
        <ele>20.39999961853</ele>
        <time>2021-08-19T07:47:00.000Z</time>
      </trkpt>
      <trkpt lat="47.32067" lon="-2.38445">
        <ele>19.60000038147</ele>
        <time>2021-08-19T07:47:01.000Z</time>
      </trkpt>
      <trkpt lat="47.32073" lon="-2.38442">
        <ele>19.200000762939</ele>
        <time>2021-08-19T07:47:02.000Z</time>
      </trkpt>
      <trkpt lat="47.32081" lon="-2.38438">
        <ele>18.799999237061</ele>
        <time>2021-08-19T07:47:03.000Z</time>
      </trkpt>
      <trkpt lat="47.32101" lon="-2.3843">
        <ele>18.200000762939</ele>
        <time>2021-08-19T07:47:06.000Z</time>
      </trkpt>
      <trkpt lat="47.32108" lon="-2.38428">
        <ele>17.799999237061</ele>
        <time>2021-08-19T07:47:07.000Z</time>
      </trkpt>
      <trkpt lat="47.32114" lon="-2.38425">
        <ele>17.39999961853</ele>
        <time>2021-08-19T07:47:08.000Z</time>
      </trkpt>
      <trkpt lat="47.32121" lon="-2.38421">
        <ele>17</ele>
        <time>2021-08-19T07:47:09.000Z</time>
      </trkpt>
      <trkpt lat="47.32127" lon="-2.38417">
        <ele>16.60000038147</ele>
        <time>2021-08-19T07:47:10.000Z</time>
      </trkpt>
      <trkpt lat="47.32138" lon="-2.38406">
        <ele>16.60000038147</ele>
        <time>2021-08-19T07:47:12.000Z</time>
      </trkpt>
      <trkpt lat="47.32149" lon="-2.38392">
        <ele>16.60000038147</ele>
        <time>2021-08-19T07:47:14.000Z</time>
      </trkpt>
      <trkpt lat="47.32159" lon="-2.38375">
        <ele>16.60000038147</ele>
        <time>2021-08-19T07:47:16.000Z</time>
      </trkpt>
      <trkpt lat="47.32173" lon="-2.38352">
        <ele>16.200000762939</ele>
        <time>2021-08-19T07:47:19.000Z</time>
      </trkpt>
      <trkpt lat="47.32178" lon="-2.38346">
        <ele>15.800000190735</ele>
        <time>2021-08-19T07:47:20.000Z</time>
      </trkpt>
      <trkpt lat="47.32183" lon="-2.38339">
        <ele>15.39999961853</ele>
        <time>2021-08-19T07:47:21.000Z</time>
      </trkpt>
      <trkpt lat="47.32187" lon="-2.38333">
        <ele>14.800000190735</ele>
        <time>2021-08-19T07:47:22.000Z</time>
      </trkpt>
      <trkpt lat="47.32192" lon="-2.38327">
        <ele>14.39999961853</ele>
        <time>2021-08-19T07:47:23.000Z</time>
      </trkpt>
      <trkpt lat="47.3221" lon="-2.38301">
        <ele>14.39999961853</ele>
        <time>2021-08-19T07:47:27.000Z</time>
      </trkpt>
      <trkpt lat="47.32224" lon="-2.38292">
        <ele>14.39999961853</ele>
        <time>2021-08-19T07:47:30.000Z</time>
      </trkpt>
      <trkpt lat="47.32235" lon="-2.38291">
        <ele>14.39999961853</ele>
        <time>2021-08-19T07:47:32.000Z</time>
      </trkpt>
      <trkpt lat="47.32257" lon="-2.38286">
        <ele>14.39999961853</ele>
        <time>2021-08-19T07:47:36.000Z</time>
      </trkpt>
      <trkpt lat="47.32268" lon="-2.38285">
        <ele>14.39999961853</ele>
        <time>2021-08-19T07:47:38.000Z</time>
      </trkpt>
      <trkpt lat="47.32286" lon="-2.38287">
        <ele>14.39999961853</ele>
        <time>2021-08-19T07:47:41.000Z</time>
      </trkpt>
      <trkpt lat="47.32329" lon="-2.38302">
        <ele>14.39999961853</ele>
        <time>2021-08-19T07:47:49.000Z</time>
      </trkpt>
      <trkpt lat="47.32359" lon="-2.38316">
        <ele>14.800000190735</ele>
        <time>2021-08-19T07:47:55.000Z</time>
      </trkpt>
      <trkpt lat="47.32364" lon="-2.38318">
        <ele>15.199999809265</ele>
        <time>2021-08-19T07:47:56.000Z</time>
      </trkpt>
      <trkpt lat="47.32369" lon="-2.3832">
        <ele>15.60000038147</ele>
        <time>2021-08-19T07:47:57.000Z</time>
      </trkpt>
      <trkpt lat="47.32374" lon="-2.38323">
        <ele>16.200000762939</ele>
        <time>2021-08-19T07:47:58.000Z</time>
      </trkpt>
      <trkpt lat="47.32379" lon="-2.38325">
        <ele>16.60000038147</ele>
        <time>2021-08-19T07:47:59.000Z</time>
      </trkpt>
      <trkpt lat="47.32398" lon="-2.38335">
        <ele>16.60000038147</ele>
        <time>2021-08-19T07:48:03.000Z</time>
      </trkpt>
      <trkpt lat="47.32413" lon="-2.38343">
        <ele>17</ele>
        <time>2021-08-19T07:48:06.000Z</time>
      </trkpt>
      <trkpt lat="47.32417" lon="-2.38346">
        <ele>17.39999961853</ele>
        <time>2021-08-19T07:48:07.000Z</time>
      </trkpt>
      <trkpt lat="47.32422" lon="-2.38348">
        <ele>17.799999237061</ele>
        <time>2021-08-19T07:48:08.000Z</time>
      </trkpt>
      <trkpt lat="47.32427" lon="-2.38351">
        <ele>18.200000762939</ele>
        <time>2021-08-19T07:48:09.000Z</time>
      </trkpt>
      <trkpt lat="47.32432" lon="-2.38353">
        <ele>18.60000038147</ele>
        <time>2021-08-19T07:48:10.000Z</time>
      </trkpt>
      <trkpt lat="47.32472" lon="-2.38371">
        <ele>18.60000038147</ele>
        <time>2021-08-19T07:48:17.000Z</time>
      </trkpt>
      <trkpt lat="47.32509" lon="-2.38387">
        <ele>18.60000038147</ele>
        <time>2021-08-19T07:48:24.000Z</time>
      </trkpt>
      <trkpt lat="47.32516" lon="-2.3839">
        <ele>18.60000038147</ele>
        <time>2021-08-19T07:48:27.000Z</time>
      </trkpt>
      <trkpt lat="47.32523" lon="-2.38386">
        <ele>18.60000038147</ele>
        <time>2021-08-19T07:48:31.000Z</time>
      </trkpt>
      <trkpt lat="47.32524" lon="-2.38383">
        <ele>18.60000038147</ele>
        <time>2021-08-19T07:48:32.000Z</time>
      </trkpt>
      <trkpt lat="47.32524" lon="-2.38358">
        <ele>18.60000038147</ele>
        <time>2021-08-19T07:48:37.000Z</time>
      </trkpt>
      <trkpt lat="47.32526" lon="-2.38328">
        <ele>18.60000038147</ele>
        <time>2021-08-19T07:48:41.000Z</time>
      </trkpt>
      <trkpt lat="47.32528" lon="-2.38323">
        <ele>18.60000038147</ele>
        <time>2021-08-19T07:48:42.000Z</time>
      </trkpt>
      <trkpt lat="47.32531" lon="-2.38319">
        <ele>18</ele>
        <time>2021-08-19T07:48:43.000Z</time>
      </trkpt>
      <trkpt lat="47.32535" lon="-2.38316">
        <ele>17.60000038147</ele>
        <time>2021-08-19T07:48:44.000Z</time>
      </trkpt>
      <trkpt lat="47.3254" lon="-2.38313">
        <ele>17</ele>
        <time>2021-08-19T07:48:45.000Z</time>
      </trkpt>
      <trkpt lat="47.32546" lon="-2.38311">
        <ele>16.60000038147</ele>
        <time>2021-08-19T07:48:46.000Z</time>
      </trkpt>
      <trkpt lat="47.32552" lon="-2.38309">
        <ele>16.200000762939</ele>
        <time>2021-08-19T07:48:47.000Z</time>
      </trkpt>
      <trkpt lat="47.32564" lon="-2.38305">
        <ele>15.60000038147</ele>
        <time>2021-08-19T07:48:49.000Z</time>
      </trkpt>
      <trkpt lat="47.3257" lon="-2.38304">
        <ele>15.199999809265</ele>
        <time>2021-08-19T07:48:50.000Z</time>
      </trkpt>
      <trkpt lat="47.32576" lon="-2.38302">
        <ele>14.800000190735</ele>
        <time>2021-08-19T07:48:51.000Z</time>
      </trkpt>
      <trkpt lat="47.32583" lon="-2.383">
        <ele>14.39999961853</ele>
        <time>2021-08-19T07:48:52.000Z</time>
      </trkpt>
      <trkpt lat="47.32589" lon="-2.38297">
        <ele>14</ele>
        <time>2021-08-19T07:48:53.000Z</time>
      </trkpt>
      <trkpt lat="47.32596" lon="-2.38296">
        <ele>14</ele>
        <time>2021-08-19T07:48:54.000Z</time>
      </trkpt>
      <trkpt lat="47.32609" lon="-2.38298">
        <ele>14</ele>
        <time>2021-08-19T07:48:56.000Z</time>
      </trkpt>
      <trkpt lat="47.32625" lon="-2.38312">
        <ele>14</ele>
        <time>2021-08-19T07:48:59.000Z</time>
      </trkpt>
      <trkpt lat="47.32629" lon="-2.38318">
        <ele>14</ele>
        <time>2021-08-19T07:49:00.000Z</time>
      </trkpt>
      <trkpt lat="47.32646" lon="-2.38339">
        <ele>14.39999961853</ele>
        <time>2021-08-19T07:49:04.000Z</time>
      </trkpt>
      <trkpt lat="47.32649" lon="-2.38344">
        <ele>14.800000190735</ele>
        <time>2021-08-19T07:49:05.000Z</time>
      </trkpt>
      <trkpt lat="47.32653" lon="-2.38349">
        <ele>15.199999809265</ele>
        <time>2021-08-19T07:49:06.000Z</time>
      </trkpt>
      <trkpt lat="47.32657" lon="-2.38354">
        <ele>15.60000038147</ele>
        <time>2021-08-19T07:49:07.000Z</time>
      </trkpt>
      <trkpt lat="47.32661" lon="-2.38359">
        <ele>16</ele>
        <time>2021-08-19T07:49:08.000Z</time>
      </trkpt>
      <trkpt lat="47.32675" lon="-2.38378">
        <ele>16.39999961853</ele>
        <time>2021-08-19T07:49:12.000Z</time>
      </trkpt>
      <trkpt lat="47.32679" lon="-2.38382">
        <ele>16.799999237061</ele>
        <time>2021-08-19T07:49:13.000Z</time>
      </trkpt>
      <trkpt lat="47.32682" lon="-2.38387">
        <ele>17.200000762939</ele>
        <time>2021-08-19T07:49:14.000Z</time>
      </trkpt>
      <trkpt lat="47.32686" lon="-2.38391">
        <ele>17.60000038147</ele>
        <time>2021-08-19T07:49:15.000Z</time>
      </trkpt>
      <trkpt lat="47.32689" lon="-2.38396">
        <ele>18</ele>
        <time>2021-08-19T07:49:16.000Z</time>
      </trkpt>
      <trkpt lat="47.32692" lon="-2.38399">
        <ele>18</ele>
        <time>2021-08-19T07:49:17.000Z</time>
      </trkpt>
      <trkpt lat="47.327" lon="-2.38404">
        <ele>18</ele>
        <time>2021-08-19T07:49:19.000Z</time>
      </trkpt>
      <trkpt lat="47.32705" lon="-2.38406">
        <ele>18.60000038147</ele>
        <time>2021-08-19T07:49:20.000Z</time>
      </trkpt>
      <trkpt lat="47.32709" lon="-2.38407">
        <ele>19</ele>
        <time>2021-08-19T07:49:21.000Z</time>
      </trkpt>
      <trkpt lat="47.32713" lon="-2.38408">
        <ele>19.39999961853</ele>
        <time>2021-08-19T07:49:22.000Z</time>
      </trkpt>
      <trkpt lat="47.32717" lon="-2.38409">
        <ele>19.799999237061</ele>
        <time>2021-08-19T07:49:23.000Z</time>
      </trkpt>
      <trkpt lat="47.32721" lon="-2.38409">
        <ele>20.200000762939</ele>
        <time>2021-08-19T07:49:24.000Z</time>
      </trkpt>
      <trkpt lat="47.32738" lon="-2.38403">
        <ele>20.200000762939</ele>
        <time>2021-08-19T07:49:28.000Z</time>
      </trkpt>
      <trkpt lat="47.32745" lon="-2.384">
        <ele>20.60000038147</ele>
        <time>2021-08-19T07:49:30.000Z</time>
      </trkpt>
      <trkpt lat="47.32749" lon="-2.38399">
        <ele>21</ele>
        <time>2021-08-19T07:49:31.000Z</time>
      </trkpt>
      <trkpt lat="47.32753" lon="-2.38398">
        <ele>21.39999961853</ele>
        <time>2021-08-19T07:49:32.000Z</time>
      </trkpt>
      <trkpt lat="47.32757" lon="-2.38398">
        <ele>21.799999237061</ele>
        <time>2021-08-19T07:49:33.000Z</time>
      </trkpt>
      <trkpt lat="47.32761" lon="-2.38397">
        <ele>22.200000762939</ele>
        <time>2021-08-19T07:49:34.000Z</time>
      </trkpt>
      <trkpt lat="47.32771" lon="-2.38395">
        <ele>22.200000762939</ele>
        <time>2021-08-19T07:49:37.000Z</time>
      </trkpt>
      <trkpt lat="47.32776" lon="-2.38391">
        <ele>22.200000762939</ele>
        <time>2021-08-19T07:49:39.000Z</time>
      </trkpt>
      <trkpt lat="47.3278" lon="-2.38382">
        <ele>22.200000762939</ele>
        <time>2021-08-19T07:49:41.000Z</time>
      </trkpt>
      <trkpt lat="47.32784" lon="-2.38366">
        <ele>22.200000762939</ele>
        <time>2021-08-19T07:49:44.000Z</time>
      </trkpt>
      <trkpt lat="47.32786" lon="-2.38351">
        <ele>22.200000762939</ele>
        <time>2021-08-19T07:49:46.000Z</time>
      </trkpt>
      <trkpt lat="47.32791" lon="-2.38326">
        <ele>22.200000762939</ele>
        <time>2021-08-19T07:49:49.000Z</time>
      </trkpt>
      <trkpt lat="47.32797" lon="-2.38299">
        <ele>22.200000762939</ele>
        <time>2021-08-19T07:49:52.000Z</time>
      </trkpt>
      <trkpt lat="47.32804" lon="-2.38269">
        <ele>21.799999237061</ele>
        <time>2021-08-19T07:49:55.000Z</time>
      </trkpt>
      <trkpt lat="47.32807" lon="-2.38258">
        <ele>21.200000762939</ele>
        <time>2021-08-19T07:49:56.000Z</time>
      </trkpt>
      <trkpt lat="47.32809" lon="-2.38247">
        <ele>20.799999237061</ele>
        <time>2021-08-19T07:49:57.000Z</time>
      </trkpt>
      <trkpt lat="47.32812" lon="-2.38237">
        <ele>20.39999961853</ele>
        <time>2021-08-19T07:49:58.000Z</time>
      </trkpt>
      <trkpt lat="47.32815" lon="-2.38225">
        <ele>19.799999237061</ele>
        <time>2021-08-19T07:49:59.000Z</time>
      </trkpt>
      <trkpt lat="47.32819" lon="-2.38214">
        <ele>19.39999961853</ele>
        <time>2021-08-19T07:50:00.000Z</time>
      </trkpt>
      <trkpt lat="47.32823" lon="-2.38203">
        <ele>19</ele>
        <time>2021-08-19T07:50:01.000Z</time>
      </trkpt>
      <trkpt lat="47.32827" lon="-2.38191">
        <ele>18.39999961853</ele>
        <time>2021-08-19T07:50:02.000Z</time>
      </trkpt>
      <trkpt lat="47.32832" lon="-2.3818">
        <ele>18</ele>
        <time>2021-08-19T07:50:03.000Z</time>
      </trkpt>
      <trkpt lat="47.32837" lon="-2.38169">
        <ele>17.60000038147</ele>
        <time>2021-08-19T07:50:04.000Z</time>
      </trkpt>
      <trkpt lat="47.32865" lon="-2.38119">
        <ele>17.200000762939</ele>
        <time>2021-08-19T07:50:09.000Z</time>
      </trkpt>
      <trkpt lat="47.32871" lon="-2.38109">
        <ele>16.60000038147</ele>
        <time>2021-08-19T07:50:10.000Z</time>
      </trkpt>
      <trkpt lat="47.32877" lon="-2.38099">
        <ele>16.200000762939</ele>
        <time>2021-08-19T07:50:11.000Z</time>
      </trkpt>
      <trkpt lat="47.32883" lon="-2.38088">
        <ele>15.800000190735</ele>
        <time>2021-08-19T07:50:12.000Z</time>
      </trkpt>
      <trkpt lat="47.32889" lon="-2.38078">
        <ele>15.39999961853</ele>
        <time>2021-08-19T07:50:13.000Z</time>
      </trkpt>
      <trkpt lat="47.32907" lon="-2.38049">
        <ele>15.39999961853</ele>
        <time>2021-08-19T07:50:16.000Z</time>
      </trkpt>
      <trkpt lat="47.32918" lon="-2.3803">
        <ele>14.60000038147</ele>
        <time>2021-08-19T07:50:18.000Z</time>
      </trkpt>
      <trkpt lat="47.32924" lon="-2.3802">
        <ele>14.199999809265</ele>
        <time>2021-08-19T07:50:19.000Z</time>
      </trkpt>
      <trkpt lat="47.3293" lon="-2.38011">
        <ele>13.800000190735</ele>
        <time>2021-08-19T07:50:20.000Z</time>
      </trkpt>
      <trkpt lat="47.32936" lon="-2.38002">
        <ele>13.39999961853</ele>
        <time>2021-08-19T07:50:21.000Z</time>
      </trkpt>
      <trkpt lat="47.32947" lon="-2.37985">
        <ele>13.39999961853</ele>
        <time>2021-08-19T07:50:23.000Z</time>
      </trkpt>
      <trkpt lat="47.32981" lon="-2.37936">
        <ele>13.39999961853</ele>
        <time>2021-08-19T07:50:29.000Z</time>
      </trkpt>
      <trkpt lat="47.33009" lon="-2.37885">
        <ele>13</ele>
        <time>2021-08-19T07:50:35.000Z</time>
      </trkpt>
      <trkpt lat="47.33014" lon="-2.37877">
        <ele>12.39999961853</ele>
        <time>2021-08-19T07:50:36.000Z</time>
      </trkpt>
      <trkpt lat="47.33018" lon="-2.37869">
        <ele>12</ele>
        <time>2021-08-19T07:50:37.000Z</time>
      </trkpt>
      <trkpt lat="47.33022" lon="-2.3786">
        <ele>11.60000038147</ele>
        <time>2021-08-19T07:50:38.000Z</time>
      </trkpt>
      <trkpt lat="47.33025" lon="-2.37853">
        <ele>11.199999809265</ele>
        <time>2021-08-19T07:50:39.000Z</time>
      </trkpt>
      <trkpt lat="47.33028" lon="-2.37846">
        <ele>11.199999809265</ele>
        <time>2021-08-19T07:50:40.000Z</time>
      </trkpt>
      <trkpt lat="47.33037" lon="-2.37834">
        <ele>11.199999809265</ele>
        <time>2021-08-19T07:50:42.000Z</time>
      </trkpt>
      <trkpt lat="47.33056" lon="-2.37812">
        <ele>11.199999809265</ele>
        <time>2021-08-19T07:50:46.000Z</time>
      </trkpt>
      <trkpt lat="47.33087" lon="-2.37783">
        <ele>10.800000190735</ele>
        <time>2021-08-19T07:50:51.000Z</time>
      </trkpt>
      <trkpt lat="47.33095" lon="-2.37777">
        <ele>10.39999961853</ele>
        <time>2021-08-19T07:50:52.000Z</time>
      </trkpt>
      <trkpt lat="47.33101" lon="-2.3777">
        <ele>10</ele>
        <time>2021-08-19T07:50:53.000Z</time>
      </trkpt>
      <trkpt lat="47.33107" lon="-2.37763">
        <ele>9.6000003814697</ele>
        <time>2021-08-19T07:50:54.000Z</time>
      </trkpt>
      <trkpt lat="47.33114" lon="-2.37756">
        <ele>9.1999998092651</ele>
        <time>2021-08-19T07:50:55.000Z</time>
      </trkpt>
      <trkpt lat="47.33126" lon="-2.37742">
        <ele>9.1999998092651</ele>
        <time>2021-08-19T07:50:57.000Z</time>
      </trkpt>
      <trkpt lat="47.33139" lon="-2.37735">
        <ele>8.6000003814697</ele>
        <time>2021-08-19T07:50:59.000Z</time>
      </trkpt>
      <trkpt lat="47.33146" lon="-2.37735">
        <ele>8.1999998092651</ele>
        <time>2021-08-19T07:51:00.000Z</time>
      </trkpt>
      <trkpt lat="47.33153" lon="-2.37736">
        <ele>7.8000001907349</ele>
        <time>2021-08-19T07:51:01.000Z</time>
      </trkpt>
      <trkpt lat="47.33159" lon="-2.37739">
        <ele>7.4000000953674</ele>
        <time>2021-08-19T07:51:02.000Z</time>
      </trkpt>
      <trkpt lat="47.33165" lon="-2.37743">
        <ele>7</ele>
        <time>2021-08-19T07:51:03.000Z</time>
      </trkpt>
      <trkpt lat="47.33187" lon="-2.37776">
        <ele>7</ele>
        <time>2021-08-19T07:51:08.000Z</time>
      </trkpt>
      <trkpt lat="47.33207" lon="-2.37819">
        <ele>7</ele>
        <time>2021-08-19T07:51:14.000Z</time>
      </trkpt>
      <trkpt lat="47.33223" lon="-2.37844">
        <ele>7.4000000953674</ele>
        <time>2021-08-19T07:51:18.000Z</time>
      </trkpt>
      <trkpt lat="47.33227" lon="-2.37851">
        <ele>7.8000001907349</ele>
        <time>2021-08-19T07:51:19.000Z</time>
      </trkpt>
      <trkpt lat="47.33231" lon="-2.37857">
        <ele>8.1999998092651</ele>
        <time>2021-08-19T07:51:20.000Z</time>
      </trkpt>
      <trkpt lat="47.33236" lon="-2.37863">
        <ele>8.6000003814697</ele>
        <time>2021-08-19T07:51:21.000Z</time>
      </trkpt>
      <trkpt lat="47.3324" lon="-2.37867">
        <ele>9</ele>
        <time>2021-08-19T07:51:22.000Z</time>
      </trkpt>
      <trkpt lat="47.33255" lon="-2.37878">
        <ele>9</ele>
        <time>2021-08-19T07:51:25.000Z</time>
      </trkpt>
      <trkpt lat="47.3326" lon="-2.3788">
        <ele>9</ele>
        <time>2021-08-19T07:51:26.000Z</time>
      </trkpt>
      <trkpt lat="47.33273" lon="-2.37875">
        <ele>9.6000003814697</ele>
        <time>2021-08-19T07:51:29.000Z</time>
      </trkpt>
      <trkpt lat="47.33277" lon="-2.37873">
        <ele>10</ele>
        <time>2021-08-19T07:51:30.000Z</time>
      </trkpt>
      <trkpt lat="47.33281" lon="-2.37871">
        <ele>10.39999961853</ele>
        <time>2021-08-19T07:51:31.000Z</time>
      </trkpt>
      <trkpt lat="47.33285" lon="-2.3787">
        <ele>11</ele>
        <time>2021-08-19T07:51:32.000Z</time>
      </trkpt>
      <trkpt lat="47.33289" lon="-2.37869">
        <ele>11.39999961853</ele>
        <time>2021-08-19T07:51:33.000Z</time>
      </trkpt>
      <trkpt lat="47.33292" lon="-2.37868">
        <ele>11.800000190735</ele>
        <time>2021-08-19T07:51:34.000Z</time>
      </trkpt>
      <trkpt lat="47.33296" lon="-2.37867">
        <ele>12.199999809265</ele>
        <time>2021-08-19T07:51:35.000Z</time>
      </trkpt>
      <trkpt lat="47.333" lon="-2.37866">
        <ele>12.800000190735</ele>
        <time>2021-08-19T07:51:36.000Z</time>
      </trkpt>
      <trkpt lat="47.33304" lon="-2.37865">
        <ele>13.199999809265</ele>
        <time>2021-08-19T07:51:37.000Z</time>
      </trkpt>
      <trkpt lat="47.33308" lon="-2.37863">
        <ele>13.60000038147</ele>
        <time>2021-08-19T07:51:38.000Z</time>
      </trkpt>
      <trkpt lat="47.33316" lon="-2.3786">
        <ele>13.60000038147</ele>
        <time>2021-08-19T07:51:40.000Z</time>
      </trkpt>
      <trkpt lat="47.33332" lon="-2.37853">
        <ele>14</ele>
        <time>2021-08-19T07:51:44.000Z</time>
      </trkpt>
      <trkpt lat="47.33335" lon="-2.37852">
        <ele>14.39999961853</ele>
        <time>2021-08-19T07:51:45.000Z</time>
      </trkpt>
      <trkpt lat="47.33339" lon="-2.37852">
        <ele>14.800000190735</ele>
        <time>2021-08-19T07:51:46.000Z</time>
      </trkpt>
      <trkpt lat="47.33342" lon="-2.37852">
        <ele>15.39999961853</ele>
        <time>2021-08-19T07:51:47.000Z</time>
      </trkpt>
      <trkpt lat="47.33345" lon="-2.37852">
        <ele>15.800000190735</ele>
        <time>2021-08-19T07:51:48.000Z</time>
      </trkpt>
      <trkpt lat="47.33355" lon="-2.37854">
        <ele>15.800000190735</ele>
        <time>2021-08-19T07:51:52.000Z</time>
      </trkpt>
      <trkpt lat="47.33359" lon="-2.37855">
        <ele>15.800000190735</ele>
        <time>2021-08-19T07:51:54.000Z</time>
      </trkpt>
      <trkpt lat="47.33361" lon="-2.37854">
        <ele>15.800000190735</ele>
        <time>2021-08-19T07:51:56.000Z</time>
      </trkpt>
      <trkpt lat="47.33361" lon="-2.37854">
        <ele>15.800000190735</ele>
        <time>2021-08-19T07:52:50.000Z</time>
      </trkpt>
      <trkpt lat="47.33366" lon="-2.37847">
        <ele>15.800000190735</ele>
        <time>2021-08-19T07:52:54.000Z</time>
      </trkpt>
      <trkpt lat="47.33367" lon="-2.37843">
        <ele>15.800000190735</ele>
        <time>2021-08-19T07:52:55.000Z</time>
      </trkpt>
      <trkpt lat="47.33377" lon="-2.37819">
        <ele>15.800000190735</ele>
        <time>2021-08-19T07:53:00.000Z</time>
      </trkpt>
      <trkpt lat="47.3338" lon="-2.37809">
        <ele>15.800000190735</ele>
        <time>2021-08-19T07:53:02.000Z</time>
      </trkpt>
      <trkpt lat="47.33382" lon="-2.37803">
        <ele>16.200000762939</ele>
        <time>2021-08-19T07:53:03.000Z</time>
      </trkpt>
      <trkpt lat="47.33383" lon="-2.37797">
        <ele>16.60000038147</ele>
        <time>2021-08-19T07:53:04.000Z</time>
      </trkpt>
      <trkpt lat="47.33384" lon="-2.37791">
        <ele>17</ele>
        <time>2021-08-19T07:53:05.000Z</time>
      </trkpt>
      <trkpt lat="47.33385" lon="-2.37785">
        <ele>17.39999961853</ele>
        <time>2021-08-19T07:53:06.000Z</time>
      </trkpt>
      <trkpt lat="47.33385" lon="-2.37778">
        <ele>17.799999237061</ele>
        <time>2021-08-19T07:53:07.000Z</time>
      </trkpt>
      <trkpt lat="47.33384" lon="-2.37736">
        <ele>17.799999237061</ele>
        <time>2021-08-19T07:53:14.000Z</time>
      </trkpt>
      <trkpt lat="47.33387" lon="-2.37682">
        <ele>17.799999237061</ele>
        <time>2021-08-19T07:53:22.000Z</time>
      </trkpt>
      <trkpt lat="47.33388" lon="-2.37665">
        <ele>17.799999237061</ele>
        <time>2021-08-19T07:53:24.000Z</time>
      </trkpt>
      <trkpt lat="47.33393" lon="-2.3765">
        <ele>17.799999237061</ele>
        <time>2021-08-19T07:53:26.000Z</time>
      </trkpt>
      <trkpt lat="47.3341" lon="-2.37625">
        <ele>17.799999237061</ele>
        <time>2021-08-19T07:53:30.000Z</time>
      </trkpt>
      <trkpt lat="47.33446" lon="-2.37595">
        <ele>17.799999237061</ele>
        <time>2021-08-19T07:53:37.000Z</time>
      </trkpt>
      <trkpt lat="47.33482" lon="-2.37557">
        <ele>17.799999237061</ele>
        <time>2021-08-19T07:53:44.000Z</time>
      </trkpt>
      <trkpt lat="47.33487" lon="-2.3755">
        <ele>17.799999237061</ele>
        <time>2021-08-19T07:53:45.000Z</time>
      </trkpt>
      <trkpt lat="47.33504" lon="-2.37522">
        <ele>17.799999237061</ele>
        <time>2021-08-19T07:53:49.000Z</time>
      </trkpt>
      <trkpt lat="47.33529" lon="-2.37472">
        <ele>17.799999237061</ele>
        <time>2021-08-19T07:53:55.000Z</time>
      </trkpt>
      <trkpt lat="47.33532" lon="-2.37462">
        <ele>17.799999237061</ele>
        <time>2021-08-19T07:53:56.000Z</time>
      </trkpt>
      <trkpt lat="47.33537" lon="-2.37432">
        <ele>17.799999237061</ele>
        <time>2021-08-19T07:53:59.000Z</time>
      </trkpt>
      <trkpt lat="47.33537" lon="-2.37411">
        <ele>17</ele>
        <time>2021-08-19T07:54:01.000Z</time>
      </trkpt>
      <trkpt lat="47.33537" lon="-2.37401">
        <ele>16.60000038147</ele>
        <time>2021-08-19T07:54:02.000Z</time>
      </trkpt>
      <trkpt lat="47.33537" lon="-2.3739">
        <ele>16.200000762939</ele>
        <time>2021-08-19T07:54:03.000Z</time>
      </trkpt>
      <trkpt lat="47.33538" lon="-2.3738">
        <ele>15.800000190735</ele>
        <time>2021-08-19T07:54:04.000Z</time>
      </trkpt>
      <trkpt lat="47.33538" lon="-2.37371">
        <ele>15.800000190735</ele>
        <time>2021-08-19T07:54:05.000Z</time>
      </trkpt>
      <trkpt lat="47.33536" lon="-2.3736">
        <ele>15.800000190735</ele>
        <time>2021-08-19T07:54:06.000Z</time>
      </trkpt>
      <trkpt lat="47.33532" lon="-2.37342">
        <ele>15.199999809265</ele>
        <time>2021-08-19T07:54:08.000Z</time>
      </trkpt>
      <trkpt lat="47.33529" lon="-2.37332">
        <ele>14.800000190735</ele>
        <time>2021-08-19T07:54:09.000Z</time>
      </trkpt>
      <trkpt lat="47.33526" lon="-2.37322">
        <ele>14.39999961853</ele>
        <time>2021-08-19T07:54:10.000Z</time>
      </trkpt>
      <trkpt lat="47.33522" lon="-2.37312">
        <ele>14</ele>
        <time>2021-08-19T07:54:11.000Z</time>
      </trkpt>
      <trkpt lat="47.33519" lon="-2.37302">
        <ele>13.60000038147</ele>
        <time>2021-08-19T07:54:12.000Z</time>
      </trkpt>
      <trkpt lat="47.33514" lon="-2.37284">
        <ele>13.60000038147</ele>
        <time>2021-08-19T07:54:14.000Z</time>
      </trkpt>
      <trkpt lat="47.33511" lon="-2.37274">
        <ele>13.199999809265</ele>
        <time>2021-08-19T07:54:15.000Z</time>
      </trkpt>
      <trkpt lat="47.33509" lon="-2.37265">
        <ele>12.800000190735</ele>
        <time>2021-08-19T07:54:16.000Z</time>
      </trkpt>
      <trkpt lat="47.33506" lon="-2.37255">
        <ele>12.39999961853</ele>
        <time>2021-08-19T07:54:17.000Z</time>
      </trkpt>
      <trkpt lat="47.33504" lon="-2.37245">
        <ele>12</ele>
        <time>2021-08-19T07:54:18.000Z</time>
      </trkpt>
      <trkpt lat="47.335" lon="-2.37234">
        <ele>11.60000038147</ele>
        <time>2021-08-19T07:54:19.000Z</time>
      </trkpt>
      <trkpt lat="47.33497" lon="-2.37225">
        <ele>11.60000038147</ele>
        <time>2021-08-19T07:54:20.000Z</time>
      </trkpt>
      <trkpt lat="47.33489" lon="-2.37203">
        <ele>11.60000038147</ele>
        <time>2021-08-19T07:54:22.000Z</time>
      </trkpt>
      <trkpt lat="47.33486" lon="-2.37192">
        <ele>11.199999809265</ele>
        <time>2021-08-19T07:54:23.000Z</time>
      </trkpt>
      <trkpt lat="47.33484" lon="-2.3718">
        <ele>10.60000038147</ele>
        <time>2021-08-19T07:54:24.000Z</time>
      </trkpt>
      <trkpt lat="47.33482" lon="-2.37169">
        <ele>10.199999809265</ele>
        <time>2021-08-19T07:54:25.000Z</time>
      </trkpt>
      <trkpt lat="47.33481" lon="-2.37158">
        <ele>9.3999996185303</ele>
        <time>2021-08-19T07:54:26.000Z</time>
      </trkpt>
      <trkpt lat="47.33477" lon="-2.37124">
        <ele>8.8000001907349</ele>
        <time>2021-08-19T07:54:29.000Z</time>
      </trkpt>
      <trkpt lat="47.33476" lon="-2.37113">
        <ele>8.3999996185303</ele>
        <time>2021-08-19T07:54:30.000Z</time>
      </trkpt>
      <trkpt lat="47.33475" lon="-2.37102">
        <ele>8</ele>
        <time>2021-08-19T07:54:31.000Z</time>
      </trkpt>
      <trkpt lat="47.33474" lon="-2.3709">
        <ele>7.4000000953674</ele>
        <time>2021-08-19T07:54:32.000Z</time>
      </trkpt>
      <trkpt lat="47.33473" lon="-2.37079">
        <ele>7</ele>
        <time>2021-08-19T07:54:33.000Z</time>
      </trkpt>
      <trkpt lat="47.33473" lon="-2.37057">
        <ele>7</ele>
        <time>2021-08-19T07:54:35.000Z</time>
      </trkpt>
      <trkpt lat="47.33473" lon="-2.37047">
        <ele>6.5999999046326</ele>
        <time>2021-08-19T07:54:36.000Z</time>
      </trkpt>
      <trkpt lat="47.33473" lon="-2.37039">
        <ele>6.1999998092651</ele>
        <time>2021-08-19T07:54:37.000Z</time>
      </trkpt>
      <trkpt lat="47.33474" lon="-2.37032">
        <ele>5.8000001907349</ele>
        <time>2021-08-19T07:54:38.000Z</time>
      </trkpt>
      <trkpt lat="47.33474" lon="-2.37025">
        <ele>5.4000000953674</ele>
        <time>2021-08-19T07:54:39.000Z</time>
      </trkpt>
      <trkpt lat="47.33475" lon="-2.3702">
        <ele>5</ele>
        <time>2021-08-19T07:54:40.000Z</time>
      </trkpt>
      <trkpt lat="47.33475" lon="-2.37008">
        <ele>4.4000000953674</ele>
        <time>2021-08-19T07:54:43.000Z</time>
      </trkpt>
      <trkpt lat="47.33475" lon="-2.37004">
        <ele>4</ele>
        <time>2021-08-19T07:54:44.000Z</time>
      </trkpt>
      <trkpt lat="47.33474" lon="-2.37001">
        <ele>3.5999999046326</ele>
        <time>2021-08-19T07:54:45.000Z</time>
      </trkpt>
      <trkpt lat="47.33474" lon="-2.36998">
        <ele>3.2000000476837</ele>
        <time>2021-08-19T07:54:46.000Z</time>
      </trkpt>
      <trkpt lat="47.33473" lon="-2.36996">
        <ele>2.7999999523163</ele>
        <time>2021-08-19T07:54:47.000Z</time>
      </trkpt>
      <trkpt lat="47.3347" lon="-2.36991">
        <ele>2.7999999523163</ele>
        <time>2021-08-19T07:54:49.000Z</time>
      </trkpt>
      <trkpt lat="47.33462" lon="-2.36979">
        <ele>2.7999999523163</ele>
        <time>2021-08-19T07:54:53.000Z</time>
      </trkpt>
      <trkpt lat="47.33453" lon="-2.36958">
        <ele>2.7999999523163</ele>
        <time>2021-08-19T07:54:58.000Z</time>
      </trkpt>
      <trkpt lat="47.33453" lon="-2.36932">
        <ele>2.7999999523163</ele>
        <time>2021-08-19T07:55:03.000Z</time>
      </trkpt>
      <trkpt lat="47.3345" lon="-2.36906">
        <ele>2.7999999523163</ele>
        <time>2021-08-19T07:55:07.000Z</time>
      </trkpt>
      <trkpt lat="47.33448" lon="-2.36899">
        <ele>2.7999999523163</ele>
        <time>2021-08-19T07:55:08.000Z</time>
      </trkpt>
      <trkpt lat="47.33449" lon="-2.36882">
        <ele>2.7999999523163</ele>
        <time>2021-08-19T07:55:11.000Z</time>
      </trkpt>
      <trkpt lat="47.3345" lon="-2.36877">
        <ele>2.7999999523163</ele>
        <time>2021-08-19T07:55:12.000Z</time>
      </trkpt>
      <trkpt lat="47.33452" lon="-2.36865">
        <ele>2.7999999523163</ele>
        <time>2021-08-19T07:55:14.000Z</time>
      </trkpt>
      <trkpt lat="47.33457" lon="-2.36858">
        <ele>2.7999999523163</ele>
        <time>2021-08-19T07:55:16.000Z</time>
      </trkpt>
      <trkpt lat="47.3346" lon="-2.36854">
        <ele>2.4000000953674</ele>
        <time>2021-08-19T07:55:18.000Z</time>
      </trkpt>
      <trkpt lat="47.3346" lon="-2.36851">
        <ele>2</ele>
        <time>2021-08-19T07:55:19.000Z</time>
      </trkpt>
      <trkpt lat="47.33461" lon="-2.36847">
        <ele>1.6000000238419</ele>
        <time>2021-08-19T07:55:20.000Z</time>
      </trkpt>
      <trkpt lat="47.33461" lon="-2.36841">
        <ele>1.2000000476837</ele>
        <time>2021-08-19T07:55:21.000Z</time>
      </trkpt>
      <trkpt lat="47.33462" lon="-2.36836">
        <ele>0.80000001192093</ele>
        <time>2021-08-19T07:55:22.000Z</time>
      </trkpt>
      <trkpt lat="47.33462" lon="-2.36829">
        <ele>0.80000001192093</ele>
        <time>2021-08-19T07:55:23.000Z</time>
      </trkpt>
      <trkpt lat="47.33462" lon="-2.36823">
        <ele>0.80000001192093</ele>
        <time>2021-08-19T07:55:24.000Z</time>
      </trkpt>
      <trkpt lat="47.33462" lon="-2.36811">
        <ele>0.80000001192093</ele>
        <time>2021-08-19T07:55:26.000Z</time>
      </trkpt>
      <trkpt lat="47.33462" lon="-2.36805">
        <ele>0.80000001192093</ele>
        <time>2021-08-19T07:55:27.000Z</time>
      </trkpt>
      <trkpt lat="47.33464" lon="-2.36784">
        <ele>0.80000001192093</ele>
        <time>2021-08-19T07:55:30.000Z</time>
      </trkpt>
      <trkpt lat="47.33465" lon="-2.36777">
        <ele>0.80000001192093</ele>
        <time>2021-08-19T07:55:31.000Z</time>
      </trkpt>
      <trkpt lat="47.33474" lon="-2.36754">
        <ele>0.80000001192093</ele>
        <time>2021-08-19T07:55:35.000Z</time>
      </trkpt>
      <trkpt lat="47.33476" lon="-2.36748">
        <ele>0.80000001192093</ele>
        <time>2021-08-19T07:55:36.000Z</time>
      </trkpt>
      <trkpt lat="47.33492" lon="-2.36717">
        <ele>0.80000001192093</ele>
        <time>2021-08-19T07:55:42.000Z</time>
      </trkpt>
      <trkpt lat="47.33503" lon="-2.36697">
        <ele>0.80000001192093</ele>
        <time>2021-08-19T07:55:47.000Z</time>
      </trkpt>
      <trkpt lat="47.33515" lon="-2.36674">
        <ele>0.80000001192093</ele>
        <time>2021-08-19T07:55:53.000Z</time>
      </trkpt>
      <trkpt lat="47.3353" lon="-2.36656">
        <ele>0.80000001192093</ele>
        <time>2021-08-19T07:55:59.000Z</time>
      </trkpt>
      <trkpt lat="47.33541" lon="-2.3664">
        <ele>0.80000001192093</ele>
        <time>2021-08-19T07:56:04.000Z</time>
      </trkpt>
      <trkpt lat="47.33541" lon="-2.36636">
        <ele>0.80000001192093</ele>
        <time>2021-08-19T07:56:05.000Z</time>
      </trkpt>
      <trkpt lat="47.33539" lon="-2.3663">
        <ele>0.80000001192093</ele>
        <time>2021-08-19T07:56:07.000Z</time>
      </trkpt>
      <trkpt lat="47.33539" lon="-2.36628">
        <ele>0.80000001192093</ele>
        <time>2021-08-19T07:56:09.000Z</time>
      </trkpt>
      <trkpt lat="47.33523" lon="-2.36614">
        <ele>2.7999999523163</ele>
        <time>2021-08-19T07:57:01.000Z</time>
      </trkpt>
      <trkpt lat="47.33512" lon="-2.36607">
        <ele>2.7999999523163</ele>
        <time>2021-08-19T07:57:06.000Z</time>
      </trkpt>
      <trkpt lat="47.33509" lon="-2.36605">
        <ele>3.4000000953674</ele>
        <time>2021-08-19T07:57:07.000Z</time>
      </trkpt>
      <trkpt lat="47.33506" lon="-2.36603">
        <ele>3.7999999523163</ele>
        <time>2021-08-19T07:57:08.000Z</time>
      </trkpt>
      <trkpt lat="47.33503" lon="-2.36601">
        <ele>4.1999998092651</ele>
        <time>2021-08-19T07:57:09.000Z</time>
      </trkpt>
      <trkpt lat="47.335" lon="-2.36599">
        <ele>4.5999999046326</ele>
        <time>2021-08-19T07:57:10.000Z</time>
      </trkpt>
      <trkpt lat="47.33497" lon="-2.36597">
        <ele>5</ele>
        <time>2021-08-19T07:57:11.000Z</time>
      </trkpt>
      <trkpt lat="47.33494" lon="-2.36597">
        <ele>5</ele>
        <time>2021-08-19T07:57:12.000Z</time>
      </trkpt>
      <trkpt lat="47.33491" lon="-2.36597">
        <ele>5</ele>
        <time>2021-08-19T07:57:13.000Z</time>
      </trkpt>
      <trkpt lat="47.33471" lon="-2.36591">
        <ele>5</ele>
        <time>2021-08-19T07:57:19.000Z</time>
      </trkpt>
      <trkpt lat="47.33469" lon="-2.36576">
        <ele>5</ele>
        <time>2021-08-19T07:57:22.000Z</time>
      </trkpt>
      <trkpt lat="47.3347" lon="-2.36565">
        <ele>5</ele>
        <time>2021-08-19T07:57:24.000Z</time>
      </trkpt>
      <trkpt lat="47.3347" lon="-2.36539">
        <ele>5</ele>
        <time>2021-08-19T07:57:28.000Z</time>
      </trkpt>
      <trkpt lat="47.33471" lon="-2.36519">
        <ele>5.4000000953674</ele>
        <time>2021-08-19T07:57:31.000Z</time>
      </trkpt>
      <trkpt lat="47.33472" lon="-2.36513">
        <ele>5.8000001907349</ele>
        <time>2021-08-19T07:57:32.000Z</time>
      </trkpt>
      <trkpt lat="47.33472" lon="-2.36506">
        <ele>6.4000000953674</ele>
        <time>2021-08-19T07:57:33.000Z</time>
      </trkpt>
      <trkpt lat="47.33472" lon="-2.365">
        <ele>6.8000001907349</ele>
        <time>2021-08-19T07:57:34.000Z</time>
      </trkpt>
      <trkpt lat="47.33472" lon="-2.36493">
        <ele>7.1999998092651</ele>
        <time>2021-08-19T07:57:35.000Z</time>
      </trkpt>
      <trkpt lat="47.33473" lon="-2.36449">
        <ele>7.1999998092651</ele>
        <time>2021-08-19T07:57:42.000Z</time>
      </trkpt>
      <trkpt lat="47.33472" lon="-2.36425">
        <ele>7.1999998092651</ele>
        <time>2021-08-19T07:57:47.000Z</time>
      </trkpt>
      <trkpt lat="47.33469" lon="-2.36423">
        <ele>7.1999998092651</ele>
        <time>2021-08-19T07:57:48.000Z</time>
      </trkpt>
      <trkpt lat="47.33451" lon="-2.36408">
        <ele>7.1999998092651</ele>
        <time>2021-08-19T07:57:54.000Z</time>
      </trkpt>
      <trkpt lat="47.33444" lon="-2.36388">
        <ele>7.5999999046326</ele>
        <time>2021-08-19T07:57:58.000Z</time>
      </trkpt>
      <trkpt lat="47.33443" lon="-2.36384">
        <ele>8</ele>
        <time>2021-08-19T07:57:59.000Z</time>
      </trkpt>
      <trkpt lat="47.33441" lon="-2.36379">
        <ele>8.3999996185303</ele>
        <time>2021-08-19T07:58:00.000Z</time>
      </trkpt>
      <trkpt lat="47.3344" lon="-2.36374">
        <ele>8.8000001907349</ele>
        <time>2021-08-19T07:58:01.000Z</time>
      </trkpt>
      <trkpt lat="47.33438" lon="-2.3637">
        <ele>9.1999998092651</ele>
        <time>2021-08-19T07:58:02.000Z</time>
      </trkpt>
      <trkpt lat="47.33431" lon="-2.36353">
        <ele>9.1999998092651</ele>
        <time>2021-08-19T07:58:05.000Z</time>
      </trkpt>
      <trkpt lat="47.3342" lon="-2.36316">
        <ele>9.1999998092651</ele>
        <time>2021-08-19T07:58:12.000Z</time>
      </trkpt>
      <trkpt lat="47.33416" lon="-2.36302">
        <ele>9.8000001907349</ele>
        <time>2021-08-19T07:58:15.000Z</time>
      </trkpt>
      <trkpt lat="47.33415" lon="-2.36297">
        <ele>10.199999809265</ele>
        <time>2021-08-19T07:58:16.000Z</time>
      </trkpt>
      <trkpt lat="47.33413" lon="-2.36292">
        <ele>10.60000038147</ele>
        <time>2021-08-19T07:58:17.000Z</time>
      </trkpt>
      <trkpt lat="47.33412" lon="-2.36287">
        <ele>11</ele>
        <time>2021-08-19T07:58:18.000Z</time>
      </trkpt>
      <trkpt lat="47.33411" lon="-2.36281">
        <ele>11.39999961853</ele>
        <time>2021-08-19T07:58:19.000Z</time>
      </trkpt>
      <trkpt lat="47.33409" lon="-2.36249">
        <ele>11.39999961853</ele>
        <time>2021-08-19T07:58:24.000Z</time>
      </trkpt>
      <trkpt lat="47.3341" lon="-2.36227">
        <ele>11.39999961853</ele>
        <time>2021-08-19T07:58:27.000Z</time>
      </trkpt>
      <trkpt lat="47.33413" lon="-2.36205">
        <ele>11.39999961853</ele>
        <time>2021-08-19T07:58:30.000Z</time>
      </trkpt>
      <trkpt lat="47.33413" lon="-2.36199">
        <ele>11.39999961853</ele>
        <time>2021-08-19T07:58:31.000Z</time>
      </trkpt>
      <trkpt lat="47.33413" lon="-2.36183">
        <ele>11.800000190735</ele>
        <time>2021-08-19T07:58:34.000Z</time>
      </trkpt>
      <trkpt lat="47.33412" lon="-2.3618">
        <ele>12.199999809265</ele>
        <time>2021-08-19T07:58:35.000Z</time>
      </trkpt>
      <trkpt lat="47.33412" lon="-2.36177">
        <ele>12.60000038147</ele>
        <time>2021-08-19T07:58:36.000Z</time>
      </trkpt>
      <trkpt lat="47.33412" lon="-2.36174">
        <ele>13</ele>
        <time>2021-08-19T07:58:37.000Z</time>
      </trkpt>
      <trkpt lat="47.33412" lon="-2.36172">
        <ele>13.39999961853</ele>
        <time>2021-08-19T07:58:38.000Z</time>
      </trkpt>
      <trkpt lat="47.33411" lon="-2.36169">
        <ele>13.39999961853</ele>
        <time>2021-08-19T07:58:39.000Z</time>
      </trkpt>
      <trkpt lat="47.33409" lon="-2.3616">
        <ele>13.39999961853</ele>
        <time>2021-08-19T07:58:45.000Z</time>
      </trkpt>
      <trkpt lat="47.33407" lon="-2.36159">
        <ele>13.39999961853</ele>
        <time>2021-08-19T07:59:03.000Z</time>
      </trkpt>
      <trkpt lat="47.33401" lon="-2.36165">
        <ele>13.39999961853</ele>
        <time>2021-08-19T07:59:07.000Z</time>
      </trkpt>
      <trkpt lat="47.33382" lon="-2.36177">
        <ele>13.39999961853</ele>
        <time>2021-08-19T07:59:12.000Z</time>
      </trkpt>
      <trkpt lat="47.33355" lon="-2.36194">
        <ele>13.39999961853</ele>
        <time>2021-08-19T07:59:18.000Z</time>
      </trkpt>
      <trkpt lat="47.33317" lon="-2.3622">
        <ele>13.39999961853</ele>
        <time>2021-08-19T07:59:26.000Z</time>
      </trkpt>
      <trkpt lat="47.33308" lon="-2.36208">
        <ele>13.39999961853</ele>
        <time>2021-08-19T07:59:29.000Z</time>
      </trkpt>
      <trkpt lat="47.33308" lon="-2.36194">
        <ele>13.39999961853</ele>
        <time>2021-08-19T07:59:31.000Z</time>
      </trkpt>
      <trkpt lat="47.33308" lon="-2.36179">
        <ele>13.39999961853</ele>
        <time>2021-08-19T07:59:33.000Z</time>
      </trkpt>
      <trkpt lat="47.33308" lon="-2.36123">
        <ele>13.39999961853</ele>
        <time>2021-08-19T07:59:40.000Z</time>
      </trkpt>
      <trkpt lat="47.33309" lon="-2.36057">
        <ele>13.39999961853</ele>
        <time>2021-08-19T07:59:48.000Z</time>
      </trkpt>
      <trkpt lat="47.3331" lon="-2.36029">
        <ele>13.39999961853</ele>
        <time>2021-08-19T07:59:51.000Z</time>
      </trkpt>
      <trkpt lat="47.33312" lon="-2.3601">
        <ele>13.39999961853</ele>
        <time>2021-08-19T07:59:53.000Z</time>
      </trkpt>
      <trkpt lat="47.33313" lon="-2.36001">
        <ele>13.39999961853</ele>
        <time>2021-08-19T07:59:54.000Z</time>
      </trkpt>
      <trkpt lat="47.3332" lon="-2.35965">
        <ele>13.39999961853</ele>
        <time>2021-08-19T07:59:58.000Z</time>
      </trkpt>
      <trkpt lat="47.33321" lon="-2.35956">
        <ele>13.39999961853</ele>
        <time>2021-08-19T07:59:59.000Z</time>
      </trkpt>
      <trkpt lat="47.3332" lon="-2.35931">
        <ele>13.39999961853</ele>
        <time>2021-08-19T08:00:02.000Z</time>
      </trkpt>
      <trkpt lat="47.33314" lon="-2.35916">
        <ele>13.39999961853</ele>
        <time>2021-08-19T08:00:04.000Z</time>
      </trkpt>
      <trkpt lat="47.33305" lon="-2.35894">
        <ele>13.39999961853</ele>
        <time>2021-08-19T08:00:07.000Z</time>
      </trkpt>
      <trkpt lat="47.33288" lon="-2.35878">
        <ele>13.39999961853</ele>
        <time>2021-08-19T08:00:10.000Z</time>
      </trkpt>
      <trkpt lat="47.33281" lon="-2.35874">
        <ele>13.39999961853</ele>
        <time>2021-08-19T08:00:11.000Z</time>
      </trkpt>
      <trkpt lat="47.33268" lon="-2.35864">
        <ele>13.39999961853</ele>
        <time>2021-08-19T08:00:13.000Z</time>
      </trkpt>
      <trkpt lat="47.33257" lon="-2.3585">
        <ele>13.39999961853</ele>
        <time>2021-08-19T08:00:15.000Z</time>
      </trkpt>
      <trkpt lat="47.33251" lon="-2.35843">
        <ele>13.39999961853</ele>
        <time>2021-08-19T08:00:16.000Z</time>
      </trkpt>
      <trkpt lat="47.33238" lon="-2.35831">
        <ele>13.39999961853</ele>
        <time>2021-08-19T08:00:18.000Z</time>
      </trkpt>
      <trkpt lat="47.3323" lon="-2.35827">
        <ele>12.800000190735</ele>
        <time>2021-08-19T08:00:19.000Z</time>
      </trkpt>
      <trkpt lat="47.33221" lon="-2.35824">
        <ele>12.39999961853</ele>
        <time>2021-08-19T08:00:20.000Z</time>
      </trkpt>
      <trkpt lat="47.33212" lon="-2.35821">
        <ele>11.800000190735</ele>
        <time>2021-08-19T08:00:21.000Z</time>
      </trkpt>
      <trkpt lat="47.33203" lon="-2.35818">
        <ele>11.39999961853</ele>
        <time>2021-08-19T08:00:22.000Z</time>
      </trkpt>
      <trkpt lat="47.33194" lon="-2.35816">
        <ele>11</ele>
        <time>2021-08-19T08:00:23.000Z</time>
      </trkpt>
      <trkpt lat="47.33185" lon="-2.35814">
        <ele>10.60000038147</ele>
        <time>2021-08-19T08:00:24.000Z</time>
      </trkpt>
      <trkpt lat="47.33176" lon="-2.35813">
        <ele>10</ele>
        <time>2021-08-19T08:00:25.000Z</time>
      </trkpt>
      <trkpt lat="47.33168" lon="-2.35813">
        <ele>9.6000003814697</ele>
        <time>2021-08-19T08:00:26.000Z</time>
      </trkpt>
      <trkpt lat="47.3316" lon="-2.35811">
        <ele>9.1999998092651</ele>
        <time>2021-08-19T08:00:27.000Z</time>
      </trkpt>
      <trkpt lat="47.33152" lon="-2.35809">
        <ele>8.8000001907349</ele>
        <time>2021-08-19T08:00:28.000Z</time>
      </trkpt>
      <trkpt lat="47.33145" lon="-2.35807">
        <ele>8.8000001907349</ele>
        <time>2021-08-19T08:00:29.000Z</time>
      </trkpt>
      <trkpt lat="47.33099" lon="-2.35808">
        <ele>8.3999996185303</ele>
        <time>2021-08-19T08:00:35.000Z</time>
      </trkpt>
      <trkpt lat="47.33091" lon="-2.35808">
        <ele>7.5999999046326</ele>
        <time>2021-08-19T08:00:36.000Z</time>
      </trkpt>
      <trkpt lat="47.33083" lon="-2.35809">
        <ele>7</ele>
        <time>2021-08-19T08:00:37.000Z</time>
      </trkpt>
      <trkpt lat="47.33078" lon="-2.35809">
        <ele>6.5999999046326</ele>
        <time>2021-08-19T08:00:38.000Z</time>
      </trkpt>
      <trkpt lat="47.33053" lon="-2.35809">
        <ele>6.5999999046326</ele>
        <time>2021-08-19T08:00:41.000Z</time>
      </trkpt>
      <trkpt lat="47.33039" lon="-2.35806">
        <ele>6.5999999046326</ele>
        <time>2021-08-19T08:00:43.000Z</time>
      </trkpt>
      <trkpt lat="47.33024" lon="-2.35797">
        <ele>6.5999999046326</ele>
        <time>2021-08-19T08:00:45.000Z</time>
      </trkpt>
      <trkpt lat="47.33017" lon="-2.35791">
        <ele>6.1999998092651</ele>
        <time>2021-08-19T08:00:46.000Z</time>
      </trkpt>
      <trkpt lat="47.33012" lon="-2.35783">
        <ele>5.8000001907349</ele>
        <time>2021-08-19T08:00:47.000Z</time>
      </trkpt>
      <trkpt lat="47.33007" lon="-2.35774">
        <ele>5.4000000953674</ele>
        <time>2021-08-19T08:00:48.000Z</time>
      </trkpt>
      <trkpt lat="47.33005" lon="-2.35763">
        <ele>4.8000001907349</ele>
        <time>2021-08-19T08:00:49.000Z</time>
      </trkpt>
      <trkpt lat="47.33004" lon="-2.3575">
        <ele>4.4000000953674</ele>
        <time>2021-08-19T08:00:50.000Z</time>
      </trkpt>
      <trkpt lat="47.33004" lon="-2.35738">
        <ele>4.4000000953674</ele>
        <time>2021-08-19T08:00:51.000Z</time>
      </trkpt>
      <trkpt lat="47.33005" lon="-2.35726">
        <ele>4.4000000953674</ele>
        <time>2021-08-19T08:00:52.000Z</time>
      </trkpt>
      <trkpt lat="47.33011" lon="-2.35672">
        <ele>4</ele>
        <time>2021-08-19T08:00:57.000Z</time>
      </trkpt>
      <trkpt lat="47.33012" lon="-2.35663">
        <ele>3.5999999046326</ele>
        <time>2021-08-19T08:00:58.000Z</time>
      </trkpt>
      <trkpt lat="47.33014" lon="-2.35655">
        <ele>3.2000000476837</ele>
        <time>2021-08-19T08:00:59.000Z</time>
      </trkpt>
      <trkpt lat="47.33015" lon="-2.35647">
        <ele>2.7999999523163</ele>
        <time>2021-08-19T08:01:00.000Z</time>
      </trkpt>
      <trkpt lat="47.33016" lon="-2.3564">
        <ele>2.4000000953674</ele>
        <time>2021-08-19T08:01:01.000Z</time>
      </trkpt>
      <trkpt lat="47.33019" lon="-2.35604">
        <ele>2.4000000953674</ele>
        <time>2021-08-19T08:01:06.000Z</time>
      </trkpt>
      <trkpt lat="47.33022" lon="-2.35591">
        <ele>2.4000000953674</ele>
        <time>2021-08-19T08:01:08.000Z</time>
      </trkpt>
      <trkpt lat="47.33024" lon="-2.35571">
        <ele>2.4000000953674</ele>
        <time>2021-08-19T08:01:11.000Z</time>
      </trkpt>
      <trkpt lat="47.33024" lon="-2.35564">
        <ele>2.7999999523163</ele>
        <time>2021-08-19T08:01:12.000Z</time>
      </trkpt>
      <trkpt lat="47.33023" lon="-2.35557">
        <ele>3.2000000476837</ele>
        <time>2021-08-19T08:01:13.000Z</time>
      </trkpt>
      <trkpt lat="47.33023" lon="-2.3555">
        <ele>3.5999999046326</ele>
        <time>2021-08-19T08:01:14.000Z</time>
      </trkpt>
      <trkpt lat="47.33022" lon="-2.35543">
        <ele>4.1999998092651</ele>
        <time>2021-08-19T08:01:15.000Z</time>
      </trkpt>
      <trkpt lat="47.33023" lon="-2.35536">
        <ele>4.5999999046326</ele>
        <time>2021-08-19T08:01:16.000Z</time>
      </trkpt>
      <trkpt lat="47.33023" lon="-2.35521">
        <ele>4.5999999046326</ele>
        <time>2021-08-19T08:01:18.000Z</time>
      </trkpt>
      <trkpt lat="47.33024" lon="-2.35514">
        <ele>4.5999999046326</ele>
        <time>2021-08-19T08:01:19.000Z</time>
      </trkpt>
      <trkpt lat="47.33027" lon="-2.35473">
        <ele>4.5999999046326</ele>
        <time>2021-08-19T08:01:25.000Z</time>
      </trkpt>
      <trkpt lat="47.33027" lon="-2.35461">
        <ele>4.5999999046326</ele>
        <time>2021-08-19T08:01:27.000Z</time>
      </trkpt>
      <trkpt lat="47.33026" lon="-2.3545">
        <ele>5</ele>
        <time>2021-08-19T08:01:29.000Z</time>
      </trkpt>
      <trkpt lat="47.33025" lon="-2.35446">
        <ele>5.4000000953674</ele>
        <time>2021-08-19T08:01:30.000Z</time>
      </trkpt>
      <trkpt lat="47.33025" lon="-2.35441">
        <ele>5.8000001907349</ele>
        <time>2021-08-19T08:01:31.000Z</time>
      </trkpt>
      <trkpt lat="47.33025" lon="-2.35436">
        <ele>6.1999998092651</ele>
        <time>2021-08-19T08:01:32.000Z</time>
      </trkpt>
      <trkpt lat="47.33025" lon="-2.35431">
        <ele>6.5999999046326</ele>
        <time>2021-08-19T08:01:33.000Z</time>
      </trkpt>
      <trkpt lat="47.33025" lon="-2.35417">
        <ele>6.5999999046326</ele>
        <time>2021-08-19T08:01:35.000Z</time>
      </trkpt>
      <trkpt lat="47.33025" lon="-2.35403">
        <ele>6.5999999046326</ele>
        <time>2021-08-19T08:01:37.000Z</time>
      </trkpt>
      <trkpt lat="47.33021" lon="-2.35375">
        <ele>6.5999999046326</ele>
        <time>2021-08-19T08:01:41.000Z</time>
      </trkpt>
      <trkpt lat="47.33018" lon="-2.35344">
        <ele>7</ele>
        <time>2021-08-19T08:01:45.000Z</time>
      </trkpt>
      <trkpt lat="47.33018" lon="-2.35337">
        <ele>7.4000000953674</ele>
        <time>2021-08-19T08:01:46.000Z</time>
      </trkpt>
      <trkpt lat="47.33017" lon="-2.35329">
        <ele>7.8000001907349</ele>
        <time>2021-08-19T08:01:47.000Z</time>
      </trkpt>
      <trkpt lat="47.33017" lon="-2.35322">
        <ele>8.1999998092651</ele>
        <time>2021-08-19T08:01:48.000Z</time>
      </trkpt>
      <trkpt lat="47.33017" lon="-2.35314">
        <ele>8.6000003814697</ele>
        <time>2021-08-19T08:01:49.000Z</time>
      </trkpt>
      <trkpt lat="47.33019" lon="-2.35285">
        <ele>8.6000003814697</ele>
        <time>2021-08-19T08:01:53.000Z</time>
      </trkpt>
      <trkpt lat="47.33025" lon="-2.3526">
        <ele>8.6000003814697</ele>
        <time>2021-08-19T08:01:56.000Z</time>
      </trkpt>
      <trkpt lat="47.33023" lon="-2.35244">
        <ele>8.6000003814697</ele>
        <time>2021-08-19T08:01:58.000Z</time>
      </trkpt>
      <trkpt lat="47.33023" lon="-2.35221">
        <ele>8.6000003814697</ele>
        <time>2021-08-19T08:02:01.000Z</time>
      </trkpt>
      <trkpt lat="47.33023" lon="-2.35214">
        <ele>8.6000003814697</ele>
        <time>2021-08-19T08:02:02.000Z</time>
      </trkpt>
      <trkpt lat="47.3302" lon="-2.35187">
        <ele>8.6000003814697</ele>
        <time>2021-08-19T08:02:06.000Z</time>
      </trkpt>
      <trkpt lat="47.33017" lon="-2.35171">
        <ele>8.6000003814697</ele>
        <time>2021-08-19T08:02:08.000Z</time>
      </trkpt>
      <trkpt lat="47.33015" lon="-2.35122">
        <ele>8.6000003814697</ele>
        <time>2021-08-19T08:02:14.000Z</time>
      </trkpt>
      <trkpt lat="47.33012" lon="-2.35072">
        <ele>8.6000003814697</ele>
        <time>2021-08-19T08:02:20.000Z</time>
      </trkpt>
      <trkpt lat="47.3301" lon="-2.35066">
        <ele>8.1999998092651</ele>
        <time>2021-08-19T08:02:21.000Z</time>
      </trkpt>
      <trkpt lat="47.33009" lon="-2.3506">
        <ele>7.8000001907349</ele>
        <time>2021-08-19T08:02:22.000Z</time>
      </trkpt>
      <trkpt lat="47.33007" lon="-2.35055">
        <ele>7.4000000953674</ele>
        <time>2021-08-19T08:02:23.000Z</time>
      </trkpt>
      <trkpt lat="47.33005" lon="-2.35049">
        <ele>7</ele>
        <time>2021-08-19T08:02:24.000Z</time>
      </trkpt>
      <trkpt lat="47.33003" lon="-2.35043">
        <ele>6.4000000953674</ele>
        <time>2021-08-19T08:02:25.000Z</time>
      </trkpt>
      <trkpt lat="47.33002" lon="-2.35036">
        <ele>6.4000000953674</ele>
        <time>2021-08-19T08:02:26.000Z</time>
      </trkpt>
      <trkpt lat="47.32991" lon="-2.35004">
        <ele>6.4000000953674</ele>
        <time>2021-08-19T08:02:32.000Z</time>
      </trkpt>
      <trkpt lat="47.32978" lon="-2.34983">
        <ele>6.4000000953674</ele>
        <time>2021-08-19T08:02:37.000Z</time>
      </trkpt>
      <trkpt lat="47.32967" lon="-2.34957">
        <ele>6.4000000953674</ele>
        <time>2021-08-19T08:02:42.000Z</time>
      </trkpt>
      <trkpt lat="47.32956" lon="-2.34923">
        <ele>6.4000000953674</ele>
        <time>2021-08-19T08:02:47.000Z</time>
      </trkpt>
      <trkpt lat="47.32947" lon="-2.34892">
        <ele>6.4000000953674</ele>
        <time>2021-08-19T08:02:51.000Z</time>
      </trkpt>
      <trkpt lat="47.32944" lon="-2.34884">
        <ele>6</ele>
        <time>2021-08-19T08:02:52.000Z</time>
      </trkpt>
      <trkpt lat="47.32942" lon="-2.34877">
        <ele>5.5999999046326</ele>
        <time>2021-08-19T08:02:53.000Z</time>
      </trkpt>
      <trkpt lat="47.32939" lon="-2.34869">
        <ele>5.1999998092651</ele>
        <time>2021-08-19T08:02:54.000Z</time>
      </trkpt>
      <trkpt lat="47.32937" lon="-2.34862">
        <ele>4.8000001907349</ele>
        <time>2021-08-19T08:02:55.000Z</time>
      </trkpt>
      <trkpt lat="47.32934" lon="-2.34854">
        <ele>4.4000000953674</ele>
        <time>2021-08-19T08:02:56.000Z</time>
      </trkpt>
      <trkpt lat="47.32925" lon="-2.34826">
        <ele>4.4000000953674</ele>
        <time>2021-08-19T08:03:00.000Z</time>
      </trkpt>
      <trkpt lat="47.32914" lon="-2.34792">
        <ele>4.4000000953674</ele>
        <time>2021-08-19T08:03:06.000Z</time>
      </trkpt>
      <trkpt lat="47.32919" lon="-2.34778">
        <ele>4.4000000953674</ele>
        <time>2021-08-19T08:03:10.000Z</time>
      </trkpt>
      <trkpt lat="47.32937" lon="-2.34766">
        <ele>4.4000000953674</ele>
        <time>2021-08-19T08:03:16.000Z</time>
      </trkpt>
      <trkpt lat="47.32941" lon="-2.34763">
        <ele>4.4000000953674</ele>
        <time>2021-08-19T08:03:17.000Z</time>
      </trkpt>
      <trkpt lat="47.32957" lon="-2.3475">
        <ele>4</ele>
        <time>2021-08-19T08:03:21.000Z</time>
      </trkpt>
      <trkpt lat="47.32961" lon="-2.34747">
        <ele>3.5999999046326</ele>
        <time>2021-08-19T08:03:22.000Z</time>
      </trkpt>
      <trkpt lat="47.32965" lon="-2.34744">
        <ele>3.2000000476837</ele>
        <time>2021-08-19T08:03:23.000Z</time>
      </trkpt>
      <trkpt lat="47.32969" lon="-2.34741">
        <ele>2.7999999523163</ele>
        <time>2021-08-19T08:03:24.000Z</time>
      </trkpt>
      <trkpt lat="47.32974" lon="-2.34737">
        <ele>2.4000000953674</ele>
        <time>2021-08-19T08:03:25.000Z</time>
      </trkpt>
      <trkpt lat="47.32994" lon="-2.34719">
        <ele>2.4000000953674</ele>
        <time>2021-08-19T08:03:29.000Z</time>
      </trkpt>
      <trkpt lat="47.33024" lon="-2.3469">
        <ele>2.4000000953674</ele>
        <time>2021-08-19T08:03:35.000Z</time>
      </trkpt>
      <trkpt lat="47.33046" lon="-2.34668">
        <ele>2</ele>
        <time>2021-08-19T08:03:39.000Z</time>
      </trkpt>
      <trkpt lat="47.33052" lon="-2.34663">
        <ele>1.6000000238419</ele>
        <time>2021-08-19T08:03:40.000Z</time>
      </trkpt>
      <trkpt lat="47.33057" lon="-2.34658">
        <ele>1.2000000476837</ele>
        <time>2021-08-19T08:03:41.000Z</time>
      </trkpt>
      <trkpt lat="47.33063" lon="-2.34652">
        <ele>0.80000001192093</ele>
        <time>2021-08-19T08:03:42.000Z</time>
      </trkpt>
      <trkpt lat="47.33069" lon="-2.34646">
        <ele>0.40000000596046</ele>
        <time>2021-08-19T08:03:43.000Z</time>
      </trkpt>
      <trkpt lat="47.33095" lon="-2.34617">
        <ele>0.40000000596046</ele>
        <time>2021-08-19T08:03:48.000Z</time>
      </trkpt>
      <trkpt lat="47.33122" lon="-2.3459">
        <ele>0.40000000596046</ele>
        <time>2021-08-19T08:03:53.000Z</time>
      </trkpt>
      <trkpt lat="47.33134" lon="-2.34579">
        <ele>0.40000000596046</ele>
        <time>2021-08-19T08:03:55.000Z</time>
      </trkpt>
      <trkpt lat="47.33171" lon="-2.34545">
        <ele>0.40000000596046</ele>
        <time>2021-08-19T08:04:02.000Z</time>
      </trkpt>
      <trkpt lat="47.33207" lon="-2.34511">
        <ele>0.40000000596046</ele>
        <time>2021-08-19T08:04:09.000Z</time>
      </trkpt>
      <trkpt lat="47.33237" lon="-2.34483">
        <ele>0.40000000596046</ele>
        <time>2021-08-19T08:04:15.000Z</time>
      </trkpt>
      <trkpt lat="47.33248" lon="-2.34475">
        <ele>0.40000000596046</ele>
        <time>2021-08-19T08:04:17.000Z</time>
      </trkpt>
      <trkpt lat="47.3326" lon="-2.34474">
        <ele>0.40000000596046</ele>
        <time>2021-08-19T08:04:19.000Z</time>
      </trkpt>
      <trkpt lat="47.33282" lon="-2.34485">
        <ele>0.40000000596046</ele>
        <time>2021-08-19T08:04:23.000Z</time>
      </trkpt>
      <trkpt lat="47.3331" lon="-2.34501">
        <ele>0.40000000596046</ele>
        <time>2021-08-19T08:04:29.000Z</time>
      </trkpt>
      <trkpt lat="47.3333" lon="-2.34514">
        <ele>0.40000000596046</ele>
        <time>2021-08-19T08:04:33.000Z</time>
      </trkpt>
      <trkpt lat="47.33336" lon="-2.34522">
        <ele>0.40000000596046</ele>
        <time>2021-08-19T08:04:35.000Z</time>
      </trkpt>
      <trkpt lat="47.33337" lon="-2.34537">
        <ele>0.40000000596046</ele>
        <time>2021-08-19T08:04:38.000Z</time>
      </trkpt>
      <trkpt lat="47.33335" lon="-2.34544">
        <ele>0.40000000596046</ele>
        <time>2021-08-19T08:04:39.000Z</time>
      </trkpt>
      <trkpt lat="47.33329" lon="-2.3456">
        <ele>0.40000000596046</ele>
        <time>2021-08-19T08:04:42.000Z</time>
      </trkpt>
      <trkpt lat="47.33322" lon="-2.34578">
        <ele>0.40000000596046</ele>
        <time>2021-08-19T08:04:46.000Z</time>
      </trkpt>
      <trkpt lat="47.33312" lon="-2.34608">
        <ele>0.40000000596046</ele>
        <time>2021-08-19T08:04:52.000Z</time>
      </trkpt>
      <trkpt lat="47.33295" lon="-2.34649">
        <ele>0.40000000596046</ele>
        <time>2021-08-19T08:05:00.000Z</time>
      </trkpt>
      <trkpt lat="47.3329" lon="-2.34661">
        <ele>0.40000000596046</ele>
        <time>2021-08-19T08:05:04.000Z</time>
      </trkpt>
      <trkpt lat="47.33282" lon="-2.34685">
        <ele>0.40000000596046</ele>
        <time>2021-08-19T08:05:09.000Z</time>
      </trkpt>
      <trkpt lat="47.33273" lon="-2.34718">
        <ele>0.40000000596046</ele>
        <time>2021-08-19T08:05:15.000Z</time>
      </trkpt>
      <trkpt lat="47.33267" lon="-2.34743">
        <ele>0.40000000596046</ele>
        <time>2021-08-19T08:05:19.000Z</time>
      </trkpt>
      <trkpt lat="47.33266" lon="-2.3475">
        <ele>0.40000000596046</ele>
        <time>2021-08-19T08:05:20.000Z</time>
      </trkpt>
      <trkpt lat="47.33259" lon="-2.3477">
        <ele>0.40000000596046</ele>
        <time>2021-08-19T08:05:23.000Z</time>
      </trkpt>
      <trkpt lat="47.33256" lon="-2.34776">
        <ele>0.40000000596046</ele>
        <time>2021-08-19T08:05:24.000Z</time>
      </trkpt>
      <trkpt lat="47.33247" lon="-2.34795">
        <ele>0.40000000596046</ele>
        <time>2021-08-19T08:05:28.000Z</time>
      </trkpt>
      <trkpt lat="47.33243" lon="-2.34806">
        <ele>0.80000001192093</ele>
        <time>2021-08-19T08:05:30.000Z</time>
      </trkpt>
      <trkpt lat="47.3324" lon="-2.34812">
        <ele>1.2000000476837</ele>
        <time>2021-08-19T08:05:31.000Z</time>
      </trkpt>
      <trkpt lat="47.33238" lon="-2.34817">
        <ele>2</ele>
        <time>2021-08-19T08:05:32.000Z</time>
      </trkpt>
      <trkpt lat="47.33236" lon="-2.34821">
        <ele>2.4000000953674</ele>
        <time>2021-08-19T08:05:33.000Z</time>
      </trkpt>
      <trkpt lat="47.33235" lon="-2.34826">
        <ele>2.4000000953674</ele>
        <time>2021-08-19T08:05:34.000Z</time>
      </trkpt>
      <trkpt lat="47.33225" lon="-2.34856">
        <ele>2.4000000953674</ele>
        <time>2021-08-19T08:05:40.000Z</time>
      </trkpt>
      <trkpt lat="47.33216" lon="-2.34871">
        <ele>2.4000000953674</ele>
        <time>2021-08-19T08:05:44.000Z</time>
      </trkpt>
      <trkpt lat="47.33207" lon="-2.34884">
        <ele>2.4000000953674</ele>
        <time>2021-08-19T08:05:48.000Z</time>
      </trkpt>
      <trkpt lat="47.33204" lon="-2.34889">
        <ele>2.4000000953674</ele>
        <time>2021-08-19T08:05:49.000Z</time>
      </trkpt>
      <trkpt lat="47.33202" lon="-2.34894">
        <ele>2.7999999523163</ele>
        <time>2021-08-19T08:05:50.000Z</time>
      </trkpt>
      <trkpt lat="47.332" lon="-2.34901">
        <ele>3.2000000476837</ele>
        <time>2021-08-19T08:05:51.000Z</time>
      </trkpt>
      <trkpt lat="47.33199" lon="-2.34907">
        <ele>3.5999999046326</ele>
        <time>2021-08-19T08:05:52.000Z</time>
      </trkpt>
      <trkpt lat="47.33197" lon="-2.34913">
        <ele>4</ele>
        <time>2021-08-19T08:05:53.000Z</time>
      </trkpt>
      <trkpt lat="47.33194" lon="-2.34921">
        <ele>4.4000000953674</ele>
        <time>2021-08-19T08:05:54.000Z</time>
      </trkpt>
      <trkpt lat="47.33192" lon="-2.34928">
        <ele>4.4000000953674</ele>
        <time>2021-08-19T08:05:55.000Z</time>
      </trkpt>
      <trkpt lat="47.33179" lon="-2.34959">
        <ele>4.4000000953674</ele>
        <time>2021-08-19T08:06:00.000Z</time>
      </trkpt>
      <trkpt lat="47.33163" lon="-2.34987">
        <ele>4.4000000953674</ele>
        <time>2021-08-19T08:06:06.000Z</time>
      </trkpt>
      <trkpt lat="47.3316" lon="-2.34998">
        <ele>4.4000000953674</ele>
        <time>2021-08-19T08:06:11.000Z</time>
      </trkpt>
      <trkpt lat="47.33162" lon="-2.35004">
        <ele>4.4000000953674</ele>
        <time>2021-08-19T08:06:22.000Z</time>
      </trkpt>
      <trkpt lat="47.33167" lon="-2.3501">
        <ele>4.4000000953674</ele>
        <time>2021-08-19T08:06:25.000Z</time>
      </trkpt>
      <trkpt lat="47.33174" lon="-2.3501">
        <ele>4.4000000953674</ele>
        <time>2021-08-19T08:06:28.000Z</time>
      </trkpt>
      <trkpt lat="47.33176" lon="-2.35008">
        <ele>4.4000000953674</ele>
        <time>2021-08-19T08:06:29.000Z</time>
      </trkpt>
      <trkpt lat="47.33195" lon="-2.34986">
        <ele>4.4000000953674</ele>
        <time>2021-08-19T08:06:35.000Z</time>
      </trkpt>
      <trkpt lat="47.33221" lon="-2.34959">
        <ele>4.4000000953674</ele>
        <time>2021-08-19T08:06:41.000Z</time>
      </trkpt>
      <trkpt lat="47.33225" lon="-2.34956">
        <ele>4.4000000953674</ele>
        <time>2021-08-19T08:06:42.000Z</time>
      </trkpt>
      <trkpt lat="47.33245" lon="-2.34951">
        <ele>4.4000000953674</ele>
        <time>2021-08-19T08:06:46.000Z</time>
      </trkpt>
      <trkpt lat="47.33249" lon="-2.3495">
        <ele>4.4000000953674</ele>
        <time>2021-08-19T08:06:47.000Z</time>
      </trkpt>
      <trkpt lat="47.33274" lon="-2.34942">
        <ele>4.4000000953674</ele>
        <time>2021-08-19T08:06:53.000Z</time>
      </trkpt>
      <trkpt lat="47.33298" lon="-2.34941">
        <ele>4.4000000953674</ele>
        <time>2021-08-19T08:06:59.000Z</time>
      </trkpt>
      <trkpt lat="47.33305" lon="-2.34941">
        <ele>4.8000001907349</ele>
        <time>2021-08-19T08:07:02.000Z</time>
      </trkpt>
      <trkpt lat="47.33307" lon="-2.3494">
        <ele>5.1999998092651</ele>
        <time>2021-08-19T08:07:03.000Z</time>
      </trkpt>
      <trkpt lat="47.33309" lon="-2.3494">
        <ele>5.5999999046326</ele>
        <time>2021-08-19T08:07:04.000Z</time>
      </trkpt>
      <trkpt lat="47.3331" lon="-2.3494">
        <ele>6</ele>
        <time>2021-08-19T08:07:05.000Z</time>
      </trkpt>
      <trkpt lat="47.33312" lon="-2.3494">
        <ele>6.4000000953674</ele>
        <time>2021-08-19T08:07:06.000Z</time>
      </trkpt>
      <trkpt lat="47.33314" lon="-2.34941">
        <ele>6.4000000953674</ele>
        <time>2021-08-19T08:07:09.000Z</time>
      </trkpt>
      <trkpt lat="47.33328" lon="-2.34939">
        <ele>6.4000000953674</ele>
        <time>2021-08-19T08:07:30.000Z</time>
      </trkpt>
      <trkpt lat="47.3333" lon="-2.34939">
        <ele>6.4000000953674</ele>
        <time>2021-08-19T08:07:31.000Z</time>
      </trkpt>
      <trkpt lat="47.33342" lon="-2.34938">
        <ele>6.4000000953674</ele>
        <time>2021-08-19T08:07:36.000Z</time>
      </trkpt>
      <trkpt lat="47.33362" lon="-2.34932">
        <ele>6.4000000953674</ele>
        <time>2021-08-19T08:07:42.000Z</time>
      </trkpt>
      <trkpt lat="47.33373" lon="-2.34929">
        <ele>6.4000000953674</ele>
        <time>2021-08-19T08:07:46.000Z</time>
      </trkpt>
      <trkpt lat="47.33374" lon="-2.34928">
        <ele>6.4000000953674</ele>
        <time>2021-08-19T08:07:47.000Z</time>
      </trkpt>
      <trkpt lat="47.33378" lon="-2.34928">
        <ele>6.4000000953674</ele>
        <time>2021-08-19T08:07:50.000Z</time>
      </trkpt>
      <trkpt lat="47.33383" lon="-2.34929">
        <ele>6.4000000953674</ele>
        <time>2021-08-19T08:07:52.000Z</time>
      </trkpt>
      <trkpt lat="47.33395" lon="-2.3493">
        <ele>6.8000001907349</ele>
        <time>2021-08-19T08:07:56.000Z</time>
      </trkpt>
      <trkpt lat="47.33399" lon="-2.34928">
        <ele>7.1999998092651</ele>
        <time>2021-08-19T08:07:57.000Z</time>
      </trkpt>
      <trkpt lat="47.33404" lon="-2.34926">
        <ele>7.5999999046326</ele>
        <time>2021-08-19T08:07:58.000Z</time>
      </trkpt>
      <trkpt lat="47.3341" lon="-2.34923">
        <ele>8</ele>
        <time>2021-08-19T08:07:59.000Z</time>
      </trkpt>
      <trkpt lat="47.33415" lon="-2.3492">
        <ele>8.6000003814697</ele>
        <time>2021-08-19T08:08:00.000Z</time>
      </trkpt>
      <trkpt lat="47.33441" lon="-2.34906">
        <ele>8.6000003814697</ele>
        <time>2021-08-19T08:08:05.000Z</time>
      </trkpt>
      <trkpt lat="47.33465" lon="-2.34895">
        <ele>8.6000003814697</ele>
        <time>2021-08-19T08:08:10.000Z</time>
      </trkpt>
      <trkpt lat="47.33469" lon="-2.34894">
        <ele>8.6000003814697</ele>
        <time>2021-08-19T08:08:11.000Z</time>
      </trkpt>
      <trkpt lat="47.33487" lon="-2.34888">
        <ele>8.6000003814697</ele>
        <time>2021-08-19T08:08:15.000Z</time>
      </trkpt>
      <trkpt lat="47.33496" lon="-2.34887">
        <ele>8.6000003814697</ele>
        <time>2021-08-19T08:08:17.000Z</time>
      </trkpt>
      <trkpt lat="47.33517" lon="-2.34897">
        <ele>8.6000003814697</ele>
        <time>2021-08-19T08:08:22.000Z</time>
      </trkpt>
      <trkpt lat="47.33534" lon="-2.34909">
        <ele>8.6000003814697</ele>
        <time>2021-08-19T08:08:27.000Z</time>
      </trkpt>
      <trkpt lat="47.33537" lon="-2.34908">
        <ele>8.6000003814697</ele>
        <time>2021-08-19T08:08:30.000Z</time>
      </trkpt>
      <trkpt lat="47.33549" lon="-2.34911">
        <ele>8.6000003814697</ele>
        <time>2021-08-19T08:09:07.000Z</time>
      </trkpt>
      <trkpt lat="47.33552" lon="-2.34912">
        <ele>8.6000003814697</ele>
        <time>2021-08-19T08:09:08.000Z</time>
      </trkpt>
      <trkpt lat="47.33572" lon="-2.34921">
        <ele>8.6000003814697</ele>
        <time>2021-08-19T08:09:13.000Z</time>
      </trkpt>
      <trkpt lat="47.336" lon="-2.34936">
        <ele>8.6000003814697</ele>
        <time>2021-08-19T08:09:19.000Z</time>
      </trkpt>
      <trkpt lat="47.33624" lon="-2.3495">
        <ele>8.6000003814697</ele>
        <time>2021-08-19T08:09:25.000Z</time>
      </trkpt>
      <trkpt lat="47.33649" lon="-2.3496">
        <ele>8</ele>
        <time>2021-08-19T08:09:31.000Z</time>
      </trkpt>
      <trkpt lat="47.33654" lon="-2.34958">
        <ele>7.5999999046326</ele>
        <time>2021-08-19T08:09:32.000Z</time>
      </trkpt>
      <trkpt lat="47.33659" lon="-2.34957">
        <ele>7.1999998092651</ele>
        <time>2021-08-19T08:09:33.000Z</time>
      </trkpt>
      <trkpt lat="47.33664" lon="-2.34959">
        <ele>6.8000001907349</ele>
        <time>2021-08-19T08:09:34.000Z</time>
      </trkpt>
      <trkpt lat="47.33669" lon="-2.34961">
        <ele>6.4000000953674</ele>
        <time>2021-08-19T08:09:35.000Z</time>
      </trkpt>
      <trkpt lat="47.33683" lon="-2.34973">
        <ele>6.4000000953674</ele>
        <time>2021-08-19T08:09:39.000Z</time>
      </trkpt>
      <trkpt lat="47.33686" lon="-2.34976">
        <ele>6.4000000953674</ele>
        <time>2021-08-19T08:09:40.000Z</time>
      </trkpt>
      <trkpt lat="47.33703" lon="-2.34999">
        <ele>6.4000000953674</ele>
        <time>2021-08-19T08:09:46.000Z</time>
      </trkpt>
      <trkpt lat="47.33725" lon="-2.35035">
        <ele>6.4000000953674</ele>
        <time>2021-08-19T08:09:53.000Z</time>
      </trkpt>
      <trkpt lat="47.3374" lon="-2.35055">
        <ele>6.4000000953674</ele>
        <time>2021-08-19T08:09:57.000Z</time>
      </trkpt>
      <trkpt lat="47.33753" lon="-2.35067">
        <ele>6.4000000953674</ele>
        <time>2021-08-19T08:10:00.000Z</time>
      </trkpt>
      <trkpt lat="47.33787" lon="-2.35088">
        <ele>6.4000000953674</ele>
        <time>2021-08-19T08:10:07.000Z</time>
      </trkpt>
      <trkpt lat="47.33825" lon="-2.35109">
        <ele>6.4000000953674</ele>
        <time>2021-08-19T08:10:15.000Z</time>
      </trkpt>
      <trkpt lat="47.33858" lon="-2.35131">
        <ele>6.8000001907349</ele>
        <time>2021-08-19T08:10:22.000Z</time>
      </trkpt>
      <trkpt lat="47.33863" lon="-2.35135">
        <ele>7.1999998092651</ele>
        <time>2021-08-19T08:10:23.000Z</time>
      </trkpt>
      <trkpt lat="47.33868" lon="-2.35139">
        <ele>7.5999999046326</ele>
        <time>2021-08-19T08:10:24.000Z</time>
      </trkpt>
      <trkpt lat="47.33872" lon="-2.35143">
        <ele>8</ele>
        <time>2021-08-19T08:10:25.000Z</time>
      </trkpt>
      <trkpt lat="47.33877" lon="-2.35148">
        <ele>8.3999996185303</ele>
        <time>2021-08-19T08:10:26.000Z</time>
      </trkpt>
      <trkpt lat="47.33897" lon="-2.35164">
        <ele>8.3999996185303</ele>
        <time>2021-08-19T08:10:30.000Z</time>
      </trkpt>
      <trkpt lat="47.3393" lon="-2.35194">
        <ele>8.3999996185303</ele>
        <time>2021-08-19T08:10:37.000Z</time>
      </trkpt>
      <trkpt lat="47.33948" lon="-2.35232">
        <ele>8.3999996185303</ele>
        <time>2021-08-19T08:10:43.000Z</time>
      </trkpt>
      <trkpt lat="47.33962" lon="-2.35268">
        <ele>8.3999996185303</ele>
        <time>2021-08-19T08:10:48.000Z</time>
      </trkpt>
      <trkpt lat="47.33967" lon="-2.35274">
        <ele>8.3999996185303</ele>
        <time>2021-08-19T08:10:49.000Z</time>
      </trkpt>
      <trkpt lat="47.33995" lon="-2.35305">
        <ele>8.3999996185303</ele>
        <time>2021-08-19T08:10:54.000Z</time>
      </trkpt>
      <trkpt lat="47.34001" lon="-2.35311">
        <ele>7.5999999046326</ele>
        <time>2021-08-19T08:10:55.000Z</time>
      </trkpt>
      <trkpt lat="47.34007" lon="-2.35317">
        <ele>7.1999998092651</ele>
        <time>2021-08-19T08:10:56.000Z</time>
      </trkpt>
      <trkpt lat="47.34013" lon="-2.35322">
        <ele>6.8000001907349</ele>
        <time>2021-08-19T08:10:57.000Z</time>
      </trkpt>
      <trkpt lat="47.34019" lon="-2.35328">
        <ele>6.4000000953674</ele>
        <time>2021-08-19T08:10:58.000Z</time>
      </trkpt>
      <trkpt lat="47.34036" lon="-2.35344">
        <ele>6.4000000953674</ele>
        <time>2021-08-19T08:11:01.000Z</time>
      </trkpt>
      <trkpt lat="47.34061" lon="-2.35377">
        <ele>6</ele>
        <time>2021-08-19T08:11:06.000Z</time>
      </trkpt>
      <trkpt lat="47.34065" lon="-2.35385">
        <ele>5.5999999046326</ele>
        <time>2021-08-19T08:11:07.000Z</time>
      </trkpt>
      <trkpt lat="47.34069" lon="-2.35395">
        <ele>5.1999998092651</ele>
        <time>2021-08-19T08:11:08.000Z</time>
      </trkpt>
      <trkpt lat="47.34073" lon="-2.35404">
        <ele>4.8000001907349</ele>
        <time>2021-08-19T08:11:09.000Z</time>
      </trkpt>
      <trkpt lat="47.34077" lon="-2.35414">
        <ele>4.4000000953674</ele>
        <time>2021-08-19T08:11:10.000Z</time>
      </trkpt>
      <trkpt lat="47.34087" lon="-2.35442">
        <ele>4.4000000953674</ele>
        <time>2021-08-19T08:11:13.000Z</time>
      </trkpt>
      <trkpt lat="47.3411" lon="-2.35511">
        <ele>4.4000000953674</ele>
        <time>2021-08-19T08:11:20.000Z</time>
      </trkpt>
      <trkpt lat="47.3413" lon="-2.35568">
        <ele>4.4000000953674</ele>
        <time>2021-08-19T08:11:26.000Z</time>
      </trkpt>
      <trkpt lat="47.34151" lon="-2.35616">
        <ele>4.4000000953674</ele>
        <time>2021-08-19T08:11:32.000Z</time>
      </trkpt>
      <trkpt lat="47.34184" lon="-2.35673">
        <ele>3.7999999523163</ele>
        <time>2021-08-19T08:11:40.000Z</time>
      </trkpt>
      <trkpt lat="47.34188" lon="-2.35678">
        <ele>3.4000000953674</ele>
        <time>2021-08-19T08:11:41.000Z</time>
      </trkpt>
      <trkpt lat="47.34191" lon="-2.35683">
        <ele>3</ele>
        <time>2021-08-19T08:11:42.000Z</time>
      </trkpt>
      <trkpt lat="47.34194" lon="-2.35688">
        <ele>2.5999999046326</ele>
        <time>2021-08-19T08:11:43.000Z</time>
      </trkpt>
      <trkpt lat="47.34196" lon="-2.35692">
        <ele>1.7999999523163</ele>
        <time>2021-08-19T08:11:44.000Z</time>
      </trkpt>
      <trkpt lat="47.34198" lon="-2.35695">
        <ele>1.3999999761581</ele>
        <time>2021-08-19T08:11:45.000Z</time>
      </trkpt>
      <trkpt lat="47.342" lon="-2.35697">
        <ele>1</ele>
        <time>2021-08-19T08:11:46.000Z</time>
      </trkpt>
      <trkpt lat="47.34202" lon="-2.35698">
        <ele>0.60000002384186</ele>
        <time>2021-08-19T08:11:47.000Z</time>
      </trkpt>
      <trkpt lat="47.34203" lon="-2.35699">
        <ele>16.9</ele>
        <time>2021-08-19T08:11:48.000Z</time>
      </trkpt>
      <trkpt lat="47.34207" lon="-2.35706">
        <ele>-0.40000000596046</ele>
        <time>2021-08-19T08:11:52.000Z</time>
      </trkpt>
      <trkpt lat="47.34207" lon="-2.35708">
        <ele>-0.80000001192093</ele>
        <time>2021-08-19T08:11:53.000Z</time>
      </trkpt>
      <trkpt lat="47.34208" lon="-2.3571">
        <ele>-1.2000000476837</ele>
        <time>2021-08-19T08:11:54.000Z</time>
      </trkpt>
      <trkpt lat="47.34209" lon="-2.35713">
        <ele>-1.6000000238419</ele>
        <time>2021-08-19T08:11:55.000Z</time>
      </trkpt>
      <trkpt lat="47.34211" lon="-2.35718">
        <ele>-2.2000000476837</ele>
        <time>2021-08-19T08:11:56.000Z</time>
      </trkpt>
      <trkpt lat="47.34216" lon="-2.35726">
        <ele>-2.5999999046326</ele>
        <time>2021-08-19T08:11:58.000Z</time>
      </trkpt>
      <trkpt lat="47.34219" lon="-2.3573">
        <ele>-3</ele>
        <time>2021-08-19T08:11:59.000Z</time>
      </trkpt>
      <trkpt lat="47.34223" lon="-2.35736">
        <ele>-3.4000000953674</ele>
        <time>2021-08-19T08:12:00.000Z</time>
      </trkpt>
      <trkpt lat="47.34225" lon="-2.35743">
        <ele>-3.7999999523163</ele>
        <time>2021-08-19T08:12:01.000Z</time>
      </trkpt>
      <trkpt lat="47.34227" lon="-2.3575">
        <ele>-4.1999998092651</ele>
        <time>2021-08-19T08:12:02.000Z</time>
      </trkpt>
      <trkpt lat="47.34229" lon="-2.35767">
        <ele>-4.1999998092651</ele>
        <time>2021-08-19T08:12:04.000Z</time>
      </trkpt>
      <trkpt lat="47.34231" lon="-2.35776">
        <ele>-4.1999998092651</ele>
        <time>2021-08-19T08:12:05.000Z</time>
      </trkpt>
      <trkpt lat="47.34234" lon="-2.35784">
        <ele>-4.1999998092651</ele>
        <time>2021-08-19T08:12:06.000Z</time>
      </trkpt>
      <trkpt lat="47.34241" lon="-2.35802">
        <ele>-4.5999999046326</ele>
        <time>2021-08-19T08:12:08.000Z</time>
      </trkpt>
      <trkpt lat="47.34243" lon="-2.3581">
        <ele>-5.4000000953674</ele>
        <time>2021-08-19T08:12:09.000Z</time>
      </trkpt>
      <trkpt lat="47.34246" lon="-2.35819">
        <ele>-5.8000001907349</ele>
        <time>2021-08-19T08:12:10.000Z</time>
      </trkpt>
      <trkpt lat="47.34248" lon="-2.35828">
        <ele>-6.1999998092651</ele>
        <time>2021-08-19T08:12:11.000Z</time>
      </trkpt>
      <trkpt lat="47.34252" lon="-2.35846">
        <ele>-6.1999998092651</ele>
        <time>2021-08-19T08:12:13.000Z</time>
      </trkpt>
      <trkpt lat="47.34252" lon="-2.35855">
        <ele>-6.1999998092651</ele>
        <time>2021-08-19T08:12:14.000Z</time>
      </trkpt>
      <trkpt lat="47.3425" lon="-2.35883">
        <ele>-6.1999998092651</ele>
        <time>2021-08-19T08:12:17.000Z</time>
      </trkpt>
      <trkpt lat="47.34241" lon="-2.35933">
        <ele>-6.1999998092651</ele>
        <time>2021-08-19T08:12:23.000Z</time>
      </trkpt>
      <trkpt lat="47.34243" lon="-2.3594">
        <ele>-6.1999998092651</ele>
        <time>2021-08-19T08:12:24.000Z</time>
      </trkpt>
      <trkpt lat="47.34246" lon="-2.35945">
        <ele>-6.1999998092651</ele>
        <time>2021-08-19T08:12:25.000Z</time>
      </trkpt>
      <trkpt lat="47.34259" lon="-2.35949">
        <ele>-6.1999998092651</ele>
        <time>2021-08-19T08:12:28.000Z</time>
      </trkpt>
      <trkpt lat="47.34264" lon="-2.3595">
        <ele>-6.1999998092651</ele>
        <time>2021-08-19T08:12:29.000Z</time>
      </trkpt>
      <trkpt lat="47.34269" lon="-2.35949">
        <ele>-5.8000001907349</ele>
        <time>2021-08-19T08:12:30.000Z</time>
      </trkpt>
      <trkpt lat="47.34275" lon="-2.35948">
        <ele>-5.4000000953674</ele>
        <time>2021-08-19T08:12:31.000Z</time>
      </trkpt>
      <trkpt lat="47.3428" lon="-2.35948">
        <ele>-5</ele>
        <time>2021-08-19T08:12:32.000Z</time>
      </trkpt>
      <trkpt lat="47.34286" lon="-2.35948">
        <ele>-4.5999999046326</ele>
        <time>2021-08-19T08:12:33.000Z</time>
      </trkpt>
      <trkpt lat="47.34291" lon="-2.35948">
        <ele>-4.1999998092651</ele>
        <time>2021-08-19T08:12:34.000Z</time>
      </trkpt>
      <trkpt lat="47.34296" lon="-2.35949">
        <ele>-3.7999999523163</ele>
        <time>2021-08-19T08:12:35.000Z</time>
      </trkpt>
      <trkpt lat="47.34301" lon="-2.35951">
        <ele>-3.2000000476837</ele>
        <time>2021-08-19T08:12:36.000Z</time>
      </trkpt>
      <trkpt lat="47.34307" lon="-2.35953">
        <ele>-2.7999999523163</ele>
        <time>2021-08-19T08:12:37.000Z</time>
      </trkpt>
      <trkpt lat="47.34313" lon="-2.35953">
        <ele>-2.4000000953674</ele>
        <time>2021-08-19T08:12:38.000Z</time>
      </trkpt>
      <trkpt lat="47.34318" lon="-2.35956">
        <ele>-1.7999999523163</ele>
        <time>2021-08-19T08:12:39.000Z</time>
      </trkpt>
      <trkpt lat="47.3433" lon="-2.35959">
        <ele>-1.3999999761581</ele>
        <time>2021-08-19T08:12:41.000Z</time>
      </trkpt>
      <trkpt lat="47.34336" lon="-2.35961">
        <ele>-1</ele>
        <time>2021-08-19T08:12:42.000Z</time>
      </trkpt>
      <trkpt lat="47.34342" lon="-2.35963">
        <ele>-0.60000002384186</ele>
        <time>2021-08-19T08:12:43.000Z</time>
      </trkpt>
      <trkpt lat="47.34347" lon="-2.35966">
        <ele>-0.20000000298023</ele>
        <time>2021-08-19T08:12:44.000Z</time>
      </trkpt>
      <trkpt lat="47.34352" lon="-2.35968">
        <ele>0.20000000298023</ele>
        <time>2021-08-19T08:12:45.000Z</time>
      </trkpt>
      <trkpt lat="47.34389" lon="-2.35987">
        <ele>0.20000000298023</ele>
        <time>2021-08-19T08:12:52.000Z</time>
      </trkpt>
      <trkpt lat="47.34412" lon="-2.35991">
        <ele>0.20000000298023</ele>
        <time>2021-08-19T08:12:56.000Z</time>
      </trkpt>
      <trkpt lat="47.34417" lon="-2.35987">
        <ele>0.20000000298023</ele>
        <time>2021-08-19T08:12:57.000Z</time>
      </trkpt>
      <trkpt lat="47.34453" lon="-2.35958">
        <ele>0.20000000298023</ele>
        <time>2021-08-19T08:13:04.000Z</time>
      </trkpt>
      <trkpt lat="47.34481" lon="-2.35939">
        <ele>0.20000000298023</ele>
        <time>2021-08-19T08:13:09.000Z</time>
      </trkpt>
      <trkpt lat="47.34487" lon="-2.35936">
        <ele>-0.20000000298023</ele>
        <time>2021-08-19T08:13:10.000Z</time>
      </trkpt>
      <trkpt lat="47.34493" lon="-2.35934">
        <ele>-0.60000002384186</ele>
        <time>2021-08-19T08:13:11.000Z</time>
      </trkpt>
      <trkpt lat="47.34499" lon="-2.35931">
        <ele>-1</ele>
        <time>2021-08-19T08:13:12.000Z</time>
      </trkpt>
      <trkpt lat="47.34505" lon="-2.35929">
        <ele>-1.3999999761581</ele>
        <time>2021-08-19T08:13:13.000Z</time>
      </trkpt>
      <trkpt lat="47.34511" lon="-2.35926">
        <ele>-2</ele>
        <time>2021-08-19T08:13:14.000Z</time>
      </trkpt>
      <trkpt lat="47.34523" lon="-2.35921">
        <ele>-2</ele>
        <time>2021-08-19T08:13:16.000Z</time>
      </trkpt>
      <trkpt lat="47.34541" lon="-2.35914">
        <ele>-2.4000000953674</ele>
        <time>2021-08-19T08:13:19.000Z</time>
      </trkpt>
      <trkpt lat="47.34546" lon="-2.35912">
        <ele>-2.7999999523163</ele>
        <time>2021-08-19T08:13:20.000Z</time>
      </trkpt>
      <trkpt lat="47.34552" lon="-2.3591">
        <ele>-3.2000000476837</ele>
        <time>2021-08-19T08:13:21.000Z</time>
      </trkpt>
      <trkpt lat="47.34557" lon="-2.35908">
        <ele>-3.5999999046326</ele>
        <time>2021-08-19T08:13:22.000Z</time>
      </trkpt>
      <trkpt lat="47.34563" lon="-2.35904">
        <ele>-4</ele>
        <time>2021-08-19T08:13:23.000Z</time>
      </trkpt>
      <trkpt lat="47.34591" lon="-2.35882">
        <ele>-4</ele>
        <time>2021-08-19T08:13:28.000Z</time>
      </trkpt>
      <trkpt lat="47.34607" lon="-2.35869">
        <ele>-4.4000000953674</ele>
        <time>2021-08-19T08:13:31.000Z</time>
      </trkpt>
      <trkpt lat="47.34612" lon="-2.35864">
        <ele>-4.8000001907349</ele>
        <time>2021-08-19T08:13:32.000Z</time>
      </trkpt>
      <trkpt lat="47.34618" lon="-2.35859">
        <ele>-5.1999998092651</ele>
        <time>2021-08-19T08:13:33.000Z</time>
      </trkpt>
      <trkpt lat="47.34623" lon="-2.35855">
        <ele>-5.5999999046326</ele>
        <time>2021-08-19T08:13:34.000Z</time>
      </trkpt>
      <trkpt lat="47.34629" lon="-2.35851">
        <ele>-6</ele>
        <time>2021-08-19T08:13:35.000Z</time>
      </trkpt>
      <trkpt lat="47.34645" lon="-2.35839">
        <ele>-6</ele>
        <time>2021-08-19T08:13:38.000Z</time>
      </trkpt>
      <trkpt lat="47.34655" lon="-2.35831">
        <ele>-6</ele>
        <time>2021-08-19T08:13:40.000Z</time>
      </trkpt>
      <trkpt lat="47.34699" lon="-2.35795">
        <ele>-6</ele>
        <time>2021-08-19T08:13:48.000Z</time>
      </trkpt>
      <trkpt lat="47.34732" lon="-2.35767">
        <ele>-6</ele>
        <time>2021-08-19T08:13:55.000Z</time>
      </trkpt>
      <trkpt lat="47.34748" lon="-2.35755">
        <ele>-6</ele>
        <time>2021-08-19T08:13:59.000Z</time>
      </trkpt>
      <trkpt lat="47.34757" lon="-2.35752">
        <ele>-6</ele>
        <time>2021-08-19T08:14:01.000Z</time>
      </trkpt>
      <trkpt lat="47.34766" lon="-2.35748">
        <ele>-6</ele>
        <time>2021-08-19T08:14:03.000Z</time>
      </trkpt>
      <trkpt lat="47.3478" lon="-2.35741">
        <ele>-6</ele>
        <time>2021-08-19T08:14:06.000Z</time>
      </trkpt>
      <trkpt lat="47.34806" lon="-2.35727">
        <ele>-6</ele>
        <time>2021-08-19T08:14:12.000Z</time>
      </trkpt>
      <trkpt lat="47.34811" lon="-2.35726">
        <ele>-6</ele>
        <time>2021-08-19T08:14:13.000Z</time>
      </trkpt>
      <trkpt lat="47.34829" lon="-2.35719">
        <ele>-6</ele>
        <time>2021-08-19T08:14:17.000Z</time>
      </trkpt>
      <trkpt lat="47.34843" lon="-2.35703">
        <ele>-6</ele>
        <time>2021-08-19T08:14:21.000Z</time>
      </trkpt>
      <trkpt lat="47.34847" lon="-2.3569">
        <ele>-6</ele>
        <time>2021-08-19T08:14:23.000Z</time>
      </trkpt>
      <trkpt lat="47.34853" lon="-2.35675">
        <ele>-6</ele>
        <time>2021-08-19T08:14:26.000Z</time>
      </trkpt>
      <trkpt lat="47.34857" lon="-2.35667">
        <ele>-6</ele>
        <time>2021-08-19T08:14:30.000Z</time>
      </trkpt>
      <trkpt lat="47.34852" lon="-2.3566">
        <ele>-6</ele>
        <time>2021-08-19T08:14:34.000Z</time>
      </trkpt>
      <trkpt lat="47.34849" lon="-2.35658">
        <ele>-6</ele>
        <time>2021-08-19T08:14:35.000Z</time>
      </trkpt>
      <trkpt lat="47.34838" lon="-2.35653">
        <ele>-6</ele>
        <time>2021-08-19T08:14:38.000Z</time>
      </trkpt>
      <trkpt lat="47.34806" lon="-2.35633">
        <ele>-6</ele>
        <time>2021-08-19T08:14:45.000Z</time>
      </trkpt>
      <trkpt lat="47.34776" lon="-2.35601">
        <ele>-6</ele>
        <time>2021-08-19T08:14:52.000Z</time>
      </trkpt>
      <trkpt lat="47.34736" lon="-2.3555">
        <ele>-6</ele>
        <time>2021-08-19T08:15:01.000Z</time>
      </trkpt>
      <trkpt lat="47.34719" lon="-2.35521">
        <ele>-6</ele>
        <time>2021-08-19T08:15:05.000Z</time>
      </trkpt>
      <trkpt lat="47.34711" lon="-2.35508">
        <ele>-6</ele>
        <time>2021-08-19T08:15:07.000Z</time>
      </trkpt>
      <trkpt lat="47.34693" lon="-2.35478">
        <ele>-6.4000000953674</ele>
        <time>2021-08-19T08:15:12.000Z</time>
      </trkpt>
      <trkpt lat="47.3469" lon="-2.35472">
        <ele>-6.8000001907349</ele>
        <time>2021-08-19T08:15:13.000Z</time>
      </trkpt>
      <trkpt lat="47.34686" lon="-2.35466">
        <ele>-7.1999998092651</ele>
        <time>2021-08-19T08:15:14.000Z</time>
      </trkpt>
      <trkpt lat="47.34683" lon="-2.3546">
        <ele>-7.5999999046326</ele>
        <time>2021-08-19T08:15:15.000Z</time>
      </trkpt>
      <trkpt lat="47.34679" lon="-2.35454">
        <ele>-8</ele>
        <time>2021-08-19T08:15:16.000Z</time>
      </trkpt>
      <trkpt lat="47.34662" lon="-2.35426">
        <ele>-8</ele>
        <time>2021-08-19T08:15:21.000Z</time>
      </trkpt>
      <trkpt lat="47.3465" lon="-2.35409">
        <ele>-8</ele>
        <time>2021-08-19T08:15:25.000Z</time>
      </trkpt>
      <trkpt lat="47.34652" lon="-2.35406">
        <ele>-8</ele>
        <time>2021-08-19T08:15:26.000Z</time>
      </trkpt>
      <trkpt lat="47.34659" lon="-2.35405">
        <ele>-8</ele>
        <time>2021-08-19T08:15:29.000Z</time>
      </trkpt>
      <trkpt lat="47.34672" lon="-2.35401">
        <ele>-8</ele>
        <time>2021-08-19T08:15:33.000Z</time>
      </trkpt>
      <trkpt lat="47.34685" lon="-2.35399">
        <ele>-8</ele>
        <time>2021-08-19T08:15:36.000Z</time>
      </trkpt>
      <trkpt lat="47.34691" lon="-2.35398">
        <ele>-8</ele>
        <time>2021-08-19T08:15:38.000Z</time>
      </trkpt>
      <trkpt lat="47.34703" lon="-2.35388">
        <ele>-8</ele>
        <time>2021-08-19T08:15:43.000Z</time>
      </trkpt>
      <trkpt lat="47.34708" lon="-2.35377">
        <ele>-7.5999999046326</ele>
        <time>2021-08-19T08:15:46.000Z</time>
      </trkpt>
      <trkpt lat="47.3471" lon="-2.35375">
        <ele>-7.1999998092651</ele>
        <time>2021-08-19T08:15:47.000Z</time>
      </trkpt>
      <trkpt lat="47.34713" lon="-2.35372">
        <ele>-6.8000001907349</ele>
        <time>2021-08-19T08:15:48.000Z</time>
      </trkpt>
      <trkpt lat="47.34715" lon="-2.35369">
        <ele>-6.4000000953674</ele>
        <time>2021-08-19T08:15:49.000Z</time>
      </trkpt>
      <trkpt lat="47.34716" lon="-2.35366">
        <ele>-6</ele>
        <time>2021-08-19T08:15:50.000Z</time>
      </trkpt>
      <trkpt lat="47.3472" lon="-2.35358">
        <ele>-6</ele>
        <time>2021-08-19T08:15:53.000Z</time>
      </trkpt>
      <trkpt lat="47.34721" lon="-2.35342">
        <ele>-6</ele>
        <time>2021-08-19T08:15:58.000Z</time>
      </trkpt>
      <trkpt lat="47.34725" lon="-2.3532">
        <ele>-6</ele>
        <time>2021-08-19T08:16:03.000Z</time>
      </trkpt>
      <trkpt lat="47.34736" lon="-2.35294">
        <ele>-6</ele>
        <time>2021-08-19T08:16:08.000Z</time>
      </trkpt>
      <trkpt lat="47.34738" lon="-2.35287">
        <ele>-6</ele>
        <time>2021-08-19T08:16:09.000Z</time>
      </trkpt>
      <trkpt lat="47.34745" lon="-2.35263">
        <ele>-6</ele>
        <time>2021-08-19T08:16:13.000Z</time>
      </trkpt>
      <trkpt lat="47.34753" lon="-2.35228">
        <ele>-6</ele>
        <time>2021-08-19T08:16:18.000Z</time>
      </trkpt>
      <trkpt lat="47.34753" lon="-2.35222">
        <ele>-6</ele>
        <time>2021-08-19T08:16:19.000Z</time>
      </trkpt>
      <trkpt lat="47.34754" lon="-2.35208">
        <ele>-6</ele>
        <time>2021-08-19T08:16:21.000Z</time>
      </trkpt>
      <trkpt lat="47.34759" lon="-2.35184">
        <ele>-6</ele>
        <time>2021-08-19T08:16:24.000Z</time>
      </trkpt>
      <trkpt lat="47.34759" lon="-2.35171">
        <ele>-6</ele>
        <time>2021-08-19T08:16:26.000Z</time>
      </trkpt>
      <trkpt lat="47.34759" lon="-2.35164">
        <ele>-6.4000000953674</ele>
        <time>2021-08-19T08:16:27.000Z</time>
      </trkpt>
      <trkpt lat="47.34757" lon="-2.35159">
        <ele>-6.8000001907349</ele>
        <time>2021-08-19T08:16:28.000Z</time>
      </trkpt>
      <trkpt lat="47.34755" lon="-2.35154">
        <ele>-7.1999998092651</ele>
        <time>2021-08-19T08:16:29.000Z</time>
      </trkpt>
      <trkpt lat="47.34753" lon="-2.35149">
        <ele>-7.5999999046326</ele>
        <time>2021-08-19T08:16:30.000Z</time>
      </trkpt>
      <trkpt lat="47.34752" lon="-2.35143">
        <ele>-8</ele>
        <time>2021-08-19T08:16:31.000Z</time>
      </trkpt>
      <trkpt lat="47.34742" lon="-2.35134">
        <ele>-8</ele>
        <time>2021-08-19T08:16:34.000Z</time>
      </trkpt>
      <trkpt lat="47.34735" lon="-2.35124">
        <ele>-8</ele>
        <time>2021-08-19T08:16:36.000Z</time>
      </trkpt>
      <trkpt lat="47.3473" lon="-2.35111">
        <ele>-8</ele>
        <time>2021-08-19T08:16:38.000Z</time>
      </trkpt>
      <trkpt lat="47.34721" lon="-2.35092">
        <ele>-8</ele>
        <time>2021-08-19T08:16:41.000Z</time>
      </trkpt>
      <trkpt lat="47.34718" lon="-2.35088">
        <ele>-8</ele>
        <time>2021-08-19T08:16:42.000Z</time>
      </trkpt>
      <trkpt lat="47.3471" lon="-2.35078">
        <ele>-8</ele>
        <time>2021-08-19T08:16:44.000Z</time>
      </trkpt>
      <trkpt lat="47.34687" lon="-2.35048">
        <ele>-8</ele>
        <time>2021-08-19T08:16:50.000Z</time>
      </trkpt>
      <trkpt lat="47.34684" lon="-2.35047">
        <ele>-8</ele>
        <time>2021-08-19T08:16:51.000Z</time>
      </trkpt>
      <trkpt lat="47.34669" lon="-2.35046">
        <ele>-8</ele>
        <time>2021-08-19T08:16:55.000Z</time>
      </trkpt>
      <trkpt lat="47.34649" lon="-2.35032">
        <ele>-8</ele>
        <time>2021-08-19T08:17:00.000Z</time>
      </trkpt>
      <trkpt lat="47.34627" lon="-2.35002">
        <ele>-8</ele>
        <time>2021-08-19T08:17:05.000Z</time>
      </trkpt>
      <trkpt lat="47.34609" lon="-2.34976">
        <ele>-8</ele>
        <time>2021-08-19T08:17:10.000Z</time>
      </trkpt>
      <trkpt lat="47.34606" lon="-2.34968">
        <ele>-8</ele>
        <time>2021-08-19T08:17:11.000Z</time>
      </trkpt>
      <trkpt lat="47.34592" lon="-2.34937">
        <ele>-8</ele>
        <time>2021-08-19T08:17:15.000Z</time>
      </trkpt>
      <trkpt lat="47.34584" lon="-2.34914">
        <ele>-8</ele>
        <time>2021-08-19T08:17:19.000Z</time>
      </trkpt>
      <trkpt lat="47.34587" lon="-2.34891">
        <ele>-8</ele>
        <time>2021-08-19T08:17:23.000Z</time>
      </trkpt>
      <trkpt lat="47.3459" lon="-2.34876">
        <ele>-8</ele>
        <time>2021-08-19T08:17:25.000Z</time>
      </trkpt>
      <trkpt lat="47.34599" lon="-2.34853">
        <ele>-8</ele>
        <time>2021-08-19T08:17:28.000Z</time>
      </trkpt>
      <trkpt lat="47.34618" lon="-2.34805">
        <ele>-8</ele>
        <time>2021-08-19T08:17:34.000Z</time>
      </trkpt>
      <trkpt lat="47.34636" lon="-2.34753">
        <ele>-8</ele>
        <time>2021-08-19T08:17:40.000Z</time>
      </trkpt>
      <trkpt lat="47.34637" lon="-2.34744">
        <ele>-8</ele>
        <time>2021-08-19T08:17:41.000Z</time>
      </trkpt>
      <trkpt lat="47.34639" lon="-2.34726">
        <ele>-8</ele>
        <time>2021-08-19T08:17:43.000Z</time>
      </trkpt>
      <trkpt lat="47.34637" lon="-2.34699">
        <ele>-8</ele>
        <time>2021-08-19T08:17:46.000Z</time>
      </trkpt>
      <trkpt lat="47.34634" lon="-2.34682">
        <ele>-8</ele>
        <time>2021-08-19T08:17:48.000Z</time>
      </trkpt>
      <trkpt lat="47.34629" lon="-2.34658">
        <ele>-8</ele>
        <time>2021-08-19T08:17:51.000Z</time>
      </trkpt>
      <trkpt lat="47.34623" lon="-2.34627">
        <ele>-7.5999999046326</ele>
        <time>2021-08-19T08:17:56.000Z</time>
      </trkpt>
      <trkpt lat="47.34622" lon="-2.34621">
        <ele>-7.1999998092651</ele>
        <time>2021-08-19T08:17:57.000Z</time>
      </trkpt>
      <trkpt lat="47.34621" lon="-2.34616">
        <ele>-6.8000001907349</ele>
        <time>2021-08-19T08:17:58.000Z</time>
      </trkpt>
      <trkpt lat="47.34621" lon="-2.34611">
        <ele>-6.4000000953674</ele>
        <time>2021-08-19T08:17:59.000Z</time>
      </trkpt>
      <trkpt lat="47.3462" lon="-2.34605">
        <ele>-6</ele>
        <time>2021-08-19T08:18:00.000Z</time>
      </trkpt>
      <trkpt lat="47.34617" lon="-2.34587">
        <ele>-6</ele>
        <time>2021-08-19T08:18:03.000Z</time>
      </trkpt>
      <trkpt lat="47.34614" lon="-2.34575">
        <ele>-5.4000000953674</ele>
        <time>2021-08-19T08:18:05.000Z</time>
      </trkpt>
      <trkpt lat="47.34613" lon="-2.34569">
        <ele>-5</ele>
        <time>2021-08-19T08:18:06.000Z</time>
      </trkpt>
      <trkpt lat="47.34612" lon="-2.34565">
        <ele>-4.5999999046326</ele>
        <time>2021-08-19T08:18:07.000Z</time>
      </trkpt>
      <trkpt lat="47.34611" lon="-2.34561">
        <ele>-4.1999998092651</ele>
        <time>2021-08-19T08:18:08.000Z</time>
      </trkpt>
      <trkpt lat="47.34611" lon="-2.34557">
        <ele>-3.7999999523163</ele>
        <time>2021-08-19T08:18:09.000Z</time>
      </trkpt>
      <trkpt lat="47.34613" lon="-2.34531">
        <ele>-3.7999999523163</ele>
        <time>2021-08-19T08:18:14.000Z</time>
      </trkpt>
      <trkpt lat="47.34627" lon="-2.34527">
        <ele>-3.7999999523163</ele>
        <time>2021-08-19T08:18:17.000Z</time>
      </trkpt>
      <trkpt lat="47.34633" lon="-2.34526">
        <ele>-3.7999999523163</ele>
        <time>2021-08-19T08:18:18.000Z</time>
      </trkpt>
      <trkpt lat="47.34661" lon="-2.34516">
        <ele>-3.7999999523163</ele>
        <time>2021-08-19T08:18:24.000Z</time>
      </trkpt>
      <trkpt lat="47.34693" lon="-2.34506">
        <ele>-3.7999999523163</ele>
        <time>2021-08-19T08:18:31.000Z</time>
      </trkpt>
      <trkpt lat="47.34727" lon="-2.3449">
        <ele>-3.7999999523163</ele>
        <time>2021-08-19T08:18:39.000Z</time>
      </trkpt>
      <trkpt lat="47.34742" lon="-2.34484">
        <ele>-3.7999999523163</ele>
        <time>2021-08-19T08:18:43.000Z</time>
      </trkpt>
      <trkpt lat="47.34751" lon="-2.34468">
        <ele>-3.7999999523163</ele>
        <time>2021-08-19T08:18:47.000Z</time>
      </trkpt>
      <trkpt lat="47.34751" lon="-2.34464">
        <ele>-4.1999998092651</ele>
        <time>2021-08-19T08:18:48.000Z</time>
      </trkpt>
      <trkpt lat="47.34752" lon="-2.3446">
        <ele>-4.5999999046326</ele>
        <time>2021-08-19T08:18:49.000Z</time>
      </trkpt>
      <trkpt lat="47.34753" lon="-2.34456">
        <ele>-5</ele>
        <time>2021-08-19T08:18:50.000Z</time>
      </trkpt>
      <trkpt lat="47.34753" lon="-2.34454">
        <ele>-5.4000000953674</ele>
        <time>2021-08-19T08:18:51.000Z</time>
      </trkpt>
      <trkpt lat="47.34755" lon="-2.34448">
        <ele>-5.8000001907349</ele>
        <time>2021-08-19T08:18:52.000Z</time>
      </trkpt>
      <trkpt lat="47.34757" lon="-2.34443">
        <ele>-5.8000001907349</ele>
        <time>2021-08-19T08:18:53.000Z</time>
      </trkpt>
      <trkpt lat="47.34767" lon="-2.3442">
        <ele>-5.8000001907349</ele>
        <time>2021-08-19T08:18:59.000Z</time>
      </trkpt>
      <trkpt lat="47.34779" lon="-2.344">
        <ele>-5.8000001907349</ele>
        <time>2021-08-19T08:19:05.000Z</time>
      </trkpt>
      <trkpt lat="47.34788" lon="-2.34388">
        <ele>-5.8000001907349</ele>
        <time>2021-08-19T08:19:09.000Z</time>
      </trkpt>
      <trkpt lat="47.34791" lon="-2.34388">
        <ele>-5.8000001907349</ele>
        <time>2021-08-19T08:19:10.000Z</time>
      </trkpt>
      <trkpt lat="47.34804" lon="-2.34385">
        <ele>-5.4000000953674</ele>
        <time>2021-08-19T08:19:14.000Z</time>
      </trkpt>
      <trkpt lat="47.34807" lon="-2.34385">
        <ele>-5</ele>
        <time>2021-08-19T08:19:15.000Z</time>
      </trkpt>
      <trkpt lat="47.34811" lon="-2.34384">
        <ele>-4.5999999046326</ele>
        <time>2021-08-19T08:19:16.000Z</time>
      </trkpt>
      <trkpt lat="47.34814" lon="-2.34384">
        <ele>-4.1999998092651</ele>
        <time>2021-08-19T08:19:17.000Z</time>
      </trkpt>
      <trkpt lat="47.34818" lon="-2.34383">
        <ele>-3.7999999523163</ele>
        <time>2021-08-19T08:19:18.000Z</time>
      </trkpt>
      <trkpt lat="47.34831" lon="-2.3438">
        <ele>-3.7999999523163</ele>
        <time>2021-08-19T08:19:22.000Z</time>
      </trkpt>
      <trkpt lat="47.34839" lon="-2.34378">
        <ele>-3.7999999523163</ele>
        <time>2021-08-19T08:19:24.000Z</time>
      </trkpt>
      <trkpt lat="47.34846" lon="-2.34379">
        <ele>-3.7999999523163</ele>
        <time>2021-08-19T08:19:26.000Z</time>
      </trkpt>
      <trkpt lat="47.34855" lon="-2.34375">
        <ele>-3.7999999523163</ele>
        <time>2021-08-19T08:19:29.000Z</time>
      </trkpt>
      <trkpt lat="47.34861" lon="-2.34374">
        <ele>-3.7999999523163</ele>
        <time>2021-08-19T08:19:31.000Z</time>
      </trkpt>
      <trkpt lat="47.34882" lon="-2.34372">
        <ele>-3.7999999523163</ele>
        <time>2021-08-19T08:19:37.000Z</time>
      </trkpt>
      <trkpt lat="47.34902" lon="-2.34374">
        <ele>-3.7999999523163</ele>
        <time>2021-08-19T08:19:42.000Z</time>
      </trkpt>
      <trkpt lat="47.34907" lon="-2.34373">
        <ele>-3.7999999523163</ele>
        <time>2021-08-19T08:19:43.000Z</time>
      </trkpt>
      <trkpt lat="47.3492" lon="-2.34369">
        <ele>-3.7999999523163</ele>
        <time>2021-08-19T08:19:46.000Z</time>
      </trkpt>
      <trkpt lat="47.34924" lon="-2.34368">
        <ele>-3.7999999523163</ele>
        <time>2021-08-19T08:19:47.000Z</time>
      </trkpt>
      <trkpt lat="47.34945" lon="-2.34372">
        <ele>-4.5999999046326</ele>
        <time>2021-08-19T08:19:51.000Z</time>
      </trkpt>
      <trkpt lat="47.34951" lon="-2.34372">
        <ele>-5</ele>
        <time>2021-08-19T08:19:52.000Z</time>
      </trkpt>
      <trkpt lat="47.34956" lon="-2.34371">
        <ele>-5.4000000953674</ele>
        <time>2021-08-19T08:19:53.000Z</time>
      </trkpt>
      <trkpt lat="47.34961" lon="-2.34371">
        <ele>-6</ele>
        <time>2021-08-19T08:19:54.000Z</time>
      </trkpt>
      <trkpt lat="47.34971" lon="-2.34371">
        <ele>-6</ele>
        <time>2021-08-19T08:19:56.000Z</time>
      </trkpt>
      <trkpt lat="47.34997" lon="-2.34368">
        <ele>-6</ele>
        <time>2021-08-19T08:20:01.000Z</time>
      </trkpt>
      <trkpt lat="47.35001" lon="-2.34367">
        <ele>-6</ele>
        <time>2021-08-19T08:20:02.000Z</time>
      </trkpt>
      <trkpt lat="47.35012" lon="-2.34363">
        <ele>-6.4000000953674</ele>
        <time>2021-08-19T08:20:05.000Z</time>
      </trkpt>
      <trkpt lat="47.35015" lon="-2.34361">
        <ele>-6.8000001907349</ele>
        <time>2021-08-19T08:20:06.000Z</time>
      </trkpt>
      <trkpt lat="47.35017" lon="-2.34359">
        <ele>-7.1999998092651</ele>
        <time>2021-08-19T08:20:07.000Z</time>
      </trkpt>
      <trkpt lat="47.35019" lon="-2.34358">
        <ele>-7.8000001907349</ele>
        <time>2021-08-19T08:20:08.000Z</time>
      </trkpt>
      <trkpt lat="47.35021" lon="-2.34357">
        <ele>-8.1999998092651</ele>
        <time>2021-08-19T08:20:09.000Z</time>
      </trkpt>
      <trkpt lat="47.35022" lon="-2.34354">
        <ele>-8.1999998092651</ele>
        <time>2021-08-19T08:20:10.000Z</time>
      </trkpt>
      <trkpt lat="47.35022" lon="-2.34352">
        <ele>-8.1999998092651</ele>
        <time>2021-08-19T08:20:11.000Z</time>
      </trkpt>
      <trkpt lat="47.35018" lon="-2.34342">
        <ele>-8.1999998092651</ele>
        <time>2021-08-19T08:20:15.000Z</time>
      </trkpt>
      <trkpt lat="47.35016" lon="-2.34339">
        <ele>-8.1999998092651</ele>
        <time>2021-08-19T08:20:16.000Z</time>
      </trkpt>
      <trkpt lat="47.35009" lon="-2.34322">
        <ele>-8.1999998092651</ele>
        <time>2021-08-19T08:20:22.000Z</time>
      </trkpt>
      <trkpt lat="47.35" lon="-2.34299">
        <ele>-7.8000001907349</ele>
        <time>2021-08-19T08:20:27.000Z</time>
      </trkpt>
      <trkpt lat="47.34999" lon="-2.34294">
        <ele>-7.4000000953674</ele>
        <time>2021-08-19T08:20:28.000Z</time>
      </trkpt>
      <trkpt lat="47.34997" lon="-2.34288">
        <ele>-7</ele>
        <time>2021-08-19T08:20:29.000Z</time>
      </trkpt>
      <trkpt lat="47.34996" lon="-2.34282">
        <ele>-6.5999999046326</ele>
        <time>2021-08-19T08:20:30.000Z</time>
      </trkpt>
      <trkpt lat="47.34995" lon="-2.34277">
        <ele>-6</ele>
        <time>2021-08-19T08:20:31.000Z</time>
      </trkpt>
      <trkpt lat="47.34988" lon="-2.34251">
        <ele>-5.5999999046326</ele>
        <time>2021-08-19T08:20:36.000Z</time>
      </trkpt>
      <trkpt lat="47.34987" lon="-2.34247">
        <ele>-5.1999998092651</ele>
        <time>2021-08-19T08:20:37.000Z</time>
      </trkpt>
      <trkpt lat="47.34986" lon="-2.34242">
        <ele>-4.8000001907349</ele>
        <time>2021-08-19T08:20:38.000Z</time>
      </trkpt>
      <trkpt lat="47.34985" lon="-2.34238">
        <ele>-4.4000000953674</ele>
        <time>2021-08-19T08:20:39.000Z</time>
      </trkpt>
      <trkpt lat="47.34984" lon="-2.34233">
        <ele>-4</ele>
        <time>2021-08-19T08:20:40.000Z</time>
      </trkpt>
      <trkpt lat="47.34978" lon="-2.34212">
        <ele>-4</ele>
        <time>2021-08-19T08:20:45.000Z</time>
      </trkpt>
      <trkpt lat="47.34977" lon="-2.3421">
        <ele>-3.4000000953674</ele>
        <time>2021-08-19T08:20:46.000Z</time>
      </trkpt>
      <trkpt lat="47.34975" lon="-2.34208">
        <ele>-3</ele>
        <time>2021-08-19T08:20:47.000Z</time>
      </trkpt>
      <trkpt lat="47.34974" lon="-2.34207">
        <ele>-2.5999999046326</ele>
        <time>2021-08-19T08:20:48.000Z</time>
      </trkpt>
      <trkpt lat="47.34972" lon="-2.34204">
        <ele>-2.2000000476837</ele>
        <time>2021-08-19T08:20:49.000Z</time>
      </trkpt>
      <trkpt lat="47.3497" lon="-2.34202">
        <ele>-1.7999999523163</ele>
        <time>2021-08-19T08:20:50.000Z</time>
      </trkpt>
      <trkpt lat="47.34965" lon="-2.34201">
        <ele>-1.7999999523163</ele>
        <time>2021-08-19T08:20:52.000Z</time>
      </trkpt>
      <trkpt lat="47.3496" lon="-2.34199">
        <ele>-1.7999999523163</ele>
        <time>2021-08-19T08:20:54.000Z</time>
      </trkpt>
      <trkpt lat="47.34946" lon="-2.34203">
        <ele>-1.2000000476837</ele>
        <time>2021-08-19T08:20:59.000Z</time>
      </trkpt>
      <trkpt lat="47.34944" lon="-2.34204">
        <ele>-0.80000001192093</ele>
        <time>2021-08-19T08:21:00.000Z</time>
      </trkpt>
      <trkpt lat="47.34942" lon="-2.34206">
        <ele>-0.40000000596046</ele>
        <time>2021-08-19T08:21:01.000Z</time>
      </trkpt>
      <trkpt lat="47.34939" lon="-2.34206">
        <ele>21.9</ele>
        <time>2021-08-19T08:21:02.000Z</time>
      </trkpt>
      <trkpt lat="47.34936" lon="-2.34206">
        <ele>0.40000000596046</ele>
        <time>2021-08-19T08:21:03.000Z</time>
      </trkpt>
      <trkpt lat="47.34931" lon="-2.34209">
        <ele>0.40000000596046</ele>
        <time>2021-08-19T08:21:05.000Z</time>
      </trkpt>
      <trkpt lat="47.34925" lon="-2.34211">
        <ele>0.40000000596046</ele>
        <time>2021-08-19T08:21:08.000Z</time>
      </trkpt>
      <trkpt lat="47.34922" lon="-2.3421">
        <ele>0.40000000596046</ele>
        <time>2021-08-19T08:21:10.000Z</time>
      </trkpt>
      <trkpt lat="47.34917" lon="-2.3421">
        <ele>0.80000001192093</ele>
        <time>2021-08-19T08:21:13.000Z</time>
      </trkpt>
      <trkpt lat="47.34915" lon="-2.3421">
        <ele>1.2000000476837</ele>
        <time>2021-08-19T08:21:14.000Z</time>
      </trkpt>
      <trkpt lat="47.34913" lon="-2.34209">
        <ele>1.6000000238419</ele>
        <time>2021-08-19T08:21:15.000Z</time>
      </trkpt>
      <trkpt lat="47.34911" lon="-2.34209">
        <ele>2</ele>
        <time>2021-08-19T08:21:16.000Z</time>
      </trkpt>
      <trkpt lat="47.34909" lon="-2.34209">
        <ele>2.4000000953674</ele>
        <time>2021-08-19T08:21:17.000Z</time>
      </trkpt>
      <trkpt lat="47.34903" lon="-2.34208">
        <ele>2.4000000953674</ele>
        <time>2021-08-19T08:21:21.000Z</time>
      </trkpt>
      <trkpt lat="47.34897" lon="-2.34206">
        <ele>2.4000000953674</ele>
        <time>2021-08-19T08:21:27.000Z</time>
      </trkpt>
      <trkpt lat="47.34889" lon="-2.34209">
        <ele>4.5999999046326</ele>
        <time>2021-08-19T08:37:55.000Z</time>
      </trkpt>
      <trkpt lat="47.34884" lon="-2.34211">
        <ele>4.5999999046326</ele>
        <time>2021-08-19T08:37:57.000Z</time>
      </trkpt>
      <trkpt lat="47.3488" lon="-2.34213">
        <ele>4.5999999046326</ele>
        <time>2021-08-19T08:37:59.000Z</time>
      </trkpt>
      <trkpt lat="47.34876" lon="-2.34219">
        <ele>4.5999999046326</ele>
        <time>2021-08-19T08:38:01.000Z</time>
      </trkpt>
      <trkpt lat="47.34864" lon="-2.34236">
        <ele>4.5999999046326</ele>
        <time>2021-08-19T08:38:05.000Z</time>
      </trkpt>
      <trkpt lat="47.34861" lon="-2.34237">
        <ele>4.1999998092651</ele>
        <time>2021-08-19T08:38:06.000Z</time>
      </trkpt>
      <trkpt lat="47.34858" lon="-2.34238">
        <ele>3.7999999523163</ele>
        <time>2021-08-19T08:38:07.000Z</time>
      </trkpt>
      <trkpt lat="47.34855" lon="-2.34238">
        <ele>3.2000000476837</ele>
        <time>2021-08-19T08:38:08.000Z</time>
      </trkpt>
      <trkpt lat="47.34851" lon="-2.34235">
        <ele>2.7999999523163</ele>
        <time>2021-08-19T08:38:09.000Z</time>
      </trkpt>
      <trkpt lat="47.34845" lon="-2.34231">
        <ele>2.4000000953674</ele>
        <time>2021-08-19T08:38:10.000Z</time>
      </trkpt>
      <trkpt lat="47.34828" lon="-2.34232">
        <ele>2</ele>
        <time>2021-08-19T08:38:13.000Z</time>
      </trkpt>
      <trkpt lat="47.34822" lon="-2.34232">
        <ele>1.6000000238419</ele>
        <time>2021-08-19T08:38:14.000Z</time>
      </trkpt>
      <trkpt lat="47.34815" lon="-2.34232">
        <ele>1</ele>
        <time>2021-08-19T08:38:15.000Z</time>
      </trkpt>
      <trkpt lat="47.34808" lon="-2.34234">
        <ele>0.60000002384186</ele>
        <time>2021-08-19T08:38:16.000Z</time>
      </trkpt>
      <trkpt lat="47.34801" lon="-2.34235">
        <ele>0.20000000298023</ele>
        <time>2021-08-19T08:38:17.000Z</time>
      </trkpt>
      <trkpt lat="47.34794" lon="-2.34237">
        <ele>-0.40000000596046</ele>
        <time>2021-08-19T08:38:18.000Z</time>
      </trkpt>
      <trkpt lat="47.34787" lon="-2.34239">
        <ele>-0.80000001192093</ele>
        <time>2021-08-19T08:38:19.000Z</time>
      </trkpt>
      <trkpt lat="47.34781" lon="-2.34241">
        <ele>-1.2000000476837</ele>
        <time>2021-08-19T08:38:20.000Z</time>
      </trkpt>
      <trkpt lat="47.34774" lon="-2.34243">
        <ele>-1.6000000238419</ele>
        <time>2021-08-19T08:38:21.000Z</time>
      </trkpt>
      <trkpt lat="47.34768" lon="-2.34244">
        <ele>-2</ele>
        <time>2021-08-19T08:38:22.000Z</time>
      </trkpt>
      <trkpt lat="47.34747" lon="-2.34249">
        <ele>-2</ele>
        <time>2021-08-19T08:38:25.000Z</time>
      </trkpt>
      <trkpt lat="47.34697" lon="-2.34261">
        <ele>-2.5999999046326</ele>
        <time>2021-08-19T08:38:32.000Z</time>
      </trkpt>
      <trkpt lat="47.34691" lon="-2.34262">
        <ele>-3</ele>
        <time>2021-08-19T08:38:33.000Z</time>
      </trkpt>
      <trkpt lat="47.34684" lon="-2.34263">
        <ele>-3.5999999046326</ele>
        <time>2021-08-19T08:38:34.000Z</time>
      </trkpt>
      <trkpt lat="47.34678" lon="-2.34265">
        <ele>-4</ele>
        <time>2021-08-19T08:38:35.000Z</time>
      </trkpt>
      <trkpt lat="47.34672" lon="-2.34266">
        <ele>-4.4000000953674</ele>
        <time>2021-08-19T08:38:36.000Z</time>
      </trkpt>
      <trkpt lat="47.34654" lon="-2.34272">
        <ele>-4.4000000953674</ele>
        <time>2021-08-19T08:38:39.000Z</time>
      </trkpt>
      <trkpt lat="47.34645" lon="-2.34278">
        <ele>-4.4000000953674</ele>
        <time>2021-08-19T08:38:41.000Z</time>
      </trkpt>
      <trkpt lat="47.34635" lon="-2.34288">
        <ele>-4.4000000953674</ele>
        <time>2021-08-19T08:38:44.000Z</time>
      </trkpt>
      <trkpt lat="47.34627" lon="-2.34299">
        <ele>-4.4000000953674</ele>
        <time>2021-08-19T08:38:48.000Z</time>
      </trkpt>
      <trkpt lat="47.34622" lon="-2.34302">
        <ele>-4.4000000953674</ele>
        <time>2021-08-19T08:38:51.000Z</time>
      </trkpt>
      <trkpt lat="47.3462" lon="-2.343">
        <ele>-4.4000000953674</ele>
        <time>2021-08-19T08:38:53.000Z</time>
      </trkpt>
      <trkpt lat="47.34615" lon="-2.34296">
        <ele>-4.4000000953674</ele>
        <time>2021-08-19T08:38:59.000Z</time>
      </trkpt>
      <trkpt lat="47.34615" lon="-2.34296">
        <ele>-4.4000000953674</ele>
        <time>2021-08-19T08:39:01.000Z</time>
      </trkpt>
      <trkpt lat="47.3461" lon="-2.34297">
        <ele>-4.4000000953674</ele>
        <time>2021-08-19T08:39:07.000Z</time>
      </trkpt>
      <trkpt lat="47.34608" lon="-2.34297">
        <ele>-4.4000000953674</ele>
        <time>2021-08-19T08:39:08.000Z</time>
      </trkpt>
      <trkpt lat="47.3459" lon="-2.343">
        <ele>-4.4000000953674</ele>
        <time>2021-08-19T08:39:14.000Z</time>
      </trkpt>
      <trkpt lat="47.34577" lon="-2.34307">
        <ele>-4</ele>
        <time>2021-08-19T08:39:19.000Z</time>
      </trkpt>
      <trkpt lat="47.34574" lon="-2.34308">
        <ele>-3.5999999046326</ele>
        <time>2021-08-19T08:39:20.000Z</time>
      </trkpt>
      <trkpt lat="47.34571" lon="-2.3431">
        <ele>-3.2000000476837</ele>
        <time>2021-08-19T08:39:21.000Z</time>
      </trkpt>
      <trkpt lat="47.34568" lon="-2.34313">
        <ele>-2.7999999523163</ele>
        <time>2021-08-19T08:39:22.000Z</time>
      </trkpt>
      <trkpt lat="47.34564" lon="-2.34315">
        <ele>-2.4000000953674</ele>
        <time>2021-08-19T08:39:23.000Z</time>
      </trkpt>
      <trkpt lat="47.34557" lon="-2.3432">
        <ele>-2.4000000953674</ele>
        <time>2021-08-19T08:39:25.000Z</time>
      </trkpt>
      <trkpt lat="47.34543" lon="-2.3433">
        <ele>-2.4000000953674</ele>
        <time>2021-08-19T08:39:29.000Z</time>
      </trkpt>
      <trkpt lat="47.34536" lon="-2.34338">
        <ele>-2.4000000953674</ele>
        <time>2021-08-19T08:39:31.000Z</time>
      </trkpt>
      <trkpt lat="47.34516" lon="-2.34353">
        <ele>-2.4000000953674</ele>
        <time>2021-08-19T08:39:36.000Z</time>
      </trkpt>
      <trkpt lat="47.34513" lon="-2.34358">
        <ele>-2.4000000953674</ele>
        <time>2021-08-19T08:39:37.000Z</time>
      </trkpt>
      <trkpt lat="47.34493" lon="-2.3438">
        <ele>-2</ele>
        <time>2021-08-19T08:39:42.000Z</time>
      </trkpt>
      <trkpt lat="47.34489" lon="-2.34383">
        <ele>-1.6000000238419</ele>
        <time>2021-08-19T08:39:43.000Z</time>
      </trkpt>
      <trkpt lat="47.34485" lon="-2.34386">
        <ele>-1.2000000476837</ele>
        <time>2021-08-19T08:39:44.000Z</time>
      </trkpt>
      <trkpt lat="47.3448" lon="-2.34388">
        <ele>-0.80000001192093</ele>
        <time>2021-08-19T08:39:45.000Z</time>
      </trkpt>
      <trkpt lat="47.34475" lon="-2.34391">
        <ele>-0.40000000596046</ele>
        <time>2021-08-19T08:39:46.000Z</time>
      </trkpt>
      <trkpt lat="47.34464" lon="-2.34395">
        <ele>-0.40000000596046</ele>
        <time>2021-08-19T08:39:48.000Z</time>
      </trkpt>
      <trkpt lat="47.34434" lon="-2.34407">
        <ele>-0.40000000596046</ele>
        <time>2021-08-19T08:39:54.000Z</time>
      </trkpt>
      <trkpt lat="47.34429" lon="-2.34409">
        <ele>-0.40000000596046</ele>
        <time>2021-08-19T08:39:55.000Z</time>
      </trkpt>
      <trkpt lat="47.344" lon="-2.34425">
        <ele>-0.40000000596046</ele>
        <time>2021-08-19T08:40:01.000Z</time>
      </trkpt>
      <trkpt lat="47.34366" lon="-2.34443">
        <ele>-0.40000000596046</ele>
        <time>2021-08-19T08:40:08.000Z</time>
      </trkpt>
      <trkpt lat="47.34357" lon="-2.34449">
        <ele>-0.40000000596046</ele>
        <time>2021-08-19T08:40:10.000Z</time>
      </trkpt>
      <trkpt lat="47.3434" lon="-2.34459">
        <ele>-0.40000000596046</ele>
        <time>2021-08-19T08:40:14.000Z</time>
      </trkpt>
      <trkpt lat="47.34312" lon="-2.34465">
        <ele>-0.40000000596046</ele>
        <time>2021-08-19T08:40:20.000Z</time>
      </trkpt>
      <trkpt lat="47.34296" lon="-2.34466">
        <ele>-0.40000000596046</ele>
        <time>2021-08-19T08:40:23.000Z</time>
      </trkpt>
      <trkpt lat="47.34275" lon="-2.34468">
        <ele>-0.40000000596046</ele>
        <time>2021-08-19T08:40:27.000Z</time>
      </trkpt>
      <trkpt lat="47.34245" lon="-2.34479">
        <ele>-0.40000000596046</ele>
        <time>2021-08-19T08:40:33.000Z</time>
      </trkpt>
      <trkpt lat="47.34216" lon="-2.34493">
        <ele>-0.40000000596046</ele>
        <time>2021-08-19T08:40:39.000Z</time>
      </trkpt>
      <trkpt lat="47.34191" lon="-2.34505">
        <ele>-0.40000000596046</ele>
        <time>2021-08-19T08:40:44.000Z</time>
      </trkpt>
      <trkpt lat="47.34163" lon="-2.34516">
        <ele>22.6</ele>
        <time>2021-08-19T08:40:50.000Z</time>
      </trkpt>
      <trkpt lat="47.34159" lon="-2.34518">
        <ele>0.40000000596046</ele>
        <time>2021-08-19T08:40:51.000Z</time>
      </trkpt>
      <trkpt lat="47.34155" lon="-2.3452">
        <ele>0.80000001192093</ele>
        <time>2021-08-19T08:40:52.000Z</time>
      </trkpt>
      <trkpt lat="47.3415" lon="-2.34522">
        <ele>1.2000000476837</ele>
        <time>2021-08-19T08:40:53.000Z</time>
      </trkpt>
      <trkpt lat="47.34145" lon="-2.34525">
        <ele>1.7999999523163</ele>
        <time>2021-08-19T08:40:54.000Z</time>
      </trkpt>
      <trkpt lat="47.34141" lon="-2.34528">
        <ele>1.7999999523163</ele>
        <time>2021-08-19T08:40:55.000Z</time>
      </trkpt>
      <trkpt lat="47.34117" lon="-2.34541">
        <ele>1.7999999523163</ele>
        <time>2021-08-19T08:41:00.000Z</time>
      </trkpt>
      <trkpt lat="47.34088" lon="-2.34559">
        <ele>1.7999999523163</ele>
        <time>2021-08-19T08:41:06.000Z</time>
      </trkpt>
      <trkpt lat="47.34084" lon="-2.34562">
        <ele>1.7999999523163</ele>
        <time>2021-08-19T08:41:07.000Z</time>
      </trkpt>
      <trkpt lat="47.34071" lon="-2.34576">
        <ele>1.7999999523163</ele>
        <time>2021-08-19T08:41:12.000Z</time>
      </trkpt>
      <trkpt lat="47.34051" lon="-2.34587">
        <ele>1.7999999523163</ele>
        <time>2021-08-19T08:41:18.000Z</time>
      </trkpt>
      <trkpt lat="47.34027" lon="-2.346">
        <ele>1.7999999523163</ele>
        <time>2021-08-19T08:41:24.000Z</time>
      </trkpt>
      <trkpt lat="47.34014" lon="-2.346">
        <ele>1.7999999523163</ele>
        <time>2021-08-19T08:41:28.000Z</time>
      </trkpt>
      <trkpt lat="47.34007" lon="-2.34598">
        <ele>2.2000000476837</ele>
        <time>2021-08-19T08:41:30.000Z</time>
      </trkpt>
      <trkpt lat="47.34003" lon="-2.34597">
        <ele>2.5999999046326</ele>
        <time>2021-08-19T08:41:31.000Z</time>
      </trkpt>
      <trkpt lat="47.33999" lon="-2.34596">
        <ele>3</ele>
        <time>2021-08-19T08:41:32.000Z</time>
      </trkpt>
      <trkpt lat="47.33996" lon="-2.34595">
        <ele>3.4000000953674</ele>
        <time>2021-08-19T08:41:33.000Z</time>
      </trkpt>
      <trkpt lat="47.33992" lon="-2.34594">
        <ele>3.7999999523163</ele>
        <time>2021-08-19T08:41:34.000Z</time>
      </trkpt>
      <trkpt lat="47.33975" lon="-2.3459">
        <ele>3.7999999523163</ele>
        <time>2021-08-19T08:41:38.000Z</time>
      </trkpt>
      <trkpt lat="47.33965" lon="-2.3459">
        <ele>3.7999999523163</ele>
        <time>2021-08-19T08:41:40.000Z</time>
      </trkpt>
      <trkpt lat="47.33946" lon="-2.34591">
        <ele>3.7999999523163</ele>
        <time>2021-08-19T08:41:44.000Z</time>
      </trkpt>
      <trkpt lat="47.33936" lon="-2.34591">
        <ele>3.7999999523163</ele>
        <time>2021-08-19T08:41:46.000Z</time>
      </trkpt>
      <trkpt lat="47.33909" lon="-2.34591">
        <ele>3.7999999523163</ele>
        <time>2021-08-19T08:41:51.000Z</time>
      </trkpt>
      <trkpt lat="47.33905" lon="-2.34593">
        <ele>3.7999999523163</ele>
        <time>2021-08-19T08:41:52.000Z</time>
      </trkpt>
      <trkpt lat="47.33893" lon="-2.34609">
        <ele>3.7999999523163</ele>
        <time>2021-08-19T08:41:56.000Z</time>
      </trkpt>
      <trkpt lat="47.33888" lon="-2.3463">
        <ele>3.7999999523163</ele>
        <time>2021-08-19T08:42:00.000Z</time>
      </trkpt>
      <trkpt lat="47.33881" lon="-2.34682">
        <ele>3.7999999523163</ele>
        <time>2021-08-19T08:42:08.000Z</time>
      </trkpt>
      <trkpt lat="47.33882" lon="-2.34728">
        <ele>3.4000000953674</ele>
        <time>2021-08-19T08:42:15.000Z</time>
      </trkpt>
      <trkpt lat="47.3388" lon="-2.34738">
        <ele>3</ele>
        <time>2021-08-19T08:42:16.000Z</time>
      </trkpt>
      <trkpt lat="47.33879" lon="-2.34745">
        <ele>2.5999999046326</ele>
        <time>2021-08-19T08:42:17.000Z</time>
      </trkpt>
      <trkpt lat="47.33879" lon="-2.34753">
        <ele>2.2000000476837</ele>
        <time>2021-08-19T08:42:18.000Z</time>
      </trkpt>
      <trkpt lat="47.33878" lon="-2.3476">
        <ele>1.7999999523163</ele>
        <time>2021-08-19T08:42:19.000Z</time>
      </trkpt>
      <trkpt lat="47.33877" lon="-2.34769">
        <ele>1.7999999523163</ele>
        <time>2021-08-19T08:42:20.000Z</time>
      </trkpt>
      <trkpt lat="47.33869" lon="-2.34816">
        <ele>1.7999999523163</ele>
        <time>2021-08-19T08:42:26.000Z</time>
      </trkpt>
      <trkpt lat="47.33867" lon="-2.3482">
        <ele>1.3999999761581</ele>
        <time>2021-08-19T08:42:27.000Z</time>
      </trkpt>
      <trkpt lat="47.33865" lon="-2.34824">
        <ele>0.80000001192093</ele>
        <time>2021-08-19T08:42:28.000Z</time>
      </trkpt>
      <trkpt lat="47.33864" lon="-2.34827">
        <ele>0.40000000596046</ele>
        <time>2021-08-19T08:42:29.000Z</time>
      </trkpt>
      <trkpt lat="47.33863" lon="-2.3483">
        <ele>21</ele>
        <time>2021-08-19T08:42:30.000Z</time>
      </trkpt>
      <trkpt lat="47.3386" lon="-2.34834">
        <ele>-0.40000000596046</ele>
        <time>2021-08-19T08:42:31.000Z</time>
      </trkpt>
      <trkpt lat="47.33851" lon="-2.34842">
        <ele>-0.40000000596046</ele>
        <time>2021-08-19T08:42:34.000Z</time>
      </trkpt>
      <trkpt lat="47.33834" lon="-2.34859">
        <ele>-0.40000000596046</ele>
        <time>2021-08-19T08:42:40.000Z</time>
      </trkpt>
      <trkpt lat="47.33821" lon="-2.34876">
        <ele>-0.40000000596046</ele>
        <time>2021-08-19T08:42:45.000Z</time>
      </trkpt>
      <trkpt lat="47.3381" lon="-2.34896">
        <ele>-0.40000000596046</ele>
        <time>2021-08-19T08:42:50.000Z</time>
      </trkpt>
      <trkpt lat="47.33792" lon="-2.3493">
        <ele>-0.40000000596046</ele>
        <time>2021-08-19T08:42:57.000Z</time>
      </trkpt>
      <trkpt lat="47.33778" lon="-2.34948">
        <ele>-0.40000000596046</ele>
        <time>2021-08-19T08:43:01.000Z</time>
      </trkpt>
      <trkpt lat="47.33769" lon="-2.34957">
        <ele>-0.40000000596046</ele>
        <time>2021-08-19T08:43:03.000Z</time>
      </trkpt>
      <trkpt lat="47.33754" lon="-2.3497">
        <ele>-0.40000000596046</ele>
        <time>2021-08-19T08:43:06.000Z</time>
      </trkpt>
      <trkpt lat="47.3375" lon="-2.34975">
        <ele>-0.40000000596046</ele>
        <time>2021-08-19T08:43:07.000Z</time>
      </trkpt>
      <trkpt lat="47.3374" lon="-2.34983">
        <ele>-0.40000000596046</ele>
        <time>2021-08-19T08:43:09.000Z</time>
      </trkpt>
      <trkpt lat="47.33735" lon="-2.34986">
        <ele>22.5</ele>
        <time>2021-08-19T08:43:10.000Z</time>
      </trkpt>
      <trkpt lat="47.33731" lon="-2.34989">
        <ele>0.40000000596046</ele>
        <time>2021-08-19T08:43:11.000Z</time>
      </trkpt>
      <trkpt lat="47.33727" lon="-2.34993">
        <ele>1</ele>
        <time>2021-08-19T08:43:12.000Z</time>
      </trkpt>
      <trkpt lat="47.33723" lon="-2.34997">
        <ele>1.3999999761581</ele>
        <time>2021-08-19T08:43:13.000Z</time>
      </trkpt>
      <trkpt lat="47.33719" lon="-2.34999">
        <ele>1.7999999523163</ele>
        <time>2021-08-19T08:43:14.000Z</time>
      </trkpt>
      <trkpt lat="47.33716" lon="-2.35001">
        <ele>1.7999999523163</ele>
        <time>2021-08-19T08:43:15.000Z</time>
      </trkpt>
      <trkpt lat="47.33708" lon="-2.34999">
        <ele>1.7999999523163</ele>
        <time>2021-08-19T08:43:17.000Z</time>
      </trkpt>
      <trkpt lat="47.33705" lon="-2.34997">
        <ele>1.7999999523163</ele>
        <time>2021-08-19T08:43:18.000Z</time>
      </trkpt>
      <trkpt lat="47.33687" lon="-2.34975">
        <ele>1.7999999523163</ele>
        <time>2021-08-19T08:43:23.000Z</time>
      </trkpt>
      <trkpt lat="47.33658" lon="-2.34934">
        <ele>1.7999999523163</ele>
        <time>2021-08-19T08:43:31.000Z</time>
      </trkpt>
      <trkpt lat="47.33641" lon="-2.34912">
        <ele>2.2000000476837</ele>
        <time>2021-08-19T08:43:36.000Z</time>
      </trkpt>
      <trkpt lat="47.33637" lon="-2.34907">
        <ele>3</ele>
        <time>2021-08-19T08:43:37.000Z</time>
      </trkpt>
      <trkpt lat="47.33634" lon="-2.34903">
        <ele>3.5999999046326</ele>
        <time>2021-08-19T08:43:38.000Z</time>
      </trkpt>
      <trkpt lat="47.3363" lon="-2.349">
        <ele>4</ele>
        <time>2021-08-19T08:43:39.000Z</time>
      </trkpt>
      <trkpt lat="47.33612" lon="-2.34877">
        <ele>4</ele>
        <time>2021-08-19T08:43:44.000Z</time>
      </trkpt>
      <trkpt lat="47.33609" lon="-2.34874">
        <ele>4</ele>
        <time>2021-08-19T08:43:45.000Z</time>
      </trkpt>
      <trkpt lat="47.33601" lon="-2.34864">
        <ele>4</ele>
        <time>2021-08-19T08:43:47.000Z</time>
      </trkpt>
      <trkpt lat="47.33592" lon="-2.34851">
        <ele>4</ele>
        <time>2021-08-19T08:43:50.000Z</time>
      </trkpt>
      <trkpt lat="47.33585" lon="-2.34841">
        <ele>4</ele>
        <time>2021-08-19T08:43:52.000Z</time>
      </trkpt>
      <trkpt lat="47.33575" lon="-2.34828">
        <ele>4</ele>
        <time>2021-08-19T08:43:55.000Z</time>
      </trkpt>
      <trkpt lat="47.33572" lon="-2.34823">
        <ele>4.4000000953674</ele>
        <time>2021-08-19T08:43:56.000Z</time>
      </trkpt>
      <trkpt lat="47.33569" lon="-2.34819">
        <ele>4.8000001907349</ele>
        <time>2021-08-19T08:43:57.000Z</time>
      </trkpt>
      <trkpt lat="47.33566" lon="-2.34814">
        <ele>5.1999998092651</ele>
        <time>2021-08-19T08:43:58.000Z</time>
      </trkpt>
      <trkpt lat="47.33562" lon="-2.3481">
        <ele>5.5999999046326</ele>
        <time>2021-08-19T08:43:59.000Z</time>
      </trkpt>
      <trkpt lat="47.33559" lon="-2.34808">
        <ele>6</ele>
        <time>2021-08-19T08:44:00.000Z</time>
      </trkpt>
      <trkpt lat="47.33553" lon="-2.348">
        <ele>6</ele>
        <time>2021-08-19T08:44:02.000Z</time>
      </trkpt>
      <trkpt lat="47.33533" lon="-2.34775">
        <ele>6</ele>
        <time>2021-08-19T08:44:08.000Z</time>
      </trkpt>
      <trkpt lat="47.33507" lon="-2.34739">
        <ele>6</ele>
        <time>2021-08-19T08:44:14.000Z</time>
      </trkpt>
      <trkpt lat="47.33475" lon="-2.34692">
        <ele>6</ele>
        <time>2021-08-19T08:44:21.000Z</time>
      </trkpt>
      <trkpt lat="47.33449" lon="-2.34646">
        <ele>5.5999999046326</ele>
        <time>2021-08-19T08:44:27.000Z</time>
      </trkpt>
      <trkpt lat="47.33444" lon="-2.34638">
        <ele>5.1999998092651</ele>
        <time>2021-08-19T08:44:28.000Z</time>
      </trkpt>
      <trkpt lat="47.3344" lon="-2.3463">
        <ele>4.8000001907349</ele>
        <time>2021-08-19T08:44:29.000Z</time>
      </trkpt>
      <trkpt lat="47.33436" lon="-2.34623">
        <ele>4.4000000953674</ele>
        <time>2021-08-19T08:44:30.000Z</time>
      </trkpt>
      <trkpt lat="47.33432" lon="-2.34615">
        <ele>4</ele>
        <time>2021-08-19T08:44:31.000Z</time>
      </trkpt>
      <trkpt lat="47.334" lon="-2.34554">
        <ele>3.5999999046326</ele>
        <time>2021-08-19T08:44:38.000Z</time>
      </trkpt>
      <trkpt lat="47.33395" lon="-2.34545">
        <ele>3</ele>
        <time>2021-08-19T08:44:39.000Z</time>
      </trkpt>
      <trkpt lat="47.33391" lon="-2.34537">
        <ele>2.5999999046326</ele>
        <time>2021-08-19T08:44:40.000Z</time>
      </trkpt>
      <trkpt lat="47.33386" lon="-2.34528">
        <ele>2.2000000476837</ele>
        <time>2021-08-19T08:44:41.000Z</time>
      </trkpt>
      <trkpt lat="47.33381" lon="-2.3452">
        <ele>1.7999999523163</ele>
        <time>2021-08-19T08:44:42.000Z</time>
      </trkpt>
      <trkpt lat="47.3337" lon="-2.34498">
        <ele>1.7999999523163</ele>
        <time>2021-08-19T08:44:45.000Z</time>
      </trkpt>
      <trkpt lat="47.33364" lon="-2.34487">
        <ele>1.7999999523163</ele>
        <time>2021-08-19T08:44:47.000Z</time>
      </trkpt>
      <trkpt lat="47.33362" lon="-2.34473">
        <ele>1.7999999523163</ele>
        <time>2021-08-19T08:44:49.000Z</time>
      </trkpt>
      <trkpt lat="47.33368" lon="-2.34442">
        <ele>1.7999999523163</ele>
        <time>2021-08-19T08:44:53.000Z</time>
      </trkpt>
      <trkpt lat="47.3337" lon="-2.34436">
        <ele>1.7999999523163</ele>
        <time>2021-08-19T08:44:54.000Z</time>
      </trkpt>
      <trkpt lat="47.33375" lon="-2.34421">
        <ele>1.7999999523163</ele>
        <time>2021-08-19T08:44:56.000Z</time>
      </trkpt>
      <trkpt lat="47.33386" lon="-2.3439">
        <ele>1.7999999523163</ele>
        <time>2021-08-19T08:45:00.000Z</time>
      </trkpt>
      <trkpt lat="47.33409" lon="-2.34324">
        <ele>1.7999999523163</ele>
        <time>2021-08-19T08:45:08.000Z</time>
      </trkpt>
      <trkpt lat="47.33438" lon="-2.34246">
        <ele>1.3999999761581</ele>
        <time>2021-08-19T08:45:17.000Z</time>
      </trkpt>
      <trkpt lat="47.33442" lon="-2.34238">
        <ele>1</ele>
        <time>2021-08-19T08:45:18.000Z</time>
      </trkpt>
      <trkpt lat="47.33447" lon="-2.34231">
        <ele>0.60000002384186</ele>
        <time>2021-08-19T08:45:19.000Z</time>
      </trkpt>
      <trkpt lat="47.33452" lon="-2.34223">
        <ele>19.7</ele>
        <time>2021-08-19T08:45:20.000Z</time>
      </trkpt>
      <trkpt lat="47.33457" lon="-2.34216">
        <ele>-0.40000000596046</ele>
        <time>2021-08-19T08:45:21.000Z</time>
      </trkpt>
      <trkpt lat="47.33463" lon="-2.3421">
        <ele>-0.40000000596046</ele>
        <time>2021-08-19T08:45:22.000Z</time>
      </trkpt>
      <trkpt lat="47.33469" lon="-2.34203">
        <ele>-0.40000000596046</ele>
        <time>2021-08-19T08:45:23.000Z</time>
      </trkpt>
      <trkpt lat="47.33504" lon="-2.34171">
        <ele>-0.40000000596046</ele>
        <time>2021-08-19T08:45:29.000Z</time>
      </trkpt>
      <trkpt lat="47.33536" lon="-2.34148">
        <ele>-0.40000000596046</ele>
        <time>2021-08-19T08:45:34.000Z</time>
      </trkpt>
      <trkpt lat="47.33576" lon="-2.3412">
        <ele>-0.40000000596046</ele>
        <time>2021-08-19T08:45:40.000Z</time>
      </trkpt>
      <trkpt lat="47.33595" lon="-2.34105">
        <ele>-0.40000000596046</ele>
        <time>2021-08-19T08:45:43.000Z</time>
      </trkpt>
      <trkpt lat="47.33619" lon="-2.34084">
        <ele>-0.40000000596046</ele>
        <time>2021-08-19T08:45:47.000Z</time>
      </trkpt>
      <trkpt lat="47.3366" lon="-2.3405">
        <ele>-0.40000000596046</ele>
        <time>2021-08-19T08:45:53.000Z</time>
      </trkpt>
      <trkpt lat="47.33696" lon="-2.3402">
        <ele>-0.80000001192093</ele>
        <time>2021-08-19T08:45:58.000Z</time>
      </trkpt>
      <trkpt lat="47.33703" lon="-2.34014">
        <ele>-1.2000000476837</ele>
        <time>2021-08-19T08:45:59.000Z</time>
      </trkpt>
      <trkpt lat="47.33711" lon="-2.34008">
        <ele>-1.6000000238419</ele>
        <time>2021-08-19T08:46:00.000Z</time>
      </trkpt>
      <trkpt lat="47.33719" lon="-2.34001">
        <ele>-2</ele>
        <time>2021-08-19T08:46:01.000Z</time>
      </trkpt>
      <trkpt lat="47.33726" lon="-2.33995">
        <ele>-2.4000000953674</ele>
        <time>2021-08-19T08:46:02.000Z</time>
      </trkpt>
      <trkpt lat="47.33756" lon="-2.33971">
        <ele>-2.4000000953674</ele>
        <time>2021-08-19T08:46:06.000Z</time>
      </trkpt>
      <trkpt lat="47.33798" lon="-2.33938">
        <ele>-2.4000000953674</ele>
        <time>2021-08-19T08:46:12.000Z</time>
      </trkpt>
      <trkpt lat="47.33811" lon="-2.33927">
        <ele>-2.7999999523163</ele>
        <time>2021-08-19T08:46:14.000Z</time>
      </trkpt>
      <trkpt lat="47.33817" lon="-2.33922">
        <ele>-3.2000000476837</ele>
        <time>2021-08-19T08:46:15.000Z</time>
      </trkpt>
      <trkpt lat="47.33824" lon="-2.33917">
        <ele>-3.5999999046326</ele>
        <time>2021-08-19T08:46:16.000Z</time>
      </trkpt>
      <trkpt lat="47.3383" lon="-2.33912">
        <ele>-4</ele>
        <time>2021-08-19T08:46:17.000Z</time>
      </trkpt>
      <trkpt lat="47.33836" lon="-2.33907">
        <ele>-4.4000000953674</ele>
        <time>2021-08-19T08:46:18.000Z</time>
      </trkpt>
      <trkpt lat="47.33857" lon="-2.33891">
        <ele>-4.4000000953674</ele>
        <time>2021-08-19T08:46:22.000Z</time>
      </trkpt>
      <trkpt lat="47.33864" lon="-2.33886">
        <ele>-4.8000001907349</ele>
        <time>2021-08-19T08:46:25.000Z</time>
      </trkpt>
      <trkpt lat="47.33865" lon="-2.33885">
        <ele>-5.4000000953674</ele>
        <time>2021-08-19T08:46:26.000Z</time>
      </trkpt>
      <trkpt lat="47.33867" lon="-2.33883">
        <ele>-5.8000001907349</ele>
        <time>2021-08-19T08:46:27.000Z</time>
      </trkpt>
      <trkpt lat="47.33868" lon="-2.33882">
        <ele>-6.1999998092651</ele>
        <time>2021-08-19T08:46:28.000Z</time>
      </trkpt>
      <trkpt lat="47.33868" lon="-2.3388">
        <ele>-6.5999999046326</ele>
        <time>2021-08-19T08:46:29.000Z</time>
      </trkpt>
      <trkpt lat="47.33869" lon="-2.33879">
        <ele>-6.5999999046326</ele>
        <time>2021-08-19T08:46:30.000Z</time>
      </trkpt>
      <trkpt lat="47.33869" lon="-2.33878">
        <ele>-6.5999999046326</ele>
        <time>2021-08-19T08:46:32.000Z</time>
      </trkpt>
      <trkpt lat="47.3387" lon="-2.33876">
        <ele>-6.5999999046326</ele>
        <time>2021-08-19T08:46:38.000Z</time>
      </trkpt>
      <trkpt lat="47.33872" lon="-2.33874">
        <ele>-6.5999999046326</ele>
        <time>2021-08-19T08:46:39.000Z</time>
      </trkpt>
      <trkpt lat="47.33884" lon="-2.33862">
        <ele>-6.5999999046326</ele>
        <time>2021-08-19T08:46:44.000Z</time>
      </trkpt>
      <trkpt lat="47.33896" lon="-2.33839">
        <ele>-6.5999999046326</ele>
        <time>2021-08-19T08:46:49.000Z</time>
      </trkpt>
      <trkpt lat="47.33908" lon="-2.33812">
        <ele>-6.5999999046326</ele>
        <time>2021-08-19T08:46:54.000Z</time>
      </trkpt>
      <trkpt lat="47.33923" lon="-2.33785">
        <ele>-6.5999999046326</ele>
        <time>2021-08-19T08:46:58.000Z</time>
      </trkpt>
      <trkpt lat="47.33934" lon="-2.33768">
        <ele>-6.5999999046326</ele>
        <time>2021-08-19T08:47:00.000Z</time>
      </trkpt>
      <trkpt lat="47.33941" lon="-2.33754">
        <ele>-6.5999999046326</ele>
        <time>2021-08-19T08:47:02.000Z</time>
      </trkpt>
      <trkpt lat="47.33944" lon="-2.33748">
        <ele>-6.5999999046326</ele>
        <time>2021-08-19T08:47:03.000Z</time>
      </trkpt>
      <trkpt lat="47.33947" lon="-2.33742">
        <ele>-6.5999999046326</ele>
        <time>2021-08-19T08:47:04.000Z</time>
      </trkpt>
      <trkpt lat="47.33959" lon="-2.33715">
        <ele>-6.5999999046326</ele>
        <time>2021-08-19T08:47:09.000Z</time>
      </trkpt>
      <trkpt lat="47.33961" lon="-2.33708">
        <ele>-7</ele>
        <time>2021-08-19T08:47:10.000Z</time>
      </trkpt>
      <trkpt lat="47.33963" lon="-2.33702">
        <ele>-7.5999999046326</ele>
        <time>2021-08-19T08:47:11.000Z</time>
      </trkpt>
      <trkpt lat="47.33965" lon="-2.33695">
        <ele>-8</ele>
        <time>2021-08-19T08:47:12.000Z</time>
      </trkpt>
      <trkpt lat="47.33967" lon="-2.33688">
        <ele>-8.3999996185303</ele>
        <time>2021-08-19T08:47:13.000Z</time>
      </trkpt>
      <trkpt lat="47.3397" lon="-2.3368">
        <ele>-8.8000001907349</ele>
        <time>2021-08-19T08:47:14.000Z</time>
      </trkpt>
      <trkpt lat="47.33982" lon="-2.33651">
        <ele>-8.8000001907349</ele>
        <time>2021-08-19T08:47:18.000Z</time>
      </trkpt>
      <trkpt lat="47.33991" lon="-2.33637">
        <ele>-8.8000001907349</ele>
        <time>2021-08-19T08:47:20.000Z</time>
      </trkpt>
      <trkpt lat="47.34017" lon="-2.33597">
        <ele>-8.8000001907349</ele>
        <time>2021-08-19T08:47:25.000Z</time>
      </trkpt>
      <trkpt lat="47.34057" lon="-2.33541">
        <ele>-8.8000001907349</ele>
        <time>2021-08-19T08:47:33.000Z</time>
      </trkpt>
      <trkpt lat="47.34075" lon="-2.33517">
        <ele>-9.1999998092651</ele>
        <time>2021-08-19T08:47:37.000Z</time>
      </trkpt>
      <trkpt lat="47.3408" lon="-2.33511">
        <ele>-9.6000003814697</ele>
        <time>2021-08-19T08:47:38.000Z</time>
      </trkpt>
      <trkpt lat="47.34083" lon="-2.33506">
        <ele>-10</ele>
        <time>2021-08-19T08:47:39.000Z</time>
      </trkpt>
      <trkpt lat="47.34087" lon="-2.33502">
        <ele>-10.39999961853</ele>
        <time>2021-08-19T08:47:40.000Z</time>
      </trkpt>
      <trkpt lat="47.34091" lon="-2.33499">
        <ele>-10.800000190735</ele>
        <time>2021-08-19T08:47:41.000Z</time>
      </trkpt>
      <trkpt lat="47.34094" lon="-2.33496">
        <ele>-10.800000190735</ele>
        <time>2021-08-19T08:47:42.000Z</time>
      </trkpt>
      <trkpt lat="47.34099" lon="-2.33491">
        <ele>-10.800000190735</ele>
        <time>2021-08-19T08:47:47.000Z</time>
      </trkpt>
      <trkpt lat="47.34106" lon="-2.3348">
        <ele>-10.800000190735</ele>
        <time>2021-08-19T08:47:51.000Z</time>
      </trkpt>
      <trkpt lat="47.3412" lon="-2.33459">
        <ele>-10.800000190735</ele>
        <time>2021-08-19T08:47:57.000Z</time>
      </trkpt>
      <trkpt lat="47.34136" lon="-2.33434">
        <ele>-10.800000190735</ele>
        <time>2021-08-19T08:48:02.000Z</time>
      </trkpt>
      <trkpt lat="47.34158" lon="-2.33396">
        <ele>-10.800000190735</ele>
        <time>2021-08-19T08:48:08.000Z</time>
      </trkpt>
      <trkpt lat="47.34165" lon="-2.3337">
        <ele>-10.800000190735</ele>
        <time>2021-08-19T08:48:11.000Z</time>
      </trkpt>
      <trkpt lat="47.34167" lon="-2.33362">
        <ele>-10.800000190735</ele>
        <time>2021-08-19T08:48:12.000Z</time>
      </trkpt>
      <trkpt lat="47.34179" lon="-2.33323">
        <ele>-11.199999809265</ele>
        <time>2021-08-19T08:48:16.000Z</time>
      </trkpt>
      <trkpt lat="47.34183" lon="-2.33313">
        <ele>-11.60000038147</ele>
        <time>2021-08-19T08:48:17.000Z</time>
      </trkpt>
      <trkpt lat="47.34186" lon="-2.33303">
        <ele>-12</ele>
        <time>2021-08-19T08:48:18.000Z</time>
      </trkpt>
      <trkpt lat="47.34189" lon="-2.33294">
        <ele>-12.39999961853</ele>
        <time>2021-08-19T08:48:19.000Z</time>
      </trkpt>
      <trkpt lat="47.34192" lon="-2.33284">
        <ele>-12.800000190735</ele>
        <time>2021-08-19T08:48:20.000Z</time>
      </trkpt>
      <trkpt lat="47.34204" lon="-2.33242">
        <ele>-12.800000190735</ele>
        <time>2021-08-19T08:48:24.000Z</time>
      </trkpt>
      <trkpt lat="47.34229" lon="-2.33168">
        <ele>-12.800000190735</ele>
        <time>2021-08-19T08:48:31.000Z</time>
      </trkpt>
      <trkpt lat="47.34237" lon="-2.33147">
        <ele>-12.800000190735</ele>
        <time>2021-08-19T08:48:33.000Z</time>
      </trkpt>
      <trkpt lat="47.3424" lon="-2.33137">
        <ele>-13.199999809265</ele>
        <time>2021-08-19T08:48:34.000Z</time>
      </trkpt>
      <trkpt lat="47.34243" lon="-2.33127">
        <ele>-13.60000038147</ele>
        <time>2021-08-19T08:48:35.000Z</time>
      </trkpt>
      <trkpt lat="47.34246" lon="-2.33117">
        <ele>-14.39999961853</ele>
        <time>2021-08-19T08:48:36.000Z</time>
      </trkpt>
      <trkpt lat="47.34249" lon="-2.33107">
        <ele>-14.800000190735</ele>
        <time>2021-08-19T08:48:37.000Z</time>
      </trkpt>
      <trkpt lat="47.34253" lon="-2.33091">
        <ele>-14.800000190735</ele>
        <time>2021-08-19T08:48:39.000Z</time>
      </trkpt>
      <trkpt lat="47.34259" lon="-2.33081">
        <ele>-14.800000190735</ele>
        <time>2021-08-19T08:48:42.000Z</time>
      </trkpt>
      <trkpt lat="47.34261" lon="-2.33079">
        <ele>-14.800000190735</ele>
        <time>2021-08-19T08:48:43.000Z</time>
      </trkpt>
      <trkpt lat="47.34266" lon="-2.3307">
        <ele>-14.800000190735</ele>
        <time>2021-08-19T08:48:47.000Z</time>
      </trkpt>
      <trkpt lat="47.34267" lon="-2.33066">
        <ele>-15.199999809265</ele>
        <time>2021-08-19T08:48:48.000Z</time>
      </trkpt>
      <trkpt lat="47.34267" lon="-2.33063">
        <ele>-15.60000038147</ele>
        <time>2021-08-19T08:48:49.000Z</time>
      </trkpt>
      <trkpt lat="47.34268" lon="-2.33058">
        <ele>-16</ele>
        <time>2021-08-19T08:48:50.000Z</time>
      </trkpt>
      <trkpt lat="47.34269" lon="-2.33053">
        <ele>-16.39999961853</ele>
        <time>2021-08-19T08:48:51.000Z</time>
      </trkpt>
      <trkpt lat="47.3427" lon="-2.33047">
        <ele>-16.799999237061</ele>
        <time>2021-08-19T08:48:52.000Z</time>
      </trkpt>
      <trkpt lat="47.3427" lon="-2.33016">
        <ele>-16.799999237061</ele>
        <time>2021-08-19T08:48:57.000Z</time>
      </trkpt>
      <trkpt lat="47.34266" lon="-2.33004">
        <ele>-16.799999237061</ele>
        <time>2021-08-19T08:48:59.000Z</time>
      </trkpt>
      <trkpt lat="47.34259" lon="-2.32986">
        <ele>-16.799999237061</ele>
        <time>2021-08-19T08:49:02.000Z</time>
      </trkpt>
      <trkpt lat="47.3425" lon="-2.32964">
        <ele>-16.799999237061</ele>
        <time>2021-08-19T08:49:07.000Z</time>
      </trkpt>
      <trkpt lat="47.34241" lon="-2.32946">
        <ele>-16.799999237061</ele>
        <time>2021-08-19T08:49:12.000Z</time>
      </trkpt>
      <trkpt lat="47.34233" lon="-2.3293">
        <ele>-16.39999961853</ele>
        <time>2021-08-19T08:49:18.000Z</time>
      </trkpt>
      <trkpt lat="47.34232" lon="-2.32928">
        <ele>-16</ele>
        <time>2021-08-19T08:49:19.000Z</time>
      </trkpt>
      <trkpt lat="47.34231" lon="-2.32925">
        <ele>-15.60000038147</ele>
        <time>2021-08-19T08:49:20.000Z</time>
      </trkpt>
      <trkpt lat="47.3423" lon="-2.32923">
        <ele>-15.199999809265</ele>
        <time>2021-08-19T08:49:21.000Z</time>
      </trkpt>
      <trkpt lat="47.34229" lon="-2.3292">
        <ele>-14.800000190735</ele>
        <time>2021-08-19T08:49:22.000Z</time>
      </trkpt>
      <trkpt lat="47.34226" lon="-2.32915">
        <ele>-14.800000190735</ele>
        <time>2021-08-19T08:49:24.000Z</time>
      </trkpt>
      <trkpt lat="47.34217" lon="-2.32893">
        <ele>-14.199999809265</ele>
        <time>2021-08-19T08:49:29.000Z</time>
      </trkpt>
      <trkpt lat="47.34214" lon="-2.32889">
        <ele>-13.800000190735</ele>
        <time>2021-08-19T08:49:30.000Z</time>
      </trkpt>
      <trkpt lat="47.34211" lon="-2.32884">
        <ele>-13.39999961853</ele>
        <time>2021-08-19T08:49:31.000Z</time>
      </trkpt>
      <trkpt lat="47.34209" lon="-2.3288">
        <ele>-13</ele>
        <time>2021-08-19T08:49:32.000Z</time>
      </trkpt>
      <trkpt lat="47.34206" lon="-2.32876">
        <ele>-12.60000038147</ele>
        <time>2021-08-19T08:49:33.000Z</time>
      </trkpt>
      <trkpt lat="47.34204" lon="-2.32872">
        <ele>-12.60000038147</ele>
        <time>2021-08-19T08:49:34.000Z</time>
      </trkpt>
      <trkpt lat="47.34192" lon="-2.32849">
        <ele>-12.60000038147</ele>
        <time>2021-08-19T08:49:39.000Z</time>
      </trkpt>
      <trkpt lat="47.34179" lon="-2.3281">
        <ele>-12.60000038147</ele>
        <time>2021-08-19T08:49:45.000Z</time>
      </trkpt>
      <trkpt lat="47.34171" lon="-2.32786">
        <ele>-12.199999809265</ele>
        <time>2021-08-19T08:49:50.000Z</time>
      </trkpt>
      <trkpt lat="47.3417" lon="-2.32781">
        <ele>-11.800000190735</ele>
        <time>2021-08-19T08:49:51.000Z</time>
      </trkpt>
      <trkpt lat="47.34169" lon="-2.32775">
        <ele>-11.199999809265</ele>
        <time>2021-08-19T08:49:52.000Z</time>
      </trkpt>
      <trkpt lat="47.34169" lon="-2.3277">
        <ele>-10.800000190735</ele>
        <time>2021-08-19T08:49:53.000Z</time>
      </trkpt>
      <trkpt lat="47.34168" lon="-2.32765">
        <ele>-10.39999961853</ele>
        <time>2021-08-19T08:49:54.000Z</time>
      </trkpt>
      <trkpt lat="47.34164" lon="-2.32735">
        <ele>-10.39999961853</ele>
        <time>2021-08-19T08:49:59.000Z</time>
      </trkpt>
      <trkpt lat="47.34164" lon="-2.32728">
        <ele>-10.39999961853</ele>
        <time>2021-08-19T08:50:00.000Z</time>
      </trkpt>
      <trkpt lat="47.34163" lon="-2.32698">
        <ele>-10.39999961853</ele>
        <time>2021-08-19T08:50:04.000Z</time>
      </trkpt>
      <trkpt lat="47.3416" lon="-2.32652">
        <ele>-10</ele>
        <time>2021-08-19T08:50:10.000Z</time>
      </trkpt>
      <trkpt lat="47.34159" lon="-2.32644">
        <ele>-9.6000003814697</ele>
        <time>2021-08-19T08:50:11.000Z</time>
      </trkpt>
      <trkpt lat="47.34158" lon="-2.32636">
        <ele>-9.1999998092651</ele>
        <time>2021-08-19T08:50:12.000Z</time>
      </trkpt>
      <trkpt lat="47.34158" lon="-2.32628">
        <ele>-8.8000001907349</ele>
        <time>2021-08-19T08:50:13.000Z</time>
      </trkpt>
      <trkpt lat="47.34157" lon="-2.32621">
        <ele>-8.3999996185303</ele>
        <time>2021-08-19T08:50:14.000Z</time>
      </trkpt>
      <trkpt lat="47.34155" lon="-2.32599">
        <ele>-8.3999996185303</ele>
        <time>2021-08-19T08:50:17.000Z</time>
      </trkpt>
      <trkpt lat="47.34155" lon="-2.32588">
        <ele>-8.3999996185303</ele>
        <time>2021-08-19T08:50:20.000Z</time>
      </trkpt>
      <trkpt lat="47.34157" lon="-2.32563">
        <ele>-8.3999996185303</ele>
        <time>2021-08-19T08:50:25.000Z</time>
      </trkpt>
      <trkpt lat="47.34155" lon="-2.32524">
        <ele>-8.3999996185303</ele>
        <time>2021-08-19T08:50:30.000Z</time>
      </trkpt>
      <trkpt lat="47.34148" lon="-2.32473">
        <ele>-8.3999996185303</ele>
        <time>2021-08-19T08:50:36.000Z</time>
      </trkpt>
      <trkpt lat="47.34132" lon="-2.32416">
        <ele>-8.3999996185303</ele>
        <time>2021-08-19T08:50:43.000Z</time>
      </trkpt>
      <trkpt lat="47.34116" lon="-2.32364">
        <ele>-8.8000001907349</ele>
        <time>2021-08-19T08:50:50.000Z</time>
      </trkpt>
      <trkpt lat="47.34115" lon="-2.32358">
        <ele>-9.1999998092651</ele>
        <time>2021-08-19T08:50:51.000Z</time>
      </trkpt>
      <trkpt lat="47.34113" lon="-2.32352">
        <ele>-9.6000003814697</ele>
        <time>2021-08-19T08:50:52.000Z</time>
      </trkpt>
      <trkpt lat="47.34111" lon="-2.32347">
        <ele>-10</ele>
        <time>2021-08-19T08:50:53.000Z</time>
      </trkpt>
      <trkpt lat="47.34111" lon="-2.3234">
        <ele>-10.39999961853</ele>
        <time>2021-08-19T08:50:54.000Z</time>
      </trkpt>
      <trkpt lat="47.3411" lon="-2.32334">
        <ele>-10.39999961853</ele>
        <time>2021-08-19T08:50:55.000Z</time>
      </trkpt>
      <trkpt lat="47.34108" lon="-2.32327">
        <ele>-10.39999961853</ele>
        <time>2021-08-19T08:50:56.000Z</time>
      </trkpt>
      <trkpt lat="47.341" lon="-2.32295">
        <ele>-10.39999961853</ele>
        <time>2021-08-19T08:51:00.000Z</time>
      </trkpt>
      <trkpt lat="47.34093" lon="-2.32269">
        <ele>-10.800000190735</ele>
        <time>2021-08-19T08:51:03.000Z</time>
      </trkpt>
      <trkpt lat="47.3409" lon="-2.3226">
        <ele>-11.199999809265</ele>
        <time>2021-08-19T08:51:04.000Z</time>
      </trkpt>
      <trkpt lat="47.34087" lon="-2.3225">
        <ele>-11.800000190735</ele>
        <time>2021-08-19T08:51:05.000Z</time>
      </trkpt>
      <trkpt lat="47.34084" lon="-2.32241">
        <ele>-12.199999809265</ele>
        <time>2021-08-19T08:51:06.000Z</time>
      </trkpt>
      <trkpt lat="47.34079" lon="-2.32233">
        <ele>-12.60000038147</ele>
        <time>2021-08-19T08:51:07.000Z</time>
      </trkpt>
      <trkpt lat="47.34066" lon="-2.32219">
        <ele>-12.60000038147</ele>
        <time>2021-08-19T08:51:09.000Z</time>
      </trkpt>
      <trkpt lat="47.34045" lon="-2.32212">
        <ele>-13</ele>
        <time>2021-08-19T08:51:12.000Z</time>
      </trkpt>
      <trkpt lat="47.34038" lon="-2.32212">
        <ele>-13.39999961853</ele>
        <time>2021-08-19T08:51:13.000Z</time>
      </trkpt>
      <trkpt lat="47.34031" lon="-2.32212">
        <ele>-13.800000190735</ele>
        <time>2021-08-19T08:51:14.000Z</time>
      </trkpt>
      <trkpt lat="47.34024" lon="-2.32212">
        <ele>-14.199999809265</ele>
        <time>2021-08-19T08:51:15.000Z</time>
      </trkpt>
      <trkpt lat="47.34017" lon="-2.32213">
        <ele>-14.60000038147</ele>
        <time>2021-08-19T08:51:16.000Z</time>
      </trkpt>
      <trkpt lat="47.34002" lon="-2.32214">
        <ele>-14.60000038147</ele>
        <time>2021-08-19T08:51:18.000Z</time>
      </trkpt>
      <trkpt lat="47.33995" lon="-2.32215">
        <ele>-14.60000038147</ele>
        <time>2021-08-19T08:51:19.000Z</time>
      </trkpt>
      <trkpt lat="47.33963" lon="-2.32216">
        <ele>-14.60000038147</ele>
        <time>2021-08-19T08:51:24.000Z</time>
      </trkpt>
      <trkpt lat="47.33957" lon="-2.32214">
        <ele>-14.60000038147</ele>
        <time>2021-08-19T08:51:25.000Z</time>
      </trkpt>
      <trkpt lat="47.33934" lon="-2.32199">
        <ele>-14.60000038147</ele>
        <time>2021-08-19T08:51:29.000Z</time>
      </trkpt>
      <trkpt lat="47.33908" lon="-2.322">
        <ele>-14.60000038147</ele>
        <time>2021-08-19T08:51:33.000Z</time>
      </trkpt>
      <trkpt lat="47.33874" lon="-2.32201">
        <ele>-14.60000038147</ele>
        <time>2021-08-19T08:51:38.000Z</time>
      </trkpt>
      <trkpt lat="47.33828" lon="-2.32206">
        <ele>-14.60000038147</ele>
        <time>2021-08-19T08:51:44.000Z</time>
      </trkpt>
      <trkpt lat="47.33813" lon="-2.32208">
        <ele>-14.60000038147</ele>
        <time>2021-08-19T08:51:46.000Z</time>
      </trkpt>
      <trkpt lat="47.3379" lon="-2.32212">
        <ele>-14.60000038147</ele>
        <time>2021-08-19T08:51:49.000Z</time>
      </trkpt>
      <trkpt lat="47.33741" lon="-2.32227">
        <ele>-14.60000038147</ele>
        <time>2021-08-19T08:51:55.000Z</time>
      </trkpt>
      <trkpt lat="47.33734" lon="-2.32231">
        <ele>-14.199999809265</ele>
        <time>2021-08-19T08:51:56.000Z</time>
      </trkpt>
      <trkpt lat="47.33727" lon="-2.32236">
        <ele>-13.800000190735</ele>
        <time>2021-08-19T08:51:57.000Z</time>
      </trkpt>
      <trkpt lat="47.3372" lon="-2.32241">
        <ele>-13.39999961853</ele>
        <time>2021-08-19T08:51:58.000Z</time>
      </trkpt>
      <trkpt lat="47.33712" lon="-2.32245">
        <ele>-13</ele>
        <time>2021-08-19T08:51:59.000Z</time>
      </trkpt>
      <trkpt lat="47.33705" lon="-2.3225">
        <ele>-12.60000038147</ele>
        <time>2021-08-19T08:52:00.000Z</time>
      </trkpt>
      <trkpt lat="47.33697" lon="-2.32254">
        <ele>-12.60000038147</ele>
        <time>2021-08-19T08:52:01.000Z</time>
      </trkpt>
      <trkpt lat="47.33653" lon="-2.32279">
        <ele>-12.60000038147</ele>
        <time>2021-08-19T08:52:07.000Z</time>
      </trkpt>
      <trkpt lat="47.336" lon="-2.32291">
        <ele>-12.60000038147</ele>
        <time>2021-08-19T08:52:14.000Z</time>
      </trkpt>
      <trkpt lat="47.33554" lon="-2.32302">
        <ele>-12.60000038147</ele>
        <time>2021-08-19T08:52:20.000Z</time>
      </trkpt>
      <trkpt lat="47.33539" lon="-2.32305">
        <ele>-12.60000038147</ele>
        <time>2021-08-19T08:52:22.000Z</time>
      </trkpt>
      <trkpt lat="47.33522" lon="-2.32308">
        <ele>-12.60000038147</ele>
        <time>2021-08-19T08:52:24.000Z</time>
      </trkpt>
      <trkpt lat="47.33505" lon="-2.32315">
        <ele>-12.60000038147</ele>
        <time>2021-08-19T08:52:26.000Z</time>
      </trkpt>
      <trkpt lat="47.33488" lon="-2.32323">
        <ele>-12.60000038147</ele>
        <time>2021-08-19T08:52:28.000Z</time>
      </trkpt>
      <trkpt lat="47.33464" lon="-2.32337">
        <ele>-12.60000038147</ele>
        <time>2021-08-19T08:52:31.000Z</time>
      </trkpt>
      <trkpt lat="47.33457" lon="-2.32341">
        <ele>-13</ele>
        <time>2021-08-19T08:52:32.000Z</time>
      </trkpt>
      <trkpt lat="47.3345" lon="-2.32346">
        <ele>-13.39999961853</ele>
        <time>2021-08-19T08:52:33.000Z</time>
      </trkpt>
      <trkpt lat="47.33443" lon="-2.32351">
        <ele>-13.800000190735</ele>
        <time>2021-08-19T08:52:34.000Z</time>
      </trkpt>
      <trkpt lat="47.33436" lon="-2.32356">
        <ele>-14.199999809265</ele>
        <time>2021-08-19T08:52:35.000Z</time>
      </trkpt>
      <trkpt lat="47.33429" lon="-2.32361">
        <ele>-14.60000038147</ele>
        <time>2021-08-19T08:52:36.000Z</time>
      </trkpt>
      <trkpt lat="47.33405" lon="-2.32384">
        <ele>-14.60000038147</ele>
        <time>2021-08-19T08:52:40.000Z</time>
      </trkpt>
      <trkpt lat="47.33364" lon="-2.32422">
        <ele>-14.60000038147</ele>
        <time>2021-08-19T08:52:47.000Z</time>
      </trkpt>
      <trkpt lat="47.33339" lon="-2.32453">
        <ele>-14.60000038147</ele>
        <time>2021-08-19T08:52:52.000Z</time>
      </trkpt>
      <trkpt lat="47.33317" lon="-2.32463">
        <ele>-14.60000038147</ele>
        <time>2021-08-19T08:52:56.000Z</time>
      </trkpt>
      <trkpt lat="47.33306" lon="-2.32468">
        <ele>-14.60000038147</ele>
        <time>2021-08-19T08:52:58.000Z</time>
      </trkpt>
      <trkpt lat="47.33289" lon="-2.32477">
        <ele>-14.60000038147</ele>
        <time>2021-08-19T08:53:01.000Z</time>
      </trkpt>
      <trkpt lat="47.33251" lon="-2.32494">
        <ele>-14.60000038147</ele>
        <time>2021-08-19T08:53:07.000Z</time>
      </trkpt>
      <trkpt lat="47.33238" lon="-2.325">
        <ele>-14.199999809265</ele>
        <time>2021-08-19T08:53:09.000Z</time>
      </trkpt>
      <trkpt lat="47.33231" lon="-2.32503">
        <ele>-13.800000190735</ele>
        <time>2021-08-19T08:53:10.000Z</time>
      </trkpt>
      <trkpt lat="47.33224" lon="-2.32505">
        <ele>-13.39999961853</ele>
        <time>2021-08-19T08:53:11.000Z</time>
      </trkpt>
      <trkpt lat="47.33218" lon="-2.32509">
        <ele>-13</ele>
        <time>2021-08-19T08:53:12.000Z</time>
      </trkpt>
      <trkpt lat="47.33211" lon="-2.32512">
        <ele>-12.60000038147</ele>
        <time>2021-08-19T08:53:13.000Z</time>
      </trkpt>
      <trkpt lat="47.3317" lon="-2.32531">
        <ele>-12.60000038147</ele>
        <time>2021-08-19T08:53:19.000Z</time>
      </trkpt>
      <trkpt lat="47.33149" lon="-2.32545">
        <ele>-12.60000038147</ele>
        <time>2021-08-19T08:53:22.000Z</time>
      </trkpt>
      <trkpt lat="47.33142" lon="-2.32551">
        <ele>-12.60000038147</ele>
        <time>2021-08-19T08:53:23.000Z</time>
      </trkpt>
      <trkpt lat="47.33093" lon="-2.3259">
        <ele>-12.60000038147</ele>
        <time>2021-08-19T08:53:30.000Z</time>
      </trkpt>
      <trkpt lat="47.33045" lon="-2.32632">
        <ele>-13</ele>
        <time>2021-08-19T08:53:37.000Z</time>
      </trkpt>
      <trkpt lat="47.33038" lon="-2.32638">
        <ele>-13.39999961853</ele>
        <time>2021-08-19T08:53:38.000Z</time>
      </trkpt>
      <trkpt lat="47.33031" lon="-2.32641">
        <ele>-13.800000190735</ele>
        <time>2021-08-19T08:53:39.000Z</time>
      </trkpt>
      <trkpt lat="47.33024" lon="-2.32643">
        <ele>-14.199999809265</ele>
        <time>2021-08-19T08:53:40.000Z</time>
      </trkpt>
      <trkpt lat="47.33017" lon="-2.32642">
        <ele>-14.60000038147</ele>
        <time>2021-08-19T08:53:41.000Z</time>
      </trkpt>
      <trkpt lat="47.33003" lon="-2.32636">
        <ele>-14.60000038147</ele>
        <time>2021-08-19T08:53:43.000Z</time>
      </trkpt>
      <trkpt lat="47.32995" lon="-2.32635">
        <ele>-14.60000038147</ele>
        <time>2021-08-19T08:53:44.000Z</time>
      </trkpt>
      <trkpt lat="47.32982" lon="-2.32639">
        <ele>-14.60000038147</ele>
        <time>2021-08-19T08:53:46.000Z</time>
      </trkpt>
      <trkpt lat="47.32971" lon="-2.32645">
        <ele>-14.60000038147</ele>
        <time>2021-08-19T08:53:48.000Z</time>
      </trkpt>
      <trkpt lat="47.3296" lon="-2.32649">
        <ele>-14.60000038147</ele>
        <time>2021-08-19T08:53:50.000Z</time>
      </trkpt>
      <trkpt lat="47.32942" lon="-2.32653">
        <ele>-14.60000038147</ele>
        <time>2021-08-19T08:53:53.000Z</time>
      </trkpt>
      <trkpt lat="47.32931" lon="-2.32649">
        <ele>-14.60000038147</ele>
        <time>2021-08-19T08:53:55.000Z</time>
      </trkpt>
      <trkpt lat="47.32917" lon="-2.32628">
        <ele>-14.60000038147</ele>
        <time>2021-08-19T08:53:58.000Z</time>
      </trkpt>
      <trkpt lat="47.32915" lon="-2.3261">
        <ele>-14.60000038147</ele>
        <time>2021-08-19T08:54:00.000Z</time>
      </trkpt>
      <trkpt lat="47.32915" lon="-2.32602">
        <ele>-14.60000038147</ele>
        <time>2021-08-19T08:54:01.000Z</time>
      </trkpt>
      <trkpt lat="47.32915" lon="-2.32547">
        <ele>-14.60000038147</ele>
        <time>2021-08-19T08:54:07.000Z</time>
      </trkpt>
      <trkpt lat="47.32909" lon="-2.32511">
        <ele>-14.60000038147</ele>
        <time>2021-08-19T08:54:11.000Z</time>
      </trkpt>
      <trkpt lat="47.32898" lon="-2.32475">
        <ele>-14.60000038147</ele>
        <time>2021-08-19T08:54:15.000Z</time>
      </trkpt>
      <trkpt lat="47.32891" lon="-2.3246">
        <ele>-14.60000038147</ele>
        <time>2021-08-19T08:54:17.000Z</time>
      </trkpt>
      <trkpt lat="47.32866" lon="-2.32443">
        <ele>-14.60000038147</ele>
        <time>2021-08-19T08:54:21.000Z</time>
      </trkpt>
      <trkpt lat="47.32848" lon="-2.3243">
        <ele>-14.60000038147</ele>
        <time>2021-08-19T08:54:24.000Z</time>
      </trkpt>
      <trkpt lat="47.32834" lon="-2.32419">
        <ele>-14.60000038147</ele>
        <time>2021-08-19T08:54:26.000Z</time>
      </trkpt>
      <trkpt lat="47.32794" lon="-2.32381">
        <ele>-14.60000038147</ele>
        <time>2021-08-19T08:54:32.000Z</time>
      </trkpt>
      <trkpt lat="47.32756" lon="-2.32358">
        <ele>-14.60000038147</ele>
        <time>2021-08-19T08:54:37.000Z</time>
      </trkpt>
      <trkpt lat="47.32724" lon="-2.32337">
        <ele>-14.60000038147</ele>
        <time>2021-08-19T08:54:42.000Z</time>
      </trkpt>
      <trkpt lat="47.32711" lon="-2.3233">
        <ele>-14.199999809265</ele>
        <time>2021-08-19T08:54:44.000Z</time>
      </trkpt>
      <trkpt lat="47.32705" lon="-2.32328">
        <ele>-13.800000190735</ele>
        <time>2021-08-19T08:54:45.000Z</time>
      </trkpt>
      <trkpt lat="47.32699" lon="-2.32325">
        <ele>-13</ele>
        <time>2021-08-19T08:54:46.000Z</time>
      </trkpt>
      <trkpt lat="47.32693" lon="-2.32323">
        <ele>-12.39999961853</ele>
        <time>2021-08-19T08:54:47.000Z</time>
      </trkpt>
      <trkpt lat="47.32687" lon="-2.32321">
        <ele>-12.39999961853</ele>
        <time>2021-08-19T08:54:48.000Z</time>
      </trkpt>
      <trkpt lat="47.3265" lon="-2.32311">
        <ele>-12.39999961853</ele>
        <time>2021-08-19T08:54:54.000Z</time>
      </trkpt>
      <trkpt lat="47.32614" lon="-2.32311">
        <ele>-12.39999961853</ele>
        <time>2021-08-19T08:55:00.000Z</time>
      </trkpt>
      <trkpt lat="47.3257" lon="-2.32316">
        <ele>-12.39999961853</ele>
        <time>2021-08-19T08:55:08.000Z</time>
      </trkpt>
      <trkpt lat="47.32552" lon="-2.32317">
        <ele>-12.39999961853</ele>
        <time>2021-08-19T08:55:13.000Z</time>
      </trkpt>
      <trkpt lat="47.32537" lon="-2.32317">
        <ele>-12.39999961853</ele>
        <time>2021-08-19T08:55:19.000Z</time>
      </trkpt>
      <trkpt lat="47.32535" lon="-2.32316">
        <ele>-12.39999961853</ele>
        <time>2021-08-19T08:55:22.000Z</time>
      </trkpt>
      <trkpt lat="47.32535" lon="-2.32315">
        <ele>-12.39999961853</ele>
        <time>2021-08-19T08:56:00.000Z</time>
      </trkpt>
      <trkpt lat="47.32535" lon="-2.32303">
        <ele>-12.39999961853</ele>
        <time>2021-08-19T08:56:04.000Z</time>
      </trkpt>
      <trkpt lat="47.32535" lon="-2.32298">
        <ele>-12.39999961853</ele>
        <time>2021-08-19T08:56:05.000Z</time>
      </trkpt>
      <trkpt lat="47.32537" lon="-2.32284">
        <ele>-12.39999961853</ele>
        <time>2021-08-19T08:56:07.000Z</time>
      </trkpt>
      <trkpt lat="47.32538" lon="-2.32276">
        <ele>-12.39999961853</ele>
        <time>2021-08-19T08:56:08.000Z</time>
      </trkpt>
      <trkpt lat="47.32546" lon="-2.3225">
        <ele>-12.39999961853</ele>
        <time>2021-08-19T08:56:11.000Z</time>
      </trkpt>
      <trkpt lat="47.32549" lon="-2.32241">
        <ele>-12.39999961853</ele>
        <time>2021-08-19T08:56:12.000Z</time>
      </trkpt>
      <trkpt lat="47.32552" lon="-2.3223">
        <ele>-12.800000190735</ele>
        <time>2021-08-19T08:56:13.000Z</time>
      </trkpt>
      <trkpt lat="47.32556" lon="-2.3222">
        <ele>-13.199999809265</ele>
        <time>2021-08-19T08:56:14.000Z</time>
      </trkpt>
      <trkpt lat="47.32559" lon="-2.3221">
        <ele>-13.60000038147</ele>
        <time>2021-08-19T08:56:15.000Z</time>
      </trkpt>
      <trkpt lat="47.32562" lon="-2.32201">
        <ele>-14</ele>
        <time>2021-08-19T08:56:16.000Z</time>
      </trkpt>
      <trkpt lat="47.32565" lon="-2.32191">
        <ele>-14.39999961853</ele>
        <time>2021-08-19T08:56:17.000Z</time>
      </trkpt>
      <trkpt lat="47.32571" lon="-2.32173">
        <ele>-14.39999961853</ele>
        <time>2021-08-19T08:56:19.000Z</time>
      </trkpt>
      <trkpt lat="47.32573" lon="-2.32164">
        <ele>-14.39999961853</ele>
        <time>2021-08-19T08:56:20.000Z</time>
      </trkpt>
      <trkpt lat="47.32581" lon="-2.32134">
        <ele>-14.39999961853</ele>
        <time>2021-08-19T08:56:24.000Z</time>
      </trkpt>
      <trkpt lat="47.32585" lon="-2.32118">
        <ele>-14.39999961853</ele>
        <time>2021-08-19T08:56:26.000Z</time>
      </trkpt>
      <trkpt lat="47.32581" lon="-2.32103">
        <ele>-14.39999961853</ele>
        <time>2021-08-19T08:56:28.000Z</time>
      </trkpt>
      <trkpt lat="47.32577" lon="-2.321">
        <ele>-14</ele>
        <time>2021-08-19T08:56:29.000Z</time>
      </trkpt>
      <trkpt lat="47.32573" lon="-2.32099">
        <ele>-13.60000038147</ele>
        <time>2021-08-19T08:56:30.000Z</time>
      </trkpt>
      <trkpt lat="47.32568" lon="-2.32099">
        <ele>-13</ele>
        <time>2021-08-19T08:56:31.000Z</time>
      </trkpt>
      <trkpt lat="47.32563" lon="-2.32098">
        <ele>-12.60000038147</ele>
        <time>2021-08-19T08:56:32.000Z</time>
      </trkpt>
      <trkpt lat="47.32557" lon="-2.32098">
        <ele>-12</ele>
        <time>2021-08-19T08:56:33.000Z</time>
      </trkpt>
      <trkpt lat="47.32546" lon="-2.32098">
        <ele>-12</ele>
        <time>2021-08-19T08:56:35.000Z</time>
      </trkpt>
      <trkpt lat="47.3252" lon="-2.32099">
        <ele>-11.60000038147</ele>
        <time>2021-08-19T08:56:40.000Z</time>
      </trkpt>
      <trkpt lat="47.32515" lon="-2.32099">
        <ele>-11.199999809265</ele>
        <time>2021-08-19T08:56:41.000Z</time>
      </trkpt>
      <trkpt lat="47.3251" lon="-2.321">
        <ele>-10.800000190735</ele>
        <time>2021-08-19T08:56:42.000Z</time>
      </trkpt>
      <trkpt lat="47.32505" lon="-2.321">
        <ele>-10.39999961853</ele>
        <time>2021-08-19T08:56:43.000Z</time>
      </trkpt>
      <trkpt lat="47.325" lon="-2.32097">
        <ele>-10</ele>
        <time>2021-08-19T08:56:44.000Z</time>
      </trkpt>
      <trkpt lat="47.32498" lon="-2.32091">
        <ele>-10</ele>
        <time>2021-08-19T08:56:45.000Z</time>
      </trkpt>
      <trkpt lat="47.32498" lon="-2.32073">
        <ele>-10</ele>
        <time>2021-08-19T08:56:48.000Z</time>
      </trkpt>
      <trkpt lat="47.32501" lon="-2.32034">
        <ele>-10</ele>
        <time>2021-08-19T08:56:53.000Z</time>
      </trkpt>
      <trkpt lat="47.32504" lon="-2.31982">
        <ele>-10</ele>
        <time>2021-08-19T08:56:59.000Z</time>
      </trkpt>
      <trkpt lat="47.32511" lon="-2.31925">
        <ele>-10</ele>
        <time>2021-08-19T08:57:05.000Z</time>
      </trkpt>
      <trkpt lat="47.32519" lon="-2.31853">
        <ele>-10</ele>
        <time>2021-08-19T08:57:12.000Z</time>
      </trkpt>
      <trkpt lat="47.32518" lon="-2.31802">
        <ele>-10</ele>
        <time>2021-08-19T08:57:17.000Z</time>
      </trkpt>
      <trkpt lat="47.32513" lon="-2.31726">
        <ele>-10</ele>
        <time>2021-08-19T08:57:25.000Z</time>
      </trkpt>
      <trkpt lat="47.3251" lon="-2.31668">
        <ele>-10</ele>
        <time>2021-08-19T08:57:31.000Z</time>
      </trkpt>
      <trkpt lat="47.32511" lon="-2.31658">
        <ele>-10</ele>
        <time>2021-08-19T08:57:32.000Z</time>
      </trkpt>
      <trkpt lat="47.32516" lon="-2.31644">
        <ele>-10</ele>
        <time>2021-08-19T08:57:34.000Z</time>
      </trkpt>
      <trkpt lat="47.32525" lon="-2.3163">
        <ele>-10</ele>
        <time>2021-08-19T08:57:36.000Z</time>
      </trkpt>
      <trkpt lat="47.32535" lon="-2.31616">
        <ele>-10</ele>
        <time>2021-08-19T08:57:38.000Z</time>
      </trkpt>
      <trkpt lat="47.32554" lon="-2.31589">
        <ele>-10</ele>
        <time>2021-08-19T08:57:42.000Z</time>
      </trkpt>
      <trkpt lat="47.32556" lon="-2.31582">
        <ele>-10</ele>
        <time>2021-08-19T08:57:43.000Z</time>
      </trkpt>
      <trkpt lat="47.32556" lon="-2.31557">
        <ele>-10</ele>
        <time>2021-08-19T08:57:46.000Z</time>
      </trkpt>
      <trkpt lat="47.32556" lon="-2.31549">
        <ele>-10</ele>
        <time>2021-08-19T08:57:47.000Z</time>
      </trkpt>
      <trkpt lat="47.32558" lon="-2.31491">
        <ele>-10</ele>
        <time>2021-08-19T08:57:53.000Z</time>
      </trkpt>
      <trkpt lat="47.32557" lon="-2.31463">
        <ele>-10</ele>
        <time>2021-08-19T08:57:56.000Z</time>
      </trkpt>
      <trkpt lat="47.32556" lon="-2.31454">
        <ele>-10</ele>
        <time>2021-08-19T08:57:57.000Z</time>
      </trkpt>
      <trkpt lat="47.3255" lon="-2.31412">
        <ele>-10</ele>
        <time>2021-08-19T08:58:03.000Z</time>
      </trkpt>
      <trkpt lat="47.32554" lon="-2.31393">
        <ele>-10</ele>
        <time>2021-08-19T08:58:07.000Z</time>
      </trkpt>
      <trkpt lat="47.32554" lon="-2.31386">
        <ele>-10</ele>
        <time>2021-08-19T08:58:08.000Z</time>
      </trkpt>
      <trkpt lat="47.32556" lon="-2.31357">
        <ele>-10</ele>
        <time>2021-08-19T08:58:12.000Z</time>
      </trkpt>
      <trkpt lat="47.32559" lon="-2.31334">
        <ele>-10</ele>
        <time>2021-08-19T08:58:15.000Z</time>
      </trkpt>
      <trkpt lat="47.32565" lon="-2.31321">
        <ele>-10</ele>
        <time>2021-08-19T08:58:17.000Z</time>
      </trkpt>
      <trkpt lat="47.32568" lon="-2.31299">
        <ele>-10</ele>
        <time>2021-08-19T08:58:20.000Z</time>
      </trkpt>
      <trkpt lat="47.32569" lon="-2.31291">
        <ele>-10</ele>
        <time>2021-08-19T08:58:21.000Z</time>
      </trkpt>
      <trkpt lat="47.3257" lon="-2.31253">
        <ele>-10</ele>
        <time>2021-08-19T08:58:25.000Z</time>
      </trkpt>
      <trkpt lat="47.32572" lon="-2.31225">
        <ele>-10</ele>
        <time>2021-08-19T08:58:28.000Z</time>
      </trkpt>
      <trkpt lat="47.32567" lon="-2.3121">
        <ele>-10</ele>
        <time>2021-08-19T08:58:30.000Z</time>
      </trkpt>
      <trkpt lat="47.32561" lon="-2.31195">
        <ele>-10</ele>
        <time>2021-08-19T08:58:32.000Z</time>
      </trkpt>
      <trkpt lat="47.32558" lon="-2.31176">
        <ele>-10</ele>
        <time>2021-08-19T08:58:34.000Z</time>
      </trkpt>
      <trkpt lat="47.32561" lon="-2.31148">
        <ele>-10</ele>
        <time>2021-08-19T08:58:37.000Z</time>
      </trkpt>
      <trkpt lat="47.32562" lon="-2.31138">
        <ele>-10</ele>
        <time>2021-08-19T08:58:38.000Z</time>
      </trkpt>
      <trkpt lat="47.32568" lon="-2.31062">
        <ele>-10</ele>
        <time>2021-08-19T08:58:46.000Z</time>
      </trkpt>
      <trkpt lat="47.32568" lon="-2.31053">
        <ele>-10</ele>
        <time>2021-08-19T08:58:47.000Z</time>
      </trkpt>
      <trkpt lat="47.32563" lon="-2.31029">
        <ele>-9.6000003814697</ele>
        <time>2021-08-19T08:58:50.000Z</time>
      </trkpt>
      <trkpt lat="47.32562" lon="-2.31021">
        <ele>-9.1999998092651</ele>
        <time>2021-08-19T08:58:51.000Z</time>
      </trkpt>
      <trkpt lat="47.32561" lon="-2.31014">
        <ele>-8.8000001907349</ele>
        <time>2021-08-19T08:58:52.000Z</time>
      </trkpt>
      <trkpt lat="47.32561" lon="-2.31005">
        <ele>-7.8000001907349</ele>
        <time>2021-08-19T08:58:53.000Z</time>
      </trkpt>
      <trkpt lat="47.3256" lon="-2.30986">
        <ele>-7.8000001907349</ele>
        <time>2021-08-19T08:58:55.000Z</time>
      </trkpt>
      <trkpt lat="47.32564" lon="-2.30916">
        <ele>-7.8000001907349</ele>
        <time>2021-08-19T08:59:02.000Z</time>
      </trkpt>
      <trkpt lat="47.32563" lon="-2.30846">
        <ele>-7.8000001907349</ele>
        <time>2021-08-19T08:59:08.000Z</time>
      </trkpt>
      <trkpt lat="47.32556" lon="-2.30762">
        <ele>-7.8000001907349</ele>
        <time>2021-08-19T08:59:15.000Z</time>
      </trkpt>
      <trkpt lat="47.32549" lon="-2.30716">
        <ele>-7.8000001907349</ele>
        <time>2021-08-19T08:59:19.000Z</time>
      </trkpt>
      <trkpt lat="47.32542" lon="-2.30668">
        <ele>-7.8000001907349</ele>
        <time>2021-08-19T08:59:24.000Z</time>
      </trkpt>
      <trkpt lat="47.32533" lon="-2.30623">
        <ele>-7.8000001907349</ele>
        <time>2021-08-19T08:59:30.000Z</time>
      </trkpt>
      <trkpt lat="47.32529" lon="-2.30596">
        <ele>-7.8000001907349</ele>
        <time>2021-08-19T08:59:33.000Z</time>
      </trkpt>
      <trkpt lat="47.32527" lon="-2.30577">
        <ele>-7.8000001907349</ele>
        <time>2021-08-19T08:59:35.000Z</time>
      </trkpt>
      <trkpt lat="47.32518" lon="-2.30519">
        <ele>-7.8000001907349</ele>
        <time>2021-08-19T08:59:41.000Z</time>
      </trkpt>
      <trkpt lat="47.32507" lon="-2.30463">
        <ele>-7.8000001907349</ele>
        <time>2021-08-19T08:59:47.000Z</time>
      </trkpt>
      <trkpt lat="47.32499" lon="-2.30425">
        <ele>-7.8000001907349</ele>
        <time>2021-08-19T08:59:52.000Z</time>
      </trkpt>
      <trkpt lat="47.325" lon="-2.3042">
        <ele>-7.8000001907349</ele>
        <time>2021-08-19T08:59:53.000Z</time>
      </trkpt>
      <trkpt lat="47.32508" lon="-2.30413">
        <ele>-7.8000001907349</ele>
        <time>2021-08-19T08:59:55.000Z</time>
      </trkpt>
      <trkpt lat="47.3252" lon="-2.30408">
        <ele>-7.8000001907349</ele>
        <time>2021-08-19T08:59:57.000Z</time>
      </trkpt>
      <trkpt lat="47.32536" lon="-2.304">
        <ele>-7.8000001907349</ele>
        <time>2021-08-19T09:00:00.000Z</time>
      </trkpt>
      <trkpt lat="47.3254" lon="-2.30379">
        <ele>-7.8000001907349</ele>
        <time>2021-08-19T09:00:03.000Z</time>
      </trkpt>
      <trkpt lat="47.32538" lon="-2.30365">
        <ele>-7.8000001907349</ele>
        <time>2021-08-19T09:00:05.000Z</time>
      </trkpt>
      <trkpt lat="47.32535" lon="-2.3035">
        <ele>-7.8000001907349</ele>
        <time>2021-08-19T09:00:07.000Z</time>
      </trkpt>
      <trkpt lat="47.32527" lon="-2.30307">
        <ele>-7.8000001907349</ele>
        <time>2021-08-19T09:00:12.000Z</time>
      </trkpt>
      <trkpt lat="47.32525" lon="-2.30298">
        <ele>-7.8000001907349</ele>
        <time>2021-08-19T09:00:13.000Z</time>
      </trkpt>
      <trkpt lat="47.32523" lon="-2.30289">
        <ele>-7.4000000953674</ele>
        <time>2021-08-19T09:00:14.000Z</time>
      </trkpt>
      <trkpt lat="47.32521" lon="-2.3028">
        <ele>-7</ele>
        <time>2021-08-19T09:00:15.000Z</time>
      </trkpt>
      <trkpt lat="47.3252" lon="-2.30271">
        <ele>-6.4000000953674</ele>
        <time>2021-08-19T09:00:16.000Z</time>
      </trkpt>
      <trkpt lat="47.32519" lon="-2.30262">
        <ele>-6</ele>
        <time>2021-08-19T09:00:17.000Z</time>
      </trkpt>
      <trkpt lat="47.32517" lon="-2.30252">
        <ele>-5.5999999046326</ele>
        <time>2021-08-19T09:00:18.000Z</time>
      </trkpt>
      <trkpt lat="47.32509" lon="-2.30195">
        <ele>-5.5999999046326</ele>
        <time>2021-08-19T09:00:24.000Z</time>
      </trkpt>
      <trkpt lat="47.32504" lon="-2.30158">
        <ele>-5.5999999046326</ele>
        <time>2021-08-19T09:00:28.000Z</time>
      </trkpt>
      <trkpt lat="47.32502" lon="-2.30149">
        <ele>-5.5999999046326</ele>
        <time>2021-08-19T09:00:29.000Z</time>
      </trkpt>
      <trkpt lat="47.325" lon="-2.30131">
        <ele>-5.1999998092651</ele>
        <time>2021-08-19T09:00:31.000Z</time>
      </trkpt>
      <trkpt lat="47.32499" lon="-2.30122">
        <ele>-4.4000000953674</ele>
        <time>2021-08-19T09:00:32.000Z</time>
      </trkpt>
      <trkpt lat="47.32497" lon="-2.30114">
        <ele>-4</ele>
        <time>2021-08-19T09:00:33.000Z</time>
      </trkpt>
      <trkpt lat="47.32496" lon="-2.30105">
        <ele>-3.5999999046326</ele>
        <time>2021-08-19T09:00:34.000Z</time>
      </trkpt>
      <trkpt lat="47.32495" lon="-2.30087">
        <ele>-3.5999999046326</ele>
        <time>2021-08-19T09:00:36.000Z</time>
      </trkpt>
      <trkpt lat="47.32488" lon="-2.30047">
        <ele>-3.5999999046326</ele>
        <time>2021-08-19T09:00:41.000Z</time>
      </trkpt>
      <trkpt lat="47.32473" lon="-2.30002">
        <ele>-3.5999999046326</ele>
        <time>2021-08-19T09:00:47.000Z</time>
      </trkpt>
      <trkpt lat="47.3247" lon="-2.29995">
        <ele>-3.5999999046326</ele>
        <time>2021-08-19T09:00:48.000Z</time>
      </trkpt>
      <trkpt lat="47.32458" lon="-2.29975">
        <ele>-3.5999999046326</ele>
        <time>2021-08-19T09:00:51.000Z</time>
      </trkpt>
      <trkpt lat="47.32454" lon="-2.2997">
        <ele>-3.5999999046326</ele>
        <time>2021-08-19T09:00:52.000Z</time>
      </trkpt>
      <trkpt lat="47.32443" lon="-2.29951">
        <ele>-3.5999999046326</ele>
        <time>2021-08-19T09:00:56.000Z</time>
      </trkpt>
      <trkpt lat="47.32443" lon="-2.29942">
        <ele>-3.5999999046326</ele>
        <time>2021-08-19T09:00:58.000Z</time>
      </trkpt>
      <trkpt lat="47.32445" lon="-2.29932">
        <ele>-3.5999999046326</ele>
        <time>2021-08-19T09:01:00.000Z</time>
      </trkpt>
      <trkpt lat="47.32446" lon="-2.29926">
        <ele>-3.5999999046326</ele>
        <time>2021-08-19T09:01:01.000Z</time>
      </trkpt>
      <trkpt lat="47.32445" lon="-2.29904">
        <ele>-3.5999999046326</ele>
        <time>2021-08-19T09:01:04.000Z</time>
      </trkpt>
      <trkpt lat="47.32444" lon="-2.29897">
        <ele>-3.5999999046326</ele>
        <time>2021-08-19T09:01:05.000Z</time>
      </trkpt>
      <trkpt lat="47.32442" lon="-2.29875">
        <ele>-3.5999999046326</ele>
        <time>2021-08-19T09:01:08.000Z</time>
      </trkpt>
      <trkpt lat="47.32443" lon="-2.29863">
        <ele>-3.5999999046326</ele>
        <time>2021-08-19T09:01:10.000Z</time>
      </trkpt>
      <trkpt lat="47.32451" lon="-2.29852">
        <ele>-3.5999999046326</ele>
        <time>2021-08-19T09:01:13.000Z</time>
      </trkpt>
      <trkpt lat="47.32462" lon="-2.29843">
        <ele>-3.5999999046326</ele>
        <time>2021-08-19T09:01:17.000Z</time>
      </trkpt>
      <trkpt lat="47.32465" lon="-2.29841">
        <ele>-3.5999999046326</ele>
        <time>2021-08-19T09:01:18.000Z</time>
      </trkpt>
      <trkpt lat="47.3248" lon="-2.29826">
        <ele>-3.5999999046326</ele>
        <time>2021-08-19T09:01:23.000Z</time>
      </trkpt>
      <trkpt lat="47.32499" lon="-2.29809">
        <ele>-3.5999999046326</ele>
        <time>2021-08-19T09:01:29.000Z</time>
      </trkpt>
      <trkpt lat="47.32521" lon="-2.29784">
        <ele>-3.5999999046326</ele>
        <time>2021-08-19T09:01:37.000Z</time>
      </trkpt>
      <trkpt lat="47.32519" lon="-2.29766">
        <ele>-3.5999999046326</ele>
        <time>2021-08-19T09:01:41.000Z</time>
      </trkpt>
      <trkpt lat="47.32512" lon="-2.29741">
        <ele>-3.5999999046326</ele>
        <time>2021-08-19T09:01:46.000Z</time>
      </trkpt>
      <trkpt lat="47.32504" lon="-2.29705">
        <ele>-3.5999999046326</ele>
        <time>2021-08-19T09:01:53.000Z</time>
      </trkpt>
      <trkpt lat="47.325" lon="-2.2969">
        <ele>-3.5999999046326</ele>
        <time>2021-08-19T09:01:56.000Z</time>
      </trkpt>
      <trkpt lat="47.32495" lon="-2.29671">
        <ele>-3.5999999046326</ele>
        <time>2021-08-19T09:01:59.000Z</time>
      </trkpt>
      <trkpt lat="47.32485" lon="-2.29634">
        <ele>-4</ele>
        <time>2021-08-19T09:02:04.000Z</time>
      </trkpt>
      <trkpt lat="47.32483" lon="-2.29626">
        <ele>-4.4000000953674</ele>
        <time>2021-08-19T09:02:05.000Z</time>
      </trkpt>
      <trkpt lat="47.3248" lon="-2.29618">
        <ele>-4.8000001907349</ele>
        <time>2021-08-19T09:02:06.000Z</time>
      </trkpt>
      <trkpt lat="47.32478" lon="-2.29609">
        <ele>-5.1999998092651</ele>
        <time>2021-08-19T09:02:07.000Z</time>
      </trkpt>
      <trkpt lat="47.32476" lon="-2.296">
        <ele>-5.5999999046326</ele>
        <time>2021-08-19T09:02:08.000Z</time>
      </trkpt>
      <trkpt lat="47.32468" lon="-2.29571">
        <ele>-6.1999998092651</ele>
        <time>2021-08-19T09:02:11.000Z</time>
      </trkpt>
      <trkpt lat="47.32465" lon="-2.2956">
        <ele>-6.5999999046326</ele>
        <time>2021-08-19T09:02:13.000Z</time>
      </trkpt>
      <trkpt lat="47.32462" lon="-2.2955">
        <ele>-7.1999998092651</ele>
        <time>2021-08-19T09:02:14.000Z</time>
      </trkpt>
      <trkpt lat="47.32458" lon="-2.2954">
        <ele>-7.5999999046326</ele>
        <time>2021-08-19T09:02:15.000Z</time>
      </trkpt>
      <trkpt lat="47.32454" lon="-2.2953">
        <ele>-8.1999998092651</ele>
        <time>2021-08-19T09:02:16.000Z</time>
      </trkpt>
      <trkpt lat="47.32447" lon="-2.29508">
        <ele>-8.6000003814697</ele>
        <time>2021-08-19T09:02:18.000Z</time>
      </trkpt>
      <trkpt lat="47.32443" lon="-2.29497">
        <ele>-9</ele>
        <time>2021-08-19T09:02:19.000Z</time>
      </trkpt>
      <trkpt lat="47.32439" lon="-2.29485">
        <ele>-9.3999996185303</ele>
        <time>2021-08-19T09:02:20.000Z</time>
      </trkpt>
      <trkpt lat="47.32436" lon="-2.29473">
        <ele>-9.8000001907349</ele>
        <time>2021-08-19T09:02:21.000Z</time>
      </trkpt>
      <trkpt lat="47.32434" lon="-2.29462">
        <ele>-10.199999809265</ele>
        <time>2021-08-19T09:02:22.000Z</time>
      </trkpt>
      <trkpt lat="47.32432" lon="-2.29451">
        <ele>-10.199999809265</ele>
        <time>2021-08-19T09:02:23.000Z</time>
      </trkpt>
      <trkpt lat="47.32432" lon="-2.29439">
        <ele>-10.199999809265</ele>
        <time>2021-08-19T09:02:24.000Z</time>
      </trkpt>
      <trkpt lat="47.32432" lon="-2.29428">
        <ele>-10.800000190735</ele>
        <time>2021-08-19T09:02:25.000Z</time>
      </trkpt>
      <trkpt lat="47.32431" lon="-2.29416">
        <ele>-11.199999809265</ele>
        <time>2021-08-19T09:02:26.000Z</time>
      </trkpt>
      <trkpt lat="47.32429" lon="-2.29405">
        <ele>-11.800000190735</ele>
        <time>2021-08-19T09:02:27.000Z</time>
      </trkpt>
      <trkpt lat="47.32427" lon="-2.29393">
        <ele>-12.199999809265</ele>
        <time>2021-08-19T09:02:28.000Z</time>
      </trkpt>
      <trkpt lat="47.32424" lon="-2.29382">
        <ele>-12.60000038147</ele>
        <time>2021-08-19T09:02:29.000Z</time>
      </trkpt>
      <trkpt lat="47.32419" lon="-2.29347">
        <ele>-12.60000038147</ele>
        <time>2021-08-19T09:02:32.000Z</time>
      </trkpt>
      <trkpt lat="47.32418" lon="-2.29336">
        <ele>-13</ele>
        <time>2021-08-19T09:02:33.000Z</time>
      </trkpt>
      <trkpt lat="47.32417" lon="-2.29325">
        <ele>-13.60000038147</ele>
        <time>2021-08-19T09:02:34.000Z</time>
      </trkpt>
      <trkpt lat="47.32416" lon="-2.29313">
        <ele>-14</ele>
        <time>2021-08-19T09:02:35.000Z</time>
      </trkpt>
      <trkpt lat="47.32414" lon="-2.29304">
        <ele>-14.800000190735</ele>
        <time>2021-08-19T09:02:36.000Z</time>
      </trkpt>
      <trkpt lat="47.32412" lon="-2.29292">
        <ele>-14.800000190735</ele>
        <time>2021-08-19T09:02:38.000Z</time>
      </trkpt>
      <trkpt lat="47.32409" lon="-2.29281">
        <ele>-15.199999809265</ele>
        <time>2021-08-19T09:02:42.000Z</time>
      </trkpt>
      <trkpt lat="47.32408" lon="-2.29279">
        <ele>-15.60000038147</ele>
        <time>2021-08-19T09:02:43.000Z</time>
      </trkpt>
      <trkpt lat="47.32407" lon="-2.29276">
        <ele>-16</ele>
        <time>2021-08-19T09:02:44.000Z</time>
      </trkpt>
      <trkpt lat="47.32407" lon="-2.29274">
        <ele>-16.39999961853</ele>
        <time>2021-08-19T09:02:45.000Z</time>
      </trkpt>
      <trkpt lat="47.32406" lon="-2.29271">
        <ele>-16.799999237061</ele>
        <time>2021-08-19T09:02:46.000Z</time>
      </trkpt>
      <trkpt lat="47.32404" lon="-2.29267">
        <ele>-16.799999237061</ele>
        <time>2021-08-19T09:02:48.000Z</time>
      </trkpt>
      <trkpt lat="47.32395" lon="-2.2926">
        <ele>-16.799999237061</ele>
        <time>2021-08-19T09:02:54.000Z</time>
      </trkpt>
      <trkpt lat="47.32382" lon="-2.29254">
        <ele>-16.799999237061</ele>
        <time>2021-08-19T09:02:58.000Z</time>
      </trkpt>
      <trkpt lat="47.32357" lon="-2.29242">
        <ele>-16.799999237061</ele>
        <time>2021-08-19T09:03:03.000Z</time>
      </trkpt>
      <trkpt lat="47.32315" lon="-2.2922">
        <ele>-16.799999237061</ele>
        <time>2021-08-19T09:03:11.000Z</time>
      </trkpt>
      <trkpt lat="47.32291" lon="-2.29219">
        <ele>-16.799999237061</ele>
        <time>2021-08-19T09:03:15.000Z</time>
      </trkpt>
      <trkpt lat="47.32285" lon="-2.29221">
        <ele>-16.799999237061</ele>
        <time>2021-08-19T09:03:16.000Z</time>
      </trkpt>
      <trkpt lat="47.32256" lon="-2.29225">
        <ele>-16.799999237061</ele>
        <time>2021-08-19T09:03:21.000Z</time>
      </trkpt>
      <trkpt lat="47.32251" lon="-2.29225">
        <ele>-16.799999237061</ele>
        <time>2021-08-19T09:03:22.000Z</time>
      </trkpt>
      <trkpt lat="47.3224" lon="-2.29211">
        <ele>-16.799999237061</ele>
        <time>2021-08-19T09:03:25.000Z</time>
      </trkpt>
      <trkpt lat="47.32236" lon="-2.29204">
        <ele>-16.799999237061</ele>
        <time>2021-08-19T09:03:26.000Z</time>
      </trkpt>
      <trkpt lat="47.32215" lon="-2.29169">
        <ele>-16.799999237061</ele>
        <time>2021-08-19T09:03:31.000Z</time>
      </trkpt>
      <trkpt lat="47.32192" lon="-2.29142">
        <ele>-16.799999237061</ele>
        <time>2021-08-19T09:03:36.000Z</time>
      </trkpt>
      <trkpt lat="47.32174" lon="-2.29125">
        <ele>-16.39999961853</ele>
        <time>2021-08-19T09:03:40.000Z</time>
      </trkpt>
      <trkpt lat="47.32169" lon="-2.29121">
        <ele>-16</ele>
        <time>2021-08-19T09:03:41.000Z</time>
      </trkpt>
      <trkpt lat="47.32165" lon="-2.29116">
        <ele>-15.60000038147</ele>
        <time>2021-08-19T09:03:42.000Z</time>
      </trkpt>
      <trkpt lat="47.3216" lon="-2.29111">
        <ele>-15.199999809265</ele>
        <time>2021-08-19T09:03:43.000Z</time>
      </trkpt>
      <trkpt lat="47.32156" lon="-2.29106">
        <ele>-14.800000190735</ele>
        <time>2021-08-19T09:03:44.000Z</time>
      </trkpt>
      <trkpt lat="47.32153" lon="-2.29101">
        <ele>-14.800000190735</ele>
        <time>2021-08-19T09:03:45.000Z</time>
      </trkpt>
      <trkpt lat="47.32146" lon="-2.29087">
        <ele>-14.800000190735</ele>
        <time>2021-08-19T09:03:47.000Z</time>
      </trkpt>
      <trkpt lat="47.32131" lon="-2.29046">
        <ele>-14.800000190735</ele>
        <time>2021-08-19T09:03:52.000Z</time>
      </trkpt>
      <trkpt lat="47.32115" lon="-2.29002">
        <ele>-14.800000190735</ele>
        <time>2021-08-19T09:03:57.000Z</time>
      </trkpt>
      <trkpt lat="47.32097" lon="-2.28971">
        <ele>-14.800000190735</ele>
        <time>2021-08-19T09:04:01.000Z</time>
      </trkpt>
      <trkpt lat="47.3209" lon="-2.28966">
        <ele>-14.800000190735</ele>
        <time>2021-08-19T09:04:02.000Z</time>
      </trkpt>
      <trkpt lat="47.32056" lon="-2.28941">
        <ele>-14.800000190735</ele>
        <time>2021-08-19T09:04:07.000Z</time>
      </trkpt>
      <trkpt lat="47.32052" lon="-2.28933">
        <ele>-15.199999809265</ele>
        <time>2021-08-19T09:04:08.000Z</time>
      </trkpt>
      <trkpt lat="47.32049" lon="-2.28924">
        <ele>-15.60000038147</ele>
        <time>2021-08-19T09:04:09.000Z</time>
      </trkpt>
      <trkpt lat="47.32047" lon="-2.28915">
        <ele>-16</ele>
        <time>2021-08-19T09:04:10.000Z</time>
      </trkpt>
      <trkpt lat="47.32046" lon="-2.28905">
        <ele>-16.60000038147</ele>
        <time>2021-08-19T09:04:11.000Z</time>
      </trkpt>
      <trkpt lat="47.32045" lon="-2.28897">
        <ele>-17</ele>
        <time>2021-08-19T09:04:12.000Z</time>
      </trkpt>
      <trkpt lat="47.32043" lon="-2.28889">
        <ele>-17</ele>
        <time>2021-08-19T09:04:13.000Z</time>
      </trkpt>
      <trkpt lat="47.32041" lon="-2.28882">
        <ele>-17</ele>
        <time>2021-08-19T09:04:14.000Z</time>
      </trkpt>
      <trkpt lat="47.3203" lon="-2.28871">
        <ele>-17</ele>
        <time>2021-08-19T09:04:17.000Z</time>
      </trkpt>
      <trkpt lat="47.32016" lon="-2.28878">
        <ele>-17</ele>
        <time>2021-08-19T09:04:20.000Z</time>
      </trkpt>
      <trkpt lat="47.31982" lon="-2.28889">
        <ele>-17</ele>
        <time>2021-08-19T09:04:26.000Z</time>
      </trkpt>
      <trkpt lat="47.31964" lon="-2.28893">
        <ele>-17</ele>
        <time>2021-08-19T09:04:29.000Z</time>
      </trkpt>
      <trkpt lat="47.31948" lon="-2.28899">
        <ele>-17</ele>
        <time>2021-08-19T09:04:32.000Z</time>
      </trkpt>
      <trkpt lat="47.31944" lon="-2.28901">
        <ele>-17</ele>
        <time>2021-08-19T09:04:33.000Z</time>
      </trkpt>
      <trkpt lat="47.31932" lon="-2.28911">
        <ele>-17</ele>
        <time>2021-08-19T09:04:36.000Z</time>
      </trkpt>
      <trkpt lat="47.31912" lon="-2.28933">
        <ele>-17</ele>
        <time>2021-08-19T09:04:41.000Z</time>
      </trkpt>
      <trkpt lat="47.31908" lon="-2.28936">
        <ele>-17</ele>
        <time>2021-08-19T09:04:42.000Z</time>
      </trkpt>
      <trkpt lat="47.31894" lon="-2.2894">
        <ele>-17</ele>
        <time>2021-08-19T09:04:45.000Z</time>
      </trkpt>
      <trkpt lat="47.31889" lon="-2.28941">
        <ele>-17</ele>
        <time>2021-08-19T09:04:46.000Z</time>
      </trkpt>
      <trkpt lat="47.3187" lon="-2.28944">
        <ele>-17</ele>
        <time>2021-08-19T09:04:50.000Z</time>
      </trkpt>
      <trkpt lat="47.31866" lon="-2.28948">
        <ele>-17</ele>
        <time>2021-08-19T09:04:51.000Z</time>
      </trkpt>
      <trkpt lat="47.31861" lon="-2.28966">
        <ele>-17</ele>
        <time>2021-08-19T09:04:54.000Z</time>
      </trkpt>
      <trkpt lat="47.31859" lon="-2.28979">
        <ele>-17</ele>
        <time>2021-08-19T09:04:56.000Z</time>
      </trkpt>
      <trkpt lat="47.31857" lon="-2.29003">
        <ele>-17</ele>
        <time>2021-08-19T09:04:59.000Z</time>
      </trkpt>
      <trkpt lat="47.31847" lon="-2.29048">
        <ele>-16.60000038147</ele>
        <time>2021-08-19T09:05:04.000Z</time>
      </trkpt>
      <trkpt lat="47.31845" lon="-2.29057">
        <ele>-15.60000038147</ele>
        <time>2021-08-19T09:05:05.000Z</time>
      </trkpt>
      <trkpt lat="47.31843" lon="-2.29065">
        <ele>-15.199999809265</ele>
        <time>2021-08-19T09:05:06.000Z</time>
      </trkpt>
      <trkpt lat="47.31841" lon="-2.29074">
        <ele>-14.800000190735</ele>
        <time>2021-08-19T09:05:07.000Z</time>
      </trkpt>
      <trkpt lat="47.31835" lon="-2.29101">
        <ele>-14.800000190735</ele>
        <time>2021-08-19T09:05:10.000Z</time>
      </trkpt>
      <trkpt lat="47.31828" lon="-2.2914">
        <ele>-14.800000190735</ele>
        <time>2021-08-19T09:05:15.000Z</time>
      </trkpt>
      <trkpt lat="47.31827" lon="-2.29148">
        <ele>-14.800000190735</ele>
        <time>2021-08-19T09:05:16.000Z</time>
      </trkpt>
      <trkpt lat="47.31825" lon="-2.29169">
        <ele>-14.800000190735</ele>
        <time>2021-08-19T09:05:19.000Z</time>
      </trkpt>
      <trkpt lat="47.31825" lon="-2.29176">
        <ele>-14.39999961853</ele>
        <time>2021-08-19T09:05:20.000Z</time>
      </trkpt>
      <trkpt lat="47.31824" lon="-2.29183">
        <ele>-14</ele>
        <time>2021-08-19T09:05:21.000Z</time>
      </trkpt>
      <trkpt lat="47.31824" lon="-2.29192">
        <ele>-13.60000038147</ele>
        <time>2021-08-19T09:05:22.000Z</time>
      </trkpt>
      <trkpt lat="47.31824" lon="-2.292">
        <ele>-13.199999809265</ele>
        <time>2021-08-19T09:05:23.000Z</time>
      </trkpt>
      <trkpt lat="47.31824" lon="-2.29209">
        <ele>-12.800000190735</ele>
        <time>2021-08-19T09:05:24.000Z</time>
      </trkpt>
      <trkpt lat="47.31823" lon="-2.29225">
        <ele>-12.800000190735</ele>
        <time>2021-08-19T09:05:26.000Z</time>
      </trkpt>
      <trkpt lat="47.31827" lon="-2.29249">
        <ele>-12.39999961853</ele>
        <time>2021-08-19T09:05:29.000Z</time>
      </trkpt>
      <trkpt lat="47.31828" lon="-2.29258">
        <ele>-11.39999961853</ele>
        <time>2021-08-19T09:05:30.000Z</time>
      </trkpt>
      <trkpt lat="47.31829" lon="-2.29266">
        <ele>-11</ele>
        <time>2021-08-19T09:05:31.000Z</time>
      </trkpt>
      <trkpt lat="47.3183" lon="-2.29274">
        <ele>-10.39999961853</ele>
        <time>2021-08-19T09:05:32.000Z</time>
      </trkpt>
      <trkpt lat="47.31834" lon="-2.29315">
        <ele>-10</ele>
        <time>2021-08-19T09:05:37.000Z</time>
      </trkpt>
      <trkpt lat="47.31834" lon="-2.29324">
        <ele>-9.6000003814697</ele>
        <time>2021-08-19T09:05:38.000Z</time>
      </trkpt>
      <trkpt lat="47.31835" lon="-2.29332">
        <ele>-9.1999998092651</ele>
        <time>2021-08-19T09:05:39.000Z</time>
      </trkpt>
      <trkpt lat="47.31837" lon="-2.2934">
        <ele>-8.8000001907349</ele>
        <time>2021-08-19T09:05:40.000Z</time>
      </trkpt>
      <trkpt lat="47.31838" lon="-2.29347">
        <ele>-8.3999996185303</ele>
        <time>2021-08-19T09:05:41.000Z</time>
      </trkpt>
      <trkpt lat="47.31845" lon="-2.29379">
        <ele>-8.3999996185303</ele>
        <time>2021-08-19T09:05:45.000Z</time>
      </trkpt>
      <trkpt lat="47.31851" lon="-2.29435">
        <ele>-8.3999996185303</ele>
        <time>2021-08-19T09:05:52.000Z</time>
      </trkpt>
      <trkpt lat="47.31849" lon="-2.29482">
        <ele>-8.3999996185303</ele>
        <time>2021-08-19T09:05:58.000Z</time>
      </trkpt>
      <trkpt lat="47.31851" lon="-2.295">
        <ele>-8</ele>
        <time>2021-08-19T09:06:00.000Z</time>
      </trkpt>
      <trkpt lat="47.31853" lon="-2.29508">
        <ele>-7.5999999046326</ele>
        <time>2021-08-19T09:06:01.000Z</time>
      </trkpt>
      <trkpt lat="47.31855" lon="-2.29518">
        <ele>-7.1999998092651</ele>
        <time>2021-08-19T09:06:02.000Z</time>
      </trkpt>
      <trkpt lat="47.31857" lon="-2.29526">
        <ele>-6.8000001907349</ele>
        <time>2021-08-19T09:06:03.000Z</time>
      </trkpt>
      <trkpt lat="47.3186" lon="-2.29534">
        <ele>-6.4000000953674</ele>
        <time>2021-08-19T09:06:04.000Z</time>
      </trkpt>
      <trkpt lat="47.31871" lon="-2.29572">
        <ele>-6.4000000953674</ele>
        <time>2021-08-19T09:06:09.000Z</time>
      </trkpt>
      <trkpt lat="47.31874" lon="-2.29588">
        <ele>-6.4000000953674</ele>
        <time>2021-08-19T09:06:11.000Z</time>
      </trkpt>
      <trkpt lat="47.31872" lon="-2.29608">
        <ele>-6.4000000953674</ele>
        <time>2021-08-19T09:06:14.000Z</time>
      </trkpt>
      <trkpt lat="47.31862" lon="-2.29622">
        <ele>-6.4000000953674</ele>
        <time>2021-08-19T09:06:17.000Z</time>
      </trkpt>
      <trkpt lat="47.31858" lon="-2.29627">
        <ele>-6.4000000953674</ele>
        <time>2021-08-19T09:06:18.000Z</time>
      </trkpt>
      <trkpt lat="47.31837" lon="-2.29639">
        <ele>-6.4000000953674</ele>
        <time>2021-08-19T09:06:22.000Z</time>
      </trkpt>
      <trkpt lat="47.31826" lon="-2.29644">
        <ele>-6.4000000953674</ele>
        <time>2021-08-19T09:06:24.000Z</time>
      </trkpt>
      <trkpt lat="47.31816" lon="-2.29651">
        <ele>-6.4000000953674</ele>
        <time>2021-08-19T09:06:26.000Z</time>
      </trkpt>
      <trkpt lat="47.3181" lon="-2.29655">
        <ele>-6.4000000953674</ele>
        <time>2021-08-19T09:06:27.000Z</time>
      </trkpt>
      <trkpt lat="47.31771" lon="-2.29682">
        <ele>-6.4000000953674</ele>
        <time>2021-08-19T09:06:34.000Z</time>
      </trkpt>
      <trkpt lat="47.3173" lon="-2.29712">
        <ele>-6.4000000953674</ele>
        <time>2021-08-19T09:06:42.000Z</time>
      </trkpt>
      <trkpt lat="47.31711" lon="-2.29728">
        <ele>-5.8000001907349</ele>
        <time>2021-08-19T09:06:46.000Z</time>
      </trkpt>
      <trkpt lat="47.31707" lon="-2.29731">
        <ele>-5.4000000953674</ele>
        <time>2021-08-19T09:06:47.000Z</time>
      </trkpt>
      <trkpt lat="47.31702" lon="-2.29734">
        <ele>-5</ele>
        <time>2021-08-19T09:06:48.000Z</time>
      </trkpt>
      <trkpt lat="47.31697" lon="-2.29736">
        <ele>-4.5999999046326</ele>
        <time>2021-08-19T09:06:49.000Z</time>
      </trkpt>
      <trkpt lat="47.31693" lon="-2.29737">
        <ele>-4.1999998092651</ele>
        <time>2021-08-19T09:06:50.000Z</time>
      </trkpt>
      <trkpt lat="47.31678" lon="-2.29741">
        <ele>-4.1999998092651</ele>
        <time>2021-08-19T09:06:53.000Z</time>
      </trkpt>
      <trkpt lat="47.31673" lon="-2.29741">
        <ele>-4.1999998092651</ele>
        <time>2021-08-19T09:06:54.000Z</time>
      </trkpt>
      <trkpt lat="47.3166" lon="-2.29732">
        <ele>-4.1999998092651</ele>
        <time>2021-08-19T09:06:57.000Z</time>
      </trkpt>
      <trkpt lat="47.3165" lon="-2.29707">
        <ele>-4.1999998092651</ele>
        <time>2021-08-19T09:07:01.000Z</time>
      </trkpt>
      <trkpt lat="47.31635" lon="-2.2966">
        <ele>-4.1999998092651</ele>
        <time>2021-08-19T09:07:07.000Z</time>
      </trkpt>
      <trkpt lat="47.31619" lon="-2.29622">
        <ele>-4.1999998092651</ele>
        <time>2021-08-19T09:07:12.000Z</time>
      </trkpt>
      <trkpt lat="47.31615" lon="-2.29615">
        <ele>-4.1999998092651</ele>
        <time>2021-08-19T09:07:13.000Z</time>
      </trkpt>
      <trkpt lat="47.31597" lon="-2.29602">
        <ele>-4.1999998092651</ele>
        <time>2021-08-19T09:07:16.000Z</time>
      </trkpt>
      <trkpt lat="47.31586" lon="-2.29589">
        <ele>-4.1999998092651</ele>
        <time>2021-08-19T09:07:18.000Z</time>
      </trkpt>
      <trkpt lat="47.3157" lon="-2.29566">
        <ele>-4.1999998092651</ele>
        <time>2021-08-19T09:07:21.000Z</time>
      </trkpt>
      <trkpt lat="47.31553" lon="-2.29531">
        <ele>-4.1999998092651</ele>
        <time>2021-08-19T09:07:25.000Z</time>
      </trkpt>
      <trkpt lat="47.3155" lon="-2.2952">
        <ele>-4.1999998092651</ele>
        <time>2021-08-19T09:07:26.000Z</time>
      </trkpt>
      <trkpt lat="47.31544" lon="-2.29488">
        <ele>-4.1999998092651</ele>
        <time>2021-08-19T09:07:29.000Z</time>
      </trkpt>
      <trkpt lat="47.31541" lon="-2.29478">
        <ele>-4.1999998092651</ele>
        <time>2021-08-19T09:07:30.000Z</time>
      </trkpt>
      <trkpt lat="47.31527" lon="-2.29437">
        <ele>-5</ele>
        <time>2021-08-19T09:07:34.000Z</time>
      </trkpt>
      <trkpt lat="47.31522" lon="-2.29427">
        <ele>-5.5999999046326</ele>
        <time>2021-08-19T09:07:35.000Z</time>
      </trkpt>
      <trkpt lat="47.31518" lon="-2.29418">
        <ele>-6</ele>
        <time>2021-08-19T09:07:36.000Z</time>
      </trkpt>
      <trkpt lat="47.31513" lon="-2.2941">
        <ele>-6.4000000953674</ele>
        <time>2021-08-19T09:07:37.000Z</time>
      </trkpt>
      <trkpt lat="47.31509" lon="-2.29405">
        <ele>-6.4000000953674</ele>
        <time>2021-08-19T09:07:38.000Z</time>
      </trkpt>
      <trkpt lat="47.31504" lon="-2.294">
        <ele>-6.4000000953674</ele>
        <time>2021-08-19T09:07:39.000Z</time>
      </trkpt>
      <trkpt lat="47.31499" lon="-2.29398">
        <ele>-6.8000001907349</ele>
        <time>2021-08-19T09:07:40.000Z</time>
      </trkpt>
      <trkpt lat="47.31494" lon="-2.29398">
        <ele>-7.1999998092651</ele>
        <time>2021-08-19T09:07:41.000Z</time>
      </trkpt>
      <trkpt lat="47.31487" lon="-2.29399">
        <ele>-7.5999999046326</ele>
        <time>2021-08-19T09:07:42.000Z</time>
      </trkpt>
      <trkpt lat="47.31481" lon="-2.29402">
        <ele>-8</ele>
        <time>2021-08-19T09:07:43.000Z</time>
      </trkpt>
      <trkpt lat="47.31475" lon="-2.29404">
        <ele>-8.3999996185303</ele>
        <time>2021-08-19T09:07:44.000Z</time>
      </trkpt>
      <trkpt lat="47.31461" lon="-2.29405">
        <ele>-8.3999996185303</ele>
        <time>2021-08-19T09:07:46.000Z</time>
      </trkpt>
      <trkpt lat="47.31444" lon="-2.29388">
        <ele>-8.3999996185303</ele>
        <time>2021-08-19T09:07:49.000Z</time>
      </trkpt>
      <trkpt lat="47.31434" lon="-2.29371">
        <ele>-8.3999996185303</ele>
        <time>2021-08-19T09:07:51.000Z</time>
      </trkpt>
      <trkpt lat="47.31418" lon="-2.29346">
        <ele>-8.3999996185303</ele>
        <time>2021-08-19T09:07:54.000Z</time>
      </trkpt>
      <trkpt lat="47.31412" lon="-2.29339">
        <ele>-8.3999996185303</ele>
        <time>2021-08-19T09:07:55.000Z</time>
      </trkpt>
      <trkpt lat="47.31388" lon="-2.29325">
        <ele>-8.3999996185303</ele>
        <time>2021-08-19T09:07:58.000Z</time>
      </trkpt>
      <trkpt lat="47.31379" lon="-2.29322">
        <ele>-8.3999996185303</ele>
        <time>2021-08-19T09:07:59.000Z</time>
      </trkpt>
      <trkpt lat="47.31345" lon="-2.29307">
        <ele>-8.8000001907349</ele>
        <time>2021-08-19T09:08:03.000Z</time>
      </trkpt>
      <trkpt lat="47.31337" lon="-2.29304">
        <ele>-9.1999998092651</ele>
        <time>2021-08-19T09:08:04.000Z</time>
      </trkpt>
      <trkpt lat="47.31328" lon="-2.29301">
        <ele>-9.8000001907349</ele>
        <time>2021-08-19T09:08:05.000Z</time>
      </trkpt>
      <trkpt lat="47.3132" lon="-2.29299">
        <ele>-10.199999809265</ele>
        <time>2021-08-19T09:08:06.000Z</time>
      </trkpt>
      <trkpt lat="47.31311" lon="-2.29299">
        <ele>-10.60000038147</ele>
        <time>2021-08-19T09:08:07.000Z</time>
      </trkpt>
      <trkpt lat="47.31304" lon="-2.293">
        <ele>-10.60000038147</ele>
        <time>2021-08-19T09:08:08.000Z</time>
      </trkpt>
      <trkpt lat="47.31285" lon="-2.29315">
        <ele>-11</ele>
        <time>2021-08-19T09:08:11.000Z</time>
      </trkpt>
      <trkpt lat="47.31281" lon="-2.29322">
        <ele>-11.39999961853</ele>
        <time>2021-08-19T09:08:12.000Z</time>
      </trkpt>
      <trkpt lat="47.31277" lon="-2.29328">
        <ele>-11.800000190735</ele>
        <time>2021-08-19T09:08:13.000Z</time>
      </trkpt>
      <trkpt lat="47.31274" lon="-2.29334">
        <ele>-12.39999961853</ele>
        <time>2021-08-19T09:08:14.000Z</time>
      </trkpt>
      <trkpt lat="47.31271" lon="-2.2934">
        <ele>-12.800000190735</ele>
        <time>2021-08-19T09:08:15.000Z</time>
      </trkpt>
      <trkpt lat="47.31268" lon="-2.29342">
        <ele>-12.800000190735</ele>
        <time>2021-08-19T09:08:16.000Z</time>
      </trkpt>
      <trkpt lat="47.31261" lon="-2.29339">
        <ele>-12.800000190735</ele>
        <time>2021-08-19T09:08:18.000Z</time>
      </trkpt>
      <trkpt lat="47.31256" lon="-2.29319">
        <ele>-12.800000190735</ele>
        <time>2021-08-19T09:08:21.000Z</time>
      </trkpt>
      <trkpt lat="47.31254" lon="-2.29311">
        <ele>-12.800000190735</ele>
        <time>2021-08-19T09:08:22.000Z</time>
      </trkpt>
      <trkpt lat="47.31244" lon="-2.29271">
        <ele>-12.800000190735</ele>
        <time>2021-08-19T09:08:26.000Z</time>
      </trkpt>
      <trkpt lat="47.31228" lon="-2.29198">
        <ele>-12.800000190735</ele>
        <time>2021-08-19T09:08:33.000Z</time>
      </trkpt>
      <trkpt lat="47.31214" lon="-2.29139">
        <ele>-12.800000190735</ele>
        <time>2021-08-19T09:08:39.000Z</time>
      </trkpt>
      <trkpt lat="47.31206" lon="-2.29078">
        <ele>-12.800000190735</ele>
        <time>2021-08-19T09:08:45.000Z</time>
      </trkpt>
      <trkpt lat="47.31197" lon="-2.29004">
        <ele>-12.800000190735</ele>
        <time>2021-08-19T09:08:52.000Z</time>
      </trkpt>
      <trkpt lat="47.31188" lon="-2.2894">
        <ele>-13.199999809265</ele>
        <time>2021-08-19T09:08:58.000Z</time>
      </trkpt>
      <trkpt lat="47.31185" lon="-2.2893">
        <ele>-13.60000038147</ele>
        <time>2021-08-19T09:08:59.000Z</time>
      </trkpt>
      <trkpt lat="47.31183" lon="-2.2892">
        <ele>-14</ele>
        <time>2021-08-19T09:09:00.000Z</time>
      </trkpt>
      <trkpt lat="47.3118" lon="-2.2891">
        <ele>-14.39999961853</ele>
        <time>2021-08-19T09:09:01.000Z</time>
      </trkpt>
      <trkpt lat="47.31176" lon="-2.28903">
        <ele>-15</ele>
        <time>2021-08-19T09:09:02.000Z</time>
      </trkpt>
      <trkpt lat="47.3117" lon="-2.28897">
        <ele>-15</ele>
        <time>2021-08-19T09:09:03.000Z</time>
      </trkpt>
      <trkpt lat="47.31159" lon="-2.28897">
        <ele>-15</ele>
        <time>2021-08-19T09:09:05.000Z</time>
      </trkpt>
      <trkpt lat="47.31146" lon="-2.28902">
        <ele>-15</ele>
        <time>2021-08-19T09:09:07.000Z</time>
      </trkpt>
      <trkpt lat="47.31127" lon="-2.28906">
        <ele>-15</ele>
        <time>2021-08-19T09:09:10.000Z</time>
      </trkpt>
      <trkpt lat="47.31112" lon="-2.28892">
        <ele>-15</ele>
        <time>2021-08-19T09:09:13.000Z</time>
      </trkpt>
      <trkpt lat="47.31108" lon="-2.28886">
        <ele>-15</ele>
        <time>2021-08-19T09:09:14.000Z</time>
      </trkpt>
      <trkpt lat="47.31103" lon="-2.28881">
        <ele>-15</ele>
        <time>2021-08-19T09:09:15.000Z</time>
      </trkpt>
      <trkpt lat="47.31093" lon="-2.28873">
        <ele>-15</ele>
        <time>2021-08-19T09:09:17.000Z</time>
      </trkpt>
      <trkpt lat="47.3105" lon="-2.28843">
        <ele>-15</ele>
        <time>2021-08-19T09:09:25.000Z</time>
      </trkpt>
      <trkpt lat="47.31044" lon="-2.28839">
        <ele>-14.60000038147</ele>
        <time>2021-08-19T09:09:26.000Z</time>
      </trkpt>
      <trkpt lat="47.31039" lon="-2.28834">
        <ele>-14.199999809265</ele>
        <time>2021-08-19T09:09:27.000Z</time>
      </trkpt>
      <trkpt lat="47.31033" lon="-2.2883">
        <ele>-13.800000190735</ele>
        <time>2021-08-19T09:09:28.000Z</time>
      </trkpt>
      <trkpt lat="47.31028" lon="-2.28827">
        <ele>-13.39999961853</ele>
        <time>2021-08-19T09:09:29.000Z</time>
      </trkpt>
      <trkpt lat="47.31023" lon="-2.28822">
        <ele>-12.800000190735</ele>
        <time>2021-08-19T09:09:30.000Z</time>
      </trkpt>
      <trkpt lat="47.31014" lon="-2.28813">
        <ele>-12.800000190735</ele>
        <time>2021-08-19T09:09:32.000Z</time>
      </trkpt>
      <trkpt lat="47.31002" lon="-2.28807">
        <ele>-12.800000190735</ele>
        <time>2021-08-19T09:09:34.000Z</time>
      </trkpt>
      <trkpt lat="47.30996" lon="-2.28808">
        <ele>-12.800000190735</ele>
        <time>2021-08-19T09:09:35.000Z</time>
      </trkpt>
      <trkpt lat="47.30968" lon="-2.28819">
        <ele>-12.800000190735</ele>
        <time>2021-08-19T09:09:39.000Z</time>
      </trkpt>
      <trkpt lat="47.30944" lon="-2.28824">
        <ele>-12.800000190735</ele>
        <time>2021-08-19T09:09:42.000Z</time>
      </trkpt>
      <trkpt lat="47.30936" lon="-2.28824">
        <ele>-12.800000190735</ele>
        <time>2021-08-19T09:09:43.000Z</time>
      </trkpt>
      <trkpt lat="47.30898" lon="-2.28824">
        <ele>-13.39999961853</ele>
        <time>2021-08-19T09:09:47.000Z</time>
      </trkpt>
      <trkpt lat="47.30888" lon="-2.28824">
        <ele>-13.800000190735</ele>
        <time>2021-08-19T09:09:48.000Z</time>
      </trkpt>
      <trkpt lat="47.30879" lon="-2.28824">
        <ele>-14.199999809265</ele>
        <time>2021-08-19T09:09:49.000Z</time>
      </trkpt>
      <trkpt lat="47.3087" lon="-2.28824">
        <ele>-14.60000038147</ele>
        <time>2021-08-19T09:09:50.000Z</time>
      </trkpt>
      <trkpt lat="47.30861" lon="-2.28824">
        <ele>-15</ele>
        <time>2021-08-19T09:09:51.000Z</time>
      </trkpt>
      <trkpt lat="47.30844" lon="-2.28823">
        <ele>-15</ele>
        <time>2021-08-19T09:09:53.000Z</time>
      </trkpt>
      <trkpt lat="47.30836" lon="-2.2882">
        <ele>-15</ele>
        <time>2021-08-19T09:09:54.000Z</time>
      </trkpt>
      <trkpt lat="47.30812" lon="-2.28818">
        <ele>-15</ele>
        <time>2021-08-19T09:09:57.000Z</time>
      </trkpt>
      <trkpt lat="47.30783" lon="-2.28821">
        <ele>-15</ele>
        <time>2021-08-19T09:10:01.000Z</time>
      </trkpt>
      <trkpt lat="47.30776" lon="-2.28823">
        <ele>-15</ele>
        <time>2021-08-19T09:10:02.000Z</time>
      </trkpt>
      <trkpt lat="47.30734" lon="-2.28832">
        <ele>-15</ele>
        <time>2021-08-19T09:10:08.000Z</time>
      </trkpt>
      <trkpt lat="47.30714" lon="-2.28838">
        <ele>-15</ele>
        <time>2021-08-19T09:10:11.000Z</time>
      </trkpt>
      <trkpt lat="47.30707" lon="-2.28841">
        <ele>-14.60000038147</ele>
        <time>2021-08-19T09:10:12.000Z</time>
      </trkpt>
      <trkpt lat="47.307" lon="-2.28845">
        <ele>-14</ele>
        <time>2021-08-19T09:10:13.000Z</time>
      </trkpt>
      <trkpt lat="47.30694" lon="-2.2885">
        <ele>-13.60000038147</ele>
        <time>2021-08-19T09:10:14.000Z</time>
      </trkpt>
      <trkpt lat="47.30688" lon="-2.28855">
        <ele>-13.199999809265</ele>
        <time>2021-08-19T09:10:15.000Z</time>
      </trkpt>
      <trkpt lat="47.30682" lon="-2.2886">
        <ele>-12.60000038147</ele>
        <time>2021-08-19T09:10:16.000Z</time>
      </trkpt>
      <trkpt lat="47.30669" lon="-2.28869">
        <ele>-12.60000038147</ele>
        <time>2021-08-19T09:10:18.000Z</time>
      </trkpt>
      <trkpt lat="47.30627" lon="-2.28894">
        <ele>-12.60000038147</ele>
        <time>2021-08-19T09:10:24.000Z</time>
      </trkpt>
      <trkpt lat="47.30577" lon="-2.28928">
        <ele>-13</ele>
        <time>2021-08-19T09:10:31.000Z</time>
      </trkpt>
      <trkpt lat="47.3057" lon="-2.28934">
        <ele>-13.39999961853</ele>
        <time>2021-08-19T09:10:32.000Z</time>
      </trkpt>
      <trkpt lat="47.30563" lon="-2.2894">
        <ele>-13.800000190735</ele>
        <time>2021-08-19T09:10:33.000Z</time>
      </trkpt>
      <trkpt lat="47.30557" lon="-2.28945">
        <ele>-14.199999809265</ele>
        <time>2021-08-19T09:10:34.000Z</time>
      </trkpt>
      <trkpt lat="47.30551" lon="-2.2895">
        <ele>-14.60000038147</ele>
        <time>2021-08-19T09:10:35.000Z</time>
      </trkpt>
      <trkpt lat="47.30539" lon="-2.28959">
        <ele>-14.60000038147</ele>
        <time>2021-08-19T09:10:37.000Z</time>
      </trkpt>
      <trkpt lat="47.30511" lon="-2.28974">
        <ele>-14.60000038147</ele>
        <time>2021-08-19T09:10:41.000Z</time>
      </trkpt>
      <trkpt lat="47.30504" lon="-2.28978">
        <ele>-14.60000038147</ele>
        <time>2021-08-19T09:10:42.000Z</time>
      </trkpt>
      <trkpt lat="47.30493" lon="-2.28988">
        <ele>-15</ele>
        <time>2021-08-19T09:10:44.000Z</time>
      </trkpt>
      <trkpt lat="47.30489" lon="-2.28991">
        <ele>-15.39999961853</ele>
        <time>2021-08-19T09:10:45.000Z</time>
      </trkpt>
      <trkpt lat="47.30484" lon="-2.28991">
        <ele>-15.800000190735</ele>
        <time>2021-08-19T09:10:46.000Z</time>
      </trkpt>
      <trkpt lat="47.3048" lon="-2.28988">
        <ele>-16.200000762939</ele>
        <time>2021-08-19T09:10:47.000Z</time>
      </trkpt>
      <trkpt lat="47.30477" lon="-2.28985">
        <ele>-16.60000038147</ele>
        <time>2021-08-19T09:10:48.000Z</time>
      </trkpt>
      <trkpt lat="47.30471" lon="-2.28978">
        <ele>-16.60000038147</ele>
        <time>2021-08-19T09:10:50.000Z</time>
      </trkpt>
      <trkpt lat="47.30461" lon="-2.28966">
        <ele>-16.60000038147</ele>
        <time>2021-08-19T09:10:54.000Z</time>
      </trkpt>
      <trkpt lat="47.30449" lon="-2.28956">
        <ele>-16.60000038147</ele>
        <time>2021-08-19T09:11:00.000Z</time>
      </trkpt>
      <trkpt lat="47.30449" lon="-2.28955">
        <ele>-16.60000038147</ele>
        <time>2021-08-19T09:11:03.000Z</time>
      </trkpt>
      <trkpt lat="47.30445" lon="-2.28952">
        <ele>-16.60000038147</ele>
        <time>2021-08-19T09:11:41.000Z</time>
      </trkpt>
      <trkpt lat="47.30443" lon="-2.28951">
        <ele>-16.60000038147</ele>
        <time>2021-08-19T09:11:42.000Z</time>
      </trkpt>
      <trkpt lat="47.30434" lon="-2.28947">
        <ele>-16.60000038147</ele>
        <time>2021-08-19T09:11:48.000Z</time>
      </trkpt>
      <trkpt lat="47.30423" lon="-2.28937">
        <ele>-16.60000038147</ele>
        <time>2021-08-19T09:11:54.000Z</time>
      </trkpt>
      <trkpt lat="47.3041" lon="-2.28932">
        <ele>-16.60000038147</ele>
        <time>2021-08-19T09:12:01.000Z</time>
      </trkpt>
      <trkpt lat="47.3039" lon="-2.28922">
        <ele>-16.60000038147</ele>
        <time>2021-08-19T09:12:10.000Z</time>
      </trkpt>
      <trkpt lat="47.3038" lon="-2.28915">
        <ele>-16.60000038147</ele>
        <time>2021-08-19T09:12:17.000Z</time>
      </trkpt>
      <trkpt lat="47.30379" lon="-2.28915">
        <ele>-16.60000038147</ele>
        <time>2021-08-19T09:12:19.000Z</time>
      </trkpt>
      <trkpt lat="47.30377" lon="-2.28914">
        <ele>-16.60000038147</ele>
        <time>2021-08-19T09:12:28.000Z</time>
      </trkpt>
      <trkpt lat="47.30373" lon="-2.28912">
        <ele>-16.60000038147</ele>
        <time>2021-08-19T09:12:30.000Z</time>
      </trkpt>
      <trkpt lat="47.30356" lon="-2.28906">
        <ele>-16.60000038147</ele>
        <time>2021-08-19T09:12:35.000Z</time>
      </trkpt>
      <trkpt lat="47.30329" lon="-2.28905">
        <ele>-16.60000038147</ele>
        <time>2021-08-19T09:12:42.000Z</time>
      </trkpt>
      <trkpt lat="47.30316" lon="-2.28911">
        <ele>-16.200000762939</ele>
        <time>2021-08-19T09:12:46.000Z</time>
      </trkpt>
      <trkpt lat="47.30312" lon="-2.28913">
        <ele>-15.800000190735</ele>
        <time>2021-08-19T09:12:47.000Z</time>
      </trkpt>
      <trkpt lat="47.30308" lon="-2.28914">
        <ele>-15.39999961853</ele>
        <time>2021-08-19T09:12:48.000Z</time>
      </trkpt>
      <trkpt lat="47.30303" lon="-2.28916">
        <ele>-15</ele>
        <time>2021-08-19T09:12:49.000Z</time>
      </trkpt>
      <trkpt lat="47.303" lon="-2.28918">
        <ele>-14.60000038147</ele>
        <time>2021-08-19T09:12:50.000Z</time>
      </trkpt>
      <trkpt lat="47.30279" lon="-2.28924">
        <ele>-14.60000038147</ele>
        <time>2021-08-19T09:12:55.000Z</time>
      </trkpt>
      <trkpt lat="47.30252" lon="-2.28934">
        <ele>-14.60000038147</ele>
        <time>2021-08-19T09:13:01.000Z</time>
      </trkpt>
      <trkpt lat="47.30222" lon="-2.28948">
        <ele>-14.60000038147</ele>
        <time>2021-08-19T09:13:08.000Z</time>
      </trkpt>
      <trkpt lat="47.30207" lon="-2.2896">
        <ele>-14.60000038147</ele>
        <time>2021-08-19T09:13:12.000Z</time>
      </trkpt>
      <trkpt lat="47.30201" lon="-2.28967">
        <ele>-14.60000038147</ele>
        <time>2021-08-19T09:13:14.000Z</time>
      </trkpt>
      <trkpt lat="47.30187" lon="-2.28983">
        <ele>-14.60000038147</ele>
        <time>2021-08-19T09:13:20.000Z</time>
      </trkpt>
      <trkpt lat="47.30175" lon="-2.29007">
        <ele>-14.60000038147</ele>
        <time>2021-08-19T09:13:27.000Z</time>
      </trkpt>
      <trkpt lat="47.30161" lon="-2.29024">
        <ele>-14.199999809265</ele>
        <time>2021-08-19T09:13:32.000Z</time>
      </trkpt>
      <trkpt lat="47.30158" lon="-2.29028">
        <ele>-13.800000190735</ele>
        <time>2021-08-19T09:13:33.000Z</time>
      </trkpt>
      <trkpt lat="47.30155" lon="-2.29032">
        <ele>-13.39999961853</ele>
        <time>2021-08-19T09:13:34.000Z</time>
      </trkpt>
      <trkpt lat="47.30151" lon="-2.29035">
        <ele>-13</ele>
        <time>2021-08-19T09:13:35.000Z</time>
      </trkpt>
      <trkpt lat="47.30147" lon="-2.29039">
        <ele>-12.60000038147</ele>
        <time>2021-08-19T09:13:36.000Z</time>
      </trkpt>
      <trkpt lat="47.30139" lon="-2.29047">
        <ele>-12.60000038147</ele>
        <time>2021-08-19T09:13:38.000Z</time>
      </trkpt>
      <trkpt lat="47.30132" lon="-2.29055">
        <ele>-12.60000038147</ele>
        <time>2021-08-19T09:13:40.000Z</time>
      </trkpt>
      <trkpt lat="47.30116" lon="-2.29071">
        <ele>-12.60000038147</ele>
        <time>2021-08-19T09:13:44.000Z</time>
      </trkpt>
      <trkpt lat="47.30087" lon="-2.29101">
        <ele>-12.60000038147</ele>
        <time>2021-08-19T09:13:51.000Z</time>
      </trkpt>
      <trkpt lat="47.30058" lon="-2.29126">
        <ele>-12.60000038147</ele>
        <time>2021-08-19T09:13:57.000Z</time>
      </trkpt>
      <trkpt lat="47.30053" lon="-2.29127">
        <ele>-13</ele>
        <time>2021-08-19T09:13:58.000Z</time>
      </trkpt>
      <trkpt lat="47.30048" lon="-2.29128">
        <ele>-13.39999961853</ele>
        <time>2021-08-19T09:13:59.000Z</time>
      </trkpt>
      <trkpt lat="47.30043" lon="-2.29127">
        <ele>-13.800000190735</ele>
        <time>2021-08-19T09:14:00.000Z</time>
      </trkpt>
      <trkpt lat="47.30038" lon="-2.29125">
        <ele>-14.199999809265</ele>
        <time>2021-08-19T09:14:01.000Z</time>
      </trkpt>
      <trkpt lat="47.30034" lon="-2.29122">
        <ele>-14.60000038147</ele>
        <time>2021-08-19T09:14:02.000Z</time>
      </trkpt>
      <trkpt lat="47.30029" lon="-2.2912">
        <ele>-14.60000038147</ele>
        <time>2021-08-19T09:14:03.000Z</time>
      </trkpt>
      <trkpt lat="47.30025" lon="-2.29116">
        <ele>-14.60000038147</ele>
        <time>2021-08-19T09:14:04.000Z</time>
      </trkpt>
      <trkpt lat="47.30007" lon="-2.291">
        <ele>-14.60000038147</ele>
        <time>2021-08-19T09:14:08.000Z</time>
      </trkpt>
      <trkpt lat="47.29991" lon="-2.29082">
        <ele>-14.60000038147</ele>
        <time>2021-08-19T09:14:12.000Z</time>
      </trkpt>
      <trkpt lat="47.29986" lon="-2.29072">
        <ele>-14.60000038147</ele>
        <time>2021-08-19T09:14:14.000Z</time>
      </trkpt>
      <trkpt lat="47.29976" lon="-2.29049">
        <ele>-14.60000038147</ele>
        <time>2021-08-19T09:14:19.000Z</time>
      </trkpt>
      <trkpt lat="47.2997" lon="-2.29039">
        <ele>-14.60000038147</ele>
        <time>2021-08-19T09:14:21.000Z</time>
      </trkpt>
      <trkpt lat="47.29956" lon="-2.2902">
        <ele>-14.60000038147</ele>
        <time>2021-08-19T09:14:25.000Z</time>
      </trkpt>
      <trkpt lat="47.29942" lon="-2.28993">
        <ele>-14.60000038147</ele>
        <time>2021-08-19T09:14:30.000Z</time>
      </trkpt>
      <trkpt lat="47.29939" lon="-2.28988">
        <ele>-14.60000038147</ele>
        <time>2021-08-19T09:14:31.000Z</time>
      </trkpt>
      <trkpt lat="47.29929" lon="-2.28974">
        <ele>-14.60000038147</ele>
        <time>2021-08-19T09:14:34.000Z</time>
      </trkpt>
      <trkpt lat="47.29926" lon="-2.28968">
        <ele>-14.60000038147</ele>
        <time>2021-08-19T09:14:35.000Z</time>
      </trkpt>
      <trkpt lat="47.29918" lon="-2.28959">
        <ele>-14.60000038147</ele>
        <time>2021-08-19T09:14:37.000Z</time>
      </trkpt>
      <trkpt lat="47.29902" lon="-2.28953">
        <ele>-14.60000038147</ele>
        <time>2021-08-19T09:14:40.000Z</time>
      </trkpt>
      <trkpt lat="47.29897" lon="-2.28951">
        <ele>-14.60000038147</ele>
        <time>2021-08-19T09:14:41.000Z</time>
      </trkpt>
      <trkpt lat="47.29874" lon="-2.28944">
        <ele>-14.60000038147</ele>
        <time>2021-08-19T09:14:46.000Z</time>
      </trkpt>
      <trkpt lat="47.29872" lon="-2.2894">
        <ele>-14.60000038147</ele>
        <time>2021-08-19T09:14:47.000Z</time>
      </trkpt>
      <trkpt lat="47.29871" lon="-2.28928">
        <ele>-14.60000038147</ele>
        <time>2021-08-19T09:14:50.000Z</time>
      </trkpt>
      <trkpt lat="47.29872" lon="-2.28921">
        <ele>-14.60000038147</ele>
        <time>2021-08-19T09:14:52.000Z</time>
      </trkpt>
      <trkpt lat="47.29873" lon="-2.28905">
        <ele>-14.60000038147</ele>
        <time>2021-08-19T09:14:56.000Z</time>
      </trkpt>
      <trkpt lat="47.29879" lon="-2.28894">
        <ele>-14.60000038147</ele>
        <time>2021-08-19T09:15:00.000Z</time>
      </trkpt>
      <trkpt lat="47.29886" lon="-2.28871">
        <ele>-14.60000038147</ele>
        <time>2021-08-19T09:15:05.000Z</time>
      </trkpt>
      <trkpt lat="47.29887" lon="-2.28859">
        <ele>-14.199999809265</ele>
        <time>2021-08-19T09:15:07.000Z</time>
      </trkpt>
      <trkpt lat="47.29888" lon="-2.28853">
        <ele>-13.800000190735</ele>
        <time>2021-08-19T09:15:08.000Z</time>
      </trkpt>
      <trkpt lat="47.29889" lon="-2.28846">
        <ele>-13.39999961853</ele>
        <time>2021-08-19T09:15:09.000Z</time>
      </trkpt>
      <trkpt lat="47.2989" lon="-2.2884">
        <ele>-13</ele>
        <time>2021-08-19T09:15:10.000Z</time>
      </trkpt>
      <trkpt lat="47.29891" lon="-2.28834">
        <ele>-12.60000038147</ele>
        <time>2021-08-19T09:15:11.000Z</time>
      </trkpt>
      <trkpt lat="47.29892" lon="-2.2882">
        <ele>-12.60000038147</ele>
        <time>2021-08-19T09:15:13.000Z</time>
      </trkpt>
      <trkpt lat="47.29894" lon="-2.288">
        <ele>-12.60000038147</ele>
        <time>2021-08-19T09:15:16.000Z</time>
      </trkpt>
      <trkpt lat="47.29902" lon="-2.2875">
        <ele>-12.60000038147</ele>
        <time>2021-08-19T09:15:23.000Z</time>
      </trkpt>
      <trkpt lat="47.29907" lon="-2.28724">
        <ele>-12.60000038147</ele>
        <time>2021-08-19T09:15:27.000Z</time>
      </trkpt>
      <trkpt lat="47.29909" lon="-2.28719">
        <ele>-12.60000038147</ele>
        <time>2021-08-19T09:15:28.000Z</time>
      </trkpt>
      <trkpt lat="47.29916" lon="-2.28681">
        <ele>-12.60000038147</ele>
        <time>2021-08-19T09:15:34.000Z</time>
      </trkpt>
      <trkpt lat="47.29928" lon="-2.28637">
        <ele>-12.60000038147</ele>
        <time>2021-08-19T09:15:41.000Z</time>
      </trkpt>
      <trkpt lat="47.29929" lon="-2.2863">
        <ele>-12.60000038147</ele>
        <time>2021-08-19T09:15:42.000Z</time>
      </trkpt>
      <trkpt lat="47.29935" lon="-2.28595">
        <ele>-12.60000038147</ele>
        <time>2021-08-19T09:15:47.000Z</time>
      </trkpt>
      <trkpt lat="47.29935" lon="-2.28588">
        <ele>-12.60000038147</ele>
        <time>2021-08-19T09:15:48.000Z</time>
      </trkpt>
      <trkpt lat="47.29935" lon="-2.28576">
        <ele>-12.199999809265</ele>
        <time>2021-08-19T09:15:50.000Z</time>
      </trkpt>
      <trkpt lat="47.29931" lon="-2.28574">
        <ele>-11.800000190735</ele>
        <time>2021-08-19T09:15:51.000Z</time>
      </trkpt>
      <trkpt lat="47.29928" lon="-2.28572">
        <ele>-11.39999961853</ele>
        <time>2021-08-19T09:15:52.000Z</time>
      </trkpt>
      <trkpt lat="47.29926" lon="-2.2857">
        <ele>-11</ele>
        <time>2021-08-19T09:15:53.000Z</time>
      </trkpt>
      <trkpt lat="47.29925" lon="-2.28566">
        <ele>-10.60000038147</ele>
        <time>2021-08-19T09:15:54.000Z</time>
      </trkpt>
      <trkpt lat="47.29923" lon="-2.28558">
        <ele>-10.60000038147</ele>
        <time>2021-08-19T09:15:56.000Z</time>
      </trkpt>
      <trkpt lat="47.29922" lon="-2.28546">
        <ele>-10.60000038147</ele>
        <time>2021-08-19T09:15:59.000Z</time>
      </trkpt>
      <trkpt lat="47.29921" lon="-2.28536">
        <ele>-10.60000038147</ele>
        <time>2021-08-19T09:16:01.000Z</time>
      </trkpt>
      <trkpt lat="47.29924" lon="-2.28514">
        <ele>-10.60000038147</ele>
        <time>2021-08-19T09:16:04.000Z</time>
      </trkpt>
      <trkpt lat="47.29926" lon="-2.28508">
        <ele>-10.60000038147</ele>
        <time>2021-08-19T09:16:05.000Z</time>
      </trkpt>
      <trkpt lat="47.2993" lon="-2.28488">
        <ele>-10.60000038147</ele>
        <time>2021-08-19T09:16:08.000Z</time>
      </trkpt>
      <trkpt lat="47.29929" lon="-2.28475">
        <ele>-10.60000038147</ele>
        <time>2021-08-19T09:16:10.000Z</time>
      </trkpt>
      <trkpt lat="47.29929" lon="-2.28446">
        <ele>-10.60000038147</ele>
        <time>2021-08-19T09:16:15.000Z</time>
      </trkpt>
      <trkpt lat="47.29932" lon="-2.28442">
        <ele>-10.60000038147</ele>
        <time>2021-08-19T09:16:16.000Z</time>
      </trkpt>
      <trkpt lat="47.29937" lon="-2.28429">
        <ele>-10.60000038147</ele>
        <time>2021-08-19T09:16:18.000Z</time>
      </trkpt>
      <trkpt lat="47.29937" lon="-2.28399">
        <ele>-10.60000038147</ele>
        <time>2021-08-19T09:16:22.000Z</time>
      </trkpt>
      <trkpt lat="47.29942" lon="-2.28345">
        <ele>-10.60000038147</ele>
        <time>2021-08-19T09:16:29.000Z</time>
      </trkpt>
      <trkpt lat="47.29943" lon="-2.28329">
        <ele>-10.60000038147</ele>
        <time>2021-08-19T09:16:31.000Z</time>
      </trkpt>
      <trkpt lat="47.29943" lon="-2.28306">
        <ele>-10.60000038147</ele>
        <time>2021-08-19T09:16:34.000Z</time>
      </trkpt>
      <trkpt lat="47.29942" lon="-2.28249">
        <ele>-10.60000038147</ele>
        <time>2021-08-19T09:16:41.000Z</time>
      </trkpt>
      <trkpt lat="47.29938" lon="-2.28214">
        <ele>-10.60000038147</ele>
        <time>2021-08-19T09:16:46.000Z</time>
      </trkpt>
      <trkpt lat="47.29938" lon="-2.28184">
        <ele>-10.60000038147</ele>
        <time>2021-08-19T09:16:51.000Z</time>
      </trkpt>
      <trkpt lat="47.29942" lon="-2.28171">
        <ele>-10.199999809265</ele>
        <time>2021-08-19T09:16:53.000Z</time>
      </trkpt>
      <trkpt lat="47.29943" lon="-2.28164">
        <ele>-9.8000001907349</ele>
        <time>2021-08-19T09:16:54.000Z</time>
      </trkpt>
      <trkpt lat="47.29945" lon="-2.28156">
        <ele>-9.1999998092651</ele>
        <time>2021-08-19T09:16:55.000Z</time>
      </trkpt>
      <trkpt lat="47.29947" lon="-2.2815">
        <ele>-8.8000001907349</ele>
        <time>2021-08-19T09:16:56.000Z</time>
      </trkpt>
      <trkpt lat="47.2995" lon="-2.28141">
        <ele>-8.3999996185303</ele>
        <time>2021-08-19T09:16:57.000Z</time>
      </trkpt>
      <trkpt lat="47.29966" lon="-2.28095">
        <ele>-8.3999996185303</ele>
        <time>2021-08-19T09:17:02.000Z</time>
      </trkpt>
      <trkpt lat="47.2998" lon="-2.28056">
        <ele>-8.3999996185303</ele>
        <time>2021-08-19T09:17:07.000Z</time>
      </trkpt>
      <trkpt lat="47.29985" lon="-2.28044">
        <ele>-8.3999996185303</ele>
        <time>2021-08-19T09:17:09.000Z</time>
      </trkpt>
      <trkpt lat="47.29984" lon="-2.28041">
        <ele>-8.3999996185303</ele>
        <time>2021-08-19T09:17:10.000Z</time>
      </trkpt>
      <trkpt lat="47.29983" lon="-2.2804">
        <ele>-8.3999996185303</ele>
        <time>2021-08-19T09:17:11.000Z</time>
      </trkpt>
      <trkpt lat="47.29975" lon="-2.28042">
        <ele>-8.3999996185303</ele>
        <time>2021-08-19T09:17:14.000Z</time>
      </trkpt>
      <trkpt lat="47.29952" lon="-2.28048">
        <ele>-8.3999996185303</ele>
        <time>2021-08-19T09:17:19.000Z</time>
      </trkpt>
      <trkpt lat="47.29939" lon="-2.28032">
        <ele>-8.3999996185303</ele>
        <time>2021-08-19T09:17:22.000Z</time>
      </trkpt>
      <trkpt lat="47.29933" lon="-2.28017">
        <ele>-8.3999996185303</ele>
        <time>2021-08-19T09:17:24.000Z</time>
      </trkpt>
      <trkpt lat="47.29931" lon="-2.28008">
        <ele>-8.3999996185303</ele>
        <time>2021-08-19T09:17:25.000Z</time>
      </trkpt>
      <trkpt lat="47.29929" lon="-2.27999">
        <ele>-8.3999996185303</ele>
        <time>2021-08-19T09:17:26.000Z</time>
      </trkpt>
      <trkpt lat="47.29928" lon="-2.27962">
        <ele>-8.3999996185303</ele>
        <time>2021-08-19T09:17:30.000Z</time>
      </trkpt>
      <trkpt lat="47.29929" lon="-2.27952">
        <ele>-8.3999996185303</ele>
        <time>2021-08-19T09:17:31.000Z</time>
      </trkpt>
      <trkpt lat="47.29934" lon="-2.27907">
        <ele>-8.3999996185303</ele>
        <time>2021-08-19T09:17:36.000Z</time>
      </trkpt>
      <trkpt lat="47.2994" lon="-2.27844">
        <ele>-8.3999996185303</ele>
        <time>2021-08-19T09:17:43.000Z</time>
      </trkpt>
      <trkpt lat="47.29946" lon="-2.27789">
        <ele>-8.3999996185303</ele>
        <time>2021-08-19T09:17:49.000Z</time>
      </trkpt>
      <trkpt lat="47.29955" lon="-2.27713">
        <ele>-8.3999996185303</ele>
        <time>2021-08-19T09:17:57.000Z</time>
      </trkpt>
      <trkpt lat="47.29962" lon="-2.2763">
        <ele>-8.3999996185303</ele>
        <time>2021-08-19T09:18:06.000Z</time>
      </trkpt>
      <trkpt lat="47.29962" lon="-2.27621">
        <ele>-8.3999996185303</ele>
        <time>2021-08-19T09:18:07.000Z</time>
      </trkpt>
      <trkpt lat="47.29957" lon="-2.27606">
        <ele>-8.3999996185303</ele>
        <time>2021-08-19T09:18:09.000Z</time>
      </trkpt>
      <trkpt lat="47.29952" lon="-2.276">
        <ele>-9</ele>
        <time>2021-08-19T09:18:10.000Z</time>
      </trkpt>
      <trkpt lat="47.29946" lon="-2.27598">
        <ele>-9.3999996185303</ele>
        <time>2021-08-19T09:18:11.000Z</time>
      </trkpt>
      <trkpt lat="47.2994" lon="-2.27597">
        <ele>-9.8000001907349</ele>
        <time>2021-08-19T09:18:12.000Z</time>
      </trkpt>
      <trkpt lat="47.29933" lon="-2.27597">
        <ele>-10.199999809265</ele>
        <time>2021-08-19T09:18:13.000Z</time>
      </trkpt>
      <trkpt lat="47.29927" lon="-2.27599">
        <ele>-10.60000038147</ele>
        <time>2021-08-19T09:18:14.000Z</time>
      </trkpt>
      <trkpt lat="47.29921" lon="-2.276">
        <ele>-10.60000038147</ele>
        <time>2021-08-19T09:18:15.000Z</time>
      </trkpt>
      <trkpt lat="47.29915" lon="-2.27601">
        <ele>-10.60000038147</ele>
        <time>2021-08-19T09:18:16.000Z</time>
      </trkpt>
      <trkpt lat="47.29879" lon="-2.27619">
        <ele>-10.60000038147</ele>
        <time>2021-08-19T09:18:22.000Z</time>
      </trkpt>
      <trkpt lat="47.29866" lon="-2.27624">
        <ele>-10.60000038147</ele>
        <time>2021-08-19T09:18:24.000Z</time>
      </trkpt>
      <trkpt lat="47.29848" lon="-2.27624">
        <ele>-10.60000038147</ele>
        <time>2021-08-19T09:18:27.000Z</time>
      </trkpt>
      <trkpt lat="47.29823" lon="-2.27611">
        <ele>-10.60000038147</ele>
        <time>2021-08-19T09:18:31.000Z</time>
      </trkpt>
      <trkpt lat="47.29817" lon="-2.27607">
        <ele>-10.60000038147</ele>
        <time>2021-08-19T09:18:32.000Z</time>
      </trkpt>
      <trkpt lat="47.29791" lon="-2.27596">
        <ele>-10.60000038147</ele>
        <time>2021-08-19T09:18:36.000Z</time>
      </trkpt>
      <trkpt lat="47.29785" lon="-2.27596">
        <ele>-10.60000038147</ele>
        <time>2021-08-19T09:18:37.000Z</time>
      </trkpt>
      <trkpt lat="47.29761" lon="-2.27601">
        <ele>-10.60000038147</ele>
        <time>2021-08-19T09:18:41.000Z</time>
      </trkpt>
      <trkpt lat="47.29728" lon="-2.27616">
        <ele>-10.60000038147</ele>
        <time>2021-08-19T09:18:47.000Z</time>
      </trkpt>
      <trkpt lat="47.29698" lon="-2.2762">
        <ele>-10.60000038147</ele>
        <time>2021-08-19T09:18:52.000Z</time>
      </trkpt>
      <trkpt lat="47.29662" lon="-2.27612">
        <ele>-10.60000038147</ele>
        <time>2021-08-19T09:18:58.000Z</time>
      </trkpt>
      <trkpt lat="47.29644" lon="-2.27603">
        <ele>-10.199999809265</ele>
        <time>2021-08-19T09:19:01.000Z</time>
      </trkpt>
      <trkpt lat="47.29639" lon="-2.276">
        <ele>-9.8000001907349</ele>
        <time>2021-08-19T09:19:02.000Z</time>
      </trkpt>
      <trkpt lat="47.29633" lon="-2.27595">
        <ele>-9.3999996185303</ele>
        <time>2021-08-19T09:19:03.000Z</time>
      </trkpt>
      <trkpt lat="47.29627" lon="-2.27591">
        <ele>-8.3999996185303</ele>
        <time>2021-08-19T09:19:04.000Z</time>
      </trkpt>
      <trkpt lat="47.29592" lon="-2.27569">
        <ele>-8.3999996185303</ele>
        <time>2021-08-19T09:19:10.000Z</time>
      </trkpt>
      <trkpt lat="47.29581" lon="-2.27562">
        <ele>-8</ele>
        <time>2021-08-19T09:19:12.000Z</time>
      </trkpt>
      <trkpt lat="47.29574" lon="-2.27558">
        <ele>-7.5999999046326</ele>
        <time>2021-08-19T09:19:13.000Z</time>
      </trkpt>
      <trkpt lat="47.29569" lon="-2.27555">
        <ele>-7.1999998092651</ele>
        <time>2021-08-19T09:19:14.000Z</time>
      </trkpt>
      <trkpt lat="47.29563" lon="-2.27551">
        <ele>-6.8000001907349</ele>
        <time>2021-08-19T09:19:15.000Z</time>
      </trkpt>
      <trkpt lat="47.29557" lon="-2.27549">
        <ele>-6.4000000953674</ele>
        <time>2021-08-19T09:19:16.000Z</time>
      </trkpt>
      <trkpt lat="47.29509" lon="-2.27532">
        <ele>-6.4000000953674</ele>
        <time>2021-08-19T09:19:24.000Z</time>
      </trkpt>
      <trkpt lat="47.29491" lon="-2.27526">
        <ele>-6</ele>
        <time>2021-08-19T09:19:27.000Z</time>
      </trkpt>
      <trkpt lat="47.29485" lon="-2.27524">
        <ele>-5.5999999046326</ele>
        <time>2021-08-19T09:19:28.000Z</time>
      </trkpt>
      <trkpt lat="47.29479" lon="-2.27522">
        <ele>-4.8000001907349</ele>
        <time>2021-08-19T09:19:29.000Z</time>
      </trkpt>
      <trkpt lat="47.29473" lon="-2.2752">
        <ele>-4.4000000953674</ele>
        <time>2021-08-19T09:19:30.000Z</time>
      </trkpt>
      <trkpt lat="47.29461" lon="-2.27518">
        <ele>-4.4000000953674</ele>
        <time>2021-08-19T09:19:32.000Z</time>
      </trkpt>
      <trkpt lat="47.29418" lon="-2.27515">
        <ele>-4.4000000953674</ele>
        <time>2021-08-19T09:19:39.000Z</time>
      </trkpt>
      <trkpt lat="47.29376" lon="-2.27526">
        <ele>-4.4000000953674</ele>
        <time>2021-08-19T09:19:46.000Z</time>
      </trkpt>
      <trkpt lat="47.29321" lon="-2.27537">
        <ele>-4.4000000953674</ele>
        <time>2021-08-19T09:19:55.000Z</time>
      </trkpt>
      <trkpt lat="47.29315" lon="-2.27536">
        <ele>-4.4000000953674</ele>
        <time>2021-08-19T09:19:56.000Z</time>
      </trkpt>
      <trkpt lat="47.29294" lon="-2.27535">
        <ele>-4.4000000953674</ele>
        <time>2021-08-19T09:20:00.000Z</time>
      </trkpt>
      <trkpt lat="47.29288" lon="-2.27537">
        <ele>-4.4000000953674</ele>
        <time>2021-08-19T09:20:03.000Z</time>
      </trkpt>
      <trkpt lat="47.29283" lon="-2.27538">
        <ele>-4.4000000953674</ele>
        <time>2021-08-19T09:20:08.000Z</time>
      </trkpt>
      <trkpt lat="47.29271" lon="-2.27543">
        <ele>-4.4000000953674</ele>
        <time>2021-08-19T09:20:11.000Z</time>
      </trkpt>
      <trkpt lat="47.29255" lon="-2.27535">
        <ele>-4.4000000953674</ele>
        <time>2021-08-19T09:20:14.000Z</time>
      </trkpt>
      <trkpt lat="47.29228" lon="-2.27533">
        <ele>-4.4000000953674</ele>
        <time>2021-08-19T09:20:18.000Z</time>
      </trkpt>
      <trkpt lat="47.29179" lon="-2.27535">
        <ele>-4.4000000953674</ele>
        <time>2021-08-19T09:20:25.000Z</time>
      </trkpt>
      <trkpt lat="47.29123" lon="-2.27535">
        <ele>-4.4000000953674</ele>
        <time>2021-08-19T09:20:33.000Z</time>
      </trkpt>
      <trkpt lat="47.29117" lon="-2.27535">
        <ele>-4.4000000953674</ele>
        <time>2021-08-19T09:20:34.000Z</time>
      </trkpt>
      <trkpt lat="47.29106" lon="-2.2753">
        <ele>-4.4000000953674</ele>
        <time>2021-08-19T09:20:36.000Z</time>
      </trkpt>
      <trkpt lat="47.29103" lon="-2.27525">
        <ele>-4.4000000953674</ele>
        <time>2021-08-19T09:20:37.000Z</time>
      </trkpt>
      <trkpt lat="47.29102" lon="-2.27508">
        <ele>-4.4000000953674</ele>
        <time>2021-08-19T09:20:40.000Z</time>
      </trkpt>
      <trkpt lat="47.29103" lon="-2.275">
        <ele>-4.4000000953674</ele>
        <time>2021-08-19T09:20:41.000Z</time>
      </trkpt>
      <trkpt lat="47.29106" lon="-2.27463">
        <ele>-4.4000000953674</ele>
        <time>2021-08-19T09:20:45.000Z</time>
      </trkpt>
      <trkpt lat="47.29108" lon="-2.27418">
        <ele>-4.4000000953674</ele>
        <time>2021-08-19T09:20:50.000Z</time>
      </trkpt>
      <trkpt lat="47.29105" lon="-2.27399">
        <ele>-4.4000000953674</ele>
        <time>2021-08-19T09:20:52.000Z</time>
      </trkpt>
      <trkpt lat="47.29092" lon="-2.27355">
        <ele>-4.8000001907349</ele>
        <time>2021-08-19T09:20:58.000Z</time>
      </trkpt>
      <trkpt lat="47.29089" lon="-2.27352">
        <ele>-5.1999998092651</ele>
        <time>2021-08-19T09:20:59.000Z</time>
      </trkpt>
      <trkpt lat="47.29087" lon="-2.27349">
        <ele>-5.5999999046326</ele>
        <time>2021-08-19T09:21:00.000Z</time>
      </trkpt>
      <trkpt lat="47.29085" lon="-2.27344">
        <ele>-6</ele>
        <time>2021-08-19T09:21:01.000Z</time>
      </trkpt>
      <trkpt lat="47.29084" lon="-2.27339">
        <ele>-6.4000000953674</ele>
        <time>2021-08-19T09:21:02.000Z</time>
      </trkpt>
      <trkpt lat="47.29084" lon="-2.27334">
        <ele>-6.4000000953674</ele>
        <time>2021-08-19T09:21:03.000Z</time>
      </trkpt>
      <trkpt lat="47.29091" lon="-2.2731">
        <ele>-6.4000000953674</ele>
        <time>2021-08-19T09:21:07.000Z</time>
      </trkpt>
      <trkpt lat="47.29093" lon="-2.27304">
        <ele>-6.4000000953674</ele>
        <time>2021-08-19T09:21:08.000Z</time>
      </trkpt>
      <trkpt lat="47.291" lon="-2.27281">
        <ele>-6.4000000953674</ele>
        <time>2021-08-19T09:21:13.000Z</time>
      </trkpt>
      <trkpt lat="47.29105" lon="-2.27257">
        <ele>-6.4000000953674</ele>
        <time>2021-08-19T09:21:18.000Z</time>
      </trkpt>
      <trkpt lat="47.29111" lon="-2.27235">
        <ele>-6.4000000953674</ele>
        <time>2021-08-19T09:21:23.000Z</time>
      </trkpt>
      <trkpt lat="47.29114" lon="-2.27218">
        <ele>-6.4000000953674</ele>
        <time>2021-08-19T09:21:29.000Z</time>
      </trkpt>
      <trkpt lat="47.29115" lon="-2.27216">
        <ele>-6.4000000953674</ele>
        <time>2021-08-19T09:21:32.000Z</time>
      </trkpt>
      <trkpt lat="47.29113" lon="-2.27216">
        <ele>-6.4000000953674</ele>
        <time>2021-08-19T09:21:33.000Z</time>
      </trkpt>
      <trkpt lat="47.29097" lon="-2.27211">
        <ele>-6.4000000953674</ele>
        <time>2021-08-19T09:21:39.000Z</time>
      </trkpt>
      <trkpt lat="47.29081" lon="-2.27206">
        <ele>-6.4000000953674</ele>
        <time>2021-08-19T09:21:43.000Z</time>
      </trkpt>
      <trkpt lat="47.29075" lon="-2.27198">
        <ele>-6.4000000953674</ele>
        <time>2021-08-19T09:21:45.000Z</time>
      </trkpt>
      <trkpt lat="47.29073" lon="-2.27194">
        <ele>-6.4000000953674</ele>
        <time>2021-08-19T09:21:46.000Z</time>
      </trkpt>
      <trkpt lat="47.29061" lon="-2.27172">
        <ele>-6.4000000953674</ele>
        <time>2021-08-19T09:21:51.000Z</time>
      </trkpt>
      <trkpt lat="47.29057" lon="-2.27166">
        <ele>-6</ele>
        <time>2021-08-19T09:21:52.000Z</time>
      </trkpt>
      <trkpt lat="47.29053" lon="-2.27161">
        <ele>-5.5999999046326</ele>
        <time>2021-08-19T09:21:53.000Z</time>
      </trkpt>
      <trkpt lat="47.29049" lon="-2.27156">
        <ele>-5.1999998092651</ele>
        <time>2021-08-19T09:21:54.000Z</time>
      </trkpt>
      <trkpt lat="47.29044" lon="-2.27151">
        <ele>-4.8000001907349</ele>
        <time>2021-08-19T09:21:55.000Z</time>
      </trkpt>
      <trkpt lat="47.29039" lon="-2.27146">
        <ele>-4.4000000953674</ele>
        <time>2021-08-19T09:21:56.000Z</time>
      </trkpt>
      <trkpt lat="47.29023" lon="-2.2713">
        <ele>-4.4000000953674</ele>
        <time>2021-08-19T09:22:00.000Z</time>
      </trkpt>
      <trkpt lat="47.29023" lon="-2.27112">
        <ele>-4.4000000953674</ele>
        <time>2021-08-19T09:22:03.000Z</time>
      </trkpt>
      <trkpt lat="47.29033" lon="-2.27104">
        <ele>-4.4000000953674</ele>
        <time>2021-08-19T09:22:06.000Z</time>
      </trkpt>
      <trkpt lat="47.29036" lon="-2.27102">
        <ele>-4.4000000953674</ele>
        <time>2021-08-19T09:22:07.000Z</time>
      </trkpt>
      <trkpt lat="47.29048" lon="-2.27086">
        <ele>-4.4000000953674</ele>
        <time>2021-08-19T09:22:11.000Z</time>
      </trkpt>
      <trkpt lat="47.29056" lon="-2.27056">
        <ele>-4.4000000953674</ele>
        <time>2021-08-19T09:22:15.000Z</time>
      </trkpt>
      <trkpt lat="47.29056" lon="-2.27051">
        <ele>-4.4000000953674</ele>
        <time>2021-08-19T09:22:16.000Z</time>
      </trkpt>
      <trkpt lat="47.29055" lon="-2.27048">
        <ele>-4.8000001907349</ele>
        <time>2021-08-19T09:22:17.000Z</time>
      </trkpt>
      <trkpt lat="47.29053" lon="-2.27044">
        <ele>-5.1999998092651</ele>
        <time>2021-08-19T09:22:18.000Z</time>
      </trkpt>
      <trkpt lat="47.2905" lon="-2.27041">
        <ele>-5.5999999046326</ele>
        <time>2021-08-19T09:22:19.000Z</time>
      </trkpt>
      <trkpt lat="47.29048" lon="-2.27036">
        <ele>-6</ele>
        <time>2021-08-19T09:22:20.000Z</time>
      </trkpt>
      <trkpt lat="47.29047" lon="-2.27031">
        <ele>-6.4000000953674</ele>
        <time>2021-08-19T09:22:21.000Z</time>
      </trkpt>
      <trkpt lat="47.29048" lon="-2.27025">
        <ele>-6.4000000953674</ele>
        <time>2021-08-19T09:22:22.000Z</time>
      </trkpt>
      <trkpt lat="47.29048" lon="-2.27018">
        <ele>-6.4000000953674</ele>
        <time>2021-08-19T09:22:23.000Z</time>
      </trkpt>
      <trkpt lat="47.29052" lon="-2.26992">
        <ele>-6.4000000953674</ele>
        <time>2021-08-19T09:22:26.000Z</time>
      </trkpt>
      <trkpt lat="47.29056" lon="-2.26943">
        <ele>-6.4000000953674</ele>
        <time>2021-08-19T09:22:31.000Z</time>
      </trkpt>
      <trkpt lat="47.29058" lon="-2.26883">
        <ele>-6.4000000953674</ele>
        <time>2021-08-19T09:22:37.000Z</time>
      </trkpt>
      <trkpt lat="47.2906" lon="-2.26808">
        <ele>-6.4000000953674</ele>
        <time>2021-08-19T09:22:45.000Z</time>
      </trkpt>
      <trkpt lat="47.29056" lon="-2.26755">
        <ele>-6.4000000953674</ele>
        <time>2021-08-19T09:22:51.000Z</time>
      </trkpt>
      <trkpt lat="47.29054" lon="-2.26738">
        <ele>-6</ele>
        <time>2021-08-19T09:22:53.000Z</time>
      </trkpt>
      <trkpt lat="47.29053" lon="-2.2673">
        <ele>-5.5999999046326</ele>
        <time>2021-08-19T09:22:54.000Z</time>
      </trkpt>
      <trkpt lat="47.29052" lon="-2.26722">
        <ele>-5.1999998092651</ele>
        <time>2021-08-19T09:22:55.000Z</time>
      </trkpt>
      <trkpt lat="47.29051" lon="-2.26714">
        <ele>-4.8000001907349</ele>
        <time>2021-08-19T09:22:56.000Z</time>
      </trkpt>
      <trkpt lat="47.29051" lon="-2.26707">
        <ele>-4.4000000953674</ele>
        <time>2021-08-19T09:22:57.000Z</time>
      </trkpt>
      <trkpt lat="47.29049" lon="-2.26693">
        <ele>-4.4000000953674</ele>
        <time>2021-08-19T09:22:59.000Z</time>
      </trkpt>
      <trkpt lat="47.29049" lon="-2.26686">
        <ele>-3.7999999523163</ele>
        <time>2021-08-19T09:23:00.000Z</time>
      </trkpt>
      <trkpt lat="47.29048" lon="-2.2668">
        <ele>-3.4000000953674</ele>
        <time>2021-08-19T09:23:01.000Z</time>
      </trkpt>
      <trkpt lat="47.29048" lon="-2.26673">
        <ele>-3</ele>
        <time>2021-08-19T09:23:02.000Z</time>
      </trkpt>
      <trkpt lat="47.29047" lon="-2.26666">
        <ele>-2.5999999046326</ele>
        <time>2021-08-19T09:23:03.000Z</time>
      </trkpt>
      <trkpt lat="47.29047" lon="-2.26659">
        <ele>-2.2000000476837</ele>
        <time>2021-08-19T09:23:04.000Z</time>
      </trkpt>
      <trkpt lat="47.29047" lon="-2.26653">
        <ele>-2.2000000476837</ele>
        <time>2021-08-19T09:23:05.000Z</time>
      </trkpt>
      <trkpt lat="47.29045" lon="-2.26633">
        <ele>-1.7999999523163</ele>
        <time>2021-08-19T09:23:08.000Z</time>
      </trkpt>
      <trkpt lat="47.29045" lon="-2.26627">
        <ele>-1.3999999761581</ele>
        <time>2021-08-19T09:23:09.000Z</time>
      </trkpt>
      <trkpt lat="47.29044" lon="-2.2662">
        <ele>-0.80000001192093</ele>
        <time>2021-08-19T09:23:10.000Z</time>
      </trkpt>
      <trkpt lat="47.29044" lon="-2.26614">
        <ele>-0.40000000596046</ele>
        <time>2021-08-19T09:23:11.000Z</time>
      </trkpt>
      <trkpt lat="47.29044" lon="-2.26607">
        <ele>22.4</ele>
        <time>2021-08-19T09:23:12.000Z</time>
      </trkpt>
      <trkpt lat="47.29041" lon="-2.26586">
        <ele>22.1</ele>
        <time>2021-08-19T09:23:16.000Z</time>
      </trkpt>
      <trkpt lat="47.29037" lon="-2.26556">
        <ele>22.3</ele>
        <time>2021-08-19T09:23:21.000Z</time>
      </trkpt>
      <trkpt lat="47.29025" lon="-2.26502">
        <ele>22.2</ele>
        <time>2021-08-19T09:23:28.000Z</time>
      </trkpt>
      <trkpt lat="47.29022" lon="-2.26486">
        <ele>22.4</ele>
        <time>2021-08-19T09:23:30.000Z</time>
      </trkpt>
      <trkpt lat="47.29019" lon="-2.26464">
        <ele>22.8</ele>
        <time>2021-08-19T09:23:33.000Z</time>
      </trkpt>
      <trkpt lat="47.29017" lon="-2.2644">
        <ele>0.80000001192093</ele>
        <time>2021-08-19T09:23:36.000Z</time>
      </trkpt>
      <trkpt lat="47.29016" lon="-2.26433">
        <ele>1.2000000476837</ele>
        <time>2021-08-19T09:23:37.000Z</time>
      </trkpt>
      <trkpt lat="47.29016" lon="-2.26426">
        <ele>1.6000000238419</ele>
        <time>2021-08-19T09:23:38.000Z</time>
      </trkpt>
      <trkpt lat="47.29015" lon="-2.2642">
        <ele>2</ele>
        <time>2021-08-19T09:23:39.000Z</time>
      </trkpt>
      <trkpt lat="47.29011" lon="-2.26397">
        <ele>2.4000000953674</ele>
        <time>2021-08-19T09:23:43.000Z</time>
      </trkpt>
      <trkpt lat="47.29008" lon="-2.26393">
        <ele>2.7999999523163</ele>
        <time>2021-08-19T09:23:44.000Z</time>
      </trkpt>
      <trkpt lat="47.29004" lon="-2.2639">
        <ele>3.4000000953674</ele>
        <time>2021-08-19T09:23:45.000Z</time>
      </trkpt>
      <trkpt lat="47.29001" lon="-2.26387">
        <ele>3.7999999523163</ele>
        <time>2021-08-19T09:23:46.000Z</time>
      </trkpt>
      <trkpt lat="47.28998" lon="-2.26383">
        <ele>4.1999998092651</ele>
        <time>2021-08-19T09:23:47.000Z</time>
      </trkpt>
      <trkpt lat="47.2899" lon="-2.2637">
        <ele>4.1999998092651</ele>
        <time>2021-08-19T09:23:50.000Z</time>
      </trkpt>
      <trkpt lat="47.28979" lon="-2.26366">
        <ele>4.1999998092651</ele>
        <time>2021-08-19T09:23:53.000Z</time>
      </trkpt>
      <trkpt lat="47.28966" lon="-2.26369">
        <ele>4.5999999046326</ele>
        <time>2021-08-19T09:23:56.000Z</time>
      </trkpt>
      <trkpt lat="47.28961" lon="-2.26371">
        <ele>5.1999998092651</ele>
        <time>2021-08-19T09:23:57.000Z</time>
      </trkpt>
      <trkpt lat="47.28957" lon="-2.26372">
        <ele>5.5999999046326</ele>
        <time>2021-08-19T09:23:58.000Z</time>
      </trkpt>
      <trkpt lat="47.28953" lon="-2.26373">
        <ele>6</ele>
        <time>2021-08-19T09:23:59.000Z</time>
      </trkpt>
      <trkpt lat="47.28948" lon="-2.26373">
        <ele>6.4000000953674</ele>
        <time>2021-08-19T09:24:00.000Z</time>
      </trkpt>
      <trkpt lat="47.2894" lon="-2.26375">
        <ele>6.4000000953674</ele>
        <time>2021-08-19T09:24:02.000Z</time>
      </trkpt>
      <trkpt lat="47.28935" lon="-2.26374">
        <ele>6.4000000953674</ele>
        <time>2021-08-19T09:24:03.000Z</time>
      </trkpt>
      <trkpt lat="47.28914" lon="-2.26368">
        <ele>6.4000000953674</ele>
        <time>2021-08-19T09:24:08.000Z</time>
      </trkpt>
      <trkpt lat="47.28885" lon="-2.26365">
        <ele>6.4000000953674</ele>
        <time>2021-08-19T09:24:14.000Z</time>
      </trkpt>
      <trkpt lat="47.28868" lon="-2.26366">
        <ele>6.4000000953674</ele>
        <time>2021-08-19T09:24:17.000Z</time>
      </trkpt>
      <trkpt lat="47.28852" lon="-2.2637">
        <ele>6.4000000953674</ele>
        <time>2021-08-19T09:24:20.000Z</time>
      </trkpt>
      <trkpt lat="47.28835" lon="-2.26372">
        <ele>6.4000000953674</ele>
        <time>2021-08-19T09:24:23.000Z</time>
      </trkpt>
      <trkpt lat="47.28829" lon="-2.26369">
        <ele>6.4000000953674</ele>
        <time>2021-08-19T09:24:24.000Z</time>
      </trkpt>
      <trkpt lat="47.28807" lon="-2.26366">
        <ele>6.4000000953674</ele>
        <time>2021-08-19T09:24:28.000Z</time>
      </trkpt>
      <trkpt lat="47.28791" lon="-2.26367">
        <ele>6.4000000953674</ele>
        <time>2021-08-19T09:24:31.000Z</time>
      </trkpt>
      <trkpt lat="47.2878" lon="-2.26364">
        <ele>6.4000000953674</ele>
        <time>2021-08-19T09:24:33.000Z</time>
      </trkpt>
      <trkpt lat="47.28743" lon="-2.2636">
        <ele>6.4000000953674</ele>
        <time>2021-08-19T09:24:39.000Z</time>
      </trkpt>
      <trkpt lat="47.28732" lon="-2.26359">
        <ele>6.4000000953674</ele>
        <time>2021-08-19T09:24:41.000Z</time>
      </trkpt>
      <trkpt lat="47.28728" lon="-2.26362">
        <ele>6</ele>
        <time>2021-08-19T09:24:42.000Z</time>
      </trkpt>
      <trkpt lat="47.28724" lon="-2.26366">
        <ele>5.4000000953674</ele>
        <time>2021-08-19T09:24:43.000Z</time>
      </trkpt>
      <trkpt lat="47.28721" lon="-2.26372">
        <ele>5</ele>
        <time>2021-08-19T09:24:44.000Z</time>
      </trkpt>
      <trkpt lat="47.28718" lon="-2.26378">
        <ele>4.5999999046326</ele>
        <time>2021-08-19T09:24:45.000Z</time>
      </trkpt>
      <trkpt lat="47.28717" lon="-2.26385">
        <ele>4</ele>
        <time>2021-08-19T09:24:46.000Z</time>
      </trkpt>
      <trkpt lat="47.28711" lon="-2.26396">
        <ele>4</ele>
        <time>2021-08-19T09:24:49.000Z</time>
      </trkpt>
      <trkpt lat="47.28701" lon="-2.26388">
        <ele>4</ele>
        <time>2021-08-19T09:24:52.000Z</time>
      </trkpt>
      <trkpt lat="47.28697" lon="-2.26383">
        <ele>4</ele>
        <time>2021-08-19T09:24:55.000Z</time>
      </trkpt>
      <trkpt lat="47.28697" lon="-2.26383">
        <ele>3.5999999046326</ele>
        <time>2021-08-19T09:24:56.000Z</time>
      </trkpt>
      <trkpt lat="47.28696" lon="-2.26381">
        <ele>2</ele>
        <time>2021-08-19T09:25:45.000Z</time>
      </trkpt>
      <trkpt lat="47.28692" lon="-2.26378">
        <ele>2</ele>
        <time>2021-08-19T09:25:47.000Z</time>
      </trkpt>
      <trkpt lat="47.28677" lon="-2.26361">
        <ele>2</ele>
        <time>2021-08-19T09:25:52.000Z</time>
      </trkpt>
      <trkpt lat="47.28667" lon="-2.26352">
        <ele>2</ele>
        <time>2021-08-19T09:25:55.000Z</time>
      </trkpt>
      <trkpt lat="47.28662" lon="-2.26343">
        <ele>2</ele>
        <time>2021-08-19T09:25:57.000Z</time>
      </trkpt>
      <trkpt lat="47.28657" lon="-2.2633">
        <ele>2</ele>
        <time>2021-08-19T09:25:59.000Z</time>
      </trkpt>
      <trkpt lat="47.2865" lon="-2.2631">
        <ele>2</ele>
        <time>2021-08-19T09:26:02.000Z</time>
      </trkpt>
      <trkpt lat="47.28637" lon="-2.26273">
        <ele>2</ele>
        <time>2021-08-19T09:26:08.000Z</time>
      </trkpt>
      <trkpt lat="47.2863" lon="-2.26254">
        <ele>2</ele>
        <time>2021-08-19T09:26:11.000Z</time>
      </trkpt>
      <trkpt lat="47.28618" lon="-2.26232">
        <ele>2</ele>
        <time>2021-08-19T09:26:15.000Z</time>
      </trkpt>
      <trkpt lat="47.28604" lon="-2.26203">
        <ele>2</ele>
        <time>2021-08-19T09:26:20.000Z</time>
      </trkpt>
      <trkpt lat="47.28602" lon="-2.26196">
        <ele>2</ele>
        <time>2021-08-19T09:26:21.000Z</time>
      </trkpt>
      <trkpt lat="47.28599" lon="-2.26174">
        <ele>2</ele>
        <time>2021-08-19T09:26:24.000Z</time>
      </trkpt>
      <trkpt lat="47.28599" lon="-2.2616">
        <ele>2</ele>
        <time>2021-08-19T09:26:26.000Z</time>
      </trkpt>
      <trkpt lat="47.286" lon="-2.26106">
        <ele>2</ele>
        <time>2021-08-19T09:26:34.000Z</time>
      </trkpt>
      <trkpt lat="47.28601" lon="-2.26093">
        <ele>2</ele>
        <time>2021-08-19T09:26:36.000Z</time>
      </trkpt>
      <trkpt lat="47.28602" lon="-2.26065">
        <ele>2</ele>
        <time>2021-08-19T09:26:40.000Z</time>
      </trkpt>
      <trkpt lat="47.28606" lon="-2.26">
        <ele>2</ele>
        <time>2021-08-19T09:26:49.000Z</time>
      </trkpt>
      <trkpt lat="47.28605" lon="-2.2598">
        <ele>2</ele>
        <time>2021-08-19T09:26:53.000Z</time>
      </trkpt>
      <trkpt lat="47.28595" lon="-2.25978">
        <ele>2</ele>
        <time>2021-08-19T09:26:56.000Z</time>
      </trkpt>
      <trkpt lat="47.28565" lon="-2.25979">
        <ele>2</ele>
        <time>2021-08-19T09:27:02.000Z</time>
      </trkpt>
      <trkpt lat="47.28522" lon="-2.25975">
        <ele>2</ele>
        <time>2021-08-19T09:27:09.000Z</time>
      </trkpt>
      <trkpt lat="47.28499" lon="-2.25972">
        <ele>2.4000000953674</ele>
        <time>2021-08-19T09:27:13.000Z</time>
      </trkpt>
      <trkpt lat="47.28493" lon="-2.25972">
        <ele>3</ele>
        <time>2021-08-19T09:27:14.000Z</time>
      </trkpt>
      <trkpt lat="47.28487" lon="-2.25973">
        <ele>3.4000000953674</ele>
        <time>2021-08-19T09:27:15.000Z</time>
      </trkpt>
      <trkpt lat="47.28482" lon="-2.25973">
        <ele>3.7999999523163</ele>
        <time>2021-08-19T09:27:16.000Z</time>
      </trkpt>
      <trkpt lat="47.28476" lon="-2.25972">
        <ele>4.1999998092651</ele>
        <time>2021-08-19T09:27:17.000Z</time>
      </trkpt>
      <trkpt lat="47.2845" lon="-2.25968">
        <ele>4.1999998092651</ele>
        <time>2021-08-19T09:27:22.000Z</time>
      </trkpt>
      <trkpt lat="47.28431" lon="-2.2596">
        <ele>4.1999998092651</ele>
        <time>2021-08-19T09:27:26.000Z</time>
      </trkpt>
      <trkpt lat="47.28426" lon="-2.25958">
        <ele>4.1999998092651</ele>
        <time>2021-08-19T09:27:27.000Z</time>
      </trkpt>
      <trkpt lat="47.28403" lon="-2.25954">
        <ele>4.1999998092651</ele>
        <time>2021-08-19T09:27:33.000Z</time>
      </trkpt>
      <trkpt lat="47.28399" lon="-2.2594">
        <ele>4.1999998092651</ele>
        <time>2021-08-19T09:27:36.000Z</time>
      </trkpt>
      <trkpt lat="47.28397" lon="-2.25919">
        <ele>4.1999998092651</ele>
        <time>2021-08-19T09:27:40.000Z</time>
      </trkpt>
      <trkpt lat="47.28398" lon="-2.25913">
        <ele>4.1999998092651</ele>
        <time>2021-08-19T09:27:41.000Z</time>
      </trkpt>
      <trkpt lat="47.28398" lon="-2.25906">
        <ele>4.5999999046326</ele>
        <time>2021-08-19T09:27:42.000Z</time>
      </trkpt>
      <trkpt lat="47.28399" lon="-2.25898">
        <ele>5</ele>
        <time>2021-08-19T09:27:43.000Z</time>
      </trkpt>
      <trkpt lat="47.284" lon="-2.25891">
        <ele>5.4000000953674</ele>
        <time>2021-08-19T09:27:44.000Z</time>
      </trkpt>
      <trkpt lat="47.28401" lon="-2.25884">
        <ele>6</ele>
        <time>2021-08-19T09:27:45.000Z</time>
      </trkpt>
      <trkpt lat="47.28402" lon="-2.25877">
        <ele>6.4000000953674</ele>
        <time>2021-08-19T09:27:46.000Z</time>
      </trkpt>
      <trkpt lat="47.28403" lon="-2.2587">
        <ele>6.4000000953674</ele>
        <time>2021-08-19T09:27:47.000Z</time>
      </trkpt>
      <trkpt lat="47.28404" lon="-2.25841">
        <ele>6.4000000953674</ele>
        <time>2021-08-19T09:27:52.000Z</time>
      </trkpt>
      <trkpt lat="47.28391" lon="-2.25823">
        <ele>6.4000000953674</ele>
        <time>2021-08-19T09:27:57.000Z</time>
      </trkpt>
      <trkpt lat="47.28375" lon="-2.25811">
        <ele>6.4000000953674</ele>
        <time>2021-08-19T09:28:03.000Z</time>
      </trkpt>
      <trkpt lat="47.28376" lon="-2.25802">
        <ele>6.4000000953674</ele>
        <time>2021-08-19T09:28:07.000Z</time>
      </trkpt>
      <trkpt lat="47.28377" lon="-2.25793">
        <ele>6.4000000953674</ele>
        <time>2021-08-19T09:28:09.000Z</time>
      </trkpt>
      <trkpt lat="47.28378" lon="-2.25782">
        <ele>6.4000000953674</ele>
        <time>2021-08-19T09:28:11.000Z</time>
      </trkpt>
      <trkpt lat="47.28381" lon="-2.25746">
        <ele>6.4000000953674</ele>
        <time>2021-08-19T09:28:18.000Z</time>
      </trkpt>
      <trkpt lat="47.28382" lon="-2.25733">
        <ele>6.4000000953674</ele>
        <time>2021-08-19T09:28:24.000Z</time>
      </trkpt>
      <trkpt lat="47.28382" lon="-2.2573">
        <ele>6.4000000953674</ele>
        <time>2021-08-19T09:28:25.000Z</time>
      </trkpt>
      <trkpt lat="47.28382" lon="-2.25721">
        <ele>6.4000000953674</ele>
        <time>2021-08-19T09:28:28.000Z</time>
      </trkpt>
      <trkpt lat="47.28381" lon="-2.25712">
        <ele>6.4000000953674</ele>
        <time>2021-08-19T09:28:30.000Z</time>
      </trkpt>
      <trkpt lat="47.28378" lon="-2.25701">
        <ele>6.4000000953674</ele>
        <time>2021-08-19T09:28:32.000Z</time>
      </trkpt>
      <trkpt lat="47.28367" lon="-2.25677">
        <ele>6.4000000953674</ele>
        <time>2021-08-19T09:28:36.000Z</time>
      </trkpt>
      <trkpt lat="47.28365" lon="-2.2567">
        <ele>6.4000000953674</ele>
        <time>2021-08-19T09:28:37.000Z</time>
      </trkpt>
      <trkpt lat="47.2836" lon="-2.25646">
        <ele>6.4000000953674</ele>
        <time>2021-08-19T09:28:41.000Z</time>
      </trkpt>
      <trkpt lat="47.2836" lon="-2.25637">
        <ele>6.4000000953674</ele>
        <time>2021-08-19T09:28:43.000Z</time>
      </trkpt>
      <trkpt lat="47.2836" lon="-2.25631">
        <ele>6.4000000953674</ele>
        <time>2021-08-19T09:28:44.000Z</time>
      </trkpt>
      <trkpt lat="47.28362" lon="-2.25597">
        <ele>6.4000000953674</ele>
        <time>2021-08-19T09:28:48.000Z</time>
      </trkpt>
      <trkpt lat="47.28367" lon="-2.25529">
        <ele>6.4000000953674</ele>
        <time>2021-08-19T09:28:55.000Z</time>
      </trkpt>
      <trkpt lat="47.28372" lon="-2.25473">
        <ele>6.4000000953674</ele>
        <time>2021-08-19T09:29:01.000Z</time>
      </trkpt>
      <trkpt lat="47.28377" lon="-2.25413">
        <ele>6.4000000953674</ele>
        <time>2021-08-19T09:29:08.000Z</time>
      </trkpt>
      <trkpt lat="47.28381" lon="-2.25357">
        <ele>6.4000000953674</ele>
        <time>2021-08-19T09:29:15.000Z</time>
      </trkpt>
      <trkpt lat="47.28382" lon="-2.25341">
        <ele>6.4000000953674</ele>
        <time>2021-08-19T09:29:17.000Z</time>
      </trkpt>
      <trkpt lat="47.28385" lon="-2.25327">
        <ele>6.4000000953674</ele>
        <time>2021-08-19T09:29:19.000Z</time>
      </trkpt>
      <trkpt lat="47.28384" lon="-2.25319">
        <ele>5.8000001907349</ele>
        <time>2021-08-19T09:29:22.000Z</time>
      </trkpt>
      <trkpt lat="47.28383" lon="-2.25318">
        <ele>5.4000000953674</ele>
        <time>2021-08-19T09:29:23.000Z</time>
      </trkpt>
      <trkpt lat="47.28382" lon="-2.25317">
        <ele>5</ele>
        <time>2021-08-19T09:29:24.000Z</time>
      </trkpt>
      <trkpt lat="47.2838" lon="-2.25318">
        <ele>4.5999999046326</ele>
        <time>2021-08-19T09:29:25.000Z</time>
      </trkpt>
      <trkpt lat="47.28378" lon="-2.25319">
        <ele>4.1999998092651</ele>
        <time>2021-08-19T09:29:26.000Z</time>
      </trkpt>
      <trkpt lat="47.28365" lon="-2.25324">
        <ele>4.1999998092651</ele>
        <time>2021-08-19T09:29:31.000Z</time>
      </trkpt>
      <trkpt lat="47.28349" lon="-2.25337">
        <ele>4.1999998092651</ele>
        <time>2021-08-19T09:29:37.000Z</time>
      </trkpt>
      <trkpt lat="47.28334" lon="-2.25349">
        <ele>4.1999998092651</ele>
        <time>2021-08-19T09:29:41.000Z</time>
      </trkpt>
      <trkpt lat="47.2833" lon="-2.25351">
        <ele>4.1999998092651</ele>
        <time>2021-08-19T09:29:42.000Z</time>
      </trkpt>
      <trkpt lat="47.2832" lon="-2.25353">
        <ele>4.1999998092651</ele>
        <time>2021-08-19T09:29:44.000Z</time>
      </trkpt>
      <trkpt lat="47.28303" lon="-2.25358">
        <ele>4.1999998092651</ele>
        <time>2021-08-19T09:29:47.000Z</time>
      </trkpt>
      <trkpt lat="47.28298" lon="-2.25359">
        <ele>4.1999998092651</ele>
        <time>2021-08-19T09:29:48.000Z</time>
      </trkpt>
      <trkpt lat="47.28279" lon="-2.2536">
        <ele>4.1999998092651</ele>
        <time>2021-08-19T09:29:51.000Z</time>
      </trkpt>
      <trkpt lat="47.28265" lon="-2.25364">
        <ele>4.1999998092651</ele>
        <time>2021-08-19T09:29:53.000Z</time>
      </trkpt>
      <trkpt lat="47.2826" lon="-2.25367">
        <ele>4.1999998092651</ele>
        <time>2021-08-19T09:29:54.000Z</time>
      </trkpt>
      <trkpt lat="47.28256" lon="-2.2537">
        <ele>4.1999998092651</ele>
        <time>2021-08-19T09:29:55.000Z</time>
      </trkpt>
      <trkpt lat="47.28251" lon="-2.25373">
        <ele>3.7999999523163</ele>
        <time>2021-08-19T09:29:56.000Z</time>
      </trkpt>
      <trkpt lat="47.28245" lon="-2.25376">
        <ele>3.4000000953674</ele>
        <time>2021-08-19T09:29:57.000Z</time>
      </trkpt>
      <trkpt lat="47.2824" lon="-2.25379">
        <ele>2.7999999523163</ele>
        <time>2021-08-19T09:29:58.000Z</time>
      </trkpt>
      <trkpt lat="47.28235" lon="-2.25382">
        <ele>2.4000000953674</ele>
        <time>2021-08-19T09:29:59.000Z</time>
      </trkpt>
      <trkpt lat="47.2823" lon="-2.25386">
        <ele>2</ele>
        <time>2021-08-19T09:30:00.000Z</time>
      </trkpt>
      <trkpt lat="47.282" lon="-2.2541">
        <ele>2</ele>
        <time>2021-08-19T09:30:05.000Z</time>
      </trkpt>
      <trkpt lat="47.28193" lon="-2.25416">
        <ele>1.6000000238419</ele>
        <time>2021-08-19T09:30:06.000Z</time>
      </trkpt>
      <trkpt lat="47.28187" lon="-2.25421">
        <ele>1.2000000476837</ele>
        <time>2021-08-19T09:30:07.000Z</time>
      </trkpt>
      <trkpt lat="47.28181" lon="-2.25426">
        <ele>0.60000002384186</ele>
        <time>2021-08-19T09:30:08.000Z</time>
      </trkpt>
      <trkpt lat="47.28174" lon="-2.25432">
        <ele>0.20000000298023</ele>
        <time>2021-08-19T09:30:09.000Z</time>
      </trkpt>
      <trkpt lat="47.28168" lon="-2.25437">
        <ele>-0.20000000298023</ele>
        <time>2021-08-19T09:30:10.000Z</time>
      </trkpt>
      <trkpt lat="47.28161" lon="-2.2544">
        <ele>-0.20000000298023</ele>
        <time>2021-08-19T09:30:11.000Z</time>
      </trkpt>
      <trkpt lat="47.28154" lon="-2.25443">
        <ele>-0.60000002384186</ele>
        <time>2021-08-19T09:30:12.000Z</time>
      </trkpt>
      <trkpt lat="47.28148" lon="-2.25446">
        <ele>-1.2000000476837</ele>
        <time>2021-08-19T09:30:13.000Z</time>
      </trkpt>
      <trkpt lat="47.28143" lon="-2.2545">
        <ele>-1.6000000238419</ele>
        <time>2021-08-19T09:30:14.000Z</time>
      </trkpt>
      <trkpt lat="47.28138" lon="-2.25454">
        <ele>-2.2000000476837</ele>
        <time>2021-08-19T09:30:15.000Z</time>
      </trkpt>
      <trkpt lat="47.28132" lon="-2.25457">
        <ele>-2.5999999046326</ele>
        <time>2021-08-19T09:30:16.000Z</time>
      </trkpt>
      <trkpt lat="47.28123" lon="-2.2546">
        <ele>-2.5999999046326</ele>
        <time>2021-08-19T09:30:18.000Z</time>
      </trkpt>
      <trkpt lat="47.2812" lon="-2.25462">
        <ele>-3</ele>
        <time>2021-08-19T09:30:19.000Z</time>
      </trkpt>
      <trkpt lat="47.28119" lon="-2.25462">
        <ele>-3.5999999046326</ele>
        <time>2021-08-19T09:30:20.000Z</time>
      </trkpt>
      <trkpt lat="47.28118" lon="-2.25462">
        <ele>-4</ele>
        <time>2021-08-19T09:30:21.000Z</time>
      </trkpt>
      <trkpt lat="47.28117" lon="-2.25465">
        <ele>-4.8000001907349</ele>
        <time>2021-08-19T09:30:24.000Z</time>
      </trkpt>
      <trkpt lat="47.28113" lon="-2.25468">
        <ele>-4.8000001907349</ele>
        <time>2021-08-19T09:30:26.000Z</time>
      </trkpt>
      <trkpt lat="47.28108" lon="-2.25472">
        <ele>-4.8000001907349</ele>
        <time>2021-08-19T09:30:28.000Z</time>
      </trkpt>
      <trkpt lat="47.28101" lon="-2.25473">
        <ele>-4.8000001907349</ele>
        <time>2021-08-19T09:30:30.000Z</time>
      </trkpt>
      <trkpt lat="47.28098" lon="-2.25472">
        <ele>-4.8000001907349</ele>
        <time>2021-08-19T09:30:31.000Z</time>
      </trkpt>
      <trkpt lat="47.28094" lon="-2.25466">
        <ele>-4.8000001907349</ele>
        <time>2021-08-19T09:30:33.000Z</time>
      </trkpt>
      <trkpt lat="47.28093" lon="-2.25463">
        <ele>-5.1999998092651</ele>
        <time>2021-08-19T09:30:34.000Z</time>
      </trkpt>
      <trkpt lat="47.28092" lon="-2.25459">
        <ele>-6.1999998092651</ele>
        <time>2021-08-19T09:30:35.000Z</time>
      </trkpt>
      <trkpt lat="47.28092" lon="-2.25456">
        <ele>-6.5999999046326</ele>
        <time>2021-08-19T09:30:36.000Z</time>
      </trkpt>
      <trkpt lat="47.28091" lon="-2.25451">
        <ele>-7</ele>
        <time>2021-08-19T09:30:37.000Z</time>
      </trkpt>
      <trkpt lat="47.2809" lon="-2.25443">
        <ele>-7</ele>
        <time>2021-08-19T09:30:39.000Z</time>
      </trkpt>
      <trkpt lat="47.28087" lon="-2.25425">
        <ele>-7</ele>
        <time>2021-08-19T09:30:43.000Z</time>
      </trkpt>
      <trkpt lat="47.28086" lon="-2.25389">
        <ele>-7</ele>
        <time>2021-08-19T09:30:49.000Z</time>
      </trkpt>
      <trkpt lat="47.28084" lon="-2.25343">
        <ele>-7</ele>
        <time>2021-08-19T09:30:56.000Z</time>
      </trkpt>
      <trkpt lat="47.28084" lon="-2.25284">
        <ele>-7</ele>
        <time>2021-08-19T09:31:04.000Z</time>
      </trkpt>
      <trkpt lat="47.28091" lon="-2.25243">
        <ele>-7</ele>
        <time>2021-08-19T09:31:10.000Z</time>
      </trkpt>
      <trkpt lat="47.28093" lon="-2.25236">
        <ele>-7</ele>
        <time>2021-08-19T09:31:11.000Z</time>
      </trkpt>
      <trkpt lat="47.28098" lon="-2.25216">
        <ele>-7</ele>
        <time>2021-08-19T09:31:14.000Z</time>
      </trkpt>
      <trkpt lat="47.28099" lon="-2.25209">
        <ele>-7</ele>
        <time>2021-08-19T09:31:15.000Z</time>
      </trkpt>
      <trkpt lat="47.281" lon="-2.25188">
        <ele>-7</ele>
        <time>2021-08-19T09:31:18.000Z</time>
      </trkpt>
      <trkpt lat="47.28099" lon="-2.2517">
        <ele>-7</ele>
        <time>2021-08-19T09:31:21.000Z</time>
      </trkpt>
      <trkpt lat="47.28087" lon="-2.25152">
        <ele>-7</ele>
        <time>2021-08-19T09:31:25.000Z</time>
      </trkpt>
      <trkpt lat="47.28061" lon="-2.25128">
        <ele>-7</ele>
        <time>2021-08-19T09:31:32.000Z</time>
      </trkpt>
      <trkpt lat="47.28029" lon="-2.25103">
        <ele>-7</ele>
        <time>2021-08-19T09:31:41.000Z</time>
      </trkpt>
      <trkpt lat="47.2799" lon="-2.2507">
        <ele>-7</ele>
        <time>2021-08-19T09:31:51.000Z</time>
      </trkpt>
      <trkpt lat="47.27986" lon="-2.2507">
        <ele>-7</ele>
        <time>2021-08-19T09:31:52.000Z</time>
      </trkpt>
      <trkpt lat="47.27978" lon="-2.25072">
        <ele>-7</ele>
        <time>2021-08-19T09:31:54.000Z</time>
      </trkpt>
      <trkpt lat="47.27948" lon="-2.25075">
        <ele>-7</ele>
        <time>2021-08-19T09:32:00.000Z</time>
      </trkpt>
      <trkpt lat="47.27942" lon="-2.25076">
        <ele>-7</ele>
        <time>2021-08-19T09:32:01.000Z</time>
      </trkpt>
      <trkpt lat="47.27921" lon="-2.2508">
        <ele>-7</ele>
        <time>2021-08-19T09:32:05.000Z</time>
      </trkpt>
      <trkpt lat="47.2791" lon="-2.25084">
        <ele>-7</ele>
        <time>2021-08-19T09:32:07.000Z</time>
      </trkpt>
      <trkpt lat="47.27899" lon="-2.25083">
        <ele>-7</ele>
        <time>2021-08-19T09:32:09.000Z</time>
      </trkpt>
      <trkpt lat="47.2788" lon="-2.25066">
        <ele>-7</ele>
        <time>2021-08-19T09:32:13.000Z</time>
      </trkpt>
      <trkpt lat="47.27864" lon="-2.25058">
        <ele>-7</ele>
        <time>2021-08-19T09:32:16.000Z</time>
      </trkpt>
      <trkpt lat="47.27853" lon="-2.25055">
        <ele>-7</ele>
        <time>2021-08-19T09:32:18.000Z</time>
      </trkpt>
      <trkpt lat="47.27832" lon="-2.25044">
        <ele>-7</ele>
        <time>2021-08-19T09:32:22.000Z</time>
      </trkpt>
      <trkpt lat="47.27823" lon="-2.25036">
        <ele>-7</ele>
        <time>2021-08-19T09:32:24.000Z</time>
      </trkpt>
      <trkpt lat="47.27804" lon="-2.25026">
        <ele>-7</ele>
        <time>2021-08-19T09:32:28.000Z</time>
      </trkpt>
      <trkpt lat="47.27793" lon="-2.25025">
        <ele>-7</ele>
        <time>2021-08-19T09:32:30.000Z</time>
      </trkpt>
      <trkpt lat="47.27776" lon="-2.25029">
        <ele>-7</ele>
        <time>2021-08-19T09:32:33.000Z</time>
      </trkpt>
      <trkpt lat="47.27765" lon="-2.25034">
        <ele>-7</ele>
        <time>2021-08-19T09:32:35.000Z</time>
      </trkpt>
      <trkpt lat="47.27743" lon="-2.2505">
        <ele>-7</ele>
        <time>2021-08-19T09:32:40.000Z</time>
      </trkpt>
      <trkpt lat="47.27717" lon="-2.25072">
        <ele>-7</ele>
        <time>2021-08-19T09:32:46.000Z</time>
      </trkpt>
      <trkpt lat="47.27713" lon="-2.25076">
        <ele>-7</ele>
        <time>2021-08-19T09:32:47.000Z</time>
      </trkpt>
      <trkpt lat="47.2771" lon="-2.25079">
        <ele>-7</ele>
        <time>2021-08-19T09:32:48.000Z</time>
      </trkpt>
      <trkpt lat="47.27696" lon="-2.25084">
        <ele>-7</ele>
        <time>2021-08-19T09:32:51.000Z</time>
      </trkpt>
      <trkpt lat="47.27686" lon="-2.25088">
        <ele>-7</ele>
        <time>2021-08-19T09:32:53.000Z</time>
      </trkpt>
      <trkpt lat="47.2767" lon="-2.25095">
        <ele>-7</ele>
        <time>2021-08-19T09:32:56.000Z</time>
      </trkpt>
      <trkpt lat="47.2766" lon="-2.25097">
        <ele>-7</ele>
        <time>2021-08-19T09:32:58.000Z</time>
      </trkpt>
      <trkpt lat="47.27642" lon="-2.25099">
        <ele>-7</ele>
        <time>2021-08-19T09:33:01.000Z</time>
      </trkpt>
      <trkpt lat="47.27637" lon="-2.25099">
        <ele>-7</ele>
        <time>2021-08-19T09:33:02.000Z</time>
      </trkpt>
      <trkpt lat="47.27615" lon="-2.2509">
        <ele>-7</ele>
        <time>2021-08-19T09:33:06.000Z</time>
      </trkpt>
      <trkpt lat="47.27605" lon="-2.25085">
        <ele>-7</ele>
        <time>2021-08-19T09:33:08.000Z</time>
      </trkpt>
      <trkpt lat="47.27588" lon="-2.25077">
        <ele>-7</ele>
        <time>2021-08-19T09:33:11.000Z</time>
      </trkpt>
      <trkpt lat="47.27556" lon="-2.25057">
        <ele>-7</ele>
        <time>2021-08-19T09:33:17.000Z</time>
      </trkpt>
      <trkpt lat="47.27538" lon="-2.25039">
        <ele>-7</ele>
        <time>2021-08-19T09:33:21.000Z</time>
      </trkpt>
      <trkpt lat="47.2753" lon="-2.25027">
        <ele>-7</ele>
        <time>2021-08-19T09:33:23.000Z</time>
      </trkpt>
      <trkpt lat="47.27526" lon="-2.25022">
        <ele>-7</ele>
        <time>2021-08-19T09:33:24.000Z</time>
      </trkpt>
      <trkpt lat="47.27507" lon="-2.25005">
        <ele>-7</ele>
        <time>2021-08-19T09:33:28.000Z</time>
      </trkpt>
      <trkpt lat="47.27474" lon="-2.24978">
        <ele>-7</ele>
        <time>2021-08-19T09:33:35.000Z</time>
      </trkpt>
      <trkpt lat="47.2745" lon="-2.2496">
        <ele>-7</ele>
        <time>2021-08-19T09:33:40.000Z</time>
      </trkpt>
      <trkpt lat="47.27439" lon="-2.24956">
        <ele>-7</ele>
        <time>2021-08-19T09:33:42.000Z</time>
      </trkpt>
      <trkpt lat="47.27433" lon="-2.24956">
        <ele>-7</ele>
        <time>2021-08-19T09:33:43.000Z</time>
      </trkpt>
      <trkpt lat="47.27421" lon="-2.2496">
        <ele>-7</ele>
        <time>2021-08-19T09:33:45.000Z</time>
      </trkpt>
      <trkpt lat="47.27386" lon="-2.24976">
        <ele>-7</ele>
        <time>2021-08-19T09:33:51.000Z</time>
      </trkpt>
      <trkpt lat="47.27369" lon="-2.24997">
        <ele>-7</ele>
        <time>2021-08-19T09:33:55.000Z</time>
      </trkpt>
      <trkpt lat="47.27365" lon="-2.25002">
        <ele>-7</ele>
        <time>2021-08-19T09:33:56.000Z</time>
      </trkpt>
      <trkpt lat="47.27357" lon="-2.25015">
        <ele>-7</ele>
        <time>2021-08-19T09:33:58.000Z</time>
      </trkpt>
      <trkpt lat="47.27351" lon="-2.25028">
        <ele>-7</ele>
        <time>2021-08-19T09:34:00.000Z</time>
      </trkpt>
      <trkpt lat="47.27349" lon="-2.25036">
        <ele>-7</ele>
        <time>2021-08-19T09:34:01.000Z</time>
      </trkpt>
      <trkpt lat="47.27346" lon="-2.25065">
        <ele>-7</ele>
        <time>2021-08-19T09:34:05.000Z</time>
      </trkpt>
      <trkpt lat="47.27352" lon="-2.25086">
        <ele>-7</ele>
        <time>2021-08-19T09:34:08.000Z</time>
      </trkpt>
      <trkpt lat="47.27355" lon="-2.25093">
        <ele>-7</ele>
        <time>2021-08-19T09:34:09.000Z</time>
      </trkpt>
      <trkpt lat="47.27373" lon="-2.25136">
        <ele>-7</ele>
        <time>2021-08-19T09:34:15.000Z</time>
      </trkpt>
      <trkpt lat="47.27389" lon="-2.25174">
        <ele>-7</ele>
        <time>2021-08-19T09:34:21.000Z</time>
      </trkpt>
      <trkpt lat="47.2739" lon="-2.2518">
        <ele>-7</ele>
        <time>2021-08-19T09:34:22.000Z</time>
      </trkpt>
      <trkpt lat="47.2739" lon="-2.25192">
        <ele>-7</ele>
        <time>2021-08-19T09:34:24.000Z</time>
      </trkpt>
      <trkpt lat="47.27387" lon="-2.2522">
        <ele>-7</ele>
        <time>2021-08-19T09:34:29.000Z</time>
      </trkpt>
      <trkpt lat="47.27393" lon="-2.25243">
        <ele>-7</ele>
        <time>2021-08-19T09:34:33.000Z</time>
      </trkpt>
      <trkpt lat="47.27396" lon="-2.25254">
        <ele>-7</ele>
        <time>2021-08-19T09:34:35.000Z</time>
      </trkpt>
      <trkpt lat="47.27399" lon="-2.25272">
        <ele>-7</ele>
        <time>2021-08-19T09:34:38.000Z</time>
      </trkpt>
      <trkpt lat="47.27397" lon="-2.25284">
        <ele>-7</ele>
        <time>2021-08-19T09:34:40.000Z</time>
      </trkpt>
      <trkpt lat="47.27396" lon="-2.25293">
        <ele>-7</ele>
        <time>2021-08-19T09:34:42.000Z</time>
      </trkpt>
      <trkpt lat="47.27397" lon="-2.25298">
        <ele>-7</ele>
        <time>2021-08-19T09:34:43.000Z</time>
      </trkpt>
      <trkpt lat="47.27401" lon="-2.25314">
        <ele>-6.5999999046326</ele>
        <time>2021-08-19T09:34:46.000Z</time>
      </trkpt>
      <trkpt lat="47.27401" lon="-2.2532">
        <ele>-6.1999998092651</ele>
        <time>2021-08-19T09:34:47.000Z</time>
      </trkpt>
      <trkpt lat="47.274" lon="-2.25328">
        <ele>-5.8000001907349</ele>
        <time>2021-08-19T09:34:48.000Z</time>
      </trkpt>
      <trkpt lat="47.274" lon="-2.25335">
        <ele>-5.1999998092651</ele>
        <time>2021-08-19T09:34:49.000Z</time>
      </trkpt>
      <trkpt lat="47.27401" lon="-2.25342">
        <ele>-4.8000001907349</ele>
        <time>2021-08-19T09:34:50.000Z</time>
      </trkpt>
      <trkpt lat="47.27402" lon="-2.25348">
        <ele>-4.8000001907349</ele>
        <time>2021-08-19T09:34:51.000Z</time>
      </trkpt>
      <trkpt lat="47.27404" lon="-2.25355">
        <ele>-4.8000001907349</ele>
        <time>2021-08-19T09:34:52.000Z</time>
      </trkpt>
      <trkpt lat="47.2741" lon="-2.25365">
        <ele>-4.8000001907349</ele>
        <time>2021-08-19T09:34:54.000Z</time>
      </trkpt>
      <trkpt lat="47.27416" lon="-2.25377">
        <ele>-4.8000001907349</ele>
        <time>2021-08-19T09:34:56.000Z</time>
      </trkpt>
      <trkpt lat="47.27425" lon="-2.25396">
        <ele>-4.8000001907349</ele>
        <time>2021-08-19T09:34:59.000Z</time>
      </trkpt>
      <trkpt lat="47.27442" lon="-2.25422">
        <ele>-4.8000001907349</ele>
        <time>2021-08-19T09:35:03.000Z</time>
      </trkpt>
      <trkpt lat="47.27448" lon="-2.25428">
        <ele>-4.8000001907349</ele>
        <time>2021-08-19T09:35:04.000Z</time>
      </trkpt>
      <trkpt lat="47.27473" lon="-2.25438">
        <ele>-4.8000001907349</ele>
        <time>2021-08-19T09:35:08.000Z</time>
      </trkpt>
      <trkpt lat="47.27479" lon="-2.25438">
        <ele>-4.8000001907349</ele>
        <time>2021-08-19T09:35:09.000Z</time>
      </trkpt>
      <trkpt lat="47.27496" lon="-2.2544">
        <ele>-4.8000001907349</ele>
        <time>2021-08-19T09:35:12.000Z</time>
      </trkpt>
      <trkpt lat="47.27501" lon="-2.25443">
        <ele>-4.8000001907349</ele>
        <time>2021-08-19T09:35:13.000Z</time>
      </trkpt>
      <trkpt lat="47.27517" lon="-2.25457">
        <ele>-4.8000001907349</ele>
        <time>2021-08-19T09:35:16.000Z</time>
      </trkpt>
      <trkpt lat="47.27521" lon="-2.25463">
        <ele>-4.8000001907349</ele>
        <time>2021-08-19T09:35:17.000Z</time>
      </trkpt>
      <trkpt lat="47.27526" lon="-2.25469">
        <ele>-4.8000001907349</ele>
        <time>2021-08-19T09:35:18.000Z</time>
      </trkpt>
      <trkpt lat="47.2754" lon="-2.25501">
        <ele>-4.8000001907349</ele>
        <time>2021-08-19T09:35:22.000Z</time>
      </trkpt>
      <trkpt lat="47.27544" lon="-2.25509">
        <ele>-4.8000001907349</ele>
        <time>2021-08-19T09:35:23.000Z</time>
      </trkpt>
      <trkpt lat="47.27547" lon="-2.25518">
        <ele>-4.8000001907349</ele>
        <time>2021-08-19T09:35:24.000Z</time>
      </trkpt>
      <trkpt lat="47.27553" lon="-2.25543">
        <ele>-4.8000001907349</ele>
        <time>2021-08-19T09:35:27.000Z</time>
      </trkpt>
      <trkpt lat="47.27559" lon="-2.25566">
        <ele>-4.8000001907349</ele>
        <time>2021-08-19T09:35:30.000Z</time>
      </trkpt>
      <trkpt lat="47.27563" lon="-2.25588">
        <ele>-4.8000001907349</ele>
        <time>2021-08-19T09:35:33.000Z</time>
      </trkpt>
      <trkpt lat="47.27563" lon="-2.25615">
        <ele>-4.8000001907349</ele>
        <time>2021-08-19T09:35:38.000Z</time>
      </trkpt>
      <trkpt lat="47.27566" lon="-2.25635">
        <ele>-4.8000001907349</ele>
        <time>2021-08-19T09:35:44.000Z</time>
      </trkpt>
      <trkpt lat="47.27566" lon="-2.25639">
        <ele>-4.8000001907349</ele>
        <time>2021-08-19T09:35:45.000Z</time>
      </trkpt>
      <trkpt lat="47.27565" lon="-2.25651">
        <ele>-4.8000001907349</ele>
        <time>2021-08-19T09:35:48.000Z</time>
      </trkpt>
      <trkpt lat="47.2756" lon="-2.2567">
        <ele>-4.8000001907349</ele>
        <time>2021-08-19T09:35:52.000Z</time>
      </trkpt>
      <trkpt lat="47.27557" lon="-2.25675">
        <ele>-4.8000001907349</ele>
        <time>2021-08-19T09:35:53.000Z</time>
      </trkpt>
      <trkpt lat="47.27548" lon="-2.25692">
        <ele>-4.8000001907349</ele>
        <time>2021-08-19T09:35:56.000Z</time>
      </trkpt>
      <trkpt lat="47.27542" lon="-2.25705">
        <ele>-4.8000001907349</ele>
        <time>2021-08-19T09:35:58.000Z</time>
      </trkpt>
      <trkpt lat="47.27525" lon="-2.25731">
        <ele>-4.4000000953674</ele>
        <time>2021-08-19T09:36:03.000Z</time>
      </trkpt>
      <trkpt lat="47.27522" lon="-2.25736">
        <ele>-4</ele>
        <time>2021-08-19T09:36:04.000Z</time>
      </trkpt>
      <trkpt lat="47.27519" lon="-2.25741">
        <ele>-3.5999999046326</ele>
        <time>2021-08-19T09:36:05.000Z</time>
      </trkpt>
      <trkpt lat="47.27515" lon="-2.25746">
        <ele>-3.2000000476837</ele>
        <time>2021-08-19T09:36:06.000Z</time>
      </trkpt>
      <trkpt lat="47.27513" lon="-2.25752">
        <ele>-2.7999999523163</ele>
        <time>2021-08-19T09:36:07.000Z</time>
      </trkpt>
      <trkpt lat="47.27503" lon="-2.25766">
        <ele>-2.7999999523163</ele>
        <time>2021-08-19T09:36:10.000Z</time>
      </trkpt>
      <trkpt lat="47.27477" lon="-2.25793">
        <ele>-2.7999999523163</ele>
        <time>2021-08-19T09:36:17.000Z</time>
      </trkpt>
      <trkpt lat="47.27467" lon="-2.25799">
        <ele>-2.7999999523163</ele>
        <time>2021-08-19T09:36:19.000Z</time>
      </trkpt>
      <trkpt lat="47.27458" lon="-2.25809">
        <ele>-2.7999999523163</ele>
        <time>2021-08-19T09:36:21.000Z</time>
      </trkpt>
      <trkpt lat="47.2745" lon="-2.2582">
        <ele>-2.7999999523163</ele>
        <time>2021-08-19T09:36:23.000Z</time>
      </trkpt>
      <trkpt lat="47.27439" lon="-2.25838">
        <ele>-2.7999999523163</ele>
        <time>2021-08-19T09:36:26.000Z</time>
      </trkpt>
      <trkpt lat="47.27435" lon="-2.25844">
        <ele>-2.7999999523163</ele>
        <time>2021-08-19T09:36:27.000Z</time>
      </trkpt>
      <trkpt lat="47.27424" lon="-2.25862">
        <ele>-2.7999999523163</ele>
        <time>2021-08-19T09:36:30.000Z</time>
      </trkpt>
      <trkpt lat="47.27411" lon="-2.25887">
        <ele>-2.7999999523163</ele>
        <time>2021-08-19T09:36:34.000Z</time>
      </trkpt>
      <trkpt lat="47.27408" lon="-2.25892">
        <ele>-2.7999999523163</ele>
        <time>2021-08-19T09:36:35.000Z</time>
      </trkpt>
      <trkpt lat="47.27401" lon="-2.25903">
        <ele>-2.7999999523163</ele>
        <time>2021-08-19T09:36:37.000Z</time>
      </trkpt>
      <trkpt lat="47.27387" lon="-2.25922">
        <ele>-2.7999999523163</ele>
        <time>2021-08-19T09:36:41.000Z</time>
      </trkpt>
      <trkpt lat="47.27376" lon="-2.25937">
        <ele>-2.7999999523163</ele>
        <time>2021-08-19T09:36:44.000Z</time>
      </trkpt>
      <trkpt lat="47.2737" lon="-2.25947">
        <ele>-2.7999999523163</ele>
        <time>2021-08-19T09:36:46.000Z</time>
      </trkpt>
      <trkpt lat="47.27354" lon="-2.25958">
        <ele>-2.7999999523163</ele>
        <time>2021-08-19T09:36:50.000Z</time>
      </trkpt>
      <trkpt lat="47.27338" lon="-2.25965">
        <ele>-2.7999999523163</ele>
        <time>2021-08-19T09:36:54.000Z</time>
      </trkpt>
      <trkpt lat="47.2733" lon="-2.25968">
        <ele>-2.7999999523163</ele>
        <time>2021-08-19T09:36:56.000Z</time>
      </trkpt>
      <trkpt lat="47.27317" lon="-2.25977">
        <ele>-2.7999999523163</ele>
        <time>2021-08-19T09:37:00.000Z</time>
      </trkpt>
      <trkpt lat="47.27302" lon="-2.2599">
        <ele>-2.7999999523163</ele>
        <time>2021-08-19T09:37:05.000Z</time>
      </trkpt>
      <trkpt lat="47.27294" lon="-2.26002">
        <ele>-2.7999999523163</ele>
        <time>2021-08-19T09:37:09.000Z</time>
      </trkpt>
      <trkpt lat="47.27294" lon="-2.26008">
        <ele>-2.7999999523163</ele>
        <time>2021-08-19T09:37:11.000Z</time>
      </trkpt>
      <trkpt lat="47.27297" lon="-2.26015">
        <ele>-2.7999999523163</ele>
        <time>2021-08-19T09:37:13.000Z</time>
      </trkpt>
      <trkpt lat="47.27313" lon="-2.26043">
        <ele>-2.7999999523163</ele>
        <time>2021-08-19T09:37:18.000Z</time>
      </trkpt>
      <trkpt lat="47.2733" lon="-2.26079">
        <ele>-2.7999999523163</ele>
        <time>2021-08-19T09:37:24.000Z</time>
      </trkpt>
      <trkpt lat="47.27341" lon="-2.26101">
        <ele>-2.4000000953674</ele>
        <time>2021-08-19T09:37:28.000Z</time>
      </trkpt>
      <trkpt lat="47.27343" lon="-2.26106">
        <ele>-1.7999999523163</ele>
        <time>2021-08-19T09:37:29.000Z</time>
      </trkpt>
      <trkpt lat="47.27345" lon="-2.2611">
        <ele>-1.3999999761581</ele>
        <time>2021-08-19T09:37:30.000Z</time>
      </trkpt>
      <trkpt lat="47.27346" lon="-2.26115">
        <ele>-1</ele>
        <time>2021-08-19T09:37:31.000Z</time>
      </trkpt>
      <trkpt lat="47.27348" lon="-2.26119">
        <ele>-0.60000002384186</ele>
        <time>2021-08-19T09:37:32.000Z</time>
      </trkpt>
      <trkpt lat="47.27347" lon="-2.26127">
        <ele>-0.60000002384186</ele>
        <time>2021-08-19T09:37:34.000Z</time>
      </trkpt>
      <trkpt lat="47.27336" lon="-2.26133">
        <ele>-0.60000002384186</ele>
        <time>2021-08-19T09:37:37.000Z</time>
      </trkpt>
      <trkpt lat="47.27332" lon="-2.26134">
        <ele>-0.60000002384186</ele>
        <time>2021-08-19T09:37:38.000Z</time>
      </trkpt>
      <trkpt lat="47.27299" lon="-2.26145">
        <ele>-0.60000002384186</ele>
        <time>2021-08-19T09:37:45.000Z</time>
      </trkpt>
      <trkpt lat="47.2726" lon="-2.2616">
        <ele>-0.60000002384186</ele>
        <time>2021-08-19T09:37:52.000Z</time>
      </trkpt>
      <trkpt lat="47.27233" lon="-2.26175">
        <ele>-0.60000002384186</ele>
        <time>2021-08-19T09:37:57.000Z</time>
      </trkpt>
      <trkpt lat="47.27196" lon="-2.26203">
        <ele>-0.60000002384186</ele>
        <time>2021-08-19T09:38:04.000Z</time>
      </trkpt>
      <trkpt lat="47.27159" lon="-2.26244">
        <ele>-0.60000002384186</ele>
        <time>2021-08-19T09:38:12.000Z</time>
      </trkpt>
      <trkpt lat="47.27155" lon="-2.26249">
        <ele>-0.20000000298023</ele>
        <time>2021-08-19T09:38:13.000Z</time>
      </trkpt>
      <trkpt lat="47.27151" lon="-2.26255">
        <ele>0.20000000298023</ele>
        <time>2021-08-19T09:38:14.000Z</time>
      </trkpt>
      <trkpt lat="47.27147" lon="-2.2626">
        <ele>0.60000002384186</ele>
        <time>2021-08-19T09:38:15.000Z</time>
      </trkpt>
      <trkpt lat="47.27143" lon="-2.26266">
        <ele>1</ele>
        <time>2021-08-19T09:38:16.000Z</time>
      </trkpt>
      <trkpt lat="47.27139" lon="-2.26272">
        <ele>1.3999999761581</ele>
        <time>2021-08-19T09:38:17.000Z</time>
      </trkpt>
      <trkpt lat="47.27122" lon="-2.26294">
        <ele>1.3999999761581</ele>
        <time>2021-08-19T09:38:21.000Z</time>
      </trkpt>
      <trkpt lat="47.27093" lon="-2.26334">
        <ele>1.7999999523163</ele>
        <time>2021-08-19T09:38:28.000Z</time>
      </trkpt>
      <trkpt lat="47.2709" lon="-2.26339">
        <ele>2.2000000476837</ele>
        <time>2021-08-19T09:38:29.000Z</time>
      </trkpt>
      <trkpt lat="47.27086" lon="-2.26344">
        <ele>2.5999999046326</ele>
        <time>2021-08-19T09:38:30.000Z</time>
      </trkpt>
      <trkpt lat="47.27083" lon="-2.26349">
        <ele>3</ele>
        <time>2021-08-19T09:38:31.000Z</time>
      </trkpt>
      <trkpt lat="47.2708" lon="-2.26354">
        <ele>3.4000000953674</ele>
        <time>2021-08-19T09:38:32.000Z</time>
      </trkpt>
      <trkpt lat="47.27066" lon="-2.26374">
        <ele>3.4000000953674</ele>
        <time>2021-08-19T09:38:36.000Z</time>
      </trkpt>
      <trkpt lat="47.27037" lon="-2.26415">
        <ele>3.4000000953674</ele>
        <time>2021-08-19T09:38:44.000Z</time>
      </trkpt>
      <trkpt lat="47.27027" lon="-2.26427">
        <ele>3.4000000953674</ele>
        <time>2021-08-19T09:38:46.000Z</time>
      </trkpt>
      <trkpt lat="47.27015" lon="-2.26447">
        <ele>3.4000000953674</ele>
        <time>2021-08-19T09:38:49.000Z</time>
      </trkpt>
      <trkpt lat="47.26994" lon="-2.26477">
        <ele>3.4000000953674</ele>
        <time>2021-08-19T09:38:54.000Z</time>
      </trkpt>
      <trkpt lat="47.26986" lon="-2.26488">
        <ele>3.4000000953674</ele>
        <time>2021-08-19T09:38:56.000Z</time>
      </trkpt>
      <trkpt lat="47.26961" lon="-2.26508">
        <ele>3.4000000953674</ele>
        <time>2021-08-19T09:39:01.000Z</time>
      </trkpt>
      <trkpt lat="47.26943" lon="-2.26518">
        <ele>3.4000000953674</ele>
        <time>2021-08-19T09:39:06.000Z</time>
      </trkpt>
      <trkpt lat="47.26919" lon="-2.26529">
        <ele>3.4000000953674</ele>
        <time>2021-08-19T09:39:12.000Z</time>
      </trkpt>
      <trkpt lat="47.26889" lon="-2.26541">
        <ele>3.4000000953674</ele>
        <time>2021-08-19T09:39:18.000Z</time>
      </trkpt>
      <trkpt lat="47.26868" lon="-2.26553">
        <ele>3.4000000953674</ele>
        <time>2021-08-19T09:39:23.000Z</time>
      </trkpt>
      <trkpt lat="47.26867" lon="-2.26558">
        <ele>3.4000000953674</ele>
        <time>2021-08-19T09:39:24.000Z</time>
      </trkpt>
      <trkpt lat="47.26869" lon="-2.26575">
        <ele>3.4000000953674</ele>
        <time>2021-08-19T09:39:27.000Z</time>
      </trkpt>
      <trkpt lat="47.2687" lon="-2.26581">
        <ele>3.4000000953674</ele>
        <time>2021-08-19T09:39:28.000Z</time>
      </trkpt>
      <trkpt lat="47.26886" lon="-2.26621">
        <ele>3.4000000953674</ele>
        <time>2021-08-19T09:39:34.000Z</time>
      </trkpt>
      <trkpt lat="47.26902" lon="-2.26662">
        <ele>3.4000000953674</ele>
        <time>2021-08-19T09:39:40.000Z</time>
      </trkpt>
      <trkpt lat="47.26922" lon="-2.26717">
        <ele>3.4000000953674</ele>
        <time>2021-08-19T09:39:47.000Z</time>
      </trkpt>
      <trkpt lat="47.26939" lon="-2.26781">
        <ele>3.4000000953674</ele>
        <time>2021-08-19T09:39:54.000Z</time>
      </trkpt>
      <trkpt lat="47.26944" lon="-2.26801">
        <ele>3.4000000953674</ele>
        <time>2021-08-19T09:39:56.000Z</time>
      </trkpt>
      <trkpt lat="47.26955" lon="-2.26828">
        <ele>3.4000000953674</ele>
        <time>2021-08-19T09:39:59.000Z</time>
      </trkpt>
      <trkpt lat="47.26963" lon="-2.26858">
        <ele>3.4000000953674</ele>
        <time>2021-08-19T09:40:02.000Z</time>
      </trkpt>
      <trkpt lat="47.26967" lon="-2.26877">
        <ele>3.4000000953674</ele>
        <time>2021-08-19T09:40:04.000Z</time>
      </trkpt>
      <trkpt lat="47.26972" lon="-2.26915">
        <ele>3.4000000953674</ele>
        <time>2021-08-19T09:40:08.000Z</time>
      </trkpt>
      <trkpt lat="47.2697" lon="-2.26932">
        <ele>3.4000000953674</ele>
        <time>2021-08-19T09:40:10.000Z</time>
      </trkpt>
      <trkpt lat="47.26961" lon="-2.26981">
        <ele>3.4000000953674</ele>
        <time>2021-08-19T09:40:16.000Z</time>
      </trkpt>
      <trkpt lat="47.26964" lon="-2.27001">
        <ele>3.4000000953674</ele>
        <time>2021-08-19T09:40:19.000Z</time>
      </trkpt>
      <trkpt lat="47.26976" lon="-2.27017">
        <ele>3.4000000953674</ele>
        <time>2021-08-19T09:40:23.000Z</time>
      </trkpt>
      <trkpt lat="47.26991" lon="-2.27037">
        <ele>3.4000000953674</ele>
        <time>2021-08-19T09:40:28.000Z</time>
      </trkpt>
      <trkpt lat="47.27004" lon="-2.2706">
        <ele>3.4000000953674</ele>
        <time>2021-08-19T09:40:32.000Z</time>
      </trkpt>
      <trkpt lat="47.27006" lon="-2.27066">
        <ele>3.4000000953674</ele>
        <time>2021-08-19T09:40:33.000Z</time>
      </trkpt>
      <trkpt lat="47.27017" lon="-2.27107">
        <ele>3.4000000953674</ele>
        <time>2021-08-19T09:40:41.000Z</time>
      </trkpt>
      <trkpt lat="47.27023" lon="-2.27118">
        <ele>3.4000000953674</ele>
        <time>2021-08-19T09:40:45.000Z</time>
      </trkpt>
      <trkpt lat="47.27034" lon="-2.27134">
        <ele>3.4000000953674</ele>
        <time>2021-08-19T09:40:51.000Z</time>
      </trkpt>
      <trkpt lat="47.27044" lon="-2.27153">
        <ele>3.4000000953674</ele>
        <time>2021-08-19T09:40:57.000Z</time>
      </trkpt>
      <trkpt lat="47.27057" lon="-2.27179">
        <ele>3.4000000953674</ele>
        <time>2021-08-19T09:41:03.000Z</time>
      </trkpt>
      <trkpt lat="47.27074" lon="-2.27207">
        <ele>3.4000000953674</ele>
        <time>2021-08-19T09:41:09.000Z</time>
      </trkpt>
      <trkpt lat="47.27083" lon="-2.2722">
        <ele>4</ele>
        <time>2021-08-19T09:41:12.000Z</time>
      </trkpt>
      <trkpt lat="47.27086" lon="-2.27224">
        <ele>4.4000000953674</ele>
        <time>2021-08-19T09:41:13.000Z</time>
      </trkpt>
      <trkpt lat="47.27089" lon="-2.27229">
        <ele>4.8000001907349</ele>
        <time>2021-08-19T09:41:14.000Z</time>
      </trkpt>
      <trkpt lat="47.27091" lon="-2.27234">
        <ele>5.1999998092651</ele>
        <time>2021-08-19T09:41:15.000Z</time>
      </trkpt>
      <trkpt lat="47.27094" lon="-2.27238">
        <ele>5.5999999046326</ele>
        <time>2021-08-19T09:41:16.000Z</time>
      </trkpt>
      <trkpt lat="47.27104" lon="-2.27258">
        <ele>6</ele>
        <time>2021-08-19T09:41:20.000Z</time>
      </trkpt>
      <trkpt lat="47.27107" lon="-2.27262">
        <ele>6.4000000953674</ele>
        <time>2021-08-19T09:41:21.000Z</time>
      </trkpt>
      <trkpt lat="47.2711" lon="-2.27267">
        <ele>6.8000001907349</ele>
        <time>2021-08-19T09:41:22.000Z</time>
      </trkpt>
      <trkpt lat="47.27112" lon="-2.27273">
        <ele>7.1999998092651</ele>
        <time>2021-08-19T09:41:23.000Z</time>
      </trkpt>
      <trkpt lat="47.27115" lon="-2.27279">
        <ele>7.5999999046326</ele>
        <time>2021-08-19T09:41:24.000Z</time>
      </trkpt>
      <trkpt lat="47.27121" lon="-2.27292">
        <ele>7.5999999046326</ele>
        <time>2021-08-19T09:41:27.000Z</time>
      </trkpt>
      <trkpt lat="47.27126" lon="-2.27321">
        <ele>8</ele>
        <time>2021-08-19T09:41:31.000Z</time>
      </trkpt>
      <trkpt lat="47.27127" lon="-2.2733">
        <ele>8.6000003814697</ele>
        <time>2021-08-19T09:41:32.000Z</time>
      </trkpt>
      <trkpt lat="47.27129" lon="-2.27338">
        <ele>9</ele>
        <time>2021-08-19T09:41:33.000Z</time>
      </trkpt>
      <trkpt lat="47.2713" lon="-2.27347">
        <ele>9.3999996185303</ele>
        <time>2021-08-19T09:41:34.000Z</time>
      </trkpt>
      <trkpt lat="47.27131" lon="-2.27355">
        <ele>9.8000001907349</ele>
        <time>2021-08-19T09:41:35.000Z</time>
      </trkpt>
      <trkpt lat="47.27137" lon="-2.27387">
        <ele>9.8000001907349</ele>
        <time>2021-08-19T09:41:39.000Z</time>
      </trkpt>
      <trkpt lat="47.27142" lon="-2.27417">
        <ele>9.8000001907349</ele>
        <time>2021-08-19T09:41:43.000Z</time>
      </trkpt>
      <trkpt lat="47.27145" lon="-2.27432">
        <ele>9.8000001907349</ele>
        <time>2021-08-19T09:41:45.000Z</time>
      </trkpt>
      <trkpt lat="47.2715" lon="-2.27467">
        <ele>10.199999809265</ele>
        <time>2021-08-19T09:41:50.000Z</time>
      </trkpt>
      <trkpt lat="47.2715" lon="-2.27475">
        <ele>10.60000038147</ele>
        <time>2021-08-19T09:41:51.000Z</time>
      </trkpt>
      <trkpt lat="47.27151" lon="-2.27483">
        <ele>11</ele>
        <time>2021-08-19T09:41:52.000Z</time>
      </trkpt>
      <trkpt lat="47.27151" lon="-2.27492">
        <ele>11.39999961853</ele>
        <time>2021-08-19T09:41:53.000Z</time>
      </trkpt>
      <trkpt lat="47.27152" lon="-2.275">
        <ele>11.800000190735</ele>
        <time>2021-08-19T09:41:54.000Z</time>
      </trkpt>
      <trkpt lat="47.27154" lon="-2.27554">
        <ele>11.800000190735</ele>
        <time>2021-08-19T09:42:00.000Z</time>
      </trkpt>
      <trkpt lat="47.27152" lon="-2.27562">
        <ele>11.800000190735</ele>
        <time>2021-08-19T09:42:01.000Z</time>
      </trkpt>
      <trkpt lat="47.27148" lon="-2.27587">
        <ele>11.800000190735</ele>
        <time>2021-08-19T09:42:04.000Z</time>
      </trkpt>
      <trkpt lat="47.27134" lon="-2.27613">
        <ele>11.800000190735</ele>
        <time>2021-08-19T09:42:08.000Z</time>
      </trkpt>
      <trkpt lat="47.27117" lon="-2.27622">
        <ele>11.800000190735</ele>
        <time>2021-08-19T09:42:11.000Z</time>
      </trkpt>
      <trkpt lat="47.27111" lon="-2.27624">
        <ele>11.800000190735</ele>
        <time>2021-08-19T09:42:12.000Z</time>
      </trkpt>
      <trkpt lat="47.27105" lon="-2.27628">
        <ele>11.800000190735</ele>
        <time>2021-08-19T09:42:13.000Z</time>
      </trkpt>
      <trkpt lat="47.27083" lon="-2.27643">
        <ele>11.800000190735</ele>
        <time>2021-08-19T09:42:17.000Z</time>
      </trkpt>
      <trkpt lat="47.27073" lon="-2.27651">
        <ele>11.800000190735</ele>
        <time>2021-08-19T09:42:19.000Z</time>
      </trkpt>
      <trkpt lat="47.27054" lon="-2.27668">
        <ele>11.800000190735</ele>
        <time>2021-08-19T09:42:23.000Z</time>
      </trkpt>
      <trkpt lat="47.27036" lon="-2.27692">
        <ele>11.800000190735</ele>
        <time>2021-08-19T09:42:28.000Z</time>
      </trkpt>
      <trkpt lat="47.2703" lon="-2.27702">
        <ele>11.800000190735</ele>
        <time>2021-08-19T09:42:30.000Z</time>
      </trkpt>
      <trkpt lat="47.27026" lon="-2.27721">
        <ele>11.800000190735</ele>
        <time>2021-08-19T09:42:34.000Z</time>
      </trkpt>
      <trkpt lat="47.27029" lon="-2.27727">
        <ele>11.800000190735</ele>
        <time>2021-08-19T09:42:36.000Z</time>
      </trkpt>
      <trkpt lat="47.27032" lon="-2.27727">
        <ele>11.800000190735</ele>
        <time>2021-08-19T09:42:37.000Z</time>
      </trkpt>
      <trkpt lat="47.27051" lon="-2.27732">
        <ele>11.800000190735</ele>
        <time>2021-08-19T09:42:42.000Z</time>
      </trkpt>
      <trkpt lat="47.27078" lon="-2.27743">
        <ele>11.800000190735</ele>
        <time>2021-08-19T09:42:49.000Z</time>
      </trkpt>
      <trkpt lat="47.27099" lon="-2.27757">
        <ele>11.800000190735</ele>
        <time>2021-08-19T09:42:55.000Z</time>
      </trkpt>
      <trkpt lat="47.27103" lon="-2.27767">
        <ele>11.800000190735</ele>
        <time>2021-08-19T09:42:57.000Z</time>
      </trkpt>
      <trkpt lat="47.27105" lon="-2.27772">
        <ele>12.199999809265</ele>
        <time>2021-08-19T09:42:58.000Z</time>
      </trkpt>
      <trkpt lat="47.27107" lon="-2.27778">
        <ele>12.60000038147</ele>
        <time>2021-08-19T09:42:59.000Z</time>
      </trkpt>
      <trkpt lat="47.27107" lon="-2.27783">
        <ele>13</ele>
        <time>2021-08-19T09:43:00.000Z</time>
      </trkpt>
      <trkpt lat="47.27109" lon="-2.27787">
        <ele>13.39999961853</ele>
        <time>2021-08-19T09:43:01.000Z</time>
      </trkpt>
      <trkpt lat="47.27111" lon="-2.27791">
        <ele>13.800000190735</ele>
        <time>2021-08-19T09:43:02.000Z</time>
      </trkpt>
      <trkpt lat="47.27113" lon="-2.27795">
        <ele>13.800000190735</ele>
        <time>2021-08-19T09:43:03.000Z</time>
      </trkpt>
      <trkpt lat="47.27114" lon="-2.278">
        <ele>13.800000190735</ele>
        <time>2021-08-19T09:43:04.000Z</time>
      </trkpt>
      <trkpt lat="47.27115" lon="-2.27821">
        <ele>13.800000190735</ele>
        <time>2021-08-19T09:43:09.000Z</time>
      </trkpt>
      <trkpt lat="47.27107" lon="-2.27852">
        <ele>13.800000190735</ele>
        <time>2021-08-19T09:43:16.000Z</time>
      </trkpt>
      <trkpt lat="47.27106" lon="-2.27856">
        <ele>14.199999809265</ele>
        <time>2021-08-19T09:43:17.000Z</time>
      </trkpt>
      <trkpt lat="47.27105" lon="-2.27861">
        <ele>14.800000190735</ele>
        <time>2021-08-19T09:43:18.000Z</time>
      </trkpt>
      <trkpt lat="47.27104" lon="-2.27864">
        <ele>15.199999809265</ele>
        <time>2021-08-19T09:43:19.000Z</time>
      </trkpt>
      <trkpt lat="47.27103" lon="-2.27868">
        <ele>15.60000038147</ele>
        <time>2021-08-19T09:43:20.000Z</time>
      </trkpt>
      <trkpt lat="47.27102" lon="-2.27872">
        <ele>16</ele>
        <time>2021-08-19T09:43:21.000Z</time>
      </trkpt>
      <trkpt lat="47.27099" lon="-2.2788">
        <ele>16</ele>
        <time>2021-08-19T09:43:23.000Z</time>
      </trkpt>
      <trkpt lat="47.27086" lon="-2.27893">
        <ele>16</ele>
        <time>2021-08-19T09:43:28.000Z</time>
      </trkpt>
      <trkpt lat="47.27082" lon="-2.27899">
        <ele>16.39999961853</ele>
        <time>2021-08-19T09:43:30.000Z</time>
      </trkpt>
      <trkpt lat="47.27079" lon="-2.27903">
        <ele>16.799999237061</ele>
        <time>2021-08-19T09:43:31.000Z</time>
      </trkpt>
      <trkpt lat="47.27077" lon="-2.27906">
        <ele>17.200000762939</ele>
        <time>2021-08-19T09:43:32.000Z</time>
      </trkpt>
      <trkpt lat="47.27076" lon="-2.2791">
        <ele>17.60000038147</ele>
        <time>2021-08-19T09:43:33.000Z</time>
      </trkpt>
      <trkpt lat="47.27074" lon="-2.27914">
        <ele>18</ele>
        <time>2021-08-19T09:43:34.000Z</time>
      </trkpt>
      <trkpt lat="47.27071" lon="-2.27923">
        <ele>18</ele>
        <time>2021-08-19T09:43:36.000Z</time>
      </trkpt>
      <trkpt lat="47.2707" lon="-2.27956">
        <ele>18</ele>
        <time>2021-08-19T09:43:43.000Z</time>
      </trkpt>
      <trkpt lat="47.27079" lon="-2.27976">
        <ele>18</ele>
        <time>2021-08-19T09:43:48.000Z</time>
      </trkpt>
      <trkpt lat="47.27098" lon="-2.27989">
        <ele>18</ele>
        <time>2021-08-19T09:43:54.000Z</time>
      </trkpt>
      <trkpt lat="47.2711" lon="-2.27995">
        <ele>18</ele>
        <time>2021-08-19T09:43:57.000Z</time>
      </trkpt>
      <trkpt lat="47.27115" lon="-2.28006">
        <ele>18</ele>
        <time>2021-08-19T09:43:59.000Z</time>
      </trkpt>
      <trkpt lat="47.27119" lon="-2.28025">
        <ele>18</ele>
        <time>2021-08-19T09:44:02.000Z</time>
      </trkpt>
      <trkpt lat="47.27121" lon="-2.28037">
        <ele>18</ele>
        <time>2021-08-19T09:44:04.000Z</time>
      </trkpt>
      <trkpt lat="47.27126" lon="-2.28083">
        <ele>18</ele>
        <time>2021-08-19T09:44:12.000Z</time>
      </trkpt>
      <trkpt lat="47.27127" lon="-2.28132">
        <ele>18</ele>
        <time>2021-08-19T09:44:20.000Z</time>
      </trkpt>
      <trkpt lat="47.27129" lon="-2.28162">
        <ele>18</ele>
        <time>2021-08-19T09:44:25.000Z</time>
      </trkpt>
      <trkpt lat="47.27128" lon="-2.28169">
        <ele>17.60000038147</ele>
        <time>2021-08-19T09:44:26.000Z</time>
      </trkpt>
      <trkpt lat="47.27127" lon="-2.28176">
        <ele>17.200000762939</ele>
        <time>2021-08-19T09:44:27.000Z</time>
      </trkpt>
      <trkpt lat="47.27127" lon="-2.28183">
        <ele>16.799999237061</ele>
        <time>2021-08-19T09:44:28.000Z</time>
      </trkpt>
      <trkpt lat="47.27126" lon="-2.2819">
        <ele>16.39999961853</ele>
        <time>2021-08-19T09:44:29.000Z</time>
      </trkpt>
      <trkpt lat="47.27125" lon="-2.28197">
        <ele>16</ele>
        <time>2021-08-19T09:44:30.000Z</time>
      </trkpt>
      <trkpt lat="47.27122" lon="-2.28216">
        <ele>16</ele>
        <time>2021-08-19T09:44:33.000Z</time>
      </trkpt>
      <trkpt lat="47.2712" lon="-2.28251">
        <ele>16</ele>
        <time>2021-08-19T09:44:39.000Z</time>
      </trkpt>
      <trkpt lat="47.27128" lon="-2.28278">
        <ele>16</ele>
        <time>2021-08-19T09:44:44.000Z</time>
      </trkpt>
      <trkpt lat="47.27133" lon="-2.28295">
        <ele>16</ele>
        <time>2021-08-19T09:44:47.000Z</time>
      </trkpt>
      <trkpt lat="47.27139" lon="-2.28314">
        <ele>16</ele>
        <time>2021-08-19T09:44:50.000Z</time>
      </trkpt>
      <trkpt lat="47.27146" lon="-2.28357">
        <ele>16</ele>
        <time>2021-08-19T09:44:57.000Z</time>
      </trkpt>
      <trkpt lat="47.27149" lon="-2.28393">
        <ele>16</ele>
        <time>2021-08-19T09:45:03.000Z</time>
      </trkpt>
      <trkpt lat="47.27152" lon="-2.28417">
        <ele>16</ele>
        <time>2021-08-19T09:45:08.000Z</time>
      </trkpt>
      <trkpt lat="47.27156" lon="-2.28452">
        <ele>15.60000038147</ele>
        <time>2021-08-19T09:45:14.000Z</time>
      </trkpt>
      <trkpt lat="47.27156" lon="-2.28458">
        <ele>15.199999809265</ele>
        <time>2021-08-19T09:45:15.000Z</time>
      </trkpt>
      <trkpt lat="47.27157" lon="-2.28464">
        <ele>14.800000190735</ele>
        <time>2021-08-19T09:45:16.000Z</time>
      </trkpt>
      <trkpt lat="47.27157" lon="-2.28468">
        <ele>14.39999961853</ele>
        <time>2021-08-19T09:45:17.000Z</time>
      </trkpt>
      <trkpt lat="47.27158" lon="-2.28472">
        <ele>14</ele>
        <time>2021-08-19T09:45:18.000Z</time>
      </trkpt>
      <trkpt lat="47.27158" lon="-2.28477">
        <ele>14</ele>
        <time>2021-08-19T09:45:20.000Z</time>
      </trkpt>
      <trkpt lat="47.27158" lon="-2.28479">
        <ele>14</ele>
        <time>2021-08-19T09:45:22.000Z</time>
      </trkpt>
      <trkpt lat="47.27158" lon="-2.28486">
        <ele>14</ele>
        <time>2021-08-19T09:48:55.000Z</time>
      </trkpt>
      <trkpt lat="47.27158" lon="-2.28488">
        <ele>14</ele>
        <time>2021-08-19T09:48:56.000Z</time>
      </trkpt>
      <trkpt lat="47.27159" lon="-2.2849">
        <ele>14</ele>
        <time>2021-08-19T09:48:57.000Z</time>
      </trkpt>
      <trkpt lat="47.27161" lon="-2.28509">
        <ele>14</ele>
        <time>2021-08-19T09:49:01.000Z</time>
      </trkpt>
      <trkpt lat="47.27172" lon="-2.28561">
        <ele>14</ele>
        <time>2021-08-19T09:49:08.000Z</time>
      </trkpt>
      <trkpt lat="47.2718" lon="-2.28586">
        <ele>14</ele>
        <time>2021-08-19T09:49:11.000Z</time>
      </trkpt>
      <trkpt lat="47.27185" lon="-2.28602">
        <ele>13.60000038147</ele>
        <time>2021-08-19T09:49:13.000Z</time>
      </trkpt>
      <trkpt lat="47.27188" lon="-2.28611">
        <ele>13.199999809265</ele>
        <time>2021-08-19T09:49:14.000Z</time>
      </trkpt>
      <trkpt lat="47.2719" lon="-2.28621">
        <ele>12.800000190735</ele>
        <time>2021-08-19T09:49:15.000Z</time>
      </trkpt>
      <trkpt lat="47.27192" lon="-2.28631">
        <ele>12.39999961853</ele>
        <time>2021-08-19T09:49:16.000Z</time>
      </trkpt>
      <trkpt lat="47.27193" lon="-2.28641">
        <ele>12</ele>
        <time>2021-08-19T09:49:17.000Z</time>
      </trkpt>
      <trkpt lat="47.27194" lon="-2.28662">
        <ele>12</ele>
        <time>2021-08-19T09:49:19.000Z</time>
      </trkpt>
      <trkpt lat="47.27195" lon="-2.28718">
        <ele>12</ele>
        <time>2021-08-19T09:49:25.000Z</time>
      </trkpt>
      <trkpt lat="47.27196" lon="-2.28776">
        <ele>12</ele>
        <time>2021-08-19T09:49:32.000Z</time>
      </trkpt>
      <trkpt lat="47.27195" lon="-2.28786">
        <ele>11.60000038147</ele>
        <time>2021-08-19T09:49:33.000Z</time>
      </trkpt>
      <trkpt lat="47.27193" lon="-2.28797">
        <ele>11.199999809265</ele>
        <time>2021-08-19T09:49:34.000Z</time>
      </trkpt>
      <trkpt lat="47.27191" lon="-2.28808">
        <ele>10.800000190735</ele>
        <time>2021-08-19T09:49:35.000Z</time>
      </trkpt>
      <trkpt lat="47.27189" lon="-2.28819">
        <ele>10.39999961853</ele>
        <time>2021-08-19T09:49:36.000Z</time>
      </trkpt>
      <trkpt lat="47.27187" lon="-2.28829">
        <ele>9.8000001907349</ele>
        <time>2021-08-19T09:49:37.000Z</time>
      </trkpt>
      <trkpt lat="47.27182" lon="-2.28889">
        <ele>9.8000001907349</ele>
        <time>2021-08-19T09:49:43.000Z</time>
      </trkpt>
      <trkpt lat="47.27179" lon="-2.28955">
        <ele>9.8000001907349</ele>
        <time>2021-08-19T09:49:49.000Z</time>
      </trkpt>
      <trkpt lat="47.27187" lon="-2.29018">
        <ele>9.8000001907349</ele>
        <time>2021-08-19T09:49:55.000Z</time>
      </trkpt>
      <trkpt lat="47.27196" lon="-2.29083">
        <ele>9.8000001907349</ele>
        <time>2021-08-19T09:50:02.000Z</time>
      </trkpt>
      <trkpt lat="47.27197" lon="-2.29104">
        <ele>9.8000001907349</ele>
        <time>2021-08-19T09:50:05.000Z</time>
      </trkpt>
      <trkpt lat="47.27194" lon="-2.2911">
        <ele>9.8000001907349</ele>
        <time>2021-08-19T09:50:06.000Z</time>
      </trkpt>
      <trkpt lat="47.27186" lon="-2.29127">
        <ele>9.8000001907349</ele>
        <time>2021-08-19T09:50:09.000Z</time>
      </trkpt>
      <trkpt lat="47.2718" lon="-2.29132">
        <ele>9.8000001907349</ele>
        <time>2021-08-19T09:50:10.000Z</time>
      </trkpt>
      <trkpt lat="47.27154" lon="-2.29162">
        <ele>9.8000001907349</ele>
        <time>2021-08-19T09:50:15.000Z</time>
      </trkpt>
      <trkpt lat="47.27151" lon="-2.2917">
        <ele>9.8000001907349</ele>
        <time>2021-08-19T09:50:16.000Z</time>
      </trkpt>
      <trkpt lat="47.27152" lon="-2.29185">
        <ele>9.8000001907349</ele>
        <time>2021-08-19T09:50:18.000Z</time>
      </trkpt>
      <trkpt lat="47.2716" lon="-2.29203">
        <ele>9.8000001907349</ele>
        <time>2021-08-19T09:50:21.000Z</time>
      </trkpt>
      <trkpt lat="47.27162" lon="-2.29208">
        <ele>9.8000001907349</ele>
        <time>2021-08-19T09:50:22.000Z</time>
      </trkpt>
      <trkpt lat="47.27172" lon="-2.29229">
        <ele>9.8000001907349</ele>
        <time>2021-08-19T09:50:27.000Z</time>
      </trkpt>
      <trkpt lat="47.27174" lon="-2.29253">
        <ele>9.8000001907349</ele>
        <time>2021-08-19T09:50:32.000Z</time>
      </trkpt>
      <trkpt lat="47.27168" lon="-2.29266">
        <ele>9.8000001907349</ele>
        <time>2021-08-19T09:50:36.000Z</time>
      </trkpt>
      <trkpt lat="47.27165" lon="-2.29273">
        <ele>9.8000001907349</ele>
        <time>2021-08-19T09:50:40.000Z</time>
      </trkpt>
      <trkpt lat="47.27163" lon="-2.29279">
        <ele>9.8000001907349</ele>
        <time>2021-08-19T09:50:42.000Z</time>
      </trkpt>
      <trkpt lat="47.27155" lon="-2.29304">
        <ele>9.8000001907349</ele>
        <time>2021-08-19T09:50:48.000Z</time>
      </trkpt>
      <trkpt lat="47.27158" lon="-2.29312">
        <ele>9.8000001907349</ele>
        <time>2021-08-19T09:50:50.000Z</time>
      </trkpt>
      <trkpt lat="47.27162" lon="-2.2932">
        <ele>9.8000001907349</ele>
        <time>2021-08-19T09:50:52.000Z</time>
      </trkpt>
      <trkpt lat="47.27179" lon="-2.2934">
        <ele>9.8000001907349</ele>
        <time>2021-08-19T09:50:57.000Z</time>
      </trkpt>
      <trkpt lat="47.27185" lon="-2.29351">
        <ele>9.8000001907349</ele>
        <time>2021-08-19T09:50:59.000Z</time>
      </trkpt>
      <trkpt lat="47.27194" lon="-2.29371">
        <ele>9.8000001907349</ele>
        <time>2021-08-19T09:51:02.000Z</time>
      </trkpt>
      <trkpt lat="47.27211" lon="-2.29422">
        <ele>9.8000001907349</ele>
        <time>2021-08-19T09:51:10.000Z</time>
      </trkpt>
      <trkpt lat="47.27223" lon="-2.29467">
        <ele>9.8000001907349</ele>
        <time>2021-08-19T09:51:16.000Z</time>
      </trkpt>
      <trkpt lat="47.27236" lon="-2.29506">
        <ele>9.8000001907349</ele>
        <time>2021-08-19T09:51:22.000Z</time>
      </trkpt>
      <trkpt lat="47.27252" lon="-2.29547">
        <ele>9.8000001907349</ele>
        <time>2021-08-19T09:51:28.000Z</time>
      </trkpt>
      <trkpt lat="47.27253" lon="-2.29555">
        <ele>9.8000001907349</ele>
        <time>2021-08-19T09:51:29.000Z</time>
      </trkpt>
      <trkpt lat="47.2726" lon="-2.29579">
        <ele>9.8000001907349</ele>
        <time>2021-08-19T09:51:32.000Z</time>
      </trkpt>
      <trkpt lat="47.27265" lon="-2.29604">
        <ele>9.8000001907349</ele>
        <time>2021-08-19T09:51:35.000Z</time>
      </trkpt>
      <trkpt lat="47.27268" lon="-2.2963">
        <ele>9.8000001907349</ele>
        <time>2021-08-19T09:51:39.000Z</time>
      </trkpt>
      <trkpt lat="47.27273" lon="-2.29647">
        <ele>9.8000001907349</ele>
        <time>2021-08-19T09:51:43.000Z</time>
      </trkpt>
      <trkpt lat="47.27276" lon="-2.2966">
        <ele>9.8000001907349</ele>
        <time>2021-08-19T09:51:45.000Z</time>
      </trkpt>
      <trkpt lat="47.27279" lon="-2.29679">
        <ele>9.8000001907349</ele>
        <time>2021-08-19T09:51:48.000Z</time>
      </trkpt>
      <trkpt lat="47.27286" lon="-2.29707">
        <ele>9.8000001907349</ele>
        <time>2021-08-19T09:51:52.000Z</time>
      </trkpt>
      <trkpt lat="47.27287" lon="-2.29713">
        <ele>9.8000001907349</ele>
        <time>2021-08-19T09:51:53.000Z</time>
      </trkpt>
      <trkpt lat="47.27295" lon="-2.29753">
        <ele>9.8000001907349</ele>
        <time>2021-08-19T09:51:58.000Z</time>
      </trkpt>
      <trkpt lat="47.27312" lon="-2.29806">
        <ele>9.8000001907349</ele>
        <time>2021-08-19T09:52:05.000Z</time>
      </trkpt>
      <trkpt lat="47.27317" lon="-2.29812">
        <ele>9.8000001907349</ele>
        <time>2021-08-19T09:52:06.000Z</time>
      </trkpt>
      <trkpt lat="47.27337" lon="-2.29844">
        <ele>9.8000001907349</ele>
        <time>2021-08-19T09:52:11.000Z</time>
      </trkpt>
      <trkpt lat="47.27363" lon="-2.29897">
        <ele>9.8000001907349</ele>
        <time>2021-08-19T09:52:18.000Z</time>
      </trkpt>
      <trkpt lat="47.27386" lon="-2.29949">
        <ele>9.8000001907349</ele>
        <time>2021-08-19T09:52:24.000Z</time>
      </trkpt>
      <trkpt lat="47.27408" lon="-2.3">
        <ele>9.8000001907349</ele>
        <time>2021-08-19T09:52:30.000Z</time>
      </trkpt>
      <trkpt lat="47.27415" lon="-2.30015">
        <ele>9.8000001907349</ele>
        <time>2021-08-19T09:52:33.000Z</time>
      </trkpt>
      <trkpt lat="47.27423" lon="-2.30039">
        <ele>9.8000001907349</ele>
        <time>2021-08-19T09:52:37.000Z</time>
      </trkpt>
      <trkpt lat="47.27425" lon="-2.30046">
        <ele>9.8000001907349</ele>
        <time>2021-08-19T09:52:38.000Z</time>
      </trkpt>
      <trkpt lat="47.27438" lon="-2.3009">
        <ele>9.8000001907349</ele>
        <time>2021-08-19T09:52:44.000Z</time>
      </trkpt>
      <trkpt lat="47.27449" lon="-2.30134">
        <ele>9.8000001907349</ele>
        <time>2021-08-19T09:52:49.000Z</time>
      </trkpt>
      <trkpt lat="47.27457" lon="-2.30182">
        <ele>9.3999996185303</ele>
        <time>2021-08-19T09:52:54.000Z</time>
      </trkpt>
      <trkpt lat="47.27459" lon="-2.30192">
        <ele>9</ele>
        <time>2021-08-19T09:52:55.000Z</time>
      </trkpt>
      <trkpt lat="47.27461" lon="-2.30202">
        <ele>8.6000003814697</ele>
        <time>2021-08-19T09:52:56.000Z</time>
      </trkpt>
      <trkpt lat="47.27463" lon="-2.30212">
        <ele>8.1999998092651</ele>
        <time>2021-08-19T09:52:57.000Z</time>
      </trkpt>
      <trkpt lat="47.27465" lon="-2.30222">
        <ele>7.8000001907349</ele>
        <time>2021-08-19T09:52:58.000Z</time>
      </trkpt>
      <trkpt lat="47.27476" lon="-2.30262">
        <ele>7.8000001907349</ele>
        <time>2021-08-19T09:53:02.000Z</time>
      </trkpt>
      <trkpt lat="47.27486" lon="-2.30307">
        <ele>7.4000000953674</ele>
        <time>2021-08-19T09:53:06.000Z</time>
      </trkpt>
      <trkpt lat="47.27488" lon="-2.30319">
        <ele>7</ele>
        <time>2021-08-19T09:53:07.000Z</time>
      </trkpt>
      <trkpt lat="47.2749" lon="-2.3033">
        <ele>6.5999999046326</ele>
        <time>2021-08-19T09:53:08.000Z</time>
      </trkpt>
      <trkpt lat="47.27492" lon="-2.30342">
        <ele>6.1999998092651</ele>
        <time>2021-08-19T09:53:09.000Z</time>
      </trkpt>
      <trkpt lat="47.27493" lon="-2.30353">
        <ele>5.8000001907349</ele>
        <time>2021-08-19T09:53:10.000Z</time>
      </trkpt>
      <trkpt lat="47.27498" lon="-2.30376">
        <ele>5.4000000953674</ele>
        <time>2021-08-19T09:53:12.000Z</time>
      </trkpt>
      <trkpt lat="47.275" lon="-2.30387">
        <ele>4.8000001907349</ele>
        <time>2021-08-19T09:53:13.000Z</time>
      </trkpt>
      <trkpt lat="47.27502" lon="-2.30399">
        <ele>4.4000000953674</ele>
        <time>2021-08-19T09:53:14.000Z</time>
      </trkpt>
      <trkpt lat="47.27504" lon="-2.3041">
        <ele>4</ele>
        <time>2021-08-19T09:53:15.000Z</time>
      </trkpt>
      <trkpt lat="47.27505" lon="-2.30419">
        <ele>3.4000000953674</ele>
        <time>2021-08-19T09:53:16.000Z</time>
      </trkpt>
      <trkpt lat="47.27506" lon="-2.30425">
        <ele>3</ele>
        <time>2021-08-19T09:53:17.000Z</time>
      </trkpt>
      <trkpt lat="47.27505" lon="-2.30429">
        <ele>2.4000000953674</ele>
        <time>2021-08-19T09:53:18.000Z</time>
      </trkpt>
      <trkpt lat="47.27502" lon="-2.30433">
        <ele>1.7999999523163</ele>
        <time>2021-08-19T09:53:19.000Z</time>
      </trkpt>
      <trkpt lat="47.275" lon="-2.30436">
        <ele>1.3999999761581</ele>
        <time>2021-08-19T09:53:20.000Z</time>
      </trkpt>
      <trkpt lat="47.27497" lon="-2.30437">
        <ele>0.80000001192093</ele>
        <time>2021-08-19T09:53:21.000Z</time>
      </trkpt>
      <trkpt lat="47.2749" lon="-2.30439">
        <ele>0.80000001192093</ele>
        <time>2021-08-19T09:53:23.000Z</time>
      </trkpt>
      <trkpt lat="47.27482" lon="-2.30442">
        <ele>0.80000001192093</ele>
        <time>2021-08-19T09:53:25.000Z</time>
      </trkpt>
      <trkpt lat="47.27471" lon="-2.30444">
        <ele>0.80000001192093</ele>
        <time>2021-08-19T09:53:27.000Z</time>
      </trkpt>
      <trkpt lat="47.27449" lon="-2.3045">
        <ele>0.80000001192093</ele>
        <time>2021-08-19T09:53:31.000Z</time>
      </trkpt>
      <trkpt lat="47.27436" lon="-2.3045">
        <ele>0.80000001192093</ele>
        <time>2021-08-19T09:53:33.000Z</time>
      </trkpt>
      <trkpt lat="47.27419" lon="-2.30453">
        <ele>0.80000001192093</ele>
        <time>2021-08-19T09:53:36.000Z</time>
      </trkpt>
      <trkpt lat="47.27416" lon="-2.30456">
        <ele>0.80000001192093</ele>
        <time>2021-08-19T09:53:37.000Z</time>
      </trkpt>
      <trkpt lat="47.2741" lon="-2.30459">
        <ele>0.80000001192093</ele>
        <time>2021-08-19T09:53:40.000Z</time>
      </trkpt>
      <trkpt lat="47.27408" lon="-2.3046">
        <ele>0.80000001192093</ele>
        <time>2021-08-19T09:53:42.000Z</time>
      </trkpt>
      <trkpt lat="47.27407" lon="-2.30461">
        <ele>0.80000001192093</ele>
        <time>2021-08-19T09:53:43.000Z</time>
      </trkpt>
      <trkpt lat="47.27407" lon="-2.30469">
        <ele>0.80000001192093</ele>
        <time>2021-08-19T09:53:45.000Z</time>
      </trkpt>
      <trkpt lat="47.27399" lon="-2.30479">
        <ele>0.40000000596046</ele>
        <time>2021-08-19T09:53:48.000Z</time>
      </trkpt>
      <trkpt lat="47.27394" lon="-2.30484">
        <ele>19.1</ele>
        <time>2021-08-19T09:53:49.000Z</time>
      </trkpt>
      <trkpt lat="47.27391" lon="-2.30487">
        <ele>-0.40000000596046</ele>
        <time>2021-08-19T09:53:50.000Z</time>
      </trkpt>
      <trkpt lat="47.27386" lon="-2.30491">
        <ele>-0.80000001192093</ele>
        <time>2021-08-19T09:53:51.000Z</time>
      </trkpt>
      <trkpt lat="47.27382" lon="-2.30494">
        <ele>-1.2000000476837</ele>
        <time>2021-08-19T09:53:52.000Z</time>
      </trkpt>
      <trkpt lat="47.27369" lon="-2.30503">
        <ele>-1.2000000476837</ele>
        <time>2021-08-19T09:53:55.000Z</time>
      </trkpt>
      <trkpt lat="47.27356" lon="-2.3051">
        <ele>-1.2000000476837</ele>
        <time>2021-08-19T09:53:58.000Z</time>
      </trkpt>
      <trkpt lat="47.27345" lon="-2.30513">
        <ele>-1.2000000476837</ele>
        <time>2021-08-19T09:54:01.000Z</time>
      </trkpt>
      <trkpt lat="47.27324" lon="-2.30518">
        <ele>-1.2000000476837</ele>
        <time>2021-08-19T09:54:06.000Z</time>
      </trkpt>
      <trkpt lat="47.27301" lon="-2.30531">
        <ele>-1.2000000476837</ele>
        <time>2021-08-19T09:54:12.000Z</time>
      </trkpt>
      <trkpt lat="47.27285" lon="-2.30543">
        <ele>-1.2000000476837</ele>
        <time>2021-08-19T09:54:17.000Z</time>
      </trkpt>
      <trkpt lat="47.27279" lon="-2.30546">
        <ele>-1.2000000476837</ele>
        <time>2021-08-19T09:54:19.000Z</time>
      </trkpt>
      <trkpt lat="47.27274" lon="-2.30544">
        <ele>-1.2000000476837</ele>
        <time>2021-08-19T09:54:21.000Z</time>
      </trkpt>
      <trkpt lat="47.27261" lon="-2.30545">
        <ele>-1.2000000476837</ele>
        <time>2021-08-19T09:54:26.000Z</time>
      </trkpt>
      <trkpt lat="47.27257" lon="-2.30545">
        <ele>-1.2000000476837</ele>
        <time>2021-08-19T09:54:27.000Z</time>
      </trkpt>
      <trkpt lat="47.27241" lon="-2.30544">
        <ele>-1.2000000476837</ele>
        <time>2021-08-19T09:54:31.000Z</time>
      </trkpt>
      <trkpt lat="47.27222" lon="-2.30547">
        <ele>-1.2000000476837</ele>
        <time>2021-08-19T09:54:37.000Z</time>
      </trkpt>
      <trkpt lat="47.27218" lon="-2.30546">
        <ele>-1.2000000476837</ele>
        <time>2021-08-19T09:54:39.000Z</time>
      </trkpt>
      <trkpt lat="47.27212" lon="-2.30544">
        <ele>-1.2000000476837</ele>
        <time>2021-08-19T09:54:41.000Z</time>
      </trkpt>
      <trkpt lat="47.27206" lon="-2.30543">
        <ele>-1.2000000476837</ele>
        <time>2021-08-19T09:54:43.000Z</time>
      </trkpt>
      <trkpt lat="47.27197" lon="-2.30541">
        <ele>-1.2000000476837</ele>
        <time>2021-08-19T09:54:46.000Z</time>
      </trkpt>
      <trkpt lat="47.27175" lon="-2.3053">
        <ele>-0.40000000596046</ele>
        <time>2021-08-19T09:54:53.000Z</time>
      </trkpt>
      <trkpt lat="47.27171" lon="-2.30527">
        <ele>21.1</ele>
        <time>2021-08-19T09:54:54.000Z</time>
      </trkpt>
      <trkpt lat="47.27169" lon="-2.30524">
        <ele>0.40000000596046</ele>
        <time>2021-08-19T09:54:55.000Z</time>
      </trkpt>
      <trkpt lat="47.27166" lon="-2.30522">
        <ele>1</ele>
        <time>2021-08-19T09:54:56.000Z</time>
      </trkpt>
      <trkpt lat="47.2716" lon="-2.30516">
        <ele>1</ele>
        <time>2021-08-19T09:54:58.000Z</time>
      </trkpt>
      <trkpt lat="47.27139" lon="-2.30504">
        <ele>1</ele>
        <time>2021-08-19T09:55:04.000Z</time>
      </trkpt>
      <trkpt lat="47.27123" lon="-2.30497">
        <ele>1.3999999761581</ele>
        <time>2021-08-19T09:55:08.000Z</time>
      </trkpt>
      <trkpt lat="47.2712" lon="-2.30495">
        <ele>1.7999999523163</ele>
        <time>2021-08-19T09:55:09.000Z</time>
      </trkpt>
      <trkpt lat="47.27117" lon="-2.30494">
        <ele>2.2000000476837</ele>
        <time>2021-08-19T09:55:10.000Z</time>
      </trkpt>
      <trkpt lat="47.27114" lon="-2.30495">
        <ele>2.5999999046326</ele>
        <time>2021-08-19T09:55:11.000Z</time>
      </trkpt>
      <trkpt lat="47.2711" lon="-2.30494">
        <ele>3</ele>
        <time>2021-08-19T09:55:12.000Z</time>
      </trkpt>
      <trkpt lat="47.27107" lon="-2.30493">
        <ele>3</ele>
        <time>2021-08-19T09:55:13.000Z</time>
      </trkpt>
      <trkpt lat="47.27097" lon="-2.3049">
        <ele>3</ele>
        <time>2021-08-19T09:55:16.000Z</time>
      </trkpt>
      <trkpt lat="47.27087" lon="-2.30487">
        <ele>3</ele>
        <time>2021-08-19T09:55:19.000Z</time>
      </trkpt>
      <trkpt lat="47.27082" lon="-2.30484">
        <ele>3</ele>
        <time>2021-08-19T09:55:20.000Z</time>
      </trkpt>
      <trkpt lat="47.27078" lon="-2.30482">
        <ele>3.4000000953674</ele>
        <time>2021-08-19T09:55:21.000Z</time>
      </trkpt>
      <trkpt lat="47.27073" lon="-2.30481">
        <ele>3.7999999523163</ele>
        <time>2021-08-19T09:55:22.000Z</time>
      </trkpt>
      <trkpt lat="47.27069" lon="-2.30481">
        <ele>4.1999998092651</ele>
        <time>2021-08-19T09:55:23.000Z</time>
      </trkpt>
      <trkpt lat="47.27065" lon="-2.3048">
        <ele>4.5999999046326</ele>
        <time>2021-08-19T09:55:24.000Z</time>
      </trkpt>
      <trkpt lat="47.27061" lon="-2.30479">
        <ele>5</ele>
        <time>2021-08-19T09:55:25.000Z</time>
      </trkpt>
      <trkpt lat="47.27048" lon="-2.30476">
        <ele>5</ele>
        <time>2021-08-19T09:55:29.000Z</time>
      </trkpt>
      <trkpt lat="47.27046" lon="-2.30479">
        <ele>5</ele>
        <time>2021-08-19T09:55:30.000Z</time>
      </trkpt>
      <trkpt lat="47.27044" lon="-2.30488">
        <ele>5</ele>
        <time>2021-08-19T09:55:32.000Z</time>
      </trkpt>
      <trkpt lat="47.27039" lon="-2.30509">
        <ele>5</ele>
        <time>2021-08-19T09:55:36.000Z</time>
      </trkpt>
      <trkpt lat="47.27036" lon="-2.30517">
        <ele>5.4000000953674</ele>
        <time>2021-08-19T09:55:37.000Z</time>
      </trkpt>
      <trkpt lat="47.27034" lon="-2.30522">
        <ele>5.8000001907349</ele>
        <time>2021-08-19T09:55:38.000Z</time>
      </trkpt>
      <trkpt lat="47.27032" lon="-2.30529">
        <ele>6.1999998092651</ele>
        <time>2021-08-19T09:55:39.000Z</time>
      </trkpt>
      <trkpt lat="47.27031" lon="-2.30535">
        <ele>6.5999999046326</ele>
        <time>2021-08-19T09:55:40.000Z</time>
      </trkpt>
      <trkpt lat="47.27029" lon="-2.30542">
        <ele>7</ele>
        <time>2021-08-19T09:55:41.000Z</time>
      </trkpt>
      <trkpt lat="47.2702" lon="-2.30571">
        <ele>7</ele>
        <time>2021-08-19T09:55:45.000Z</time>
      </trkpt>
      <trkpt lat="47.27018" lon="-2.30577">
        <ele>7</ele>
        <time>2021-08-19T09:55:46.000Z</time>
      </trkpt>
      <trkpt lat="47.27009" lon="-2.30596">
        <ele>7</ele>
        <time>2021-08-19T09:55:49.000Z</time>
      </trkpt>
      <trkpt lat="47.27" lon="-2.30605">
        <ele>7</ele>
        <time>2021-08-19T09:55:51.000Z</time>
      </trkpt>
      <trkpt lat="47.26983" lon="-2.30614">
        <ele>7</ele>
        <time>2021-08-19T09:55:54.000Z</time>
      </trkpt>
      <trkpt lat="47.26972" lon="-2.3062">
        <ele>7</ele>
        <time>2021-08-19T09:55:56.000Z</time>
      </trkpt>
      <trkpt lat="47.26935" lon="-2.30633">
        <ele>7</ele>
        <time>2021-08-19T09:56:03.000Z</time>
      </trkpt>
      <trkpt lat="47.26919" lon="-2.30639">
        <ele>7</ele>
        <time>2021-08-19T09:56:07.000Z</time>
      </trkpt>
      <trkpt lat="47.26916" lon="-2.30642">
        <ele>7</ele>
        <time>2021-08-19T09:56:08.000Z</time>
      </trkpt>
      <trkpt lat="47.26902" lon="-2.30666">
        <ele>7</ele>
        <time>2021-08-19T09:56:14.000Z</time>
      </trkpt>
      <trkpt lat="47.26902" lon="-2.30672">
        <ele>7</ele>
        <time>2021-08-19T09:56:15.000Z</time>
      </trkpt>
      <trkpt lat="47.26908" lon="-2.30683">
        <ele>7</ele>
        <time>2021-08-19T09:56:17.000Z</time>
      </trkpt>
      <trkpt lat="47.26912" lon="-2.30687">
        <ele>7</ele>
        <time>2021-08-19T09:56:18.000Z</time>
      </trkpt>
      <trkpt lat="47.26924" lon="-2.30702">
        <ele>7</ele>
        <time>2021-08-19T09:56:21.000Z</time>
      </trkpt>
      <trkpt lat="47.26949" lon="-2.30739">
        <ele>7</ele>
        <time>2021-08-19T09:56:27.000Z</time>
      </trkpt>
      <trkpt lat="47.26979" lon="-2.30782">
        <ele>7</ele>
        <time>2021-08-19T09:56:33.000Z</time>
      </trkpt>
      <trkpt lat="47.27009" lon="-2.30826">
        <ele>6.5999999046326</ele>
        <time>2021-08-19T09:56:39.000Z</time>
      </trkpt>
      <trkpt lat="47.27014" lon="-2.30834">
        <ele>6.1999998092651</ele>
        <time>2021-08-19T09:56:40.000Z</time>
      </trkpt>
      <trkpt lat="47.27019" lon="-2.30842">
        <ele>5.8000001907349</ele>
        <time>2021-08-19T09:56:41.000Z</time>
      </trkpt>
      <trkpt lat="47.27023" lon="-2.30848">
        <ele>5.4000000953674</ele>
        <time>2021-08-19T09:56:42.000Z</time>
      </trkpt>
      <trkpt lat="47.27028" lon="-2.30855">
        <ele>5</ele>
        <time>2021-08-19T09:56:43.000Z</time>
      </trkpt>
      <trkpt lat="47.27038" lon="-2.3087">
        <ele>5</ele>
        <time>2021-08-19T09:56:45.000Z</time>
      </trkpt>
      <trkpt lat="47.27044" lon="-2.30881">
        <ele>4.5999999046326</ele>
        <time>2021-08-19T09:56:47.000Z</time>
      </trkpt>
      <trkpt lat="47.27046" lon="-2.30885">
        <ele>4</ele>
        <time>2021-08-19T09:56:48.000Z</time>
      </trkpt>
      <trkpt lat="47.27048" lon="-2.30888">
        <ele>3.4000000953674</ele>
        <time>2021-08-19T09:56:49.000Z</time>
      </trkpt>
      <trkpt lat="47.27049" lon="-2.3089">
        <ele>3</ele>
        <time>2021-08-19T09:56:50.000Z</time>
      </trkpt>
      <trkpt lat="47.27048" lon="-2.3089">
        <ele>2.4000000953674</ele>
        <time>2021-08-19T09:56:51.000Z</time>
      </trkpt>
      <trkpt lat="47.27048" lon="-2.3089">
        <ele>2.4000000953674</ele>
        <time>2021-08-19T09:56:53.000Z</time>
      </trkpt>
      <trkpt lat="47.27049" lon="-2.30892">
        <ele>2.4000000953674</ele>
        <time>2021-08-19T09:56:57.000Z</time>
      </trkpt>
      <trkpt lat="47.2705" lon="-2.30898">
        <ele>2.4000000953674</ele>
        <time>2021-08-19T09:56:59.000Z</time>
      </trkpt>
      <trkpt lat="47.27059" lon="-2.30919">
        <ele>2.4000000953674</ele>
        <time>2021-08-19T09:57:03.000Z</time>
      </trkpt>
      <trkpt lat="47.27065" lon="-2.30935">
        <ele>2.4000000953674</ele>
        <time>2021-08-19T09:57:06.000Z</time>
      </trkpt>
      <trkpt lat="47.27066" lon="-2.3094">
        <ele>2.4000000953674</ele>
        <time>2021-08-19T09:57:07.000Z</time>
      </trkpt>
      <trkpt lat="47.27071" lon="-2.30976">
        <ele>2.4000000953674</ele>
        <time>2021-08-19T09:57:12.000Z</time>
      </trkpt>
      <trkpt lat="47.27069" lon="-2.30996">
        <ele>2.4000000953674</ele>
        <time>2021-08-19T09:57:16.000Z</time>
      </trkpt>
      <trkpt lat="47.27054" lon="-2.31015">
        <ele>2.4000000953674</ele>
        <time>2021-08-19T09:57:21.000Z</time>
      </trkpt>
      <trkpt lat="47.27023" lon="-2.3104">
        <ele>2.4000000953674</ele>
        <time>2021-08-19T09:57:27.000Z</time>
      </trkpt>
      <trkpt lat="47.27008" lon="-2.31069">
        <ele>2.4000000953674</ele>
        <time>2021-08-19T09:57:32.000Z</time>
      </trkpt>
      <trkpt lat="47.27005" lon="-2.31091">
        <ele>3</ele>
        <time>2021-08-19T09:57:35.000Z</time>
      </trkpt>
      <trkpt lat="47.27004" lon="-2.31099">
        <ele>3.4000000953674</ele>
        <time>2021-08-19T09:57:36.000Z</time>
      </trkpt>
      <trkpt lat="47.27004" lon="-2.31106">
        <ele>3.7999999523163</ele>
        <time>2021-08-19T09:57:37.000Z</time>
      </trkpt>
      <trkpt lat="47.27003" lon="-2.31114">
        <ele>4.1999998092651</ele>
        <time>2021-08-19T09:57:38.000Z</time>
      </trkpt>
      <trkpt lat="47.27002" lon="-2.31122">
        <ele>4.5999999046326</ele>
        <time>2021-08-19T09:57:39.000Z</time>
      </trkpt>
      <trkpt lat="47.26997" lon="-2.31146">
        <ele>4.5999999046326</ele>
        <time>2021-08-19T09:57:42.000Z</time>
      </trkpt>
      <trkpt lat="47.26996" lon="-2.31153">
        <ele>4.5999999046326</ele>
        <time>2021-08-19T09:57:43.000Z</time>
      </trkpt>
      <trkpt lat="47.26995" lon="-2.31174">
        <ele>5.4000000953674</ele>
        <time>2021-08-19T09:57:46.000Z</time>
      </trkpt>
      <trkpt lat="47.26994" lon="-2.31181">
        <ele>5.8000001907349</ele>
        <time>2021-08-19T09:57:47.000Z</time>
      </trkpt>
      <trkpt lat="47.26993" lon="-2.31188">
        <ele>6.4000000953674</ele>
        <time>2021-08-19T09:57:48.000Z</time>
      </trkpt>
      <trkpt lat="47.26991" lon="-2.31195">
        <ele>6.8000001907349</ele>
        <time>2021-08-19T09:57:49.000Z</time>
      </trkpt>
      <trkpt lat="47.26983" lon="-2.3123">
        <ele>6.8000001907349</ele>
        <time>2021-08-19T09:57:54.000Z</time>
      </trkpt>
      <trkpt lat="47.26982" lon="-2.31246">
        <ele>6.8000001907349</ele>
        <time>2021-08-19T09:57:56.000Z</time>
      </trkpt>
      <trkpt lat="47.26983" lon="-2.3126">
        <ele>6.8000001907349</ele>
        <time>2021-08-19T09:57:58.000Z</time>
      </trkpt>
      <trkpt lat="47.26984" lon="-2.31266">
        <ele>6.8000001907349</ele>
        <time>2021-08-19T09:57:59.000Z</time>
      </trkpt>
      <trkpt lat="47.26984" lon="-2.31273">
        <ele>7.1999998092651</ele>
        <time>2021-08-19T09:58:00.000Z</time>
      </trkpt>
      <trkpt lat="47.26983" lon="-2.3128">
        <ele>7.5999999046326</ele>
        <time>2021-08-19T09:58:01.000Z</time>
      </trkpt>
      <trkpt lat="47.26982" lon="-2.31287">
        <ele>8</ele>
        <time>2021-08-19T09:58:02.000Z</time>
      </trkpt>
      <trkpt lat="47.26982" lon="-2.31294">
        <ele>8.3999996185303</ele>
        <time>2021-08-19T09:58:03.000Z</time>
      </trkpt>
      <trkpt lat="47.26982" lon="-2.31301">
        <ele>8.8000001907349</ele>
        <time>2021-08-19T09:58:04.000Z</time>
      </trkpt>
      <trkpt lat="47.26985" lon="-2.31339">
        <ele>8.8000001907349</ele>
        <time>2021-08-19T09:58:10.000Z</time>
      </trkpt>
      <trkpt lat="47.26988" lon="-2.3139">
        <ele>8.8000001907349</ele>
        <time>2021-08-19T09:58:16.000Z</time>
      </trkpt>
      <trkpt lat="47.26991" lon="-2.31442">
        <ele>8.3999996185303</ele>
        <time>2021-08-19T09:58:21.000Z</time>
      </trkpt>
      <trkpt lat="47.26991" lon="-2.31451">
        <ele>8</ele>
        <time>2021-08-19T09:58:22.000Z</time>
      </trkpt>
      <trkpt lat="47.26992" lon="-2.3146">
        <ele>7.5999999046326</ele>
        <time>2021-08-19T09:58:23.000Z</time>
      </trkpt>
      <trkpt lat="47.26993" lon="-2.3147">
        <ele>7</ele>
        <time>2021-08-19T09:58:24.000Z</time>
      </trkpt>
      <trkpt lat="47.26994" lon="-2.3148">
        <ele>6.5999999046326</ele>
        <time>2021-08-19T09:58:25.000Z</time>
      </trkpt>
      <trkpt lat="47.27" lon="-2.3152">
        <ele>6.1999998092651</ele>
        <time>2021-08-19T09:58:29.000Z</time>
      </trkpt>
      <trkpt lat="47.27002" lon="-2.31531">
        <ele>5.8000001907349</ele>
        <time>2021-08-19T09:58:30.000Z</time>
      </trkpt>
      <trkpt lat="47.27005" lon="-2.31542">
        <ele>5.1999998092651</ele>
        <time>2021-08-19T09:58:31.000Z</time>
      </trkpt>
      <trkpt lat="47.27008" lon="-2.31553">
        <ele>4.8000001907349</ele>
        <time>2021-08-19T09:58:32.000Z</time>
      </trkpt>
      <trkpt lat="47.2701" lon="-2.31563">
        <ele>4.4000000953674</ele>
        <time>2021-08-19T09:58:33.000Z</time>
      </trkpt>
      <trkpt lat="47.27016" lon="-2.3158">
        <ele>3.2000000476837</ele>
        <time>2021-08-19T09:58:35.000Z</time>
      </trkpt>
      <trkpt lat="47.27019" lon="-2.31587">
        <ele>2.7999999523163</ele>
        <time>2021-08-19T09:58:36.000Z</time>
      </trkpt>
      <trkpt lat="47.27021" lon="-2.31594">
        <ele>2.2000000476837</ele>
        <time>2021-08-19T09:58:37.000Z</time>
      </trkpt>
      <trkpt lat="47.27023" lon="-2.31601">
        <ele>1.6000000238419</ele>
        <time>2021-08-19T09:58:38.000Z</time>
      </trkpt>
      <trkpt lat="47.27025" lon="-2.31609">
        <ele>1</ele>
        <time>2021-08-19T09:58:39.000Z</time>
      </trkpt>
      <trkpt lat="47.27027" lon="-2.31616">
        <ele>0.40000000596046</ele>
        <time>2021-08-19T09:58:40.000Z</time>
      </trkpt>
      <trkpt lat="47.27029" lon="-2.31624">
        <ele>-0.20000000298023</ele>
        <time>2021-08-19T09:58:41.000Z</time>
      </trkpt>
      <trkpt lat="47.27031" lon="-2.31633">
        <ele>-0.60000002384186</ele>
        <time>2021-08-19T09:58:42.000Z</time>
      </trkpt>
      <trkpt lat="47.27032" lon="-2.31651">
        <ele>-0.60000002384186</ele>
        <time>2021-08-19T09:58:44.000Z</time>
      </trkpt>
      <trkpt lat="47.27031" lon="-2.31661">
        <ele>-1.2000000476837</ele>
        <time>2021-08-19T09:58:45.000Z</time>
      </trkpt>
      <trkpt lat="47.2703" lon="-2.3167">
        <ele>-1.6000000238419</ele>
        <time>2021-08-19T09:58:46.000Z</time>
      </trkpt>
      <trkpt lat="47.27028" lon="-2.31678">
        <ele>-2</ele>
        <time>2021-08-19T09:58:47.000Z</time>
      </trkpt>
      <trkpt lat="47.27027" lon="-2.31684">
        <ele>-2.4000000953674</ele>
        <time>2021-08-19T09:58:48.000Z</time>
      </trkpt>
      <trkpt lat="47.27026" lon="-2.31689">
        <ele>-2.7999999523163</ele>
        <time>2021-08-19T09:58:49.000Z</time>
      </trkpt>
      <trkpt lat="47.27025" lon="-2.31691">
        <ele>-3.4000000953674</ele>
        <time>2021-08-19T09:58:50.000Z</time>
      </trkpt>
      <trkpt lat="47.27025" lon="-2.31693">
        <ele>-3.7999999523163</ele>
        <time>2021-08-19T09:58:51.000Z</time>
      </trkpt>
      <trkpt lat="47.27025" lon="-2.31693">
        <ele>-4.4000000953674</ele>
        <time>2021-08-19T09:58:52.000Z</time>
      </trkpt>
      <trkpt lat="47.27025" lon="-2.31697">
        <ele>-4.8000001907349</ele>
        <time>2021-08-19T09:59:01.000Z</time>
      </trkpt>
      <trkpt lat="47.27028" lon="-2.31704">
        <ele>-4.8000001907349</ele>
        <time>2021-08-19T09:59:03.000Z</time>
      </trkpt>
      <trkpt lat="47.27034" lon="-2.31709">
        <ele>-4.8000001907349</ele>
        <time>2021-08-19T09:59:05.000Z</time>
      </trkpt>
      <trkpt lat="47.27042" lon="-2.31716">
        <ele>-4.8000001907349</ele>
        <time>2021-08-19T09:59:07.000Z</time>
      </trkpt>
      <trkpt lat="47.27051" lon="-2.31723">
        <ele>-4.8000001907349</ele>
        <time>2021-08-19T09:59:09.000Z</time>
      </trkpt>
      <trkpt lat="47.27066" lon="-2.31735">
        <ele>-4.8000001907349</ele>
        <time>2021-08-19T09:59:12.000Z</time>
      </trkpt>
      <trkpt lat="47.27082" lon="-2.31748">
        <ele>-5.4000000953674</ele>
        <time>2021-08-19T09:59:15.000Z</time>
      </trkpt>
      <trkpt lat="47.27088" lon="-2.31753">
        <ele>-5.8000001907349</ele>
        <time>2021-08-19T09:59:16.000Z</time>
      </trkpt>
      <trkpt lat="47.27094" lon="-2.31758">
        <ele>-6.1999998092651</ele>
        <time>2021-08-19T09:59:17.000Z</time>
      </trkpt>
      <trkpt lat="47.27101" lon="-2.31764">
        <ele>-6.5999999046326</ele>
        <time>2021-08-19T09:59:18.000Z</time>
      </trkpt>
      <trkpt lat="47.27107" lon="-2.31769">
        <ele>-7</ele>
        <time>2021-08-19T09:59:19.000Z</time>
      </trkpt>
      <trkpt lat="47.27135" lon="-2.31804">
        <ele>-7</ele>
        <time>2021-08-19T09:59:24.000Z</time>
      </trkpt>
      <trkpt lat="47.27146" lon="-2.31821">
        <ele>-7.4000000953674</ele>
        <time>2021-08-19T09:59:26.000Z</time>
      </trkpt>
      <trkpt lat="47.27151" lon="-2.31829">
        <ele>-7.8000001907349</ele>
        <time>2021-08-19T09:59:27.000Z</time>
      </trkpt>
      <trkpt lat="47.27156" lon="-2.31838">
        <ele>-8.1999998092651</ele>
        <time>2021-08-19T09:59:28.000Z</time>
      </trkpt>
      <trkpt lat="47.27162" lon="-2.31846">
        <ele>-8.6000003814697</ele>
        <time>2021-08-19T09:59:29.000Z</time>
      </trkpt>
      <trkpt lat="47.27167" lon="-2.31855">
        <ele>-9.1999998092651</ele>
        <time>2021-08-19T09:59:30.000Z</time>
      </trkpt>
      <trkpt lat="47.27173" lon="-2.31863">
        <ele>-9.1999998092651</ele>
        <time>2021-08-19T09:59:31.000Z</time>
      </trkpt>
      <trkpt lat="47.27198" lon="-2.31893">
        <ele>-9.6000003814697</ele>
        <time>2021-08-19T09:59:35.000Z</time>
      </trkpt>
      <trkpt lat="47.27204" lon="-2.31899">
        <ele>-10</ele>
        <time>2021-08-19T09:59:36.000Z</time>
      </trkpt>
      <trkpt lat="47.2721" lon="-2.31904">
        <ele>-10.39999961853</ele>
        <time>2021-08-19T09:59:37.000Z</time>
      </trkpt>
      <trkpt lat="47.27217" lon="-2.31909">
        <ele>-10.800000190735</ele>
        <time>2021-08-19T09:59:38.000Z</time>
      </trkpt>
      <trkpt lat="47.27223" lon="-2.31912">
        <ele>-11.199999809265</ele>
        <time>2021-08-19T09:59:39.000Z</time>
      </trkpt>
      <trkpt lat="47.2724" lon="-2.31922">
        <ele>-11.199999809265</ele>
        <time>2021-08-19T09:59:42.000Z</time>
      </trkpt>
      <trkpt lat="47.27252" lon="-2.31927">
        <ele>-11.199999809265</ele>
        <time>2021-08-19T09:59:44.000Z</time>
      </trkpt>
      <trkpt lat="47.27282" lon="-2.31938">
        <ele>-11.199999809265</ele>
        <time>2021-08-19T09:59:49.000Z</time>
      </trkpt>
      <trkpt lat="47.27312" lon="-2.31959">
        <ele>-11.199999809265</ele>
        <time>2021-08-19T09:59:54.000Z</time>
      </trkpt>
      <trkpt lat="47.27324" lon="-2.31971">
        <ele>-11.199999809265</ele>
        <time>2021-08-19T09:59:56.000Z</time>
      </trkpt>
      <trkpt lat="47.27338" lon="-2.31992">
        <ele>-11.199999809265</ele>
        <time>2021-08-19T09:59:59.000Z</time>
      </trkpt>
      <trkpt lat="47.27357" lon="-2.32014">
        <ele>-11.60000038147</ele>
        <time>2021-08-19T10:00:03.000Z</time>
      </trkpt>
      <trkpt lat="47.2736" lon="-2.32017">
        <ele>-12</ele>
        <time>2021-08-19T10:00:04.000Z</time>
      </trkpt>
      <trkpt lat="47.27363" lon="-2.32018">
        <ele>-12.39999961853</ele>
        <time>2021-08-19T10:00:05.000Z</time>
      </trkpt>
      <trkpt lat="47.27366" lon="-2.32018">
        <ele>-12.800000190735</ele>
        <time>2021-08-19T10:00:06.000Z</time>
      </trkpt>
      <trkpt lat="47.27369" lon="-2.32018">
        <ele>-13.199999809265</ele>
        <time>2021-08-19T10:00:07.000Z</time>
      </trkpt>
      <trkpt lat="47.27372" lon="-2.3202">
        <ele>-13.199999809265</ele>
        <time>2021-08-19T10:00:08.000Z</time>
      </trkpt>
      <trkpt lat="47.27385" lon="-2.32031">
        <ele>-13.199999809265</ele>
        <time>2021-08-19T10:00:12.000Z</time>
      </trkpt>
      <trkpt lat="47.27392" lon="-2.32039">
        <ele>-13.199999809265</ele>
        <time>2021-08-19T10:00:14.000Z</time>
      </trkpt>
      <trkpt lat="47.27405" lon="-2.32054">
        <ele>-13.199999809265</ele>
        <time>2021-08-19T10:00:18.000Z</time>
      </trkpt>
      <trkpt lat="47.27413" lon="-2.32061">
        <ele>-12.800000190735</ele>
        <time>2021-08-19T10:00:20.000Z</time>
      </trkpt>
      <trkpt lat="47.27417" lon="-2.32064">
        <ele>-12.39999961853</ele>
        <time>2021-08-19T10:00:21.000Z</time>
      </trkpt>
      <trkpt lat="47.2742" lon="-2.32068">
        <ele>-12</ele>
        <time>2021-08-19T10:00:22.000Z</time>
      </trkpt>
      <trkpt lat="47.27424" lon="-2.32071">
        <ele>-11.39999961853</ele>
        <time>2021-08-19T10:00:23.000Z</time>
      </trkpt>
      <trkpt lat="47.27427" lon="-2.32075">
        <ele>-11</ele>
        <time>2021-08-19T10:00:24.000Z</time>
      </trkpt>
      <trkpt lat="47.27443" lon="-2.32094">
        <ele>-10.60000038147</ele>
        <time>2021-08-19T10:00:28.000Z</time>
      </trkpt>
      <trkpt lat="47.27447" lon="-2.321">
        <ele>-10.199999809265</ele>
        <time>2021-08-19T10:00:29.000Z</time>
      </trkpt>
      <trkpt lat="47.27451" lon="-2.32106">
        <ele>-9.8000001907349</ele>
        <time>2021-08-19T10:00:30.000Z</time>
      </trkpt>
      <trkpt lat="47.27456" lon="-2.32112">
        <ele>-9.3999996185303</ele>
        <time>2021-08-19T10:00:31.000Z</time>
      </trkpt>
      <trkpt lat="47.2746" lon="-2.32118">
        <ele>-9</ele>
        <time>2021-08-19T10:00:32.000Z</time>
      </trkpt>
      <trkpt lat="47.27475" lon="-2.32137">
        <ele>-9</ele>
        <time>2021-08-19T10:00:35.000Z</time>
      </trkpt>
      <trkpt lat="47.27503" lon="-2.32175">
        <ele>-9</ele>
        <time>2021-08-19T10:00:41.000Z</time>
      </trkpt>
      <trkpt lat="47.27516" lon="-2.32192">
        <ele>-8.6000003814697</ele>
        <time>2021-08-19T10:00:44.000Z</time>
      </trkpt>
      <trkpt lat="47.27521" lon="-2.32197">
        <ele>-8.1999998092651</ele>
        <time>2021-08-19T10:00:45.000Z</time>
      </trkpt>
      <trkpt lat="47.27525" lon="-2.32202">
        <ele>-7.8000001907349</ele>
        <time>2021-08-19T10:00:46.000Z</time>
      </trkpt>
      <trkpt lat="47.2753" lon="-2.32207">
        <ele>-7.4000000953674</ele>
        <time>2021-08-19T10:00:47.000Z</time>
      </trkpt>
      <trkpt lat="47.27534" lon="-2.32212">
        <ele>-7</ele>
        <time>2021-08-19T10:00:48.000Z</time>
      </trkpt>
      <trkpt lat="47.27538" lon="-2.32217">
        <ele>-7</ele>
        <time>2021-08-19T10:00:49.000Z</time>
      </trkpt>
      <trkpt lat="47.27556" lon="-2.32233">
        <ele>-6.5999999046326</ele>
        <time>2021-08-19T10:00:53.000Z</time>
      </trkpt>
      <trkpt lat="47.27561" lon="-2.32237">
        <ele>-6.1999998092651</ele>
        <time>2021-08-19T10:00:54.000Z</time>
      </trkpt>
      <trkpt lat="47.27565" lon="-2.32241">
        <ele>-5.8000001907349</ele>
        <time>2021-08-19T10:00:55.000Z</time>
      </trkpt>
      <trkpt lat="47.2757" lon="-2.32245">
        <ele>-5.4000000953674</ele>
        <time>2021-08-19T10:00:56.000Z</time>
      </trkpt>
      <trkpt lat="47.27574" lon="-2.32249">
        <ele>-5</ele>
        <time>2021-08-19T10:00:57.000Z</time>
      </trkpt>
      <trkpt lat="47.27577" lon="-2.32253">
        <ele>-4.5999999046326</ele>
        <time>2021-08-19T10:00:58.000Z</time>
      </trkpt>
      <trkpt lat="47.27582" lon="-2.32256">
        <ele>-4.1999998092651</ele>
        <time>2021-08-19T10:00:59.000Z</time>
      </trkpt>
      <trkpt lat="47.27586" lon="-2.32259">
        <ele>-3.7999999523163</ele>
        <time>2021-08-19T10:01:00.000Z</time>
      </trkpt>
      <trkpt lat="47.2759" lon="-2.32262">
        <ele>-3.4000000953674</ele>
        <time>2021-08-19T10:01:01.000Z</time>
      </trkpt>
      <trkpt lat="47.27594" lon="-2.32265">
        <ele>-3</ele>
        <time>2021-08-19T10:01:02.000Z</time>
      </trkpt>
      <trkpt lat="47.2761" lon="-2.32284">
        <ele>-3</ele>
        <time>2021-08-19T10:01:07.000Z</time>
      </trkpt>
      <trkpt lat="47.2761" lon="-2.32303">
        <ele>-3</ele>
        <time>2021-08-19T10:01:10.000Z</time>
      </trkpt>
      <trkpt lat="47.27606" lon="-2.32316">
        <ele>-3</ele>
        <time>2021-08-19T10:01:12.000Z</time>
      </trkpt>
      <trkpt lat="47.27596" lon="-2.32343">
        <ele>-3</ele>
        <time>2021-08-19T10:01:16.000Z</time>
      </trkpt>
      <trkpt lat="47.27581" lon="-2.32386">
        <ele>-3</ele>
        <time>2021-08-19T10:01:22.000Z</time>
      </trkpt>
      <trkpt lat="47.27579" lon="-2.32401">
        <ele>-3</ele>
        <time>2021-08-19T10:01:24.000Z</time>
      </trkpt>
      <trkpt lat="47.27572" lon="-2.32424">
        <ele>-3</ele>
        <time>2021-08-19T10:01:28.000Z</time>
      </trkpt>
      <trkpt lat="47.27563" lon="-2.32448">
        <ele>-3</ele>
        <time>2021-08-19T10:01:32.000Z</time>
      </trkpt>
      <trkpt lat="47.27562" lon="-2.32454">
        <ele>-3</ele>
        <time>2021-08-19T10:01:33.000Z</time>
      </trkpt>
      <trkpt lat="47.27553" lon="-2.32494">
        <ele>-3</ele>
        <time>2021-08-19T10:01:39.000Z</time>
      </trkpt>
      <trkpt lat="47.27547" lon="-2.32514">
        <ele>-3.4000000953674</ele>
        <time>2021-08-19T10:01:42.000Z</time>
      </trkpt>
      <trkpt lat="47.27545" lon="-2.32522">
        <ele>-4</ele>
        <time>2021-08-19T10:01:43.000Z</time>
      </trkpt>
      <trkpt lat="47.27543" lon="-2.32529">
        <ele>-4.4000000953674</ele>
        <time>2021-08-19T10:01:44.000Z</time>
      </trkpt>
      <trkpt lat="47.27541" lon="-2.32536">
        <ele>-5.1999998092651</ele>
        <time>2021-08-19T10:01:45.000Z</time>
      </trkpt>
      <trkpt lat="47.2754" lon="-2.32543">
        <ele>-5.8000001907349</ele>
        <time>2021-08-19T10:01:46.000Z</time>
      </trkpt>
      <trkpt lat="47.2754" lon="-2.32551">
        <ele>-6.4000000953674</ele>
        <time>2021-08-19T10:01:47.000Z</time>
      </trkpt>
      <trkpt lat="47.2754" lon="-2.32558">
        <ele>-7</ele>
        <time>2021-08-19T10:01:48.000Z</time>
      </trkpt>
      <trkpt lat="47.27541" lon="-2.32565">
        <ele>-7.5999999046326</ele>
        <time>2021-08-19T10:01:49.000Z</time>
      </trkpt>
      <trkpt lat="47.27544" lon="-2.32572">
        <ele>-8.1999998092651</ele>
        <time>2021-08-19T10:01:50.000Z</time>
      </trkpt>
      <trkpt lat="47.27547" lon="-2.32579">
        <ele>-8.8000001907349</ele>
        <time>2021-08-19T10:01:51.000Z</time>
      </trkpt>
      <trkpt lat="47.27548" lon="-2.32586">
        <ele>-9.1999998092651</ele>
        <time>2021-08-19T10:01:52.000Z</time>
      </trkpt>
      <trkpt lat="47.27549" lon="-2.32592">
        <ele>-9.8000001907349</ele>
        <time>2021-08-19T10:01:53.000Z</time>
      </trkpt>
      <trkpt lat="47.27549" lon="-2.32602">
        <ele>-9.8000001907349</ele>
        <time>2021-08-19T10:01:55.000Z</time>
      </trkpt>
      <trkpt lat="47.27546" lon="-2.32606">
        <ele>-9.8000001907349</ele>
        <time>2021-08-19T10:01:56.000Z</time>
      </trkpt>
      <trkpt lat="47.27527" lon="-2.32619">
        <ele>-9.8000001907349</ele>
        <time>2021-08-19T10:01:59.000Z</time>
      </trkpt>
      <trkpt lat="47.27521" lon="-2.32624">
        <ele>-9.8000001907349</ele>
        <time>2021-08-19T10:02:00.000Z</time>
      </trkpt>
      <trkpt lat="47.27514" lon="-2.32638">
        <ele>-9.8000001907349</ele>
        <time>2021-08-19T10:02:02.000Z</time>
      </trkpt>
      <trkpt lat="47.27508" lon="-2.32656">
        <ele>-9.8000001907349</ele>
        <time>2021-08-19T10:02:04.000Z</time>
      </trkpt>
      <trkpt lat="47.27494" lon="-2.32674">
        <ele>-9.8000001907349</ele>
        <time>2021-08-19T10:02:07.000Z</time>
      </trkpt>
      <trkpt lat="47.27473" lon="-2.32685">
        <ele>-9.8000001907349</ele>
        <time>2021-08-19T10:02:11.000Z</time>
      </trkpt>
      <trkpt lat="47.27461" lon="-2.32698">
        <ele>-9.8000001907349</ele>
        <time>2021-08-19T10:02:14.000Z</time>
      </trkpt>
      <trkpt lat="47.27457" lon="-2.32703">
        <ele>-9.8000001907349</ele>
        <time>2021-08-19T10:02:15.000Z</time>
      </trkpt>
      <trkpt lat="47.27454" lon="-2.32708">
        <ele>-9.8000001907349</ele>
        <time>2021-08-19T10:02:16.000Z</time>
      </trkpt>
      <trkpt lat="47.27446" lon="-2.32724">
        <ele>-9.8000001907349</ele>
        <time>2021-08-19T10:02:20.000Z</time>
      </trkpt>
      <trkpt lat="47.27444" lon="-2.32729">
        <ele>-9.3999996185303</ele>
        <time>2021-08-19T10:02:21.000Z</time>
      </trkpt>
      <trkpt lat="47.27442" lon="-2.32736">
        <ele>-9</ele>
        <time>2021-08-19T10:02:22.000Z</time>
      </trkpt>
      <trkpt lat="47.2744" lon="-2.32743">
        <ele>-8.6000003814697</ele>
        <time>2021-08-19T10:02:23.000Z</time>
      </trkpt>
      <trkpt lat="47.27438" lon="-2.32749">
        <ele>-8.1999998092651</ele>
        <time>2021-08-19T10:02:24.000Z</time>
      </trkpt>
      <trkpt lat="47.27437" lon="-2.32755">
        <ele>-7.8000001907349</ele>
        <time>2021-08-19T10:02:25.000Z</time>
      </trkpt>
      <trkpt lat="47.27432" lon="-2.32772">
        <ele>-7.4000000953674</ele>
        <time>2021-08-19T10:02:28.000Z</time>
      </trkpt>
      <trkpt lat="47.27431" lon="-2.32777">
        <ele>-7</ele>
        <time>2021-08-19T10:02:29.000Z</time>
      </trkpt>
      <trkpt lat="47.2743" lon="-2.32784">
        <ele>-6.5999999046326</ele>
        <time>2021-08-19T10:02:30.000Z</time>
      </trkpt>
      <trkpt lat="47.2743" lon="-2.3279">
        <ele>-6.1999998092651</ele>
        <time>2021-08-19T10:02:31.000Z</time>
      </trkpt>
      <trkpt lat="47.27429" lon="-2.32796">
        <ele>-5.8000001907349</ele>
        <time>2021-08-19T10:02:32.000Z</time>
      </trkpt>
      <trkpt lat="47.27428" lon="-2.32803">
        <ele>-5.8000001907349</ele>
        <time>2021-08-19T10:02:33.000Z</time>
      </trkpt>
      <trkpt lat="47.27425" lon="-2.32824">
        <ele>-5.8000001907349</ele>
        <time>2021-08-19T10:02:36.000Z</time>
      </trkpt>
      <trkpt lat="47.27421" lon="-2.32843">
        <ele>-5.8000001907349</ele>
        <time>2021-08-19T10:02:39.000Z</time>
      </trkpt>
      <trkpt lat="47.27419" lon="-2.32848">
        <ele>-5.4000000953674</ele>
        <time>2021-08-19T10:02:40.000Z</time>
      </trkpt>
      <trkpt lat="47.27418" lon="-2.32853">
        <ele>-4.8000001907349</ele>
        <time>2021-08-19T10:02:41.000Z</time>
      </trkpt>
      <trkpt lat="47.27416" lon="-2.32858">
        <ele>-4.4000000953674</ele>
        <time>2021-08-19T10:02:42.000Z</time>
      </trkpt>
      <trkpt lat="47.27414" lon="-2.32863">
        <ele>-4</ele>
        <time>2021-08-19T10:02:43.000Z</time>
      </trkpt>
      <trkpt lat="47.27413" lon="-2.32866">
        <ele>-3.5999999046326</ele>
        <time>2021-08-19T10:02:44.000Z</time>
      </trkpt>
      <trkpt lat="47.2741" lon="-2.32873">
        <ele>-3.5999999046326</ele>
        <time>2021-08-19T10:02:46.000Z</time>
      </trkpt>
      <trkpt lat="47.27401" lon="-2.32894">
        <ele>-3.5999999046326</ele>
        <time>2021-08-19T10:02:51.000Z</time>
      </trkpt>
      <trkpt lat="47.27394" lon="-2.3291">
        <ele>-3.5999999046326</ele>
        <time>2021-08-19T10:02:54.000Z</time>
      </trkpt>
      <trkpt lat="47.2739" lon="-2.32922">
        <ele>-3.2000000476837</ele>
        <time>2021-08-19T10:02:56.000Z</time>
      </trkpt>
      <trkpt lat="47.27388" lon="-2.32927">
        <ele>-2.7999999523163</ele>
        <time>2021-08-19T10:02:57.000Z</time>
      </trkpt>
      <trkpt lat="47.27385" lon="-2.32932">
        <ele>-2.4000000953674</ele>
        <time>2021-08-19T10:02:58.000Z</time>
      </trkpt>
      <trkpt lat="47.27382" lon="-2.32936">
        <ele>-2</ele>
        <time>2021-08-19T10:02:59.000Z</time>
      </trkpt>
      <trkpt lat="47.27379" lon="-2.32941">
        <ele>-1.6000000238419</ele>
        <time>2021-08-19T10:03:00.000Z</time>
      </trkpt>
      <trkpt lat="47.27374" lon="-2.32952">
        <ele>-1.6000000238419</ele>
        <time>2021-08-19T10:03:02.000Z</time>
      </trkpt>
      <trkpt lat="47.27366" lon="-2.32969">
        <ele>-1.6000000238419</ele>
        <time>2021-08-19T10:03:05.000Z</time>
      </trkpt>
      <trkpt lat="47.2735" lon="-2.33007">
        <ele>-1.2000000476837</ele>
        <time>2021-08-19T10:03:11.000Z</time>
      </trkpt>
      <trkpt lat="47.27347" lon="-2.33015">
        <ele>-0.80000001192093</ele>
        <time>2021-08-19T10:03:12.000Z</time>
      </trkpt>
      <trkpt lat="47.27345" lon="-2.33022">
        <ele>-0.40000000596046</ele>
        <time>2021-08-19T10:03:13.000Z</time>
      </trkpt>
      <trkpt lat="47.27343" lon="-2.3303">
        <ele>0.20000000298023</ele>
        <time>2021-08-19T10:03:14.000Z</time>
      </trkpt>
      <trkpt lat="47.2734" lon="-2.33037">
        <ele>0.60000002384186</ele>
        <time>2021-08-19T10:03:15.000Z</time>
      </trkpt>
      <trkpt lat="47.27331" lon="-2.33065">
        <ele>0.60000002384186</ele>
        <time>2021-08-19T10:03:19.000Z</time>
      </trkpt>
      <trkpt lat="47.27317" lon="-2.33101">
        <ele>0.60000002384186</ele>
        <time>2021-08-19T10:03:25.000Z</time>
      </trkpt>
      <trkpt lat="47.27311" lon="-2.3311">
        <ele>0.60000002384186</ele>
        <time>2021-08-19T10:03:27.000Z</time>
      </trkpt>
      <trkpt lat="47.27303" lon="-2.33112">
        <ele>0.60000002384186</ele>
        <time>2021-08-19T10:03:29.000Z</time>
      </trkpt>
      <trkpt lat="47.27291" lon="-2.33099">
        <ele>0.60000002384186</ele>
        <time>2021-08-19T10:03:32.000Z</time>
      </trkpt>
      <trkpt lat="47.27264" lon="-2.3306">
        <ele>0.60000002384186</ele>
        <time>2021-08-19T10:03:39.000Z</time>
      </trkpt>
      <trkpt lat="47.27233" lon="-2.33013">
        <ele>0.60000002384186</ele>
        <time>2021-08-19T10:03:46.000Z</time>
      </trkpt>
      <trkpt lat="47.27215" lon="-2.32985">
        <ele>0.60000002384186</ele>
        <time>2021-08-19T10:03:50.000Z</time>
      </trkpt>
      <trkpt lat="47.2721" lon="-2.32981">
        <ele>0.60000002384186</ele>
        <time>2021-08-19T10:03:51.000Z</time>
      </trkpt>
      <trkpt lat="47.27194" lon="-2.32986">
        <ele>0.60000002384186</ele>
        <time>2021-08-19T10:03:54.000Z</time>
      </trkpt>
      <trkpt lat="47.27189" lon="-2.3299">
        <ele>0.60000002384186</ele>
        <time>2021-08-19T10:03:55.000Z</time>
      </trkpt>
      <trkpt lat="47.2716" lon="-2.33014">
        <ele>0.60000002384186</ele>
        <time>2021-08-19T10:04:01.000Z</time>
      </trkpt>
      <trkpt lat="47.27114" lon="-2.3305">
        <ele>0.60000002384186</ele>
        <time>2021-08-19T10:04:10.000Z</time>
      </trkpt>
      <trkpt lat="47.27078" lon="-2.33083">
        <ele>0.60000002384186</ele>
        <time>2021-08-19T10:04:17.000Z</time>
      </trkpt>
      <trkpt lat="47.27049" lon="-2.33116">
        <ele>0.60000002384186</ele>
        <time>2021-08-19T10:04:23.000Z</time>
      </trkpt>
      <trkpt lat="47.27019" lon="-2.33147">
        <ele>0.60000002384186</ele>
        <time>2021-08-19T10:04:29.000Z</time>
      </trkpt>
      <trkpt lat="47.27004" lon="-2.33161">
        <ele>0.60000002384186</ele>
        <time>2021-08-19T10:04:32.000Z</time>
      </trkpt>
      <trkpt lat="47.26993" lon="-2.3317">
        <ele>0.60000002384186</ele>
        <time>2021-08-19T10:04:34.000Z</time>
      </trkpt>
      <trkpt lat="47.26963" lon="-2.33198">
        <ele>0.60000002384186</ele>
        <time>2021-08-19T10:04:40.000Z</time>
      </trkpt>
      <trkpt lat="47.26954" lon="-2.33207">
        <ele>0.60000002384186</ele>
        <time>2021-08-19T10:04:42.000Z</time>
      </trkpt>
      <trkpt lat="47.26938" lon="-2.33217">
        <ele>0.60000002384186</ele>
        <time>2021-08-19T10:04:45.000Z</time>
      </trkpt>
      <trkpt lat="47.26929" lon="-2.33225">
        <ele>0.60000002384186</ele>
        <time>2021-08-19T10:04:47.000Z</time>
      </trkpt>
      <trkpt lat="47.26926" lon="-2.33238">
        <ele>0.60000002384186</ele>
        <time>2021-08-19T10:04:49.000Z</time>
      </trkpt>
      <trkpt lat="47.26931" lon="-2.3326">
        <ele>0.60000002384186</ele>
        <time>2021-08-19T10:04:52.000Z</time>
      </trkpt>
      <trkpt lat="47.26933" lon="-2.33268">
        <ele>0.60000002384186</ele>
        <time>2021-08-19T10:04:53.000Z</time>
      </trkpt>
      <trkpt lat="47.26942" lon="-2.3329">
        <ele>0.60000002384186</ele>
        <time>2021-08-19T10:04:56.000Z</time>
      </trkpt>
      <trkpt lat="47.26954" lon="-2.33318">
        <ele>0.60000002384186</ele>
        <time>2021-08-19T10:05:00.000Z</time>
      </trkpt>
      <trkpt lat="47.2697" lon="-2.33367">
        <ele>0.60000002384186</ele>
        <time>2021-08-19T10:05:07.000Z</time>
      </trkpt>
      <trkpt lat="47.26969" lon="-2.33378">
        <ele>0.60000002384186</ele>
        <time>2021-08-19T10:05:09.000Z</time>
      </trkpt>
      <trkpt lat="47.26965" lon="-2.3338">
        <ele>0.60000002384186</ele>
        <time>2021-08-19T10:05:10.000Z</time>
      </trkpt>
      <trkpt lat="47.26938" lon="-2.33392">
        <ele>0.60000002384186</ele>
        <time>2021-08-19T10:05:15.000Z</time>
      </trkpt>
      <trkpt lat="47.26932" lon="-2.33395">
        <ele>0.60000002384186</ele>
        <time>2021-08-19T10:05:16.000Z</time>
      </trkpt>
      <trkpt lat="47.26908" lon="-2.33408">
        <ele>17</ele>
        <time>2021-08-19T10:05:20.000Z</time>
      </trkpt>
      <trkpt lat="47.26901" lon="-2.33411">
        <ele>-0.40000000596046</ele>
        <time>2021-08-19T10:05:21.000Z</time>
      </trkpt>
      <trkpt lat="47.26894" lon="-2.33413">
        <ele>-0.80000001192093</ele>
        <time>2021-08-19T10:05:22.000Z</time>
      </trkpt>
      <trkpt lat="47.26889" lon="-2.33416">
        <ele>-1.2000000476837</ele>
        <time>2021-08-19T10:05:23.000Z</time>
      </trkpt>
      <trkpt lat="47.26885" lon="-2.3342">
        <ele>-1.6000000238419</ele>
        <time>2021-08-19T10:05:24.000Z</time>
      </trkpt>
      <trkpt lat="47.26882" lon="-2.33425">
        <ele>-1.6000000238419</ele>
        <time>2021-08-19T10:05:25.000Z</time>
      </trkpt>
      <trkpt lat="47.2688" lon="-2.33431">
        <ele>-2.2000000476837</ele>
        <time>2021-08-19T10:05:26.000Z</time>
      </trkpt>
      <trkpt lat="47.26878" lon="-2.33438">
        <ele>-2.5999999046326</ele>
        <time>2021-08-19T10:05:27.000Z</time>
      </trkpt>
      <trkpt lat="47.26877" lon="-2.33447">
        <ele>-3</ele>
        <time>2021-08-19T10:05:28.000Z</time>
      </trkpt>
      <trkpt lat="47.26878" lon="-2.33456">
        <ele>-3.5999999046326</ele>
        <time>2021-08-19T10:05:29.000Z</time>
      </trkpt>
      <trkpt lat="47.26879" lon="-2.33467">
        <ele>-4.1999998092651</ele>
        <time>2021-08-19T10:05:30.000Z</time>
      </trkpt>
      <trkpt lat="47.26881" lon="-2.33478">
        <ele>-4.8000001907349</ele>
        <time>2021-08-19T10:05:31.000Z</time>
      </trkpt>
      <trkpt lat="47.26884" lon="-2.3349">
        <ele>-5.4000000953674</ele>
        <time>2021-08-19T10:05:32.000Z</time>
      </trkpt>
      <trkpt lat="47.26886" lon="-2.33502">
        <ele>-5.8000001907349</ele>
        <time>2021-08-19T10:05:33.000Z</time>
      </trkpt>
      <trkpt lat="47.26889" lon="-2.33512">
        <ele>-6.4000000953674</ele>
        <time>2021-08-19T10:05:34.000Z</time>
      </trkpt>
      <trkpt lat="47.26889" lon="-2.33521">
        <ele>-7</ele>
        <time>2021-08-19T10:05:35.000Z</time>
      </trkpt>
      <trkpt lat="47.26888" lon="-2.33528">
        <ele>-7.4000000953674</ele>
        <time>2021-08-19T10:05:36.000Z</time>
      </trkpt>
      <trkpt lat="47.26885" lon="-2.33533">
        <ele>-9.1999998092651</ele>
        <time>2021-08-19T10:05:37.000Z</time>
      </trkpt>
      <trkpt lat="47.2688" lon="-2.33536">
        <ele>-10</ele>
        <time>2021-08-19T10:05:38.000Z</time>
      </trkpt>
      <trkpt lat="47.26874" lon="-2.33538">
        <ele>-11</ele>
        <time>2021-08-19T10:05:39.000Z</time>
      </trkpt>
      <trkpt lat="47.26868" lon="-2.3354">
        <ele>-12</ele>
        <time>2021-08-19T10:05:40.000Z</time>
      </trkpt>
      <trkpt lat="47.26861" lon="-2.33541">
        <ele>-12.800000190735</ele>
        <time>2021-08-19T10:05:41.000Z</time>
      </trkpt>
      <trkpt lat="47.26855" lon="-2.33543">
        <ele>-13.800000190735</ele>
        <time>2021-08-19T10:05:42.000Z</time>
      </trkpt>
      <trkpt lat="47.26842" lon="-2.33547">
        <ele>-13.800000190735</ele>
        <time>2021-08-19T10:05:44.000Z</time>
      </trkpt>
      <trkpt lat="47.26803" lon="-2.33561">
        <ele>-13.800000190735</ele>
        <time>2021-08-19T10:05:50.000Z</time>
      </trkpt>
      <trkpt lat="47.26786" lon="-2.33569">
        <ele>-13.800000190735</ele>
        <time>2021-08-19T10:05:53.000Z</time>
      </trkpt>
      <trkpt lat="47.26782" lon="-2.33575">
        <ele>-13.800000190735</ele>
        <time>2021-08-19T10:05:54.000Z</time>
      </trkpt>
      <trkpt lat="47.2678" lon="-2.33592">
        <ele>-14.199999809265</ele>
        <time>2021-08-19T10:05:56.000Z</time>
      </trkpt>
      <trkpt lat="47.2678" lon="-2.336">
        <ele>-14.60000038147</ele>
        <time>2021-08-19T10:05:57.000Z</time>
      </trkpt>
      <trkpt lat="47.2678" lon="-2.33609">
        <ele>-15.199999809265</ele>
        <time>2021-08-19T10:05:58.000Z</time>
      </trkpt>
      <trkpt lat="47.2678" lon="-2.33618">
        <ele>-15.60000038147</ele>
        <time>2021-08-19T10:05:59.000Z</time>
      </trkpt>
      <trkpt lat="47.2678" lon="-2.33627">
        <ele>-16</ele>
        <time>2021-08-19T10:06:00.000Z</time>
      </trkpt>
      <trkpt lat="47.2678" lon="-2.33645">
        <ele>-16</ele>
        <time>2021-08-19T10:06:02.000Z</time>
      </trkpt>
      <trkpt lat="47.26779" lon="-2.33654">
        <ele>-16</ele>
        <time>2021-08-19T10:06:03.000Z</time>
      </trkpt>
      <trkpt lat="47.26779" lon="-2.33663">
        <ele>-16</ele>
        <time>2021-08-19T10:06:04.000Z</time>
      </trkpt>
      <trkpt lat="47.2678" lon="-2.33686">
        <ele>-15.60000038147</ele>
        <time>2021-08-19T10:06:07.000Z</time>
      </trkpt>
      <trkpt lat="47.26781" lon="-2.33693">
        <ele>-15.199999809265</ele>
        <time>2021-08-19T10:06:08.000Z</time>
      </trkpt>
      <trkpt lat="47.26782" lon="-2.33699">
        <ele>-14.800000190735</ele>
        <time>2021-08-19T10:06:09.000Z</time>
      </trkpt>
      <trkpt lat="47.26784" lon="-2.33705">
        <ele>-14.199999809265</ele>
        <time>2021-08-19T10:06:10.000Z</time>
      </trkpt>
      <trkpt lat="47.26787" lon="-2.33709">
        <ele>-13.800000190735</ele>
        <time>2021-08-19T10:06:11.000Z</time>
      </trkpt>
      <trkpt lat="47.26791" lon="-2.33714">
        <ele>-13.800000190735</ele>
        <time>2021-08-19T10:06:12.000Z</time>
      </trkpt>
      <trkpt lat="47.26824" lon="-2.3375">
        <ele>-13.800000190735</ele>
        <time>2021-08-19T10:06:20.000Z</time>
      </trkpt>
      <trkpt lat="47.26846" lon="-2.33784">
        <ele>-13.800000190735</ele>
        <time>2021-08-19T10:06:26.000Z</time>
      </trkpt>
      <trkpt lat="47.26853" lon="-2.33811">
        <ele>-13.800000190735</ele>
        <time>2021-08-19T10:06:30.000Z</time>
      </trkpt>
      <trkpt lat="47.26855" lon="-2.33818">
        <ele>-13.800000190735</ele>
        <time>2021-08-19T10:06:31.000Z</time>
      </trkpt>
      <trkpt lat="47.26867" lon="-2.33864">
        <ele>-13.800000190735</ele>
        <time>2021-08-19T10:06:38.000Z</time>
      </trkpt>
      <trkpt lat="47.2688" lon="-2.33915">
        <ele>-13.800000190735</ele>
        <time>2021-08-19T10:06:46.000Z</time>
      </trkpt>
      <trkpt lat="47.26891" lon="-2.33951">
        <ele>-13.800000190735</ele>
        <time>2021-08-19T10:06:52.000Z</time>
      </trkpt>
      <trkpt lat="47.26896" lon="-2.3397">
        <ele>-13.800000190735</ele>
        <time>2021-08-19T10:06:57.000Z</time>
      </trkpt>
      <trkpt lat="47.26896" lon="-2.3397">
        <ele>-13.800000190735</ele>
        <time>2021-08-19T10:07:01.000Z</time>
      </trkpt>
      <trkpt lat="47.26891" lon="-2.3396">
        <ele>-11.800000190735</ele>
        <time>2021-08-19T10:54:13.000Z</time>
      </trkpt>
      <trkpt lat="47.26885" lon="-2.3394">
        <ele>-11.800000190735</ele>
        <time>2021-08-19T10:54:18.000Z</time>
      </trkpt>
      <trkpt lat="47.26875" lon="-2.33908">
        <ele>-11.800000190735</ele>
        <time>2021-08-19T10:54:23.000Z</time>
      </trkpt>
      <trkpt lat="47.2686" lon="-2.33858">
        <ele>-11.800000190735</ele>
        <time>2021-08-19T10:54:30.000Z</time>
      </trkpt>
      <trkpt lat="47.26848" lon="-2.33811">
        <ele>-11.800000190735</ele>
        <time>2021-08-19T10:54:37.000Z</time>
      </trkpt>
      <trkpt lat="47.26834" lon="-2.33768">
        <ele>-11.800000190735</ele>
        <time>2021-08-19T10:54:44.000Z</time>
      </trkpt>
      <trkpt lat="47.26819" lon="-2.3375">
        <ele>-11.800000190735</ele>
        <time>2021-08-19T10:54:48.000Z</time>
      </trkpt>
      <trkpt lat="47.26816" lon="-2.33746">
        <ele>-11.800000190735</ele>
        <time>2021-08-19T10:54:49.000Z</time>
      </trkpt>
      <trkpt lat="47.26792" lon="-2.33719">
        <ele>-11.800000190735</ele>
        <time>2021-08-19T10:54:56.000Z</time>
      </trkpt>
      <trkpt lat="47.26788" lon="-2.33716">
        <ele>-11.800000190735</ele>
        <time>2021-08-19T10:54:57.000Z</time>
      </trkpt>
      <trkpt lat="47.26766" lon="-2.33705">
        <ele>-11.800000190735</ele>
        <time>2021-08-19T10:55:02.000Z</time>
      </trkpt>
      <trkpt lat="47.26745" lon="-2.33701">
        <ele>-11.800000190735</ele>
        <time>2021-08-19T10:55:07.000Z</time>
      </trkpt>
      <trkpt lat="47.26717" lon="-2.33699">
        <ele>-11.800000190735</ele>
        <time>2021-08-19T10:55:13.000Z</time>
      </trkpt>
      <trkpt lat="47.26692" lon="-2.337">
        <ele>-11.800000190735</ele>
        <time>2021-08-19T10:55:19.000Z</time>
      </trkpt>
      <trkpt lat="47.26688" lon="-2.33701">
        <ele>-11.800000190735</ele>
        <time>2021-08-19T10:55:20.000Z</time>
      </trkpt>
      <trkpt lat="47.26665" lon="-2.33703">
        <ele>-11.800000190735</ele>
        <time>2021-08-19T10:55:26.000Z</time>
      </trkpt>
      <trkpt lat="47.26654" lon="-2.33701">
        <ele>-11.800000190735</ele>
        <time>2021-08-19T10:55:29.000Z</time>
      </trkpt>
      <trkpt lat="47.26641" lon="-2.33702">
        <ele>-11.800000190735</ele>
        <time>2021-08-19T10:55:32.000Z</time>
      </trkpt>
      <trkpt lat="47.26615" lon="-2.33704">
        <ele>-11.800000190735</ele>
        <time>2021-08-19T10:55:38.000Z</time>
      </trkpt>
      <trkpt lat="47.26612" lon="-2.33707">
        <ele>-11.800000190735</ele>
        <time>2021-08-19T10:55:39.000Z</time>
      </trkpt>
      <trkpt lat="47.26602" lon="-2.3371">
        <ele>-11.800000190735</ele>
        <time>2021-08-19T10:55:43.000Z</time>
      </trkpt>
      <trkpt lat="47.26596" lon="-2.33704">
        <ele>-11.800000190735</ele>
        <time>2021-08-19T10:55:45.000Z</time>
      </trkpt>
      <trkpt lat="47.26585" lon="-2.33695">
        <ele>-11.800000190735</ele>
        <time>2021-08-19T10:55:48.000Z</time>
      </trkpt>
      <trkpt lat="47.26581" lon="-2.33694">
        <ele>-11.800000190735</ele>
        <time>2021-08-19T10:55:49.000Z</time>
      </trkpt>
      <trkpt lat="47.2657" lon="-2.33686">
        <ele>-11.800000190735</ele>
        <time>2021-08-19T10:55:52.000Z</time>
      </trkpt>
      <trkpt lat="47.2657" lon="-2.33664">
        <ele>-11.800000190735</ele>
        <time>2021-08-19T10:55:55.000Z</time>
      </trkpt>
      <trkpt lat="47.2657" lon="-2.33655">
        <ele>-11.800000190735</ele>
        <time>2021-08-19T10:55:56.000Z</time>
      </trkpt>
      <trkpt lat="47.26567" lon="-2.33629">
        <ele>-11.800000190735</ele>
        <time>2021-08-19T10:55:59.000Z</time>
      </trkpt>
      <trkpt lat="47.26562" lon="-2.33592">
        <ele>-12.199999809265</ele>
        <time>2021-08-19T10:56:03.000Z</time>
      </trkpt>
      <trkpt lat="47.26561" lon="-2.33583">
        <ele>-12.60000038147</ele>
        <time>2021-08-19T10:56:04.000Z</time>
      </trkpt>
      <trkpt lat="47.2656" lon="-2.33574">
        <ele>-13</ele>
        <time>2021-08-19T10:56:05.000Z</time>
      </trkpt>
      <trkpt lat="47.26559" lon="-2.33565">
        <ele>-13.39999961853</ele>
        <time>2021-08-19T10:56:06.000Z</time>
      </trkpt>
      <trkpt lat="47.26557" lon="-2.33557">
        <ele>-13.800000190735</ele>
        <time>2021-08-19T10:56:07.000Z</time>
      </trkpt>
      <trkpt lat="47.26554" lon="-2.3354">
        <ele>-13.800000190735</ele>
        <time>2021-08-19T10:56:09.000Z</time>
      </trkpt>
      <trkpt lat="47.26546" lon="-2.33506">
        <ele>-13.800000190735</ele>
        <time>2021-08-19T10:56:13.000Z</time>
      </trkpt>
      <trkpt lat="47.26538" lon="-2.33483">
        <ele>-13.800000190735</ele>
        <time>2021-08-19T10:56:16.000Z</time>
      </trkpt>
      <trkpt lat="47.26535" lon="-2.33467">
        <ele>-13.800000190735</ele>
        <time>2021-08-19T10:56:18.000Z</time>
      </trkpt>
      <trkpt lat="47.26528" lon="-2.33416">
        <ele>-13.800000190735</ele>
        <time>2021-08-19T10:56:24.000Z</time>
      </trkpt>
      <trkpt lat="47.26526" lon="-2.334">
        <ele>-13.800000190735</ele>
        <time>2021-08-19T10:56:26.000Z</time>
      </trkpt>
      <trkpt lat="47.26521" lon="-2.33367">
        <ele>-13.800000190735</ele>
        <time>2021-08-19T10:56:30.000Z</time>
      </trkpt>
      <trkpt lat="47.26514" lon="-2.33355">
        <ele>-14.199999809265</ele>
        <time>2021-08-19T10:56:32.000Z</time>
      </trkpt>
      <trkpt lat="47.2651" lon="-2.33352">
        <ele>-14.60000038147</ele>
        <time>2021-08-19T10:56:33.000Z</time>
      </trkpt>
      <trkpt lat="47.26505" lon="-2.3335">
        <ele>-15.199999809265</ele>
        <time>2021-08-19T10:56:34.000Z</time>
      </trkpt>
      <trkpt lat="47.265" lon="-2.33348">
        <ele>-15.60000038147</ele>
        <time>2021-08-19T10:56:35.000Z</time>
      </trkpt>
      <trkpt lat="47.26496" lon="-2.33347">
        <ele>-16</ele>
        <time>2021-08-19T10:56:36.000Z</time>
      </trkpt>
      <trkpt lat="47.26481" lon="-2.33335">
        <ele>-16</ele>
        <time>2021-08-19T10:56:40.000Z</time>
      </trkpt>
      <trkpt lat="47.26478" lon="-2.33329">
        <ele>-16</ele>
        <time>2021-08-19T10:56:41.000Z</time>
      </trkpt>
      <trkpt lat="47.26474" lon="-2.33317">
        <ele>-16</ele>
        <time>2021-08-19T10:56:43.000Z</time>
      </trkpt>
      <trkpt lat="47.26474" lon="-2.33302">
        <ele>-16</ele>
        <time>2021-08-19T10:56:45.000Z</time>
      </trkpt>
      <trkpt lat="47.26472" lon="-2.33276">
        <ele>-16</ele>
        <time>2021-08-19T10:56:49.000Z</time>
      </trkpt>
      <trkpt lat="47.26456" lon="-2.33272">
        <ele>-16</ele>
        <time>2021-08-19T10:56:52.000Z</time>
      </trkpt>
      <trkpt lat="47.26417" lon="-2.33268">
        <ele>-16</ele>
        <time>2021-08-19T10:56:59.000Z</time>
      </trkpt>
      <trkpt lat="47.26391" lon="-2.33264">
        <ele>-16</ele>
        <time>2021-08-19T10:57:04.000Z</time>
      </trkpt>
      <trkpt lat="47.26381" lon="-2.33256">
        <ele>-16</ele>
        <time>2021-08-19T10:57:06.000Z</time>
      </trkpt>
      <trkpt lat="47.26376" lon="-2.33234">
        <ele>-16</ele>
        <time>2021-08-19T10:57:09.000Z</time>
      </trkpt>
      <trkpt lat="47.26375" lon="-2.33209">
        <ele>-16</ele>
        <time>2021-08-19T10:57:12.000Z</time>
      </trkpt>
      <trkpt lat="47.26373" lon="-2.33176">
        <ele>-16</ele>
        <time>2021-08-19T10:57:16.000Z</time>
      </trkpt>
      <trkpt lat="47.26371" lon="-2.33118">
        <ele>-16</ele>
        <time>2021-08-19T10:57:23.000Z</time>
      </trkpt>
      <trkpt lat="47.26367" lon="-2.33069">
        <ele>-16</ele>
        <time>2021-08-19T10:57:29.000Z</time>
      </trkpt>
      <trkpt lat="47.26364" lon="-2.32996">
        <ele>-16</ele>
        <time>2021-08-19T10:57:38.000Z</time>
      </trkpt>
      <trkpt lat="47.26361" lon="-2.32982">
        <ele>-16</ele>
        <time>2021-08-19T10:57:40.000Z</time>
      </trkpt>
      <trkpt lat="47.26351" lon="-2.32973">
        <ele>-16</ele>
        <time>2021-08-19T10:57:42.000Z</time>
      </trkpt>
      <trkpt lat="47.26343" lon="-2.32961">
        <ele>-16</ele>
        <time>2021-08-19T10:57:44.000Z</time>
      </trkpt>
      <trkpt lat="47.26338" lon="-2.32944">
        <ele>-16</ele>
        <time>2021-08-19T10:57:46.000Z</time>
      </trkpt>
      <trkpt lat="47.26322" lon="-2.32894">
        <ele>-16</ele>
        <time>2021-08-19T10:57:53.000Z</time>
      </trkpt>
      <trkpt lat="47.26311" lon="-2.32867">
        <ele>-16</ele>
        <time>2021-08-19T10:57:57.000Z</time>
      </trkpt>
      <trkpt lat="47.26302" lon="-2.32862">
        <ele>-16</ele>
        <time>2021-08-19T10:57:59.000Z</time>
      </trkpt>
      <trkpt lat="47.26292" lon="-2.32858">
        <ele>-16</ele>
        <time>2021-08-19T10:58:01.000Z</time>
      </trkpt>
      <trkpt lat="47.26287" lon="-2.32854">
        <ele>-16</ele>
        <time>2021-08-19T10:58:02.000Z</time>
      </trkpt>
      <trkpt lat="47.26281" lon="-2.32841">
        <ele>-16</ele>
        <time>2021-08-19T10:58:04.000Z</time>
      </trkpt>
      <trkpt lat="47.26276" lon="-2.32817">
        <ele>-16</ele>
        <time>2021-08-19T10:58:07.000Z</time>
      </trkpt>
      <trkpt lat="47.26273" lon="-2.32809">
        <ele>-16</ele>
        <time>2021-08-19T10:58:08.000Z</time>
      </trkpt>
      <trkpt lat="47.26253" lon="-2.32763">
        <ele>-16</ele>
        <time>2021-08-19T10:58:15.000Z</time>
      </trkpt>
      <trkpt lat="47.26236" lon="-2.32735">
        <ele>-16</ele>
        <time>2021-08-19T10:58:20.000Z</time>
      </trkpt>
      <trkpt lat="47.26229" lon="-2.32725">
        <ele>-16</ele>
        <time>2021-08-19T10:58:22.000Z</time>
      </trkpt>
      <trkpt lat="47.2621" lon="-2.32697">
        <ele>-16</ele>
        <time>2021-08-19T10:58:28.000Z</time>
      </trkpt>
      <trkpt lat="47.26184" lon="-2.32667">
        <ele>-16</ele>
        <time>2021-08-19T10:58:35.000Z</time>
      </trkpt>
      <trkpt lat="47.2617" lon="-2.32655">
        <ele>-16</ele>
        <time>2021-08-19T10:58:38.000Z</time>
      </trkpt>
      <trkpt lat="47.26154" lon="-2.32646">
        <ele>-16</ele>
        <time>2021-08-19T10:58:41.000Z</time>
      </trkpt>
      <trkpt lat="47.26149" lon="-2.32644">
        <ele>-15.60000038147</ele>
        <time>2021-08-19T10:58:42.000Z</time>
      </trkpt>
      <trkpt lat="47.26143" lon="-2.32642">
        <ele>-15.199999809265</ele>
        <time>2021-08-19T10:58:43.000Z</time>
      </trkpt>
      <trkpt lat="47.26138" lon="-2.3264">
        <ele>-14.800000190735</ele>
        <time>2021-08-19T10:58:44.000Z</time>
      </trkpt>
      <trkpt lat="47.26132" lon="-2.32639">
        <ele>-14.39999961853</ele>
        <time>2021-08-19T10:58:45.000Z</time>
      </trkpt>
      <trkpt lat="47.26126" lon="-2.32638">
        <ele>-14</ele>
        <time>2021-08-19T10:58:46.000Z</time>
      </trkpt>
      <trkpt lat="47.26116" lon="-2.32637">
        <ele>-14</ele>
        <time>2021-08-19T10:58:48.000Z</time>
      </trkpt>
      <trkpt lat="47.2607" lon="-2.32642">
        <ele>-14</ele>
        <time>2021-08-19T10:58:56.000Z</time>
      </trkpt>
      <trkpt lat="47.26033" lon="-2.32649">
        <ele>-14</ele>
        <time>2021-08-19T10:59:03.000Z</time>
      </trkpt>
      <trkpt lat="47.26022" lon="-2.3265">
        <ele>-14</ele>
        <time>2021-08-19T10:59:05.000Z</time>
      </trkpt>
      <trkpt lat="47.25989" lon="-2.32656">
        <ele>-14.39999961853</ele>
        <time>2021-08-19T10:59:11.000Z</time>
      </trkpt>
      <trkpt lat="47.25984" lon="-2.32657">
        <ele>-14.800000190735</ele>
        <time>2021-08-19T10:59:12.000Z</time>
      </trkpt>
      <trkpt lat="47.25979" lon="-2.32657">
        <ele>-15.199999809265</ele>
        <time>2021-08-19T10:59:13.000Z</time>
      </trkpt>
      <trkpt lat="47.25973" lon="-2.32655">
        <ele>-15.60000038147</ele>
        <time>2021-08-19T10:59:14.000Z</time>
      </trkpt>
      <trkpt lat="47.25968" lon="-2.32654">
        <ele>-16</ele>
        <time>2021-08-19T10:59:15.000Z</time>
      </trkpt>
      <trkpt lat="47.25963" lon="-2.32655">
        <ele>-16</ele>
        <time>2021-08-19T10:59:16.000Z</time>
      </trkpt>
      <trkpt lat="47.25958" lon="-2.32655">
        <ele>-16</ele>
        <time>2021-08-19T10:59:17.000Z</time>
      </trkpt>
      <trkpt lat="47.25945" lon="-2.32648">
        <ele>-16</ele>
        <time>2021-08-19T10:59:20.000Z</time>
      </trkpt>
      <trkpt lat="47.25941" lon="-2.32644">
        <ele>-16</ele>
        <time>2021-08-19T10:59:21.000Z</time>
      </trkpt>
      <trkpt lat="47.25934" lon="-2.32634">
        <ele>-16</ele>
        <time>2021-08-19T10:59:23.000Z</time>
      </trkpt>
      <trkpt lat="47.25919" lon="-2.32612">
        <ele>-16</ele>
        <time>2021-08-19T10:59:27.000Z</time>
      </trkpt>
      <trkpt lat="47.25896" lon="-2.32585">
        <ele>-16</ele>
        <time>2021-08-19T10:59:33.000Z</time>
      </trkpt>
      <trkpt lat="47.25878" lon="-2.32572">
        <ele>-16</ele>
        <time>2021-08-19T10:59:37.000Z</time>
      </trkpt>
      <trkpt lat="47.25875" lon="-2.32567">
        <ele>-16</ele>
        <time>2021-08-19T10:59:38.000Z</time>
      </trkpt>
      <trkpt lat="47.25864" lon="-2.32552">
        <ele>-16</ele>
        <time>2021-08-19T10:59:41.000Z</time>
      </trkpt>
      <trkpt lat="47.25853" lon="-2.32538">
        <ele>-16</ele>
        <time>2021-08-19T10:59:44.000Z</time>
      </trkpt>
      <trkpt lat="47.25846" lon="-2.3253">
        <ele>-16</ele>
        <time>2021-08-19T10:59:46.000Z</time>
      </trkpt>
      <trkpt lat="47.25843" lon="-2.32524">
        <ele>-16</ele>
        <time>2021-08-19T10:59:47.000Z</time>
      </trkpt>
      <trkpt lat="47.25833" lon="-2.32511">
        <ele>-16</ele>
        <time>2021-08-19T10:59:50.000Z</time>
      </trkpt>
      <trkpt lat="47.25829" lon="-2.32503">
        <ele>-16</ele>
        <time>2021-08-19T10:59:52.000Z</time>
      </trkpt>
      <trkpt lat="47.25823" lon="-2.32492">
        <ele>-16</ele>
        <time>2021-08-19T10:59:55.000Z</time>
      </trkpt>
      <trkpt lat="47.25825" lon="-2.32484">
        <ele>-16</ele>
        <time>2021-08-19T10:59:57.000Z</time>
      </trkpt>
      <trkpt lat="47.25833" lon="-2.32483">
        <ele>-16</ele>
        <time>2021-08-19T11:00:00.000Z</time>
      </trkpt>
      <trkpt lat="47.25837" lon="-2.32483">
        <ele>-16</ele>
        <time>2021-08-19T11:00:01.000Z</time>
      </trkpt>
      <trkpt lat="47.25852" lon="-2.32484">
        <ele>-16</ele>
        <time>2021-08-19T11:00:04.000Z</time>
      </trkpt>
      <trkpt lat="47.25858" lon="-2.32485">
        <ele>-16</ele>
        <time>2021-08-19T11:00:05.000Z</time>
      </trkpt>
      <trkpt lat="47.25873" lon="-2.32488">
        <ele>-16</ele>
        <time>2021-08-19T11:00:08.000Z</time>
      </trkpt>
      <trkpt lat="47.25878" lon="-2.32488">
        <ele>-16</ele>
        <time>2021-08-19T11:00:09.000Z</time>
      </trkpt>
      <trkpt lat="47.25888" lon="-2.32476">
        <ele>-16</ele>
        <time>2021-08-19T11:00:12.000Z</time>
      </trkpt>
      <trkpt lat="47.25896" lon="-2.32456">
        <ele>-16</ele>
        <time>2021-08-19T11:00:16.000Z</time>
      </trkpt>
      <trkpt lat="47.25905" lon="-2.32446">
        <ele>-16</ele>
        <time>2021-08-19T11:00:18.000Z</time>
      </trkpt>
      <trkpt lat="47.25914" lon="-2.32436">
        <ele>-16</ele>
        <time>2021-08-19T11:00:20.000Z</time>
      </trkpt>
      <trkpt lat="47.25952" lon="-2.32387">
        <ele>-16</ele>
        <time>2021-08-19T11:00:28.000Z</time>
      </trkpt>
      <trkpt lat="47.25991" lon="-2.32339">
        <ele>-16</ele>
        <time>2021-08-19T11:00:36.000Z</time>
      </trkpt>
      <trkpt lat="47.26023" lon="-2.32299">
        <ele>-16</ele>
        <time>2021-08-19T11:00:43.000Z</time>
      </trkpt>
      <trkpt lat="47.26062" lon="-2.32254">
        <ele>-16</ele>
        <time>2021-08-19T11:00:51.000Z</time>
      </trkpt>
      <trkpt lat="47.26093" lon="-2.32214">
        <ele>-16</ele>
        <time>2021-08-19T11:00:58.000Z</time>
      </trkpt>
      <trkpt lat="47.26104" lon="-2.32195">
        <ele>-16</ele>
        <time>2021-08-19T11:01:01.000Z</time>
      </trkpt>
      <trkpt lat="47.2611" lon="-2.3218">
        <ele>-16</ele>
        <time>2021-08-19T11:01:03.000Z</time>
      </trkpt>
      <trkpt lat="47.26128" lon="-2.32126">
        <ele>-16</ele>
        <time>2021-08-19T11:01:10.000Z</time>
      </trkpt>
      <trkpt lat="47.26142" lon="-2.32078">
        <ele>-16</ele>
        <time>2021-08-19T11:01:16.000Z</time>
      </trkpt>
      <trkpt lat="47.26156" lon="-2.32033">
        <ele>-16</ele>
        <time>2021-08-19T11:01:22.000Z</time>
      </trkpt>
      <trkpt lat="47.26159" lon="-2.32026">
        <ele>-16</ele>
        <time>2021-08-19T11:01:23.000Z</time>
      </trkpt>
      <trkpt lat="47.26166" lon="-2.32018">
        <ele>-16</ele>
        <time>2021-08-19T11:01:25.000Z</time>
      </trkpt>
      <trkpt lat="47.26178" lon="-2.3202">
        <ele>-16</ele>
        <time>2021-08-19T11:01:28.000Z</time>
      </trkpt>
      <trkpt lat="47.26181" lon="-2.32021">
        <ele>-16</ele>
        <time>2021-08-19T11:01:29.000Z</time>
      </trkpt>
      <trkpt lat="47.26187" lon="-2.32024">
        <ele>-16</ele>
        <time>2021-08-19T11:01:32.000Z</time>
      </trkpt>
      <trkpt lat="47.26191" lon="-2.32024">
        <ele>-16</ele>
        <time>2021-08-19T11:01:34.000Z</time>
      </trkpt>
      <trkpt lat="47.26193" lon="-2.3202">
        <ele>-16</ele>
        <time>2021-08-19T11:01:36.000Z</time>
      </trkpt>
      <trkpt lat="47.26195" lon="-2.3201">
        <ele>-16</ele>
        <time>2021-08-19T11:01:39.000Z</time>
      </trkpt>
      <trkpt lat="47.26198" lon="-2.31998">
        <ele>-16</ele>
        <time>2021-08-19T11:01:42.000Z</time>
      </trkpt>
      <trkpt lat="47.26215" lon="-2.31978">
        <ele>-16</ele>
        <time>2021-08-19T11:01:47.000Z</time>
      </trkpt>
      <trkpt lat="47.26228" lon="-2.3197">
        <ele>-16</ele>
        <time>2021-08-19T11:01:51.000Z</time>
      </trkpt>
      <trkpt lat="47.26231" lon="-2.31964">
        <ele>-16</ele>
        <time>2021-08-19T11:01:52.000Z</time>
      </trkpt>
      <trkpt lat="47.26236" lon="-2.31953">
        <ele>-16</ele>
        <time>2021-08-19T11:01:54.000Z</time>
      </trkpt>
      <trkpt lat="47.26239" lon="-2.31948">
        <ele>-16</ele>
        <time>2021-08-19T11:01:55.000Z</time>
      </trkpt>
      <trkpt lat="47.2626" lon="-2.31918">
        <ele>-16</ele>
        <time>2021-08-19T11:02:01.000Z</time>
      </trkpt>
      <trkpt lat="47.26286" lon="-2.3189">
        <ele>-16</ele>
        <time>2021-08-19T11:02:08.000Z</time>
      </trkpt>
      <trkpt lat="47.26294" lon="-2.31865">
        <ele>-16</ele>
        <time>2021-08-19T11:02:12.000Z</time>
      </trkpt>
      <trkpt lat="47.26295" lon="-2.31859">
        <ele>-16</ele>
        <time>2021-08-19T11:02:13.000Z</time>
      </trkpt>
      <trkpt lat="47.26301" lon="-2.31813">
        <ele>-16</ele>
        <time>2021-08-19T11:02:20.000Z</time>
      </trkpt>
      <trkpt lat="47.26303" lon="-2.31792">
        <ele>-16</ele>
        <time>2021-08-19T11:02:23.000Z</time>
      </trkpt>
      <trkpt lat="47.26303" lon="-2.31777">
        <ele>-16</ele>
        <time>2021-08-19T11:02:25.000Z</time>
      </trkpt>
      <trkpt lat="47.26299" lon="-2.31733">
        <ele>-16</ele>
        <time>2021-08-19T11:02:31.000Z</time>
      </trkpt>
      <trkpt lat="47.26306" lon="-2.31713">
        <ele>-16</ele>
        <time>2021-08-19T11:02:34.000Z</time>
      </trkpt>
      <trkpt lat="47.26313" lon="-2.31708">
        <ele>-16</ele>
        <time>2021-08-19T11:02:36.000Z</time>
      </trkpt>
      <trkpt lat="47.26316" lon="-2.31706">
        <ele>-16</ele>
        <time>2021-08-19T11:02:37.000Z</time>
      </trkpt>
      <trkpt lat="47.26328" lon="-2.31698">
        <ele>-16</ele>
        <time>2021-08-19T11:02:40.000Z</time>
      </trkpt>
      <trkpt lat="47.2633" lon="-2.31694">
        <ele>-16</ele>
        <time>2021-08-19T11:02:41.000Z</time>
      </trkpt>
      <trkpt lat="47.26337" lon="-2.31683">
        <ele>-16</ele>
        <time>2021-08-19T11:02:44.000Z</time>
      </trkpt>
      <trkpt lat="47.26341" lon="-2.31681">
        <ele>-15.60000038147</ele>
        <time>2021-08-19T11:02:45.000Z</time>
      </trkpt>
      <trkpt lat="47.26344" lon="-2.31679">
        <ele>-15</ele>
        <time>2021-08-19T11:02:46.000Z</time>
      </trkpt>
      <trkpt lat="47.26347" lon="-2.31677">
        <ele>-14.60000038147</ele>
        <time>2021-08-19T11:02:47.000Z</time>
      </trkpt>
      <trkpt lat="47.2635" lon="-2.31675">
        <ele>-14.199999809265</ele>
        <time>2021-08-19T11:02:48.000Z</time>
      </trkpt>
      <trkpt lat="47.26354" lon="-2.31674">
        <ele>-13.60000038147</ele>
        <time>2021-08-19T11:02:49.000Z</time>
      </trkpt>
      <trkpt lat="47.26357" lon="-2.31672">
        <ele>-13.60000038147</ele>
        <time>2021-08-19T11:02:50.000Z</time>
      </trkpt>
      <trkpt lat="47.26381" lon="-2.31662">
        <ele>-13.60000038147</ele>
        <time>2021-08-19T11:02:56.000Z</time>
      </trkpt>
      <trkpt lat="47.26399" lon="-2.31654">
        <ele>-13.60000038147</ele>
        <time>2021-08-19T11:03:01.000Z</time>
      </trkpt>
      <trkpt lat="47.26411" lon="-2.31643">
        <ele>-13.60000038147</ele>
        <time>2021-08-19T11:03:05.000Z</time>
      </trkpt>
      <trkpt lat="47.26411" lon="-2.31629">
        <ele>-13.199999809265</ele>
        <time>2021-08-19T11:03:08.000Z</time>
      </trkpt>
      <trkpt lat="47.2641" lon="-2.31624">
        <ele>-12.800000190735</ele>
        <time>2021-08-19T11:03:09.000Z</time>
      </trkpt>
      <trkpt lat="47.2641" lon="-2.31619">
        <ele>-12.39999961853</ele>
        <time>2021-08-19T11:03:10.000Z</time>
      </trkpt>
      <trkpt lat="47.2641" lon="-2.31613">
        <ele>-12</ele>
        <time>2021-08-19T11:03:11.000Z</time>
      </trkpt>
      <trkpt lat="47.2641" lon="-2.31608">
        <ele>-11.60000038147</ele>
        <time>2021-08-19T11:03:12.000Z</time>
      </trkpt>
      <trkpt lat="47.26409" lon="-2.31592">
        <ele>-11.60000038147</ele>
        <time>2021-08-19T11:03:15.000Z</time>
      </trkpt>
      <trkpt lat="47.2641" lon="-2.31569">
        <ele>-11.60000038147</ele>
        <time>2021-08-19T11:03:20.000Z</time>
      </trkpt>
      <trkpt lat="47.26411" lon="-2.31553">
        <ele>-11.60000038147</ele>
        <time>2021-08-19T11:03:24.000Z</time>
      </trkpt>
      <trkpt lat="47.26413" lon="-2.31551">
        <ele>-11.60000038147</ele>
        <time>2021-08-19T11:03:25.000Z</time>
      </trkpt>
      <trkpt lat="47.26418" lon="-2.31551">
        <ele>-11.60000038147</ele>
        <time>2021-08-19T11:03:29.000Z</time>
      </trkpt>
    </trkseg>
  </trk>
</gpx>